MPMG - Transparência

Contra-cheque - Remuneração de todos os servidores ativos - Pré Resolução CNMP 200/2019

Período: 2020 - Abril

Ordem Matrícula Nome Cargo Efetivo Situação Unidade Administrativa Rendimentos Descontos Rendimento Líquido Total Indenizações Outras Remunerações Retroativas/Temporárias Data de Referência
Remuneração Básica Remuneração Eventual ou Temporária Total de Rendimentos Brutos Obrigatórios/Legais Total de Descontos
Remuneração do Cargo Efetivo Outras Verbas Remuneratórias Função de Confiança ou Cargo em Comissão Gratificação Natalina Férias Abono de Permanência Contribuição Previdenciária Imposto de Renda Retenção por Teto Constitucional
1 498900 ABDON MARCIO BARBOSA DA SILVA OFICIAL DO MP ATIVO ABRE CAMPO - COMARCA; ABRE CAMPO-PJ-01PJ 5.562,64 556,26 0,00 0,00 0,00 0,00 6.118,90 673,08 523,97 0,00 1.197,05 4.921,85 1.550,00 418,90 30/04/2020
2 177800 ADALBERTO MENEZES FARIA SAMORA OFICIAL DO MP ATIVO BELO HORIZONTE - COMARCA; DIR ESTRUTURA E PROCESSOS ORGANIZACIONAIS 14.790,66 5.916,26 0,00 0,00 0,00 0,00 20.706,92 2.277,76 4.094,38 0,00 6.372,14 14.334,78 5.029,34 1.769,13 30/04/2020
3 306400 ADALBERTO MOREIRA GONCALVES ANALISTA DO MP ATIVO BELO HORIZONTE - COMARCA; BH-24PJ JUIZO REG BARREIRO-SECRETARIA 15.272,02 4.581,61 0,00 0,00 0,00 0,00 19.853,63 2.183,90 3.989,82 0,00 6.173,72 13.679,91 3.138,29 1.660,32 30/04/2020
4 179300 ADENISE AUXILIADORA SOUZA SAD OFICIAL DO MP ATIVO BARBACENA - COMARCA; BARBACENA-PJ-06PJ 14.324,23 5.729,69 0,00 0,00 0,00 0,00 20.053,92 2.205,93 3.934,56 0,00 6.140,49 13.913,43 3.217,61 2.362,55 30/04/2020
5 272200 ADILSON BATISTA ORNELAS OFICIAL DO MP ATIVO LAVRAS - COMARCA; LAVRAS-PJ-SECRETARIA 5.136,32 1.027,26 0,00 0,00 0,00 0,00 6.163,58 677,99 587,04 0,00 1.265,03 4.898,55 1.550,00 280,80 30/04/2020
6 380100 ADILSON GONCALVES DE MELO JUNIOR ANALISTA DO MP ATIVO ARAXÁ - COMARCA; ARAXA-PJ-05PJ 10.397,52 2.079,50 0,00 0,00 0,00 0,00 12.477,02 1.372,47 2.080,12 0,00 3.452,59 9.024,43 2.319,39 875,22 30/04/2020
7 148800 ADILSON JANUARIO OFICIAL DO MP ATIVO BELO HORIZONTE - COMARCA; BH-22PJ PES COM DEF E IDOSOS-SECRETARIA 16.750,82 11.725,57 0,00 0,00 0,00 0,00 28.476,39 3.132,40 5.995,96 0,00 9.128,36 19.348,03 7.716,19 2.617,61 30/04/2020
8 322601 ADMILSON SILVEIRA ANALISTA DO MP ATIVO SAO JOAO DO PARAISO COMARCA; SAO JOAO DO PARAISO-PJ-UNPJ 8.858,43 885,84 0,00 0,00 0,00 0,00 9.744,27 1.071,87 1.515,55 0,00 2.587,42 7.156,85 1.550,00 983,94 30/04/2020
9 333700 ADRIANA ABRITTA TEIXEIRA OFICIAL DO MP ATIVO BELO HORIZONTE - COMARCA; DIRET DE PESSOAL DO MINISTERIO PUBLICO - DPMP 10.069,62 2.013,92 0,00 0,00 0,00 0,00 12.083,54 1.329,19 2.088,09 0,00 3.417,28 8.666,26 1.550,00 1.405,99 30/04/2020
10 468500 ADRIANA APARECIDA FIRMINO ANALISTA DO MP ATIVO CARATINGA - COMARCA; CARATINGA-PJ-04PJ 10.069,62 1.006,96 0,00 0,00 0,00 0,00 11.076,58 1.218,42 1.789,50 0,00 3.007,92 8.068,66 2.319,39 504,62 30/04/2020
11 326100 ADRIANA AUGUSTA AMARAL BELO OFICIAL DO MP ATIVO BARBACENA - COMARCA; BARBACENA-PJ-08PJ 10.069,62 2.013,92 0,00 0,00 0,00 0,00 12.083,54 1.329,19 1.983,81 0,00 3.313,00 8.770,54 1.550,00 1.405,99 30/04/2020
12 605700 ADRIANA COSTA LIRA ASSESSOR/OFICIAL ATIVO BELO HORIZONTE - COMARCA; COORD ESTADUAL DE DEFESA DA EDUCACAO 0,00 817,05 8.170,49 0,00 0,00 0,00 8.987,54 670,91 1.417,71 0,00 2.088,62 6.898,92 1.550,00 414,60 30/04/2020
13 541100 ADRIANA CRISTINA DE OLIVEIRA OFICIAL DO MP ATIVO GUAPÉ - COMARCA; GUAPE-PJ-UNPJ 4.974,42 497,44 0,00 0,00 0,00 0,00 5.471,86 601,90 417,74 0,00 1.019,64 4.452,22 2.319,39 429,03 30/04/2020
14 254800 ADRIANA DAS GRACAS FERNANDES ANALISTA DO MP ATIVO UBERABA - COMARCA; UBERABA-PJ-07PJ 17.413,92 12.189,74 0,00 0,00 0,00 0,00 29.603,66 3.256,40 6.324,00 0,00 9.580,40 20.023,26 7.470,73 2.713,19 30/04/2020
15 217400 ADRIANA DE CARVALHO CATAO BRAGA ASSESSOR ATIVO BELO HORIZONTE - COMARCA; DIV FISCAL ADM CONT TERCEIRIZACAO 0,00 3.268,20 8.170,49 0,00 3.812,90 0,00 15.251,59 713,09 3.655,92 0,00 4.369,01 10.882,58 1.550,00 1.360,77 30/04/2020
16 434600 ADRIANA FERREIRA DA SILVA ANALISTA DO MP ATIVO BELO HORIZONTE - COMARCA; BH-14PJ DEFESA CONSUMIDOR-GAB 112PJ 12.204,02 2.440,80 0,00 0,00 0,00 0,00 14.644,82 1.610,93 2.714,96 0,00 4.325,89 10.318,93 1.550,00 1.597,22 30/04/2020
17 499800 ADRIANA FERREIRA TIAGO OFICIAL DO MP ATIVO SALINAS - COMARCA; SALINAS-PJ-02PJ 6.741,63 674,16 0,00 0,00 0,00 0,00 7.415,79 815,74 945,65 0,00 1.761,39 5.654,40 1.550,00 569,17 30/04/2020
18 543400 ADRIANA GUIMARAES NUNES DE PAULA ANALISTA DO MP ATIVO PATROCÍNIO - COMARCA; PATROCINIO-PJ-01PJ 8.436,53 843,65 0,00 0,00 0,00 0,00 9.280,18 1.020,82 1.401,96 0,00 2.422,78 6.857,40 1.550,00 727,68 30/04/2020
19 471500 ADRIANA HORTA DE CARVALHO RODRIGUES DE SOUSA ANALISTA DO MP ATIVO BELO HORIZONTE - COMARCA; GRUPO ESP PROM PROC JUST DEF PROB ADM PAT PUB 10.069,62 1.006,96 0,00 0,00 0,00 0,00 11.076,58 1.218,42 1.789,50 0,00 3.007,92 8.068,66 1.550,00 504,62 30/04/2020
20 86400 ADRIANA MOREIRA CALDEIRA BRANT OFICIAL DO MP ATIVO BELO HORIZONTE - COMARCA; BH-21PJ TUTELA FUNDACOES-SECRETARIA 14.790,66 10.353,47 0,00 0,00 0,00 2.765,85 27.909,98 2.765,85 6.045,28 0,00 8.811,13 19.098,85 1.550,00 1.734,37 30/04/2020
21 480700 ADRIANA MOREIRA DE AVELLAR CEZILIO OFICIAL DO MP ATIVO BELO HORIZONTE - COMARCA; BH-18PJ VIOLENCIA DOMESTICA-SECRETARIA 6.123,79 612,38 0,00 0,00 0,00 0,00 6.736,17 740,98 675,04 0,00 1.416,02 5.320,15 1.550,00 779,40 30/04/2020
22 326000 ADRIANA PEREIRA CARNEIRO RESENDE OFICIAL DO MP ATIVO BELO HORIZONTE - COMARCA; BH-25PJ DEFESA DA EDUCACAO-SECRETARIA 9.444,70 1.888,94 0,00 0,00 0,00 0,00 11.333,64 1.246,70 1.904,55 0,00 3.151,25 8.182,39 2.050,88 1.318,52 30/04/2020
23 502200 ADRIANA PETRUCCI DAVINA OFICIAL DO MP ATIVO PATROCÍNIO - COMARCA; PATROCINIO-PJ-01PJ 7.421,79 742,18 0,00 0,00 0,00 0,00 8.163,97 898,04 1.128,77 0,00 2.026,81 6.137,16 2.319,39 944,68 30/04/2020
24 201900 ADRIANA REIS PIMENTA OFICIAL DO MP ATIVO TEÓFILO OTONI - COMARCA; TEOFILO OTONI-PJ-03PJ 14.324,23 5.729,69 0,00 0,00 0,00 0,00 20.053,92 2.205,93 4.038,84 0,00 6.244,77 13.809,15 3.444,31 2.470,89 30/04/2020
25 278700 ADRIANA RODRIGUES PINTO COELHO AMARAL ANALISTA DO MP ATIVO BELO HORIZONTE - COMARCA; ASSESS TECNICA DA CORREGEDORIA-GERAL DO MP 16.750,82 5.025,25 0,00 0,00 0,00 0,00 21.776,07 2.395,37 4.408,20 0,00 6.803,57 14.972,50 1.996,03 2.408,43 30/04/2020
26 468000 ADRIANA SANTOS DE SANTANA MOREIRA ANALISTA DO MP ATIVO ARAÇUAÍ - COMARCA; ARACUAI-PJ-02PJ 10.069,62 4.027,85 0,00 0,00 0,00 0,00 14.097,47 1.550,72 2.476,72 0,00 4.027,44 10.070,03 1.550,00 596,36 30/04/2020
27 194700 ADRIANA TSUKIDE OFICIAL DO MP ATIVO UBERABA - COMARCA; COORD REG BACIAS PARANAIBA BAIXO RIO GRANDE 14.324,23 5.729,69 0,00 0,00 6.684,64 0,00 26.738,56 2.205,93 5.824,98 0,00 8.030,91 18.707,65 1.705,86 2.215,49 30/04/2020
28 465500 ADRIANO CASSIANO MATOS ANALISTA DO MP ATIVO ARAXÁ - COMARCA; ARAXA-PJ-02PJ 10.069,62 1.006,96 0,00 0,00 0,00 0,00 11.076,58 1.218,42 1.841,63 0,00 3.060,05 8.016,53 1.550,00 504,62 30/04/2020
29 500500 ADRIANO DE ALMEIDA SILVA OFICIAL DO MP ATIVO UBERABA - COMARCA; UBERABA-PJ-12PJ 7.421,79 742,18 0,00 0,00 0,00 0,00 8.163,97 898,04 706,84 0,00 1.604,88 6.559,09 2.319,39 944,68 30/04/2020
30 187200 ADRIANO DE FREITAS MARON OFICIAL DO MP ATIVO PONTE NOVA - COMARCA; PONTE NOVA-PJ-03PJ 12.204,02 10.983,62 0,00 0,00 0,00 2.550,64 25.738,28 2.550,64 5.507,24 0,00 8.057,88 17.680,40 6.714,73 3.281,23 30/04/2020
31 477900 ADRIANO FERREIRA DE ALMEIDA OFICIAL DO MP ATIVO TAIOBEIRAS - COMARCA; TAIOBEIRAS-PJ-UNPJ 7.421,79 742,18 0,00 0,00 0,00 0,00 8.163,97 898,04 1.024,50 0,00 1.922,54 6.241,43 1.550,00 971,29 30/04/2020
32 269101 ADRIANO PEREIRA SILVA ANALISTA DO MP ATIVO UBERABA - COMARCA; UBERABA-PJ-02PJ 10.069,62 1.006,96 0,00 0,00 0,00 0,00 11.076,58 1.218,42 1.685,22 0,00 2.903,64 8.172,94 2.319,39 504,62 30/04/2020
33 414200 ADRIANO RODRIGUES FERNANDES ANALISTA DO MP ATIVO CARANDAÍ - COMARCA; CARANDAI-PJ-UNPJ 10.069,62 2.013,92 0,00 0,00 0,00 0,00 12.083,54 1.329,19 1.983,81 0,00 3.313,00 8.770,54 1.550,00 787,73 30/04/2020
34 536700 ADRIELLE COSTA MARIA MOURAO FIGUEIREDO OFICIAL DO MP ATIVO SERRO - COMARCA; SERRO-PJ-SECRETARIA 4.974,42 497,44 0,00 0,00 0,00 0,00 5.471,86 601,90 469,88 0,00 1.071,78 4.400,08 2.319,39 383,82 30/04/2020
35 514300 ADRIENE DAMASCENO BRAGA ANALISTA DO MP ATIVO ALFENAS - COMARCA; ALFENAS-PJ-03PJ 10.069,62 1.006,96 0,00 0,00 0,00 0,00 11.076,58 1.218,42 1.841,63 0,00 3.060,05 8.016,53 2.319,39 458,38 30/04/2020
36 254600 ADRIENE DOMINGUES COSTA ANALISTA DO MP ATIVO BELO HORIZONTE - COMARCA; SUPERINTENDENCIA DE RECURSOS HUMANOS 16.112,82 4.833,85 0,00 0,00 0,00 0,00 20.946,67 2.304,13 4.257,34 0,00 6.561,47 14.385,20 0,00 3.408,43 30/04/2020
37 252001 ADRIENE GOMES BARRETO ANALISTA DO MP ATIVO BELO HORIZONTE - COMARCA; BH-19PJ SAUDE-SECRETARIA 150PJ 13.011,52 5.204,61 0,00 0,00 0,00 0,00 18.216,13 2.003,77 3.589,04 0,00 5.592,81 12.623,32 3.046,08 1.385,95 30/04/2020
38 645000 AFONSO CELSO GUIMARAES JUNIOR OFICIAL DO MP ATIVO PIRAPORA - COMARCA; PIRAPORA-PJ-01PJ 4.238,09 254,29 0,00 0,00 0,00 0,00 4.492,38 547,00 263,47 0,00 810,47 3.681,91 1.550,00 588,20 30/04/2020
39 302500 AGENOR JOSE DA SILVA JUNIOR ANALISTA DO MP ATIVO JUIZ DE FORA - COMARCA; JUIZ DE FORA-PJ-14PJ 15.272,02 4.581,61 0,00 0,00 0,00 0,00 19.853,63 2.351,89 4.259,32 0,00 6.611,21 13.242,42 3.425,44 3.013,19 30/04/2020
40 357500 AILSON WAGNER DE ALENCAR SILVA OFICIAL DO MP ATIVO BELO HORIZONTE - COMARCA; BH-12PJ JUIZO CRIMINAL-SECRETARIA 9.146,93 3.658,77 0,00 0,00 0,00 0,00 12.805,70 1.408,63 2.108,42 0,00 3.517,05 9.288,65 1.561,42 841,43 30/04/2020
41 366400 AILTON ALEXSSANDRO ALVES OFICIAL DO MP ATIVO PARÁ DE MINAS - COMARCA; PARA DE MINAS-PJ-05PJ 8.579,10 3.431,64 0,00 0,00 0,00 0,00 12.010,74 1.321,18 2.070,27 0,00 3.391,45 8.619,29 1.550,00 636,85 30/04/2020
42 318900 AILTON DE CASTRO RIBEIRO JUNIOR OFICIAL DO MP ATIVO ITAJUBA - COMARCA; ITAJUBA-PJ-01PJ 9.444,70 2.833,41 0,00 0,00 0,00 0,00 12.278,11 1.350,59 1.927,16 0,00 3.277,75 9.000,36 2.319,39 779,18 30/04/2020
43 464400 ALAN MONTEIRO GASPAR ANALISTA DO MP ATIVO SETE LAGOAS - COMARCA; SETE LAGOAS-PJ-03PJ 10.069,62 1.006,96 0,00 0,00 0,00 0,00 11.076,58 1.218,42 1.841,63 0,00 3.060,05 8.016,53 1.550,00 504,62 30/04/2020
44 670200 ALANA ARAUJO AGUIAR ASSESSOR ATIVO BELO HORIZONTE - COMARCA; ASSESS EXECUTIVA DO CONSELHO SUPERIOR DO MP 0,00 0,00 3.076,28 0,00 0,00 0,00 3.076,28 443,62 205,10 0,00 648,72 2.427,56 1.550,00 0,00 30/04/2020
45 492000 ALANA DE CASTRO FREITAS OFICIAL DO MP ATIVO ITUMIRIM - COMARCA; ITUMIRIM-PJ-SECRETARIA 6.123,79 612,38 0,00 0,00 0,00 0,00 6.736,17 740,98 779,32 0,00 1.520,30 5.215,87 1.550,00 302,04 30/04/2020
46 306700 ALANA MARCIA DE OLIVEIRA OFICIAL DO MP ATIVO BELO HORIZONTE - COMARCA; DIRETORIA DE ADMINISTRACAO FINANCEIRA 9.444,70 2.833,41 0,00 0,00 0,00 0,00 12.278,11 1.350,59 2.135,71 0,00 3.486,30 8.791,81 1.550,00 1.409,44 30/04/2020
47 324500 ALANMAR COUTINHO COSTA OFICIAL DO MP ATIVO LEOPOLDINA - COMARCA; LEOPOLDINA-PJ-02PJ 9.146,93 1.829,39 0,00 0,00 0,00 0,00 10.976,32 1.207,40 1.712,82 0,00 2.920,22 8.056,10 1.550,00 826,39 30/04/2020
48 407300 ALBERTO LUIZ SOARES DE OLIVEIRA ANALISTA DO MP ATIVO BELO HORIZONTE - COMARCA; DIRETORIA DE PROJETOS DE EDIFICACOES 12.204,02 2.440,80 0,00 0,00 0,00 0,00 14.644,82 1.610,93 2.714,96 0,00 4.325,89 10.318,93 1.550,00 1.689,53 30/04/2020
49 118200 ALBERTO PEREIRA DA COSTA OFICIAL DO MP ATIVO DORES DO INDAIÁ - COMARCA; DORES DO INDAIA-PJ-UNPJ 15.272,02 13.744,82 0,00 0,00 0,00 3.191,85 32.208,69 3.191,85 7.006,00 0,00 10.197,85 22.010,84 7.786,63 2.989,88 30/04/2020
50 282400 ALCILENE MARISE DE ARAUJO ANALISTA DO MP ATIVO BELO HORIZONTE - COMARCA; BH-23PJ INF-FISC MED SOC FEC 16.750,82 5.025,25 0,00 0,00 0,00 0,00 21.776,07 2.395,37 4.356,06 0,00 6.751,43 15.024,64 7.513,62 2.887,50 30/04/2020
51 112600 ALCIONE DA MOTA JARDIM OFICIAL DO MP ATIVO BELO HORIZONTE - COMARCA; CAO-CRIANCAS E ADOLESCENTES-SECRETARIA 12.601,30 8.820,91 0,00 0,00 0,00 0,00 21.422,21 2.356,44 4.321,59 0,00 6.678,03 14.744,18 1.550,00 1.299,48 30/04/2020
52 396400 ALCIONE DE FREITAS E SILVA ANALISTA DO MP ATIVO BELO HORIZONTE - COMARCA; ASSESS JUR DO CONS SUPERIOR DO MINISTERIO PUB 13.011,52 5.204,61 0,00 0,00 0,00 0,00 18.216,13 2.003,77 3.589,04 0,00 5.592,81 12.623,32 1.550,00 1.196,77 30/04/2020
53 657400 ALCIONE MARIA FERREIRA ASSESSOR ATIVO BELO HORIZONTE - COMARCA; PROC JUST RECURSOS ESP E EXTRAORD CRIMINAIS 0,00 0,00 10.397,52 0,00 0,00 0,00 10.397,52 713,09 2.096,36 0,00 2.809,45 7.588,07 1.550,00 532,24 30/04/2020
54 161600 ALCIONE NERY SOUZA ASSESSOR ATIVO BELO HORIZONTE - COMARCA; BH-18PJ DIREITOS HUMANOS-SECRETARIA 0,00 4.085,25 8.170,49 0,00 0,00 0,00 12.255,74 713,09 2.607,37 0,00 3.320,46 8.935,28 1.550,00 585,54 30/04/2020
55 376000 ALDA GOMES LANA OFICIAL DO MP ATIVO BELO HORIZONTE - COMARCA; BH-18PJ VIOLENCIA DOMESTICA-SECRETARIA 8.579,10 1.715,82 0,00 0,00 0,00 0,00 10.294,92 1.132,44 1.598,18 0,00 2.730,62 7.564,30 1.550,00 1.111,13 30/04/2020
56 148000 ALDA MARTINS SIMOES OFICIAL DO MP ATIVO BELO HORIZONTE - COMARCA; BH-23PJ CIVEL- FISC ENT AB POL 16.750,82 8.375,41 0,00 0,00 0,00 0,00 25.126,23 2.763,89 5.280,28 0,00 8.044,17 17.082,06 6.575,25 3.250,13 30/04/2020
57 318400 ALDO CREPALDI JUNIOR OFICIAL DO MP ATIVO BELO HORIZONTE - COMARCA; DIVISAO DE MATERIAIS 9.444,70 2.833,41 0,00 0,00 0,00 0,00 12.278,11 1.350,59 2.083,57 0,00 3.434,16 8.843,95 1.550,00 1.318,52 30/04/2020
58 604500 ALENIZE APARECIDA RODRIGUES HENRIQUE OFICIAL DO MP ATIVO RIO NOVO - COMARCA; RIO NOVO-PJ-UNPJ 4.974,42 497,44 0,00 0,00 0,00 0,00 5.471,86 601,90 469,88 0,00 1.071,78 4.400,08 1.550,00 353,72 30/04/2020
59 197900 ALESSA DE SOUSA E SILVA OFICIAL DO MP ATIVO OLIVEIRA - COMARCA; OLIVEIRA-PJ-02PJ 14.790,66 5.916,26 0,00 0,00 0,00 0,00 20.706,92 2.277,76 4.094,38 0,00 6.372,14 14.334,78 5.029,34 1.769,13 30/04/2020
60 428500 ALESSANDRA ALVES DINIZ OFICIAL DO MP ATIVO BELO HORIZONTE - COMARCA; CENTRAL DE APOIO TECNICO-SECRETARIA 5.743,70 2.871,85 0,00 0,00 0,00 0,00 8.615,55 947,71 1.239,30 0,00 2.187,01 6.428,54 1.693,51 578,96 30/04/2020
61 286801 ALESSANDRA BOTELHO JUNQUEIRA DE MENEZES ANALISTA DO MP ATIVO PASSOS - COMARCA; PASSOS-PJ-05PJ 12.601,30 5.040,52 0,00 0,00 0,00 0,00 17.641,82 1.940,60 3.239,93 0,00 5.180,53 12.461,29 3.355,74 1.248,39 30/04/2020
62 307000 ALESSANDRA CRISTINA SANTOS MENDES ANALISTA DO MP ATIVO BELO HORIZONTE - COMARCA; BH-18PJ VIOLENCIA DOMESTICA 11.819,15 3.545,75 0,00 0,00 0,00 0,00 15.364,90 1.690,14 2.839,06 0,00 4.529,20 10.835,70 1.550,00 1.776,74 30/04/2020
63 264400 ALESSANDRA DE SOUZA SANTOS ANALISTA DO MP ATIVO BELO HORIZONTE - COMARCA; OUVIDORIA DO MPMG 17.413,92 6.965,57 0,00 0,00 0,00 0,00 24.379,49 2.681,74 5.097,52 0,00 7.779,26 16.600,23 1.550,00 2.256,81 30/04/2020
64 441500 ALESSANDRA DRUMMOND DE FIGUEIREDO ROSSI ANALISTA DO MP ATIVO BELO HORIZONTE - COMARCA; DIRETORIA DE PROJETOS DE EDIFICACOES 10.069,62 2.013,92 0,00 0,00 0,00 0,00 12.083,54 1.329,19 2.088,09 0,00 3.417,28 8.666,26 1.550,00 488,96 30/04/2020
65 524000 ALESSANDRA LUCIOLI DE BARROS GUERRA ANALISTA DO MP ATIVO BELO HORIZONTE - COMARCA; BH-19PJ SAUDE--SECRETARIA 10.069,62 1.006,96 0,00 0,00 0,00 0,00 11.076,58 1.218,42 1.685,22 0,00 2.903,64 8.172,94 1.550,00 1.296,07 30/04/2020
66 479900 ALESSANDRA MARA ANDRADE DE FARIA OFICIAL DO MP ATIVO UBERABA - COMARCA; UBERABA-PJ-09PJ 7.421,79 742,18 0,00 0,00 2.721,32 0,00 10.885,29 898,04 1.877,13 0,00 2.775,17 8.110,12 1.550,00 1.202,56 30/04/2020
67 226700 ALESSANDRA MARA VASCONCELOS REZENDE OFICIAL DO MP ATIVO CONSELHEIRO LAFAIETE - COMARCA; CONSELHEIRO LAFAIETE-PJ-07PJ 10.069,62 3.020,89 0,00 0,00 0,00 0,00 13.090,51 1.439,96 2.334,54 0,00 3.774,50 9.316,01 1.550,00 1.658,79 30/04/2020
68 112100 ALESSANDRA MARCIA FERREIRA OFICIAL DO MP ATIVO BELO HORIZONTE - COMARCA; BELO HORIZONTE- SECRETARIA DAS PROMOTORIAS 10.069,62 7.048,73 0,00 0,00 0,00 0,00 17.118,35 1.883,02 3.320,36 0,00 5.203,38 11.914,97 1.550,00 688,12 30/04/2020
69 196500 ALESSANDRA MARIA RIBEIRO LUCIANO OFICIAL DO MP ATIVO RIO PARANAÍBA - COMARCA; RIO PARANAIBA-PJ-UNPJ 14.790,66 5.916,26 0,00 0,00 0,00 0,00 20.706,92 2.277,76 4.094,38 0,00 6.372,14 14.334,78 1.624,60 1.368,85 30/04/2020
70 91400 ALESSANDRA MENDES VASCONCELOS DE SOUZA OFICIAL DO MP ATIVO BELO HORIZONTE - COMARCA; BH-23PJ INF-FISC MED SOC AB 18.820,14 13.174,10 0,00 0,00 0,00 3.519,37 35.513,61 3.519,37 7.929,06 17,12 11.465,55 24.048,06 1.550,00 1.606,57 30/04/2020
71 651700 ALESSANDRA PROFIRIO SOUZA OFICIAL DO MP ATIVO NOVA ERA - COMARCA; NOVA ERA-PJ-UNPJ 4.238,09 254,29 0,00 0,00 0,00 0,00 4.492,38 494,16 220,81 0,00 714,97 3.777,41 1.550,00 490,43 30/04/2020
72 384900 ALESSANDRA RODRIGUES ANALISTA DO MP ATIVO VISCONDE DO RIO BRANCO - COMARCA; VISCONDE DO RIO BRANCO-PJ-03PJ 13.011,52 2.602,30 0,00 0,00 0,00 0,00 15.613,82 1.717,52 2.899,99 0,00 4.617,51 10.996,31 2.319,39 1.073,46 30/04/2020
73 390000 ALESSANDRA SPADANO MASSARA VASCONCELOS OFICIAL DO MP ATIVO BETIM - COMARCA; BETIM-PJ-10PJ 8.579,10 1.715,82 0,00 0,00 0,00 0,00 10.294,92 1.132,44 1.650,32 0,00 2.782,76 7.512,16 1.550,00 1.078,76 30/04/2020
74 426500 ALESSANDRO CAMPOS DE PAIVA ANALISTA DO MP ATIVO BELO HORIZONTE - COMARCA; DIRETORIA DE PUBLICIDADE INSTITUCIONAL 12.601,30 2.520,26 0,00 0,00 0,00 0,00 15.121,56 1.663,37 2.831,64 0,00 4.495,01 10.626,55 1.550,00 949,00 30/04/2020
75 623400 ALESSANDRO DE OLIVEIRA REZENDE ANALISTA DO MP ATIVO BELO HORIZONTE - COMARCA; DIRET DE INFORMACAO E CONHECIMENTO-DINC/CEAF 8.170,49 817,05 0,00 0,00 0,00 0,00 8.987,54 988,63 1.330,34 0,00 2.318,97 6.668,57 1.550,00 1.122,61 30/04/2020
76 420600 ALESSANDRO SILVA OFICIAL DO MP ATIVO VISCONDE DO RIO BRANCO - COMARCA; VISCONDE DO RIO BRANCO-PJ-02PJ 8.170,49 2.451,15 0,00 0,00 0,00 0,00 10.621,64 1.168,38 1.112,46 0,00 2.280,84 8.340,80 1.550,00 1.263,66 30/04/2020
77 375301 ALETHEIA PATRICIA ASSIS MORAIS MOREIRA ANALISTA DO MP ATIVO ITABIRA - COMARCA; ITABIRA-PJ-02PJ 9.146,93 914,69 0,00 0,00 0,00 0,00 10.061,62 1.106,78 1.541,08 0,00 2.647,86 7.413,76 3.088,78 705,82 30/04/2020
78 382300 ALEX CARVALHO LIMA ANALISTA DO MP ATIVO UBERLÂNDIA - COMARCA; UBERLANDIA-PJ-14PJ 13.011,52 2.602,30 0,00 0,00 0,00 0,00 15.613,82 1.717,52 2.952,12 0,00 4.669,64 10.944,18 1.550,00 1.198,40 30/04/2020
79 195201 ALEX DE CASTRO PEREIRA ANALISTA DO MP ATIVO UBERABA - COMARCA; UBERABA-PJ-09PJ 16.750,82 6.700,33 0,00 0,00 0,00 0,00 23.451,15 2.579,63 4.870,31 0,00 7.449,94 16.001,21 7.684,88 2.992,84 30/04/2020
80 358900 ALEX DE PAULA LANZA ASSESSOR ATIVO BELO HORIZONTE - COMARCA; DIRETORIA DE IMPRENSA 0,00 0,00 10.397,52 0,00 0,00 0,00 10.397,52 713,09 2.096,36 0,00 2.809,45 7.588,07 2.319,39 487,95 30/04/2020
81 178400 ALEX RODRIGO SALDANHA GUIMARAES OFICIAL DO MP ATIVO BELO HORIZONTE - COMARCA; DIRETORIA DE SISTEMAS DE INFORMACAO 6.123,79 2.449,52 0,00 0,00 0,00 0,00 8.573,31 943,06 1.228,96 0,00 2.172,02 6.401,29 1.550,00 362,68 30/04/2020
82 413500 ALEX VILELA OLIVEIRA ANALISTA DO MP ATIVO GOVERNADOR VALADARES - COMARCA; COORD REG PJ DEF EDU DIR CRIANCA ADOL RIODOCE 12.601,30 2.520,26 0,00 0,00 0,00 0,00 15.121,56 1.663,37 2.831,64 0,00 4.495,01 10.626,55 1.550,00 1.089,12 30/04/2020
83 264300 ALEXANDRA FATIMA SARAIVA SOARES ANALISTA DO MP ATIVO BELO HORIZONTE - COMARCA; CENTRAL DE APOIO TECN-SETOR DE MEIO AMBIENTE 17.413,92 5.224,18 0,00 0,00 0,00 0,00 22.638,10 2.490,19 4.671,32 0,00 7.161,51 15.476,59 1.550,00 1.659,75 30/04/2020
84 488000 ALEXANDRA LARA PAIS DE CARVALHO ANALISTA DO MP ATIVO SERRO - COMARCA; SERRO-PJ-UNPJ 9.444,70 944,47 0,00 0,00 0,00 0,00 10.389,17 1.142,81 1.516,98 0,00 2.659,79 7.729,38 2.319,39 796,77 30/04/2020
85 256300 ALEXANDRA SANTOS GOMES OFICIAL DO MP ATIVO BELO HORIZONTE - COMARCA; DIRETORIA GESTAO COMPRAS LICITACOES 9.146,93 2.744,08 0,00 0,00 0,00 0,00 11.891,01 1.308,01 2.040,97 0,00 3.348,98 8.542,03 1.550,00 857,07 30/04/2020
86 403300 ALEXANDRE AUGUSTO RODRIGUES ANALISTA DO MP ATIVO ÁGUAS FORMOSAS - COMARCA; AGUAS FORMOSAS-PJ-UNPJ 10.069,62 2.013,92 0,00 0,00 0,00 0,00 12.083,54 1.329,19 2.088,09 0,00 3.417,28 8.666,26 2.319,39 504,62 30/04/2020
87 640900 ALEXANDRE BARBOSA MASCARENHAS ANALISTA DO MP ATIVO BETIM - COMARCA; BETIM-PJ-02PJ 6.123,79 367,43 0,00 0,00 0,00 0,00 6.491,22 707,51 368,39 0,00 1.075,90 5.415,32 1.550,00 533,19 30/04/2020
88 311700 ALEXANDRE BARCELOS RESENDE OFICIAL DO MP ATIVO BELO HORIZONTE - COMARCA; BH-14PJ DEFESA CONSUMIDOR-SECRETARIA 7.663,37 1.532,67 0,00 0,00 0,00 0,00 9.196,04 1.011,56 1.381,37 0,00 2.392,93 6.803,11 2.319,39 607,81 30/04/2020
89 285600 ALEXANDRE CAMPOS DE OLIVEIRA OFICIAL DO MP ATIVO UBERABA - COMARCA; COORD REG BACIAS PARANAIBA BAIXO RIO GRANDE 10.069,62 3.020,89 0,00 0,00 0,00 0,00 13.090,51 1.439,96 2.178,13 0,00 3.618,09 9.472,42 1.550,00 525,27 30/04/2020
90 509200 ALEXANDRE CAPUANO DE REZENDE ANALISTA DO MP ATIVO BELO HORIZONTE - COMARCA; GABINETE DE PROCURADOR DE JUSTIÇA - SALA 715 10.069,62 1.006,96 0,00 0,00 0,00 0,00 11.076,58 1.218,42 1.789,50 0,00 3.007,92 8.068,66 1.550,00 481,50 30/04/2020
91 229400 ALEXANDRE CARLOS BOTREL DIRETOR/OFICIAL ATIVO BELO HORIZONTE - COMARCA; SUPERINTENDENCIA DOS ORGAOS COLEGIADOS 0,00 5.224,18 17.413,92 0,00 0,00 0,00 22.638,10 1.858,76 4.844,96 0,00 6.703,72 15.934,38 6.239,86 1.484,51 30/04/2020
92 411900 ALEXANDRE CARVALHO SANTOS RIBEIRO ANALISTA DO MP ATIVO OLIVEIRA - COMARCA; OLIVEIRA-PJ-02PJ 12.601,30 2.520,26 0,00 0,00 0,00 0,00 15.121,56 1.663,37 2.831,64 0,00 4.495,01 10.626,55 3.250,02 949,00 30/04/2020
93 641600 ALEXANDRE DA SILVA ASSUNCAO OFICIAL DO MP ATIVO BELO HORIZONTE - COMARCA; SERVICO MEDICO-DEPTO PERIC MEDICA SAUDE OCUP 4.376,03 262,56 0,00 0,00 1.546,20 0,00 6.184,79 537,08 691,14 0,00 1.228,22 4.956,57 1.658,47 342,60 30/04/2020
94 201200 ALEXANDRE DE ALENCAR CORDEIRO OFICIAL DO MP ATIVO ÁGUAS FORMOSAS - COMARCA; AGUAS FORMOSAS-PJ-UNPJ 6.123,79 3.061,90 0,00 0,00 0,00 0,00 9.185,69 1.010,43 1.378,84 0,00 2.389,27 6.796,42 1.550,00 418,47 30/04/2020
95 288200 ALEXANDRE DE VASCONCELOS COSTA KER ANALISTA DO MP ATIVO BELO HORIZONTE - COMARCA; BH-03PJ EMPRESARIAL-SECRETARIA 15.272,02 4.581,61 0,00 0,00 0,00 0,00 19.853,63 2.183,90 3.937,68 0,00 6.121,58 13.732,05 3.156,46 1.536,12 30/04/2020
96 445000 ALEXANDRE DIOGENES OLIVEIRA ANALISTA DO MP ATIVO SALINAS - COMARCA; SALINAS-PJ-02PJ 10.069,62 2.013,92 0,00 0,00 0,00 0,00 12.083,54 1.329,19 2.088,09 0,00 3.417,28 8.666,26 2.319,39 504,62 30/04/2020
97 463400 ALEXANDRE LEAL WINKELSTROTER ANALISTA DO MP ATIVO TEÓFILO OTONI - COMARCA; TEOFILO OTONI-PJ-04PJ 10.069,62 1.006,96 0,00 0,00 0,00 0,00 11.076,58 1.218,42 1.789,50 0,00 3.007,92 8.068,66 1.550,00 1.025,72 30/04/2020
98 615700 ALEXANDRE LUIZ DE CASTRO MACIEL ANALISTA DO MP ATIVO IBIRITÉ - COMARCA; IBIRITE-PJ-02PJ 8.170,49 817,05 0,00 0,00 0,00 0,00 8.987,54 988,63 1.330,34 0,00 2.318,97 6.668,57 1.550,00 1.122,19 30/04/2020
99 356900 ALEXANDRE MOISES MENDONCA E ARAUJO OFICIAL DO MP ATIVO UBERABA - COMARCA; UBERABA-PJ-13PJ 6.741,63 1.348,33 0,00 0,00 0,00 0,00 8.089,96 889,90 1.110,66 0,00 2.000,56 6.089,40 1.550,00 620,93 30/04/2020
100 633300 ALEXANDRE NONATO MARTINS OFICIAL DO MP ATIVO IGARAPÉ - COMARCA; IGARAPE-PJ-02PJ 4.376,03 437,60 0,00 0,00 0,00 0,00 4.813,63 529,50 285,14 0,00 814,64 3.998,99 1.550,00 325,32 30/04/2020
101 469900 ALEXANDRE PEREIRA GUEDES ANALISTA DO MP ATIVO CATAGUASES - COMARCA; CATAGUASES-PJ-03PJ 10.069,62 1.006,96 0,00 0,00 0,00 0,00 11.076,58 1.218,42 1.841,63 0,00 3.060,05 8.016,53 1.550,00 599,12 30/04/2020
102 208700 ALEXANDRE RESENDE FRAGA ANALISTA DO MP ATIVO BELO HORIZONTE - COMARCA; BH-19PJ SAUDE-SECRETARIA 130PJ 18.820,14 7.528,06 0,00 0,00 0,00 0,00 26.348,20 2.898,30 5.422,95 0,00 8.321,25 18.026,95 1.550,00 1.114,62 30/04/2020
103 216401 ALEXANDRE RIBEIRO DE LIMA MAIORINO ANALISTA DO MP ATIVO UBERABA - COMARCA; UBERABA-PJ-03PJ 15.272,02 6.108,81 0,00 0,00 7.126,94 0,00 28.507,77 2.351,89 6.271,37 0,00 8.623,26 19.884,51 5.142,52 2.104,96 30/04/2020
104 475100 ALEXANDRE TEOTONIO COSTA ANALISTA DO MP ATIVO ARAGUARI - COMARCA; ARAGUARI-PJ-01PJ 10.069,62 1.006,96 0,00 0,00 0,00 0,00 11.076,58 1.218,42 1.737,36 0,00 2.955,78 8.120,80 1.550,00 504,62 30/04/2020
105 339000 ALEXANDRE VITOR CARDOSO OFICIAL DO MP ATIVO BELO HORIZONTE - COMARCA; PROMOT ESTADUAL DE DEF PATRI CULT E TUR DE MG 6.123,79 1.224,76 0,00 0,00 0,00 0,00 7.348,55 808,34 772,79 0,00 1.581,13 5.767,42 1.550,00 334,78 30/04/2020
106 623100 ALEXSANDER BATISTA AGUIAR ANALISTA DO MP ATIVO BELO HORIZONTE - COMARCA; DIRETORIA DE SUPORTE E MANUTENCAO 8.170,49 817,05 0,00 0,00 0,00 0,00 8.987,54 988,63 1.173,93 0,00 2.162,56 6.824,98 2.319,39 1.072,77 30/04/2020
107 513300 ALFSON MIRANDA BRAGA ANALISTA DO MP ATIVO BELO HORIZONTE - COMARCA; BH-12PJ JUIZO CRIMINAL-GAB 092PJ 10.069,62 1.006,96 0,00 0,00 0,00 0,00 11.076,58 1.218,42 1.841,63 0,00 3.060,05 8.016,53 1.550,00 544,22 30/04/2020
108 618400 ALICE MAGALHAES MACEDO DE CARVALHO ANALISTA DO MP ATIVO AÇUCENA - COMARCA; ACUCENA-PJ-UNPJ 8.170,49 817,05 0,00 0,00 0,00 0,00 8.987,54 988,63 1.330,34 0,00 2.318,97 6.668,57 2.319,39 1.007,77 30/04/2020
109 471000 ALICE TITONELI MOREIRA ANALISTA DO MP ATIVO MIRADOURO - COMARCA; MIRADOURO-PJ-UNPJ 10.069,62 1.006,96 0,00 0,00 0,00 0,00 11.076,58 1.218,42 1.789,50 0,00 3.007,92 8.068,66 2.319,39 599,12 30/04/2020
110 622400 ALINE BALBINO PORTUGAL LOPES ANALISTA DO MP ATIVO TRÊS PONTAS - COMARCA; TRES PONTAS-PJ-03PJ 8.170,49 817,05 0,00 0,00 0,00 0,00 8.987,54 988,63 1.330,34 0,00 2.318,97 6.668,57 2.319,39 1.074,89 30/04/2020
111 373000 ALINE BOTELHO RESENDE OFICIAL DO MP ATIVO JUIZ DE FORA - COMARCA; JUIZ DE FORA-PJ-22PJ 8.436,53 1.687,31 0,00 0,00 0,00 0,00 10.123,84 1.113,62 1.608,45 0,00 2.722,07 7.401,77 1.550,00 766,45 30/04/2020
112 407700 ALINE CRISTINA RODRIGUES PEREIRA COORDENADOR/ANALISTA ATIVO BELO HORIZONTE - COMARCA; DIRETORIA DE PROJETOS DE EDIFICACOES 0,00 2.687,03 13.435,16 0,00 0,00 0,00 16.122,19 1.329,19 3.198,72 0,00 4.527,91 11.594,28 2.319,39 694,14 30/04/2020
113 193100 ALINE CRISTINA SENA OLIVEIRA OFICIAL DO MP ATIVO UBERLÂNDIA - COMARCA; UBERLANDIA-PJ-03PJ 14.324,23 5.729,69 0,00 0,00 0,00 0,00 20.053,92 2.205,93 3.986,70 0,00 6.192,63 13.861,29 4.005,25 2.301,80 30/04/2020
114 554200 ALINE CRISTINA SILVA SOUZA OFICIAL DO MP ATIVO TIROS - COMARCA; TIROS-PJ-UNPJ 5.387,19 538,72 0,00 0,00 0,00 0,00 5.925,91 651,85 581,01 0,00 1.232,86 4.693,05 1.550,00 451,20 30/04/2020
115 505500 ALINE DA CUNHA MARREIROS OLIVEIRA ANALISTA DO MP ATIVO CARANGOLA - COMARCA; CARANGOLA-PJ-03PJ 10.069,62 1.006,96 0,00 0,00 0,00 0,00 11.076,58 1.218,42 1.789,50 0,00 3.007,92 8.068,66 2.319,39 481,50 30/04/2020
116 433500 ALINE DE MELO QUEIROZ ASSESSOR/OFICIAL ATIVO BELO HORIZONTE - COMARCA; ASSESSORIA TECNICA DO PROCON-MG 0,00 2.079,50 10.397,52 0,00 0,00 0,00 12.477,02 1.072,49 2.266,89 0,00 3.339,38 9.137,64 2.818,47 585,23 30/04/2020
117 542700 ALINE DE SOUSA ALBINO ANALISTA DO MP ATIVO CARMO DO PARANAÍBA - COMARCA; CARMO DO PARANAIBA-PJ-01PJ 8.436,53 843,65 0,00 0,00 0,00 0,00 9.280,18 1.020,82 1.401,96 0,00 2.422,78 6.857,40 1.550,00 727,68 30/04/2020
118 330000 ALINE DIORIO MAYRINK OFICIAL DO MP ATIVO BELO HORIZONTE - COMARCA; BH-18PJ DIREITOS HUMANOS 6.961,05 1.392,21 0,00 0,00 0,00 0,00 8.353,26 918,86 1.175,10 0,00 2.093,96 6.259,30 1.550,00 544,51 30/04/2020
119 499000 ALINE FERREIRA LOPES ANALISTA DO MP ATIVO TEÓFILO OTONI - COMARCA; COORD. DE DEF. DO PAT. PUBLICO-JEQUIT./MUCURI 10.069,62 1.006,96 0,00 0,00 0,00 0,00 11.076,58 1.218,42 1.841,63 0,00 3.060,05 8.016,53 1.755,17 481,50 30/04/2020
120 405300 ALINE LAIA CARDOZO DIRETOR/ANALISTA ATIVO BELO HORIZONTE - COMARCA; SUPERINTENDENCIA LOGISTICA SERVICOS 0,00 3.482,78 17.413,92 0,00 0,00 0,00 20.896,70 1.767,73 4.391,11 0,00 6.158,84 14.737,86 1.550,00 749,12 30/04/2020
121 278200 ALINE MARCIA FARIA BARBOSA FERNANDES OFICIAL DO MP ATIVO BARBACENA - COMARCA; BARBACENA-PJ-SECRETARIA 6.741,63 2.022,49 0,00 0,00 0,00 0,00 8.764,12 964,05 1.119,25 0,00 2.083,30 6.680,82 1.744,21 573,74 30/04/2020
122 389000 ALINE NERI NOBRE ANALISTA DO MP ATIVO MONTES CLAROS - COMARCA; COORD REG PJ DEF EDUC DIR CRIANCA ADOL NORTE 13.011,52 3.903,46 0,00 0,00 0,00 0,00 16.914,98 1.860,65 3.270,58 0,00 5.131,23 11.783,75 7.271,98 1.717,92 30/04/2020
123 294600 ALINE PATRICIA SILVA VIEIRA OFICIAL DO MP ATIVO UBERLÂNDIA - COMARCA; UBERLANDIA-PJ-03PJ 10.069,62 3.020,89 0,00 0,00 0,00 0,00 13.090,51 1.439,96 2.627,72 0,00 4.067,68 9.022,83 1.550,00 2.044,52 30/04/2020
124 420000 ALINE RODRIGUES CAMOROPIN ANALISTA DO MP ATIVO SABARÁ - COMARCA; SABARA-PJ-02PJ 12.601,30 2.520,26 0,00 0,00 0,00 0,00 15.121,56 1.663,37 2.831,64 0,00 4.495,01 10.626,55 5.338,32 1.281,67 30/04/2020
125 408300 ALINE SILVA ARAUJO DE PAULA ANALISTA DO MP ATIVO SÃO SEBASTIÃO DO PARAÍSO - COMARCA; SAO SEBASTIAO DO PARAISO-PJ-02PJ 12.601,30 2.520,26 0,00 0,00 0,00 0,00 15.121,56 1.663,37 2.831,64 0,00 4.495,01 10.626,55 5.948,56 1.421,79 30/04/2020
126 425400 ALINE TRINDADE DE FREITAS CAMPOS OFICIAL DO MP ATIVO BELO HORIZONTE - COMARCA; BH-14PJ DEFESA CONSUMIDOR-SECRETARIA 7.912,85 1.582,57 0,00 0,00 0,00 0,00 9.495,42 1.044,50 1.454,64 0,00 2.499,14 6.996,28 1.550,00 721,18 30/04/2020
127 517200 ALISSOM PEREIRA DA SILVA ANALISTA DO MP ATIVO BORDA DA MATA - COMARCA; BORDA DA MATA-PJ-UNPJ 10.069,62 1.006,96 0,00 0,00 0,00 0,00 11.076,58 1.218,42 1.841,63 0,00 3.060,05 8.016,53 1.550,00 544,22 30/04/2020
128 442400 ALISSON LABRE ANALISTA DO MP ATIVO VARGINHA - COMARCA; VARGINHA-PJ-02PJ 10.069,62 2.013,92 0,00 0,00 0,00 0,00 12.083,54 1.329,19 2.088,09 0,00 3.417,28 8.666,26 2.319,39 504,62 30/04/2020
129 643800 ALLAN PAUL FONSECA DE CASTRO OFICIAL DO MP ATIVO CONTAGEM - COMARCA; CONTAGEM-PJ-06PJ 4.665,64 279,94 0,00 0,00 0,00 0,00 4.945,58 602,17 354,22 0,00 956,39 3.989,19 3.088,78 637,21 30/04/2020
130 612900 ALLAN VINICIUS VIEIRA ARAUJO COORDENADOR/OFICIAL ATIVO BELO HORIZONTE - COMARCA; DIVISAO TRANSPORTES 0,00 1.181,92 11.819,15 0,00 0,00 0,00 13.001,07 631,30 2.532,33 0,00 3.163,63 9.837,44 2.590,09 690,94 30/04/2020
131 349000 ALLEC RODRIGUES VIEIRA OFICIAL DO MP ATIVO BELO HORIZONTE - COMARCA; COORD EST DEF DIR FAMILIA PESSOA DEFICI IDOSO 9.146,93 1.829,39 0,00 0,00 0,00 0,00 10.976,32 1.242,71 1.807,38 0,00 3.050,09 7.926,23 1.550,00 568,44 30/04/2020
132 297300 ALLYSON SALIBA MONTEIRO LAIZO ANALISTA DO MP ATIVO CONSELHEIRO LAFAIETE - COMARCA; CONSELHEIRO LAFAIETE-PJ-03PJ 16.750,82 5.025,25 0,00 0,00 0,00 0,00 21.776,07 2.395,37 4.460,33 0,00 6.855,70 14.920,37 7.673,98 2.346,12 30/04/2020
133 303700 ALMIR LOPES LOURES ANALISTA DO MP ATIVO BELO HORIZONTE - COMARCA; CENTRAL DE APOIO TECN-SETOR DE MEIO AMBIENTE 16.750,82 5.025,25 0,00 0,00 0,00 0,00 21.776,07 2.395,37 4.460,33 0,00 6.855,70 14.920,37 6.107,45 2.014,97 30/04/2020
134 515900 ALTAIR NEVES JUNIOR OFICIAL DO MP ATIVO BELO HORIZONTE - COMARCA; BH-01PJ FAZENDA PUBLICA-SECRETARIA 6.741,63 674,16 0,00 0,00 0,00 0,00 7.415,79 815,74 945,65 0,00 1.761,39 5.654,40 1.550,00 509,83 30/04/2020
135 233300 ALVARINDO BATISTA ANALISTA DO MP ATIVO BELO HORIZONTE - COMARCA; DIVISAO DE MULTIMIDIA 18.820,14 5.646,04 0,00 0,00 0,00 0,00 24.466,18 2.691,28 5.066,60 0,00 7.757,88 16.708,30 2.319,39 1.235,62 30/04/2020
136 274100 ALYSSON CARVALHO VIDAL DE LACERDA OFICIAL DO MP ATIVO MANHUAÇU - COMARCA; MANHUACU-PJ-01PJ 10.069,62 3.020,89 0,00 0,00 0,00 0,00 13.090,51 1.439,96 2.334,54 0,00 3.774,50 9.316,01 1.550,00 516,34 30/04/2020
137 621000 AMANDA BASTOS ALVES ANALISTA DO MP ATIVO BELO HORIZONTE - COMARCA; ASSESS TECNICO-JUR JUNTO AS PROC. DE JUST 8.170,49 817,05 0,00 0,00 0,00 0,00 8.987,54 988,63 1.330,34 0,00 2.318,97 6.668,57 1.550,00 1.007,77 30/04/2020
138 521700 AMANDA CRISTINA AGUIAR MACHADO OFICIAL DO MP ATIVO CONGONHAS - COMARCA; CONGONHAS-PJ-01PJ 5.387,19 538,72 0,00 0,00 0,00 0,00 5.925,91 651,85 528,87 0,00 1.180,72 4.745,19 1.550,00 624,02 30/04/2020
139 613400 AMANDA DE ASSIS IUNES SANTOS ANALISTA DO MP ATIVO CONGONHAS - COMARCA; CONGONHAS-PJ-01PJ 8.170,49 817,05 0,00 0,00 0,00 0,00 8.987,54 988,63 1.330,34 0,00 2.318,97 6.668,57 2.319,39 1.038,13 30/04/2020
140 520800 AMANDA DE SOUZA MACHADO ANALISTA DO MP ATIVO BAEPENDI - COMARCA; BAEPENDI-PJ-UNPJ 10.069,62 1.006,96 0,00 0,00 0,00 0,00 11.076,58 1.218,42 1.737,36 0,00 2.955,78 8.120,80 1.550,00 1.296,07 30/04/2020
141 663900 AMANDA DENISE GONCALVES DA SILVA ASSESSOR ATIVO BELO HORIZONTE - COMARCA; DIRET DE FORMACAO, APERFEIC. E POS-GRADUACAO 0,00 0,00 3.076,28 0,00 0,00 0,00 3.076,28 443,62 205,10 0,00 648,72 2.427,56 1.550,00 0,00 30/04/2020
142 543100 AMANDA VIEIRA FREITAS BRESSANE ANALISTA DO MP ATIVO PARAGUAÇU - COMARCA; PARAGUACU-PJ-UNPJ 8.436,53 843,65 0,00 0,00 0,00 0,00 9.280,18 1.020,82 1.401,96 0,00 2.422,78 6.857,40 1.550,00 651,00 30/04/2020
143 434400 AMARILIS ASSIS SIMAO CURCIO ANALISTA DO MP ATIVO MANHUAÇU - COMARCA; MANHUACU-PJ-SECRETARIA 10.069,62 2.013,92 0,00 0,00 0,00 0,00 12.083,54 1.329,19 2.088,09 0,00 3.417,28 8.666,26 1.550,00 504,62 30/04/2020
144 652000 AMAURI SILVA ALVES OFICIAL DO MP ATIVO BELO HORIZONTE - COMARCA; BH-23PJ INFRACIONAL-SEC EXP 4.238,09 254,29 0,00 0,00 0,00 0,00 4.492,38 544,28 263,47 0,00 807,75 3.684,63 1.550,00 551,05 30/04/2020
145 273700 AMBROLINA CARNEIRO DE VASCONCELOS OFICIAL DO MP ATIVO FRUTAL - COMARCA; FRUTAL-PJ-01PJ 10.736,08 7.515,26 0,00 0,00 0,00 0,00 18.251,34 2.007,65 3.545,52 0,00 5.553,17 12.698,17 2.365,45 17.442,30 30/04/2020
146 58000 AMELIA GUARIZE DE CASTRO OFICIAL DO MP ATIVO JUIZ DE FORA - COMARCA; JUIZ DE FORA-PJ-SECRETARIA 6.741,63 6.741,63 0,00 0,00 0,00 1.483,16 14.966,42 1.483,16 2.838,54 0,00 4.321,70 10.644,72 3.167,99 838,50 30/04/2020
147 324301 AMERICA SUELI FERREIRA DA SILVA ANALISTA DO MP ATIVO MONTE CARMELO - COMARCA; MONTE CARMELO-PJ-02PJ 10.069,62 1.006,96 0,00 0,00 0,00 0,00 11.076,58 1.218,42 1.789,50 0,00 3.007,92 8.068,66 2.319,39 504,62 30/04/2020
148 273300 AMUJACY DE BRITO ASSIZ OFICIAL DO MP ATIVO BELO HORIZONTE - COMARCA; BH-12PJ JUIZO CRIMINAL-SECRETARIA 10.069,62 3.020,89 0,00 0,00 0,00 0,00 13.090,51 1.439,96 2.125,99 0,00 3.565,95 9.524,56 1.550,00 1.211,25 30/04/2020
149 482200 ANA ALICE LOPES ACHTSCHIN ANALISTA DO MP ATIVO BELO HORIZONTE - COMARCA; PROC JUST RECURSOS ESP E EXTRAORD CRIMINAIS 10.397,52 1.039,75 0,00 0,00 0,00 0,00 11.437,27 1.258,10 1.929,91 0,00 3.188,01 8.249,26 1.550,00 802,31 30/04/2020
150 490400 ANA AMELIA PAULINO GARCIA OFICIAL DO MP ATIVO CONTAGEM - COMARCA; CONTAGEM-PJ-13PJ 7.421,79 742,18 0,00 0,00 0,00 0,00 8.163,97 898,04 1.128,77 0,00 2.026,81 6.137,16 1.550,00 1.005,95 30/04/2020
151 279100 ANA CAROLINA ARAUJO PEREIRA ANALISTA DO MP ATIVO BELO HORIZONTE - COMARCA; DIRETORIA DE PROJETOS DE EDIFICACOES 16.750,82 5.025,25 0,00 0,00 0,00 0,00 21.776,07 2.395,37 4.408,20 0,00 6.803,57 14.972,50 1.550,00 1.432,58 30/04/2020
152 653300 ANA CAROLINA CYRNE DINIZ ASSESSOR ATIVO BELO HORIZONTE - COMARCA; CENTRAL DE APOIO TECNICO-SETOR CONTABIL 0,00 0,00 8.170,49 0,00 0,00 0,00 8.170,49 713,09 1.483,92 0,00 2.197,01 5.973,48 1.550,00 487,95 30/04/2020
153 359400 ANA CAROLINA DE ABREU FARIA ASSESSOR ATIVO BELO HORIZONTE - COMARCA; SUPERINTENDÊNCIA DE ENGENHARIA E ARQUITETURA 0,00 0,00 10.397,52 0,00 0,00 0,00 10.397,52 713,09 2.096,36 0,00 2.809,45 7.588,07 1.550,00 418,24 30/04/2020
154 408500 ANA CAROLINA DE CASTRO CARVALHO ANALISTA DO MP ATIVO BARBACENA - COMARCA; BARBACENA - SECRETARIA DAS PJS CRIMINAIS 12.601,30 2.520,26 0,00 0,00 0,00 0,00 15.121,56 1.663,37 2.831,64 0,00 4.495,01 10.626,55 1.550,00 1.089,12 30/04/2020
155 420200 ANA CAROLINA FERNANDES SILVA ANALISTA DO MP ATIVO BELO HORIZONTE - COMARCA; GABINETE DE PROCURADOR DE JUSTIÇA - SALA 704 12.204,02 2.440,80 0,00 0,00 4.881,61 0,00 19.526,43 1.610,93 4.057,40 0,00 5.668,33 13.858,10 1.550,00 1.746,48 30/04/2020
156 522100 ANA CAROLINA FERNANDINO VIDAL PEREIRA SANTOS OFICIAL DO MP ATIVO BELO HORIZONTE - COMARCA; SECRETARIA DO PROCON-MG 6.741,63 674,16 0,00 0,00 0,00 0,00 7.415,79 815,74 945,65 0,00 1.761,39 5.654,40 1.550,00 509,83 30/04/2020
157 502400 ANA CAROLINA GONCALVES FERNANDES ANALISTA DO MP ATIVO GRAO MOGOL - COMARCA; GRAO MOGOL-PJ-UNPJ 10.069,62 1.006,96 0,00 0,00 0,00 0,00 11.076,58 1.218,42 1.841,63 0,00 3.060,05 8.016,53 2.319,39 481,50 30/04/2020
158 529900 ANA CAROLINA GONCALVES PECANHA CHEQUER ANALISTA DO MP ATIVO MANHUAÇU - COMARCA; MANHUACU-PJ-04PJ 8.436,53 843,65 0,00 0,00 0,00 0,00 9.280,18 1.020,82 1.401,96 0,00 2.422,78 6.857,40 2.319,39 651,00 30/04/2020
159 431900 ANA CAROLINA MOTTA GUATIMOSIM ANALISTA DO MP ATIVO BELO HORIZONTE - COMARCA; GABINETE DE PROCURADOR DE JUSTIÇA - SALA 404 12.204,02 2.440,80 0,00 0,00 0,00 0,00 14.644,82 1.610,93 2.714,96 0,00 4.325,89 10.318,93 2.319,39 1.553,42 30/04/2020
160 490600 ANA CAROLINA XAVIER GODOY ANALISTA DO MP ATIVO BELO HORIZONTE - COMARCA; ASSESS TECNICO-JUR JUNTO AS PROC. DE JUST 10.069,62 1.006,96 0,00 0,00 0,00 0,00 11.076,58 1.218,42 1.737,36 0,00 2.955,78 8.120,80 3.088,78 481,50 30/04/2020
161 600300 ANA CAROLINE PEREIRA DINIZ ANALISTA DO MP ATIVO BELO HORIZONTE - COMARCA; COMB CRIMES PRAT POR AG POL MUN-SECRETARIA 8.436,53 843,65 0,00 0,00 0,00 0,00 9.280,18 1.020,82 1.401,96 0,00 2.422,78 6.857,40 3.088,78 618,04 30/04/2020
162 615800 ANA CAROLINE PEREIRA OLIVEIRA OFICIAL DO MP ATIVO ALFENAS - COMARCA; ALFENAS-PJ-06PJ 5.217,34 521,73 0,00 0,00 0,00 0,00 5.739,07 631,30 535,28 0,00 1.166,58 4.572,49 1.550,00 606,59 30/04/2020
163 324800 ANA CECILIA MENDES DA SILVA OFICIAL DO MP ATIVO OURO FINO - COMARCA; OURO FINO-PJ-01PJ 10.069,62 3.020,89 0,00 0,00 0,00 0,00 13.090,51 1.439,96 2.282,40 0,00 3.722,36 9.368,15 1.550,00 1.523,17 30/04/2020
164 441300 ANA CLAUDIA ALKIMIM MIRANDA BOMTEMPO ANALISTA DO MP ATIVO MONTES CLAROS - COMARCA; MONTES CLAROS-PJ-11PJ 12.204,02 2.440,80 0,00 0,00 0,00 0,00 14.644,82 1.610,93 2.610,69 0,00 4.221,62 10.423,20 1.550,00 1.553,42 30/04/2020
165 642500 ANA CLAUDIA DA COSTA NAVES OFICIAL DO MP ATIVO MONTE CARMELO - COMARCA; MONTE CARMELO-PJ-02PJ 4.238,09 254,29 0,00 0,00 0,00 0,00 4.492,38 547,00 263,47 0,00 810,47 3.681,91 2.319,39 578,88 30/04/2020
166 604900 ANA CLAUDIA OLIVEIRA DE MIRANDA OFICIAL DO MP ATIVO PONTE NOVA - COMARCA; PONTE NOVA-PJ-04PJ 4.974,42 497,44 0,00 0,00 0,00 0,00 5.471,86 601,90 417,74 0,00 1.019,64 4.452,22 1.550,00 348,54 30/04/2020
167 379300 ANA CRISTINA ALVES FLAVIO ANALISTA DO MP ATIVO SÃO GOTARDO - COMARCA; SAO GOTARDO-PJ-01PJ 13.011,52 2.602,30 0,00 0,00 0,00 0,00 15.613,82 1.717,52 2.899,99 0,00 4.617,51 10.996,31 7.940,37 1.740,88 30/04/2020
168 461200 ANA CRISTINA ALVES PASCHOAL ANALISTA DO MP ATIVO SANTA LUZIA - COMARCA; SANTA LUZIA-PJ-03PJ 10.069,62 1.006,96 0,00 0,00 0,00 0,00 11.076,58 1.218,42 1.789,50 0,00 3.007,92 8.068,66 1.550,00 599,12 30/04/2020
169 514100 ANA CRISTINA ARAUJO ASSUNCAO ANALISTA DO MP ATIVO BELO HORIZONTE - COMARCA; ASSESS JUR DO CONS SUPERIOR DO MINISTERIO PUB 10.069,62 1.006,96 0,00 0,00 0,00 0,00 11.076,58 1.218,42 1.789,50 0,00 3.007,92 8.068,66 2.319,39 544,22 30/04/2020
170 113400 ANA CRISTINA BRAGA ALBUQUERQUE ASSESSOR/ANALISTA ATIVO BELO HORIZONTE - COMARCA; ASSESS ESP ADM E FINANCEIRA DO PGJ ADJ ADM 30.090,04 21.063,02 0,00 0,00 0,00 0,00 51.153,06 3.900,84 7.810,02 15.690,84 27.401,70 23.751,36 7.223,96 520,11 30/04/2020
171 233800 ANA CRISTINA BRAGA SOARES RIOS OFICIAL DO MP ATIVO CONTAGEM - COMARCA; CONTAGEM-PJ-SECRETARIA 10.397,52 3.119,26 0,00 0,00 0,00 0,00 13.516,78 1.486,85 2.438,87 0,00 3.925,72 9.591,06 1.550,00 1.027,96 30/04/2020
172 186400 ANA CRISTINA DE AZEVEDO LOPES OFICIAL DO MP ATIVO UBÁ - COMARCA; UBA-PJ-01PJ 14.324,23 5.729,69 0,00 0,00 0,00 0,00 20.053,92 2.205,93 4.038,84 0,00 6.244,77 13.809,15 3.234,93 2.362,55 30/04/2020
173 465100 ANA CRISTINA DE OLIVEIRA GUIMARAES ANALISTA DO MP ATIVO ITAJUBA - COMARCA; ITAJUBA-PJ-05PJ 10.069,62 1.006,96 0,00 0,00 0,00 0,00 11.076,58 1.218,42 1.737,36 0,00 2.955,78 8.120,80 3.088,78 504,62 30/04/2020
174 500600 ANA CRISTINA LATADO SUDARIO ANALISTA DO MP ATIVO UBERLÂNDIA - COMARCA; UBERLANDIA-PJ-09PJ 10.069,62 1.006,96 0,00 0,00 0,00 0,00 11.076,58 1.218,42 1.841,63 0,00 3.060,05 8.016,53 1.550,00 567,34 30/04/2020
175 331400 ANA CRISTINA RIBEIRO ALVES OFICIAL DO MP ATIVO BAMBUÍ - COMARCA; BAMBUI-PJ-UNPJ 8.858,43 1.771,69 0,00 0,00 0,00 0,00 10.630,12 1.169,31 1.680,23 0,00 2.849,54 7.780,58 1.550,00 991,76 30/04/2020
176 249300 ANA ELOINA MARTINS OFICIAL DO MP ATIVO BETIM - COMARCA; BETIM-PJ-02PJ 12.204,02 4.881,61 0,00 0,00 0,00 0,00 17.085,63 1.879,42 3.312,35 0,00 5.191,77 11.893,86 1.608,08 1.977,06 30/04/2020
177 257400 ANA FLAVIA CAMBRAIA ANALISTA DO MP ATIVO BELO HORIZONTE - COMARCA; BH-19PJ SAUDE-SECRETARIA 150PJ 17.413,92 5.224,18 0,00 0,00 0,00 0,00 22.638,10 2.490,19 4.619,18 0,00 7.109,37 15.528,73 7.139,20 2.157,79 30/04/2020
178 248201 ANA FLAVIA DE MORAIS SOUZA ANALISTA DO MP ATIVO DIVINÓPOLIS - COMARCA; DIVINOPOLIS-PJ-01PJ 10.069,62 3.020,89 0,00 0,00 0,00 0,00 13.090,51 1.439,96 2.230,27 0,00 3.670,23 9.420,28 2.934,90 596,36 30/04/2020
179 621100 ANA FLAVIA DINIZ TEODORO OFICIAL DO MP ATIVO SANTA LUZIA - COMARCA; SANTA LUZIA-PJ-06PJ 5.217,34 521,73 0,00 0,00 0,00 0,00 5.739,07 631,30 535,28 0,00 1.166,58 4.572,49 1.550,00 578,71 30/04/2020
180 238600 ANA FLAVIA FRANCO OFICIAL DO MP ATIVO BELO HORIZONTE - COMARCA; DIRETORIA DE PESSOAL ADMINISTRATIVO - DPAD 12.601,30 3.780,39 0,00 0,00 0,00 0,00 16.381,69 1.801,99 3.140,06 0,00 4.942,05 11.439,64 1.569,16 1.082,81 30/04/2020
181 402900 ANA FLAVIA PORTES DE CARVALHO ANALISTA DO MP ATIVO BELO HORIZONTE - COMARCA; DIRET DE PLANOS PROJETOS E PROGRAMAS INST 13.011,52 2.602,30 0,00 0,00 0,00 0,00 15.613,82 1.717,52 2.899,99 0,00 4.617,51 10.996,31 1.550,00 1.017,86 30/04/2020
182 382700 ANA KARENINA SALDANHA GONTIJO ANALISTA DO MP ATIVO BELO HORIZONTE - COMARCA; ASSESS TECNICO-JUR JUNTO AS PROC. DE JUST 13.435,16 2.687,03 0,00 0,00 0,00 0,00 16.122,19 1.773,44 3.076,55 0,00 4.849,99 11.272,20 2.319,39 2.322,09 30/04/2020
183 620500 ANA KARINE DE ANDRADE OLIVEIRA ANALISTA DO MP ATIVO RIBEIRÃO DAS NEVES - COMARCA; SEC PJ EXECUCAO PENAL RIBEIRAO NEVES 7.421,79 742,18 0,00 0,00 0,00 0,00 8.163,97 898,04 1.128,77 0,00 2.026,81 6.137,16 1.550,00 915,47 30/04/2020
184 462200 ANA LUCIA ANDRADE TOMICH OTTONI ANALISTA DO MP ATIVO TEÓFILO OTONI - COMARCA; TEOFILO OTONI-PJ-06PJ 10.069,62 1.006,96 0,00 0,00 0,00 0,00 11.076,58 1.218,42 1.789,50 0,00 3.007,92 8.068,66 1.550,00 504,62 30/04/2020
185 504100 ANA LUCIA CATAO DE CARVALHO OFICIAL DO MP ATIVO BELO HORIZONTE - COMARCA; BH-09PJ AUDITORIA MILITAR-SECRETARIA 7.421,79 742,18 0,00 0,00 0,00 0,00 8.163,97 898,04 1.076,63 0,00 1.974,67 6.189,30 2.319,39 944,68 30/04/2020
186 274700 ANA LUCIA DE ALENCAR BRAGATO OFICIAL DO MP ATIVO UBERABA - COMARCA; UBERABA-PJ-07PJ 10.069,62 3.020,89 0,00 0,00 0,00 0,00 13.090,51 1.439,96 2.334,54 0,00 3.774,50 9.316,01 1.550,00 898,98 30/04/2020
187 509400 ANA LUCIA DORNELAS MALLOSTO ANALISTA DO MP ATIVO JUIZ DE FORA - COMARCA; JUIZ DE FORA-PJ-18PJ 9.444,70 944,47 0,00 0,00 0,00 0,00 10.389,17 1.142,81 1.621,25 0,00 2.764,06 7.625,11 1.550,00 710,93 30/04/2020
188 302600 ANA LUCIA LOPES SANTOS OFICIAL DO MP ATIVO BELO HORIZONTE - COMARCA; DIVISÃO DE FISCALIZAÇÃO DAS RELAÇÕES DE CONSU 10.069,62 3.020,89 0,00 0,00 0,00 0,00 13.090,51 1.439,96 2.679,85 0,00 4.119,81 8.970,70 1.550,00 3.001,40 30/04/2020
189 493400 ANA LUISA NOGUEIRA MOREIRA ANALISTA DO MP ATIVO BELO HORIZONTE - COMARCA; BH-19PJ SAUDE-SECRETARIA 130PJ 10.069,62 1.006,96 0,00 0,00 0,00 0,00 11.076,58 1.218,42 1.841,63 0,00 3.060,05 8.016,53 1.550,00 481,50 30/04/2020
190 389300 ANA LUISA REUTER LIMA ANALISTA DO MP ATIVO BELO HORIZONTE - COMARCA; DIRETORIA DE SISTEMAS DE INFORMACAO 10.736,08 2.147,22 0,00 0,00 0,00 0,00 12.883,30 1.417,16 2.283,83 0,00 3.700,99 9.182,31 1.550,00 885,79 30/04/2020
191 480600 ANA LUIZA FERNANDES FRAGA E GRECO OFICIAL DO MP ATIVO BELO HORIZONTE - COMARCA; BH-23PJ CIVEL-SEC EXP CIVEIS 6.741,63 674,16 0,00 0,00 0,00 0,00 7.415,79 815,74 945,65 0,00 1.761,39 5.654,40 1.550,00 509,83 30/04/2020
192 481400 ANA MARCIA CANDIDA FERREIRA OFICIAL DO MP ATIVO BRUMADINHO - COMARCA; BRUMADINHO-PJ-02PJ 6.123,79 612,38 0,00 0,00 0,00 0,00 6.736,17 740,98 779,32 0,00 1.520,30 5.215,87 1.550,00 779,40 30/04/2020
193 643100 ANA MARIA LOPES MIRANDA ANALISTA DO MP ATIVO BELO HORIZONTE - COMARCA; CAO-TS-TERCEIRO SETOR 7.187,72 431,26 0,00 0,00 0,00 0,00 7.618,98 671,12 1.041,30 0,00 1.712,42 5.906,56 1.550,00 981,63 30/04/2020
194 556400 ANA MARIA OLIVEIRA SOUZA OFICIAL DO MP ATIVO ITAPECERICA - COMARCA; ITAPECERICA-PJ-UNPJ 5.387,19 538,72 0,00 0,00 0,00 0,00 5.925,91 651,85 581,01 0,00 1.232,86 4.693,05 1.550,00 396,49 30/04/2020
195 409600 ANA OLIVIA FARIA ROSENBURG ANALISTA DO MP ATIVO BELO HORIZONTE - COMARCA; DIRETORIA DO COLEGIO E DA CAMARA DE PJ 12.601,30 3.780,39 0,00 0,00 0,00 0,00 16.381,69 1.801,99 3.140,06 0,00 4.942,05 11.439,64 1.550,00 1.240,74 30/04/2020
196 461500 ANA PAULA ALVES CARVALHO ANALISTA DO MP ATIVO UBERLÂNDIA - COMARCA; UBERLANDIA-PJ-25PJ 10.069,62 1.006,96 0,00 0,00 0,00 0,00 11.076,58 1.218,42 1.841,63 0,00 3.060,05 8.016,53 2.319,39 504,62 30/04/2020
197 523200 ANA PAULA ALVES DA SILVA OFICIAL DO MP ATIVO GOVERNADOR VALADARES - COMARCA; GOVERNADOR VALADARES-PJ-10PJ 6.741,63 674,16 0,00 0,00 0,00 0,00 7.415,79 815,74 841,38 0,00 1.657,12 5.758,67 3.088,78 569,17 30/04/2020
198 381200 ANA PAULA BARROS PEREIRA RIGHI ANALISTA DO MP ATIVO BELO HORIZONTE - COMARCA; PROC JUST RECURSOS ESP E EXTRAORD CRIMINAIS 13.011,52 2.602,30 0,00 0,00 0,00 0,00 15.613,82 1.717,52 2.899,99 0,00 4.617,51 10.996,31 2.319,39 1.073,46 30/04/2020
199 227200 ANA PAULA DA SILVA CAMPOLINA ANALISTA DO MP ATIVO BELO HORIZONTE - COMARCA; DIRETORIA DE ORCAMENTO-DIOR/SPC 18.820,14 9.410,07 0,00 0,00 0,00 0,00 28.230,21 3.105,32 6.039,98 0,00 9.145,30 19.084,91 7.465,78 1.717,93 30/04/2020
200 84200 ANA PAULA DE SOUZA ROCHA OFICIAL DO MP ATIVO BELO HORIZONTE - COMARCA; DIRETORIA DE CONTABILIDADE 28.280,68 19.796,48 0,00 0,00 0,00 0,00 48.077,16 3.900,84 7.810,02 12.614,94 24.325,80 23.751,36 7.223,96 520,11 30/04/2020
201 278500 ANA PAULA DIAS CAPANEMA OFICIAL DO MP ATIVO BELO HORIZONTE - COMARCA; DIRETORIA DE SEGURANCA 10.069,62 3.020,89 0,00 0,00 0,00 0,00 13.090,51 1.441,03 2.334,25 0,00 3.775,28 9.315,23 1.627,75 1.099,99 30/04/2020
202 327300 ANA PAULA GARCIA MAXIMO OFICIAL DO MP ATIVO UNAÍ - COMARCA; UNAI-PJ-01PJ 10.736,08 4.294,43 0,00 0,00 0,00 0,00 15.030,51 1.653,36 2.652,94 0,00 4.306,30 10.724,21 1.550,00 2.410,39 30/04/2020
203 270000 ANA PAULA GOULART CRUZ DE MAGALHAES ANALISTA DO MP ATIVO BELO HORIZONTE - COMARCA; COMB CRIMES PRAT POR AG POL MUN-ASSESSORIA 13.435,16 4.030,55 0,00 0,00 0,00 0,00 17.465,71 1.921,23 3.405,37 0,00 5.326,60 12.139,11 1.550,00 1.221,65 30/04/2020
204 262100 ANA PAULA KOMATSUZAKI ABIJAUDI ANALISTA DO MP ATIVO BELO HORIZONTE - COMARCA; BH-17PJ PATRIMONIO PUBLICO-SECRETARIA 17.413,92 6.965,57 0,00 0,00 0,00 0,00 24.379,49 2.681,74 4.993,25 0,00 7.674,99 16.704,50 1.550,00 1.787,43 30/04/2020
205 278900 ANA PAULA MOREIRA GURGEL ANALISTA DO MP ATIVO BELO HORIZONTE - COMARCA; DIRETORIA-GERAL 16.750,82 6.700,33 0,00 0,00 0,00 0,00 23.451,15 2.579,63 4.870,31 0,00 7.449,94 16.001,21 7.697,10 2.335,31 30/04/2020
206 425701 ANA PAULA ROCHA ANALISTA DO MP ATIVO BELO HORIZONTE - COMARCA; SUPERINTENDENCIA DE COMUNICACAO INTEGRADA 8.170,49 817,05 0,00 0,00 0,00 0,00 8.987,54 1.024,58 1.410,33 0,00 2.434,91 6.552,63 2.319,39 934,30 30/04/2020
207 395601 ANA PAULA SALGE OLIVEIRA ANALISTA DO MP ATIVO UBERABA - COMARCA; COORD REG PP TRIANGULO MINEIRO UBERABA 10.069,62 3.020,89 0,00 0,00 0,00 0,00 13.090,51 1.439,96 2.334,54 0,00 3.774,50 9.316,01 1.561,24 541,72 30/04/2020
208 473200 ANA PAULA SCOTTON BRASIL ANALISTA DO MP ATIVO JUIZ DE FORA - COMARCA; JUIZ DE FORA-PJ-03PJ 10.069,62 1.006,96 0,00 0,00 0,00 0,00 11.076,58 1.218,42 1.841,63 0,00 3.060,05 8.016,53 2.319,39 504,62 30/04/2020
209 633600 ANA PAULA SILVA FERNANDES OFICIAL DO MP ATIVO CATAGUASES - COMARCA; CATAGUASES-PJ-04PJ 4.817,57 481,76 0,00 0,00 0,00 0,00 5.299,33 582,93 427,65 0,00 1.010,58 4.288,75 1.550,00 711,62 30/04/2020
210 470900 ANA PAULA VALADARES ANALISTA DO MP ATIVO PITANGUI - COMARCA; PITANGUI-PJ-01PJ 10.069,62 1.006,96 0,00 0,00 0,00 0,00 11.076,58 1.218,42 1.737,36 0,00 2.955,78 8.120,80 1.550,00 504,62 30/04/2020
211 447000 ANA PAULA VALENTIM DE ARAUJO ANALISTA DO MP ATIVO BELO HORIZONTE - COMARCA; COMB CRIMES PRAT POR AG POL MUN-ASSESSORIA 10.069,62 2.013,92 0,00 0,00 4.027,85 0,00 16.111,39 1.329,19 3.195,75 0,00 4.524,94 11.586,45 1.550,00 504,62 30/04/2020
212 604200 ANA PAULA VIANA E SILVA OFICIAL DO MP ATIVO BELO HORIZONTE - COMARCA; BH-17PJ PATRIMONIO PUBLICO-SECRETARIA 5.387,19 538,72 0,00 0,00 0,00 0,00 5.925,91 651,85 581,01 0,00 1.232,86 4.693,05 2.319,39 386,85 30/04/2020
213 505400 ANA PAULA VIEIRA SOUTO OFICIAL DO MP ATIVO ALMENARA - COMARCA; COORD. PAT. PUBLICO-MUCURI/JEQUIT - ALMENARA 5.562,64 1.668,79 0,00 0,00 0,00 0,00 7.231,43 795,46 848,39 0,00 1.643,85 5.587,58 1.550,00 495,07 30/04/2020
214 280200 ANA RACHEL BRANDAO LADEIRA ROLAND DIRETOR/ANALISTA ATIVO BELO HORIZONTE - COMARCA; SUPRIN DE FORMACAO E APERFEICOAMENTO-SFA/CEAF 16.750,82 8.508,03 0,00 0,00 0,00 0,00 25.258,85 2.395,37 5.418,10 0,00 7.813,47 17.445,38 1.550,00 2.586,71 30/04/2020
215 601200 ANA REGINA RIBEIRO COORDENADOR/ANALISTA ATIVO BELO HORIZONTE - COMARCA; DIV FISCAL ADM CONT TERCEIRIZACAO 0,00 1.181,92 11.819,15 0,00 0,00 0,00 13.001,07 1.133,93 2.394,10 0,00 3.528,03 9.473,04 1.550,00 450,66 30/04/2020
216 384700 ANA RODRIGUES PEREIRA MARRA ANALISTA DO MP ATIVO COROMANDEL - COMARCA; COROMANDEL-PJ-SECRETARIA 10.069,62 2.013,92 0,00 0,00 0,00 0,00 12.083,54 1.329,19 1.983,81 0,00 3.313,00 8.770,54 2.319,39 847,57 30/04/2020
217 232700 ANA SILVIA SEMBLANO NAKAMURA ASSESSOR/OFICIAL ATIVO BELO HORIZONTE - COMARCA; CENT DE APOIO TEC-SETOR DEF,IDOSO E INFANC 0,00 3.119,26 10.397,52 0,00 0,00 0,00 13.516,78 1.442,25 2.451,14 0,00 3.893,39 9.623,39 1.550,00 618,20 30/04/2020
218 602100 ANACLETO FRANCISCO MARCIER PIMENTA OFICIAL DO MP ATIVO SÃO JOÃO DEL REI - COMARCA; SAO JOAO DEL REI-PJ-03PJ 4.974,42 497,44 0,00 0,00 0,00 0,00 5.471,86 601,90 288,98 0,00 890,88 4.580,98 2.319,39 364,39 30/04/2020
219 310400 ANADEJE DO CARMO DINIZ ARAUJO OFICIAL DO MP ATIVO BELO HORIZONTE - COMARCA; DIRETORIA DE PESSOAL ADMINISTRATIVO - DPAD 9.146,93 2.744,08 0,00 0,00 0,00 0,00 11.891,01 1.308,01 2.040,97 0,00 3.348,98 8.542,03 1.550,00 792,88 30/04/2020
220 337000 ANAILDES MARIA MENDES OFICIAL DO MP ATIVO JANAÚBA - COMARCA; JANAUBA-PJ-02PJ 9.146,93 1.829,39 0,00 0,00 0,00 0,00 10.976,32 1.207,40 1.817,09 0,00 3.024,49 7.951,83 2.319,39 826,39 30/04/2020
221 192900 ANATALIA CERQUEIRA LIMA PERES OFICIAL DO MP ATIVO UBERABA - COMARCA; COORD REG SAUDE MACROR SANIT TRIANGULO SUL 10.235,06 4.294,43 0,00 0,00 0,00 0,00 14.529,49 1.653,36 2.671,58 0,00 4.324,94 10.204,55 1.782,45 954,97 30/04/2020
222 377400 ANDEIRSON DA MATTA BARBOSA ANALISTA DO MP ATIVO POUSO ALEGRE - COMARCA; POUSO ALEGRE-PJ-01PJ 10.069,62 2.013,92 0,00 0,00 0,00 0,00 12.083,54 1.329,19 2.088,09 0,00 3.417,28 8.666,26 1.550,00 550,48 30/04/2020
223 317400 ANDERSON DA SILVA BICALHO OFICIAL DO MP ATIVO CONTAGEM - COMARCA; COORD REG DEF ORDEM ECONOMICA TRIB CONTAGEM 8.436,53 1.687,31 0,00 0,00 0,00 0,00 10.123,84 1.113,62 1.452,04 0,00 2.565,66 7.558,18 1.550,00 731,30 30/04/2020
224 506900 ANDERSON DE SOUZA DAMIANI ANALISTA DO MP ATIVO BELO HORIZONTE - COMARCA; DIRETORIA DE PAGAMENTO DE PESSOAL-DPAG 10.069,62 3.020,89 0,00 0,00 0,00 0,00 13.090,51 1.439,96 2.230,27 0,00 3.670,23 9.420,28 2.319,39 569,04 30/04/2020
225 410000 ANDERSON DE SOUZA NETO ASSESSOR ATIVO BELO HORIZONTE - COMARCA; DIRETORIA DE ADMINISTRACAO FINANCEIRA 0,00 0,00 5.136,32 0,00 0,00 0,00 5.136,32 713,09 649,53 0,00 1.362,62 3.773,70 1.550,00 262,92 30/04/2020
226 181900 ANDERSON FLAVIO DE OLIVEIRA OFICIAL DO MP ATIVO ITAGUARA - COMARCA; ITAGUARA-PJ-SECRETARIA 12.601,30 5.040,52 0,00 0,00 0,00 0,00 17.641,82 1.940,60 3.448,48 0,00 5.389,08 12.252,74 1.550,00 1.248,39 30/04/2020
227 333200 ANDERSON JOSE DE FREITAS OFICIAL DO MP ATIVO IPATINGA - COMARCA; IPATINGA-PJ-07PJ 9.146,93 1.829,39 0,00 0,00 0,00 0,00 10.976,32 1.207,40 2.058,13 0,00 3.265,53 7.710,79 2.319,39 2.448,66 30/04/2020
228 462100 ANDERSON LUIZ GUIMARAES CARDOSO ANALISTA DO MP ATIVO BARBACENA - COMARCA; BARBACENA-PJ-02PJ 10.397,52 1.039,75 0,00 0,00 0,00 0,00 11.437,27 1.258,10 1.929,91 0,00 3.188,01 8.249,26 1.561,34 802,31 30/04/2020
229 429700 ANDERSON MELO DE SOUZA ASSESSOR/OFICIAL ATIVO BELO HORIZONTE - COMARCA; DIRET DE ESTAGIOS E CONVENIOS ACADEMICOS 0,00 2.079,50 10.397,52 0,00 0,00 0,00 12.477,02 808,34 2.339,53 0,00 3.147,87 9.329,15 1.550,00 479,43 30/04/2020
230 545600 ANDERSON MENDES PROCOPIO FERREIRA ANALISTA DO MP ATIVO BELO HORIZONTE - COMARCA; BH-12PJ JUIZO CRIMINAL-GAB 089PJ 8.436,53 843,65 0,00 0,00 3.093,39 0,00 12.373,57 1.020,82 2.252,65 0,00 3.273,47 9.100,10 1.550,00 651,00 30/04/2020
231 519900 ANDERSON MOREIRA DOEHLER ANALISTA DO MP ATIVO TEÓFILO OTONI - COMARCA; TEOFILO OTONI-PJ-07PJ 3.305,64 2.833,41 0,00 0,00 0,00 0,00 6.139,05 1.350,59 447,47 0,00 1.798,06 4.340,99 1.550,00 819,15 30/04/2020
232 103000 ANDERSON TADEU DE DEUS ASSESSOR ATIVO BELO HORIZONTE - COMARCA; BH-26 CRIME CONT CRIAN ADOL-SECRETARIA 0,00 3.595,42 5.136,32 0,00 0,00 0,00 8.731,74 713,09 1.638,27 0,00 2.351,36 6.380,38 1.550,00 446,96 30/04/2020
233 309200 ANDITYAS SOARES DE MOURA COSTA MATOS ANALISTA DO MP ATIVO BELO HORIZONTE - COMARCA; GABINETE DE PROCURADOR DE JUSTIÇA - SALA 304 14.324,23 4.297,27 0,00 0,00 0,00 0,00 18.621,50 2.048,37 3.688,25 0,00 5.736,62 12.884,88 1.550,00 2.154,74 30/04/2020
234 519200 ANDRE BORJA LANA ANALISTA DO MP ATIVO BELO HORIZONTE - COMARCA; DIRETORIA DE IMPRENSA 10.045,88 1.006,96 0,00 0,00 0,00 0,00 11.052,84 1.218,42 1.835,11 0,00 3.053,53 7.999,31 1.550,00 699,84 30/04/2020
235 637200 ANDRE FERNANDES DA CUNHA OFICIAL DO MP ATIVO MORADA NOVA DE MINAS - COMARCA; MORADA NOVA DE MINAS-PJ-UNPJ 4.817,57 289,05 0,00 0,00 0,00 0,00 5.106,62 592,09 386,47 0,00 978,56 4.128,06 1.550,00 494,45 30/04/2020
236 651500 ANDRE GONCALVES MARANHAO OFICIAL DO MP ATIVO JACINTO - COMARCA; JACINTO-PJ-SECRETARIA 4.238,09 254,29 0,00 0,00 0,00 0,00 4.492,38 494,16 263,47 0,00 757,63 3.734,75 1.550,00 522,24 30/04/2020
237 521900 ANDRE LUIS GOMES SILVA ANALISTA DO MP ATIVO FORMIGA - COMARCA; FORMIGA-PJ-02PJ 10.069,62 1.006,96 0,00 0,00 0,00 0,00 11.076,58 1.218,42 1.274,44 0,00 2.492,86 8.583,72 2.319,39 1.296,07 30/04/2020
238 304300 ANDRE LUIZ AVELAR ANALISTA DO MP ATIVO BELO HORIZONTE - COMARCA; DIRETORIA DE REDES E BANCOS DE DADOS 8.436,53 2.530,96 0,00 0,00 0,00 0,00 10.967,49 1.206,42 1.762,80 0,00 2.969,22 7.998,27 1.550,00 461,24 30/04/2020
239 397400 ANDRE PATARO MYRRHA DE PAULA E SILVA ANALISTA DO MP ATIVO BELO HORIZONTE - COMARCA; ASSESSORIA JURIDICO-ADMINISTRATIVA 13.011,52 2.602,30 0,00 0,00 0,00 0,00 15.613,82 1.717,52 2.952,12 0,00 4.669,64 10.944,18 2.319,39 1.073,46 30/04/2020
240 650100 ANDRE THOME VARGAS OFICIAL DO MP ATIVO LEOPOLDINA - COMARCA; LEOPOLDINA-PJ-04PJ 4.665,64 279,94 0,00 0,00 0,00 0,00 4.945,58 599,18 354,22 0,00 953,40 3.992,18 1.550,00 606,58 30/04/2020
241 548500 ANDRE VINICIUS CARVALHO MEIRA ANALISTA DO MP ATIVO JUIZ DE FORA - COMARCA; JUIZ DE FORA-PJ-25PJ 8.436,53 843,65 0,00 0,00 3.093,39 0,00 12.373,57 1.020,82 2.252,65 0,00 3.273,47 9.100,10 7.692,80 1.386,05 30/04/2020
242 297200 ANDRE WILLE ROSARIO ANALISTA DO MP ATIVO BELO HORIZONTE - COMARCA; ASSESSORIA ESPECIAL DO PGJ 16.750,82 5.025,25 0,00 0,00 0,00 0,00 21.776,07 2.395,37 4.356,06 0,00 6.751,43 15.024,64 6.279,93 2.910,73 30/04/2020
243 423600 ANDREA COSTA GUALBERTO ALVES ANALISTA DO MP ATIVO GOVERNADOR VALADARES - COMARCA; COORD REG PJ DEF EDU DIR CRIANCA ADOL RIODOCE 12.204,02 8.542,81 0,00 0,00 0,00 0,00 20.746,83 2.282,15 4.156,29 0,00 6.438,44 14.308,39 5.228,77 2.767,95 30/04/2020
244 198600 ANDREA CRISTINA ANDRADE COSTA E SOUZA OFICIAL DO MP ATIVO MONTES CLAROS - COMARCA; MONTES CLAROS-PJ-15PJ 14.790,66 5.916,26 0,00 0,00 0,00 0,00 20.706,92 2.277,76 4.146,52 0,00 6.424,28 14.282,64 4.970,40 1.574,77 30/04/2020
245 467300 ANDREA DE CASSIA PENNA ALVERNAZ ANALISTA DO MP ATIVO PONTE NOVA - COMARCA; PONTE NOVA-PJ-01PJ 10.069,62 1.006,96 0,00 0,00 0,00 0,00 11.076,58 1.218,42 1.789,50 0,00 3.007,92 8.068,66 1.550,00 504,62 30/04/2020
246 308000 ANDREA DE CASSIA SANTOS OLIVEIRA ANALISTA DO MP ATIVO BELO HORIZONTE - COMARCA; ASSESS TECNICO-JUR JUNTO AS PROC. DE JUST 15.272,02 4.581,61 0,00 0,00 0,00 0,00 19.853,63 2.183,90 3.937,68 0,00 6.121,58 13.732,05 1.712,48 1.363,32 30/04/2020
247 349500 ANDREA DE OLIVEIRA LOIOLA REGIS OFICIAL DO MP ATIVO IGUATAMA - COMARCA; IGUATAMA-PJ-UNPJ 9.444,70 1.888,94 0,00 0,00 0,00 0,00 11.333,64 1.246,70 1.852,41 0,00 3.099,11 8.234,53 1.550,00 1.318,52 30/04/2020
248 254700 ANDREA EMISE REIS DE AZEVEDO OFICIAL DO MP ATIVO BELO HORIZONTE - COMARCA; DIVISAO DE SERVICOS 10.736,08 3.220,82 0,00 0,00 0,00 0,00 13.956,90 1.536,35 2.546,29 0,00 4.082,64 9.874,26 1.550,00 1.048,97 30/04/2020
249 287900 ANDREA FERNANDES PENA MARTINS OFICIAL DO MP ATIVO MONTES CLAROS - COMARCA; MONTES CLAROS-PJ-09PJ 10.069,62 3.020,89 0,00 0,00 0,00 0,00 13.090,51 1.439,96 2.230,27 0,00 3.670,23 9.420,28 1.550,00 525,27 30/04/2020
250 300800 ANDREA FERREIRA ANALISTA DO MP ATIVO LAVRAS - COMARCA; LAVRAS-PJ-04PJ 14.790,66 4.437,20 0,00 0,00 0,00 0,00 19.227,86 2.115,06 3.836,66 0,00 5.951,72 13.276,14 7.215,36 1.884,69 30/04/2020
251 316700 ANDREA FRANCISCA DIAS DE SOUZA ASSESSOR ATIVO BELO HORIZONTE - COMARCA; ASSESSORIA JURIDICA DO PROCON-MG 0,00 0,00 3.076,28 0,00 0,00 0,00 3.076,28 465,67 201,79 0,00 667,46 2.408,82 2.319,39 183,73 30/04/2020
252 395100 ANDREA LANNA MENDES NOVAIS ANALISTA DO MP ATIVO BELO HORIZONTE - COMARCA; PROMOT ESTADUAL DE DEF PATRI CULT E TUR DE MG 13.011,52 2.602,30 0,00 0,00 0,00 0,00 15.613,82 1.717,52 2.899,99 0,00 4.617,51 10.996,31 1.550,00 1.125,03 30/04/2020
253 67300 ANDREA LEAO MAGALHAES ROQUE ASSESSOR ATIVO BELO HORIZONTE - COMARCA; COORD ESTADUAL COMBATE CRIMES CIBERNETICOS 0,00 7.278,26 10.397,52 0,00 0,00 0,00 17.675,78 713,09 4.045,74 0,00 4.758,83 12.916,95 1.550,00 904,80 30/04/2020
254 335700 ANDREA LOPES PEREIRA ANALISTA DO MP ATIVO GOVERNADOR VALADARES - COMARCA; COORD REG DO MA DA BACIA DO RIO DOCE 15.272,02 3.054,40 0,00 0,00 0,00 0,00 18.326,42 2.015,91 3.616,03 0,00 5.631,94 12.694,48 2.527,15 1.327,02 30/04/2020
255 389200 ANDREA TUPINI DOS SANTOS TRISTAO DA ROCHA COORDENADOR/OFICIAL ATIVO BELO HORIZONTE - COMARCA; BH-13ª PJ JUÍZO DE TÓXICOS-SECRETARIA 0,00 2.363,83 11.819,15 0,00 0,00 0,00 14.182,98 1.606,65 2.536,99 0,00 4.143,64 10.039,34 1.550,00 549,88 30/04/2020
256 419000 ANDREIA BARBOSA DE ALMEIDA ANALISTA DO MP ATIVO BELO HORIZONTE - COMARCA; GABINETE DE PROCURADOR DE JUSTIÇA - SALA 705 12.204,02 2.440,80 0,00 0,00 0,00 0,00 14.644,82 1.610,93 2.714,96 0,00 4.325,89 10.318,93 1.550,00 1.689,53 30/04/2020
257 281501 ANDREIA CARLA COSTA FILGUEIRAS ANALISTA DO MP ATIVO VISCONDE DO RIO BRANCO - COMARCA; VISCONDE DO RIO BRANCO-PJ-02PJ 12.601,30 2.520,26 0,00 0,00 0,00 0,00 15.121,56 1.663,37 2.831,64 0,00 4.495,01 10.626,55 1.550,00 1.089,12 30/04/2020
258 643600 ANDREIA CRISTINA SILVA OFICIAL DO MP ATIVO PARACATU - COMARCA; PARACATU-PJ-01PJ 4.665,64 279,94 0,00 0,00 0,00 0,00 4.945,58 643,08 354,22 0,00 997,30 3.948,28 1.550,00 999,15 30/04/2020
259 477100 ANDREIA DE ALMEIDA RIBEIRO MELO OFICIAL DO MP ATIVO CONTAGEM - COMARCA; CONTAGEM-PJ-07PJ 7.421,79 1.484,36 0,00 0,00 0,00 0,00 8.906,15 979,68 1.310,42 0,00 2.290,10 6.616,05 1.550,00 1.097,40 30/04/2020
260 619000 ANDREIA FERREIRA NORONHA COORDENADOR/OFICIAL ATIVO BELO HORIZONTE - COMARCA; DIRETORIA DE SERVICO CRIMINAL 0,00 1.343,52 13.435,16 0,00 0,00 0,00 14.778,68 674,53 3.009,28 0,00 3.683,81 11.094,87 1.622,90 700,68 30/04/2020
261 424000 ANDREIA LUCIA COUTO ANALISTA DO MP ATIVO BELO HORIZONTE - COMARCA; BH-18PJ DIREITOS HUMANOS 12.601,30 2.520,26 0,00 0,00 0,00 0,00 15.121,56 1.748,92 3.021,99 0,00 4.770,91 10.350,65 1.550,00 1.885,45 30/04/2020
262 370100 ANDREIA MARIA SILVA PINTO OFICIAL DO MP ATIVO CORONEL FABRICIANO - COMARCA; CORONEL FABRICIANO-PJ-01PJ 8.858,43 1.771,69 0,00 0,00 0,00 0,00 10.630,12 1.169,31 1.732,36 0,00 2.901,67 7.728,45 2.319,39 709,22 30/04/2020
263 382100 ANDREIA NATALI PEREIRA DE OLIVEIRA OFICIAL DO MP ATIVO PRADOS - COMARCA; PRADOS-PJ-UNPJ 8.579,10 1.715,82 0,00 0,00 0,00 0,00 10.294,92 1.132,44 1.650,32 0,00 2.782,76 7.512,16 1.550,00 1.111,13 30/04/2020
264 275200 ANDREIA RIBEIRO FREITAS OFICIAL DO MP ATIVO VIÇOSA - COMARCA; VICOSA-PJ-03PJ 10.069,62 3.020,89 0,00 0,00 4.363,50 0,00 17.454,01 1.439,96 3.482,37 0,00 4.922,33 12.531,68 2.727,03 1.041,50 30/04/2020
265 352200 ANDREIA XAVIER PEREIRA OFICIAL DO MP ATIVO CLÁUDIO - COMARCA; CLAUDIO-PJ-UNPJ 9.444,70 1.888,94 0,00 0,00 0,00 0,00 11.333,64 1.246,70 1.904,55 0,00 3.151,25 8.182,39 1.550,00 1.318,52 30/04/2020
266 638500 ANDRESA ALVES FEITOSA CASAGRANDE ANALISTA DO MP ATIVO PERDÕES - COMARCA; PERDOES-PJ-UNPJ 7.421,79 445,31 0,00 0,00 0,00 0,00 7.867,10 671,12 1.109,54 0,00 1.780,66 6.086,44 2.319,39 668,24 30/04/2020
267 383700 ANDRESSA EDUARDO SOUZA ANALISTA DO MP ATIVO OURO BRANCO - COMARCA; OURO BRANCO-PJ-SECRETARIA 13.011,52 2.602,30 0,00 0,00 0,00 0,00 15.613,82 1.717,52 2.952,12 0,00 4.669,64 10.944,18 3.088,78 1.073,46 30/04/2020
268 426200 ANDRESSA MENDES CASAL OFICIAL DO MP ATIVO BELO HORIZONTE - COMARCA; DIR ESTRUTURA E PROCESSOS ORGANIZACIONAIS 6.741,63 1.348,33 0,00 0,00 0,00 0,00 8.089,96 889,90 1.110,66 0,00 2.000,56 6.089,40 1.550,00 632,01 30/04/2020
269 390100 ANDRESSA RIBEIRO PUCCI OFICIAL DO MP ATIVO UBERABA - COMARCA; UBERABA-PJ-14PJ 6.529,10 1.305,82 0,00 0,00 0,00 0,00 7.834,92 861,84 1.048,24 0,00 1.910,08 5.924,84 1.550,00 563,15 30/04/2020
270 462500 ANDREZA APARECIDA COSTA E SILVA ANALISTA DO MP ATIVO CONSELHEIRO LAFAIETE - COMARCA; CONSELHEIRO LAFAIETE-PJ-02PJ 10.069,62 1.006,96 0,00 0,00 0,00 0,00 11.076,58 1.218,42 1.841,63 0,00 3.060,05 8.016,53 1.550,00 504,62 30/04/2020
271 537800 ANDREZZA LUZIA DE OLIVEIRA ALVES ANALISTA DO MP ATIVO PATOS DE MINAS - COMARCA; COORD REG PJ DEF EDU DIR CRI ADO AL PAR NOROE 8.436,53 843,65 0,00 0,00 0,00 0,00 9.280,18 1.020,82 1.349,83 0,00 2.370,65 6.909,53 1.550,00 741,46 30/04/2020
272 491600 ANE PATRICIA RIBEIRO ANALISTA DO MP ATIVO SETE LAGOAS - COMARCA; SETE LAGOAS-PJ-11PJ 10.069,62 1.006,96 0,00 0,00 0,00 0,00 11.076,58 1.218,42 1.789,50 0,00 3.007,92 8.068,66 1.550,00 576,00 30/04/2020
273 465800 ANELISE GAMA ASSESSOR ATIVO BELO HORIZONTE - COMARCA; BH-18PJ VIOLENCIA DOMESTICA-SECRETARIA 0,00 0,00 8.170,49 0,00 0,00 0,00 8.170,49 713,09 1.483,92 0,00 2.197,01 5.973,48 1.550,00 262,92 30/04/2020
274 535200 ANELIZE FERNANDA ALVES VILARINHO OFICIAL DO MP ATIVO CAPINÓPOLIS - COMARCA; CAPINOPOLIS-PJ-UNPJ 4.974,42 497,44 0,00 0,00 0,00 0,00 5.471,86 601,90 469,88 0,00 1.071,78 4.400,08 2.319,39 383,82 30/04/2020
275 197200 ANGELA COELHO SALDANHA OFICIAL DO MP ATIVO PARÁ DE MINAS - COMARCA; PARA DE MINAS-PJ-03PJ 14.790,66 5.916,26 0,00 0,00 0,00 0,00 20.706,92 2.277,76 4.198,66 0,00 6.476,42 14.230,50 5.084,70 1.807,63 30/04/2020
276 307400 ANGELA CRISTINA GONCALVES MUNIZ ANALISTA DO MP ATIVO UBERLÂNDIA - COMARCA; UBERLANDIA-PJ-SEC FAMILIA 16.750,82 6.700,33 0,00 0,00 0,00 0,00 23.451,15 2.579,63 4.818,17 0,00 7.397,80 16.053,35 2.319,39 2.476,91 30/04/2020
277 191800 ANGELA MARIA DE OLIVEIRA OFICIAL DO MP ATIVO GUARANÉSIA - COMARCA; GUARANESIA-PJ-SECRETARIA 14.790,66 10.353,47 0,00 0,00 0,00 0,00 25.144,13 2.765,85 5.232,53 0,00 7.998,38 17.145,75 1.813,96 1.681,91 30/04/2020
278 69900 ANGELA MARIA DE PAULA CUNHA OFICIAL DO MP ATIVO JUIZ DE FORA - COMARCA; JUIZ DE FORA-PJ-03PJ 15.272,02 12.217,61 0,00 0,00 0,00 3.023,86 30.513,49 3.023,86 6.690,29 0,00 9.714,15 20.799,34 7.457,12 2.610,81 30/04/2020
279 497400 ANGELA MARIA HENRIQUES ANALISTA DO MP ATIVO BELO HORIZONTE - COMARCA; COORD REG BACIAS RIO VELHAS E PARAOPEBA 10.069,62 1.006,96 0,00 0,00 0,00 0,00 11.076,58 1.218,42 1.841,63 0,00 3.060,05 8.016,53 1.550,00 481,50 30/04/2020
280 260700 ANGELICA CRISTINA AZEVEDO MOREIRA MOUCO OFICIAL DO MP ATIVO UBÁ - COMARCA; UBA-PJ-05PJ 12.204,02 3.661,21 0,00 0,00 0,00 0,00 15.865,23 1.745,18 3.013,65 0,00 4.758,83 11.106,40 5.357,66 2.184,87 30/04/2020
281 334600 ANGELICA PANISSA DE FREITAS GALLATI OFICIAL DO MP ATIVO GUAXUPÉ - COMARCA; GUAXUPE-PJ-02PJ 9.444,70 2.833,41 0,00 0,00 0,00 0,00 12.278,11 1.350,59 2.135,71 0,00 3.486,30 8.791,81 2.319,39 844,13 30/04/2020
282 521100 ANGELICA SALES MOREIRA OFICIAL DO MP ATIVO BELO HORIZONTE - COMARCA; BH-02PJ FAMILIA-SECRETARIA 6.741,63 674,16 0,00 0,00 0,00 0,00 7.415,79 815,74 945,65 0,00 1.761,39 5.654,40 1.550,00 582,10 30/04/2020
283 466500 ANGELLO MARQUES AGRELLI ANALISTA DO MP ATIVO MAR DE ESPANHA - COMARCA; MAR DE ESPANHA-PJ-UNPJ 10.069,62 1.006,96 0,00 0,00 0,00 0,00 11.076,58 1.218,42 1.841,63 0,00 3.060,05 8.016,53 1.550,00 504,62 30/04/2020
284 363300 ANGELO VERDOLIN HENRIQUES ANALISTA DO MP ATIVO SETE LAGOAS - COMARCA; SETE LAGOAS-PJ-04PJ 14.790,66 5.916,26 0,00 0,00 0,00 0,00 20.706,92 2.277,76 4.198,66 0,00 6.476,42 14.230,50 5.770,93 1.613,27 30/04/2020
285 250900 ANISIO APARECIDO SANTOS OFICIAL DO MP ATIVO MARIANA - COMARCA; MARIANA-PJ-02PJ 6.123,79 2.449,52 0,00 0,00 0,00 0,00 8.573,31 943,06 558,05 0,00 1.501,11 7.072,20 1.550,00 362,68 30/04/2020
286 651200 ANITA MARIA SANT ANA DE MATTOS FONTES OFICIAL DO MP ATIVO ERVÁLIA - COMARCA; ERVALIA-PJ-UNPJ 4.665,64 3.265,94 0,00 0,00 0,00 0,00 7.931,58 872,47 1.019,76 0,00 1.892,23 6.039,35 1.550,00 977,29 30/04/2020
287 253400 ANNA FLAVIA LEHMAN BATTAGLIA ANALISTA DO MP ATIVO BELO HORIZONTE - COMARCA; CAO-PATRIMONIO PUBLICO 17.413,92 5.224,18 0,00 0,00 0,00 0,00 22.638,10 2.490,19 4.514,90 0,00 7.005,09 15.633,01 6.350,78 2.074,78 30/04/2020
288 447600 ANNGELUCE ALCANTARA DE CAMPOS OFICIAL DO MP ATIVO DIVINÓPOLIS - COMARCA; DIVINOPOLIS-PJ-SECRETARIA 6.529,10 1.305,82 0,00 0,00 0,00 0,00 7.834,92 861,84 1.048,24 0,00 1.910,08 5.924,84 1.550,00 736,20 30/04/2020
289 119600 ANSELMO BORGES PARREIRAS OFICIAL DO MP ATIVO BONFIM - COMARCA; BONFIM-PJ-UNPJ 7.663,37 6.130,70 0,00 0,00 0,00 1.517,35 15.311,42 1.517,35 2.871,87 0,00 4.389,22 10.922,20 1.550,00 1.813,70 30/04/2020
290 630300 ANTONIA GOMES RAMALHO OFICIAL DO MP ATIVO NOVO CRUZEIRO - COMARCA; NOVO CRUZEIRO-PJ-UNPJ 5.217,34 521,73 0,00 0,00 0,00 0,00 5.739,07 631,30 535,28 0,00 1.166,58 4.572,49 1.550,00 575,02 30/04/2020
291 332400 ANTONIA MARIA MAMEDE OFICIAL DO MP ATIVO UBERLÂNDIA - COMARCA; COORD REG PP TRIANGULO MINEIRO UBERLANDIA 9.444,70 1.888,94 0,00 0,00 0,00 1.246,70 12.580,34 1.246,70 2.247,39 0,00 3.494,09 9.086,25 1.550,00 1.503,36 30/04/2020
292 401600 ANTONIO CARLOS GUEDES AROUCA ANALISTA DO MP ATIVO BELO HORIZONTE - COMARCA; COORD EST DEF DIR FAMILIA PESSOA DEFICI IDOSO 11.446,46 2.289,29 0,00 0,00 0,00 0,00 13.735,75 1.510,93 2.492,47 0,00 4.003,40 9.732,35 1.550,00 909,46 30/04/2020
293 333900 ANTONIO GONCALVES DE SOUZA FILHO OFICIAL DO MP ATIVO BELO HORIZONTE - COMARCA; DIRETORIA DE CONTABILIDADE 9.444,70 1.888,94 0,00 0,00 0,00 0,00 11.333,64 1.246,70 1.904,55 0,00 3.151,25 8.182,39 1.550,00 1.318,52 30/04/2020
294 176100 ANTONIO MARCELO CAMPOS CAMPANELLA OFICIAL DO MP ATIVO BELO HORIZONTE - COMARCA; COORD DE GABINETE DO PGJ 14.790,66 5.916,26 0,00 0,00 0,00 0,00 20.706,92 2.277,76 4.198,66 0,00 6.476,42 14.230,50 5.234,27 1.881,86 30/04/2020
295 321001 ANTONIO OLINTO VIEIRA MACHADO ANALISTA DO MP ATIVO BELO HORIZONTE - COMARCA; CENTRAL DE APOIO TECN-SETOR DE MEIO AMBIENTE 13.011,52 2.602,30 0,00 0,00 0,00 0,00 15.613,82 1.717,52 2.847,85 0,00 4.565,37 11.048,45 1.627,41 1.125,03 30/04/2020
296 356200 ANTONIO PAULA DA SILVA OFICIAL DO MP ATIVO JUIZ DE FORA - COMARCA; JUIZ DE FORA-PJ-20PJ 8.436,53 2.530,96 0,00 0,00 0,00 0,00 10.967,49 1.206,42 1.814,93 0,00 3.021,35 7.946,14 1.550,00 835,89 30/04/2020
297 119900 ANTONIO RODRIGUES DE PINHO OFICIAL DO MP ATIVO GUANHÃES - COMARCA; GUANHAES-PJ-01PJ 14.324,23 10.026,96 0,00 0,00 0,00 0,00 24.351,19 2.678,63 4.986,32 0,00 7.664,95 16.686,24 8.818,86 3.432,89 30/04/2020
298 373300 ANTONIO SERGIO ANANIAS OFICIAL DO MP ATIVO AIURUOCA - COMARCA; AIURUOCA-PJ-UNPJ 7.912,85 1.582,57 0,00 0,00 0,00 0,00 9.495,42 1.044,50 1.350,37 0,00 2.394,87 7.100,55 1.550,00 652,83 30/04/2020
299 608100 ANTONIO SIDINEY VIEIRA LEMOS ANALISTA DO MP ATIVO PIRAPORA - COMARCA; PIRAPORA-PJ-01PJ 8.170,49 3.268,20 0,00 0,00 0,00 0,00 11.438,69 1.258,26 1.930,26 0,00 3.188,52 8.250,17 1.550,00 1.338,45 30/04/2020
300 374700 ANTONIO SILVA NETO OFICIAL DO MP ATIVO BELO HORIZONTE - COMARCA; GAECO - SECRETARIA 8.579,10 1.715,82 0,00 0,00 0,00 0,00 10.294,92 1.132,44 1.650,32 0,00 2.782,76 7.512,16 1.550,00 1.078,76 30/04/2020
301 636700 ANTONIUS VITORIANO FERNANDES OFICIAL DO MP ATIVO BELO HORIZONTE - COMARCA; ASSESSORIA JURIDICA DO PROCON-MG 4.376,03 437,60 0,00 0,00 1.604,54 0,00 6.418,17 557,06 750,02 0,00 1.307,08 5.111,09 1.550,00 449,09 30/04/2020
302 413200 ANY PEREIRA SILVA ANALISTA DO MP ATIVO TRÊS PONTAS - COMARCA; TRES PONTAS-PJ-01PJ 12.204,02 2.440,80 0,00 0,00 0,00 0,00 14.644,82 1.610,93 2.662,82 0,00 4.273,75 10.371,07 1.550,00 1.645,73 30/04/2020
303 151401 APARECIDA DE FATIMA MENDES DE ALMEIDA ASSESSOR ATIVO JUIZ DE FORA - COMARCA; JUIZ DE FORA-PJ-SECRETARIA 0,00 0,00 5.136,32 0,00 0,00 0,00 5.136,32 713,09 649,53 0,00 1.362,62 3.773,70 1.550,00 262,92 30/04/2020
304 329300 APARECIDA MARIA MELO DE ASSIS OFICIAL DO MP ATIVO BELO HORIZONTE - COMARCA; BH-18PJ DIREITOS HUMANOS-SECRETARIA 10.069,62 2.013,92 0,00 0,00 0,00 0,00 12.083,54 1.329,19 2.088,09 0,00 3.417,28 8.666,26 1.550,00 1.499,63 30/04/2020
305 475300 APARECIDA MARLENE FREIRE ROSA ANALISTA DO MP ATIVO BELO HORIZONTE - COMARCA; BH-02PJ FAMILIA 11.085,56 9.977,00 0,00 0,00 0,00 2.316,88 23.379,44 2.316,88 4.922,84 0,00 7.239,72 16.139,72 1.550,00 1.709,30 30/04/2020
306 240300 APARECIDA PEREIRA DO NASCIMENTO OFICIAL DO MP ATIVO ITURAMA - COMARCA; ITURAMA-PJ-01PJ 12.601,30 8.820,91 0,00 0,00 0,00 2.356,44 23.778,65 2.356,44 5.021,75 0,00 7.378,19 16.400,46 1.550,00 1.590,97 30/04/2020
307 653000 APARECIDA ROSA DE LIMA ASSESSOR ATIVO BELO HORIZONTE - COMARCA; SECRETARIA PROCESSOS DISCIPES ADMINISTRATIVOS 0,00 0,00 8.170,49 0,00 0,00 0,00 8.170,49 713,09 1.483,92 0,00 2.197,01 5.973,48 1.550,00 306,74 30/04/2020
308 354500 APARECIDA VIEIRA DE CARVALHO OFICIAL DO MP ATIVO BELO HORIZONTE - COMARCA; DIVISÃO DE EDUCAÇÃO PARA O CONSUMO 7.421,79 1.484,36 0,00 0,00 0,00 0,00 8.906,15 979,68 1.310,42 0,00 2.290,10 6.616,05 1.550,00 1.059,60 30/04/2020
309 551000 ARACELES BICALHO FELIX ANALISTA DO MP ATIVO MANHUAÇU - COMARCA; MANHUACU-PJ-02PJ 8.436,53 843,65 0,00 0,00 0,00 0,00 9.280,18 1.020,82 1.401,96 0,00 2.422,78 6.857,40 2.319,39 705,23 30/04/2020
310 286200 ARACELI MEDRADO DOS SANTOS LIMA OFICIAL DO MP ATIVO PARACATU - COMARCA; PARACATU-PJ-03PJ 6.123,79 1.837,14 0,00 0,00 0,00 0,00 7.960,93 875,70 1.079,08 0,00 1.954,78 6.006,15 1.550,00 334,78 30/04/2020
311 189000 ARAHY MARQUES SILVA OFICIAL DO MP ATIVO BELO HORIZONTE - COMARCA; BH-13ª PJ JUÍZO DE TÓXICOS-SECRETARIA 6.123,79 2.449,52 0,00 0,00 0,00 0,00 8.573,31 943,06 1.228,96 0,00 2.172,02 6.401,29 1.550,00 362,68 30/04/2020
312 112200 ARAQUEM AUGUSTO DE MATOS AGENTE DO MP ATIVO BELO HORIZONTE - COMARCA; BH-23PJ CIVEL-SEC EXP CIVEIS 6.741,63 5.393,30 0,00 0,00 0,00 1.334,84 13.469,77 1.334,84 2.311,33 0,00 3.646,17 9.823,60 1.550,00 937,39 30/04/2020
313 280600 ARDUINO FRATTEZI ANALISTA DO MP ATIVO BELO HORIZONTE - COMARCA; CENTRAL DE APOIO TECNICO-SETOR CONTABIL 16.750,82 5.025,25 0,00 0,00 0,00 0,00 21.776,07 2.395,37 4.460,33 0,00 6.855,70 14.920,37 6.351,24 2.807,66 30/04/2020
314 520201 ARIANE DE FATIMA CARVALHO ALMEIDA RODRIGUES ANALISTA DO MP ATIVO VESPASIANO - COMARCA; VESPASIANO-PJ-04PJ 8.170,49 817,05 0,00 0,00 2.995,85 0,00 11.983,39 988,63 2.102,06 0,00 3.090,69 8.892,70 2.319,39 1.253,09 30/04/2020
315 537600 ARIELA FREIRE MONTIJO ANALISTA DO MP ATIVO ARCOS - COMARCA; ARCOS-PJ-01PJ 8.436,53 843,65 0,00 0,00 0,00 0,00 9.280,18 1.020,82 1.297,69 0,00 2.318,51 6.961,67 2.319,39 651,00 30/04/2020
316 182000 ARILSON ALEXANDRE MARTINS MAGALHAES OFICIAL DO MP ATIVO JOÃO MONLEVADE - COMARCA; JOAO MONLEVADE-PJ-01PJ 14.324,23 7.162,12 0,00 0,00 0,00 0,00 21.486,35 2.363,50 4.180,87 0,00 6.544,37 14.941,98 7.676,79 2.714,40 30/04/2020
317 511000 ARISLANE CAROLINA DA SILVA ANALISTA DO MP ATIVO CAMPINA VERDE - COMARCA; CAMPINA VERDE-PJ-UNPJ 10.069,62 1.006,96 0,00 0,00 0,00 0,00 11.076,58 1.218,42 1.841,63 0,00 3.060,05 8.016,53 3.088,78 458,38 30/04/2020
318 170000 ARLEY BRITES DA SILVA ASSESSOR ATIVO BELO HORIZONTE - COMARCA; BH-14PJ DEFESA CONSUMIDOR-SECRETARIA 0,00 2.054,53 5.136,32 0,00 0,00 0,00 7.190,85 713,09 557,83 0,00 1.270,92 5.919,93 1.550,00 341,80 30/04/2020
319 120400 ARLINDO CASSIO DA CRUZ OFICIAL DO MP ATIVO SÃO GONÇALO DO SAPUCAÍ - COMARCA; SAO GONCALO DO SAPUCAI-PJ-01PJ 18.820,14 15.056,11 0,00 0,00 0,00 0,00 33.876,25 3.726,39 7.317,58 0,00 11.043,97 22.832,28 2.169,18 0,00 30/04/2020
320 243700 ARLINDO MARCIO LACERDA OFICIAL DO MP ATIVO CONTAGEM - COMARCA; CONTAGEM-PJ-03PJ 12.204,02 4.881,61 0,00 0,00 0,00 0,00 17.085,63 1.879,42 3.709,80 0,00 5.589,22 11.496,41 2.349,32 3.617,63 30/04/2020
321 392100 ARNALDO DE ANDRADE OFICIAL DO MP ATIVO DIVINÓPOLIS - COMARCA; DIVINOPOLIS-PJ-02PJ 8.579,10 1.715,82 0,00 0,00 0,00 0,00 10.294,92 1.132,44 1.995,63 0,00 3.128,07 7.166,85 2.349,04 2.630,38 30/04/2020
322 642400 ARTANE INARDE DE SIQUEIRA DAMASCENO ANALISTA DO MP ATIVO BELO HORIZONTE - COMARCA; PROC JUST RECURSOS ESP E EXTRAORD CRIMINAIS 7.421,79 445,31 0,00 0,00 0,00 0,00 7.867,10 671,12 1.109,54 0,00 1.780,66 6.086,44 2.319,39 581,16 30/04/2020
323 302100 AUGUSTO ROUSSEAU DE CASTRO ANALISTA DO MP ATIVO CATAGUASES - COMARCA; CATAGUASES-PJ-02PJ 16.750,82 5.025,25 0,00 0,00 0,00 0,00 21.776,07 2.395,37 4.460,33 0,00 6.855,70 14.920,37 1.550,00 1.615,74 30/04/2020
324 540200 AUREA AVELAR BITTENCOURT OFICIAL DO MP ATIVO BELO HORIZONTE - COMARCA; GRUPO ESP PROM PROC JUST DEF PROB ADM PAT PUB 4.974,42 497,44 0,00 0,00 0,00 0,00 5.471,86 601,90 374,30 0,00 976,20 4.495,66 1.550,00 383,82 30/04/2020
325 183200 AURELIANO MAGELA DE REZENDE COORDENADOR/OFICIAL ATIVO BELO HORIZONTE - COMARCA; COORD DE GABINETE DO PGJ 14.324,23 8.416,72 0,00 0,00 0,00 0,00 22.740,95 2.205,93 4.777,77 0,00 6.983,70 15.757,25 6.311,39 2.006,64 30/04/2020
326 629400 AYESKA DA COSTA VAL MOURA DABIEN OFICIAL DO MP ATIVO BELO HORIZONTE - COMARCA; SUPERINTENDENCIA DE RECURSOS HUMANOS 5.217,34 521,73 0,00 0,00 0,00 0,00 5.739,07 631,30 535,28 0,00 1.166,58 4.572,49 1.550,00 617,21 30/04/2020
327 652800 BARBARA JULIANNE MOREIRA CASTRO ASSESSOR ATIVO BELO HORIZONTE - COMARCA; ASSESS TECNICO-JUR JUNTO AS PROC. DE JUST 0,00 0,00 8.170,49 0,00 0,00 0,00 8.170,49 713,09 1.483,92 0,00 2.197,01 5.973,48 1.550,00 487,95 30/04/2020
328 663600 BARBARA REGINA PEREIRA DE PINHO MAGALHAES ASSESSOR ATIVO BELO HORIZONTE - COMARCA; CAO-DH APOIO COMUNITARIO-RECEPÇÃO 0,00 0,00 8.170,49 0,00 0,00 0,00 8.170,49 713,09 1.483,92 0,00 2.197,01 5.973,48 1.550,00 0,00 30/04/2020
329 546500 BARBARA ZACARONI GOULART OFICIAL DO MP ATIVO BETIM - COMARCA; BETIM-PJ-08PJ 4.974,42 497,44 0,00 0,00 0,00 0,00 5.471,86 601,90 469,88 0,00 1.071,78 4.400,08 1.550,00 415,80 30/04/2020
330 316500 BEATRIZ ABILVIA DA SILVA ANALISTA DO MP ATIVO GOVERNADOR VALADARES - COMARCA; GOVERNADOR VALADARES-PJ-07PJ 15.272,02 4.581,61 0,00 0,00 0,00 0,00 19.853,63 2.183,90 3.989,82 0,00 6.173,72 13.679,91 3.242,17 1.469,18 30/04/2020
331 311800 BEATRIZ APARECIDA SOARES GANEM OFICIAL DO MP ATIVO ITAMBACURI - COMARCA; ITAMBACURI-PJ-02PJ 10.069,62 3.020,89 0,00 0,00 0,00 0,00 13.090,51 1.439,96 2.178,13 0,00 3.618,09 9.472,42 1.550,00 899,99 30/04/2020
332 266800 BEATRIZ AUGUSTA VILACA GOMES DE HUBER OFICIAL DO MP ATIVO BELO HORIZONTE - COMARCA; BH-05PJ-JUÍZO SUCESSÕES-SEC 8.858,43 2.657,53 0,00 0,00 0,00 0,00 11.515,96 1.266,76 1.949,17 0,00 3.215,93 8.300,03 1.550,00 813,28 30/04/2020
333 235200 BEATRIZ BOTELHO BATISTA OFICIAL DO MP ATIVO BELO HORIZONTE - COMARCA; BH-21PJ TUTELA FUNDACOES-SECRETARIA 10.069,62 4.027,85 0,00 0,00 0,00 0,00 14.097,47 1.550,72 2.581,00 0,00 4.131,72 9.965,75 1.550,00 569,04 30/04/2020
334 182300 BEATRIZ PAULA SOUSA RAMOS OFICIAL DO MP ATIVO MARIANA - COMARCA; MARIANA-PJ-01PJ 14.324,23 7.162,12 0,00 0,00 0,00 0,00 21.486,35 2.363,50 4.337,29 0,00 6.700,79 14.785,56 1.550,00 2.320,48 30/04/2020
335 507000 BELCHIOR FRANKLIN AMARAL LEITE ANALISTA DO MP ATIVO BELO HORIZONTE - COMARCA; CENTRAL DE APOIO TECNICO 10.069,62 1.006,96 0,00 0,00 3.692,19 0,00 14.768,77 1.218,42 2.700,57 0,00 3.918,99 10.849,78 2.319,39 481,50 30/04/2020
336 345100 BENITO ELIAS RODRIGUES ANALISTA DO MP ATIVO BARBACENA - COMARCA; BARBACENA - SECRETARIA DAS PJS CRIMINAIS 14.790,66 2.958,13 0,00 0,00 0,00 0,00 17.748,79 1.952,37 3.474,66 0,00 5.427,03 12.321,76 1.650,65 1.352,67 30/04/2020
337 207300 BENITO VIEIRA DOS SANTOS ANALISTA DO MP ATIVO BELO HORIZONTE - COMARCA; COMB CRIMES PRAT POR AG POL MUN-ASSESSORIA 18.820,14 7.528,06 0,00 0,00 0,00 2.898,30 29.246,50 2.898,30 4.516,81 0,00 7.415,11 21.831,39 7.089,38 1.831,79 30/04/2020
338 480200 BERNADETE NUNES DOS SANTOS ANALISTA DO MP ATIVO GUANHÃES - COMARCA; GUANHAES-PJ-02PJ 10.069,62 3.020,89 0,00 0,00 0,00 0,00 13.090,51 1.439,96 2.334,54 0,00 3.774,50 9.316,01 1.550,00 708,04 30/04/2020
339 378400 BETANIA FARNESI DE SOUZA E SILVA OFICIAL DO MP ATIVO SETE LAGOAS - COMARCA; SETE LAGOAS-PJ-SEC CRIMINAIS 8.579,10 3.431,64 0,00 0,00 0,00 0,00 12.010,74 1.321,18 2.018,13 0,00 3.339,31 8.671,43 1.550,00 1.223,65 30/04/2020
340 387400 BETANIA MENDONCA DE ASSIS CARVALHO ANALISTA DO MP ATIVO BELO HORIZONTE - COMARCA; BH-08PJ JUIZADO ESPECIAL-SECRETARIA 13.011,52 2.602,30 0,00 0,00 0,00 0,00 15.613,82 1.717,52 2.899,99 0,00 4.617,51 10.996,31 2.319,39 1.090,62 30/04/2020
341 450300 BIANCA OLIVEIRA DE ALBUQUERQUE ANALISTA DO MP ATIVO BELO HORIZONTE - COMARCA; BH-10PJ EXECUÇÃO PENAL-SECRETARIA 10.069,62 2.013,92 0,00 0,00 0,00 0,00 12.083,54 1.439,96 2.426,84 0,00 3.866,80 8.216,74 2.319,39 1.941,73 30/04/2020
342 535400 BIANCA SALOTO ROSSI ANALISTA DO MP ATIVO SANTOS DUMONT - COMARCA; SANTOS DUMONT-PJ-01PJ 8.436,53 843,65 0,00 0,00 0,00 0,00 9.280,18 1.020,82 1.401,96 0,00 2.422,78 6.857,40 1.550,00 727,68 30/04/2020
343 120800 BRAS MARQUES DE SOUZA ANALISTA DO MP ATIVO BELO HORIZONTE - COMARCA; SUPERINTENDENCIA DE GESTAO ADMINISTRATIVA 23.757,25 19.005,81 0,00 0,00 0,00 3.900,84 46.663,90 3.900,84 8.778,48 7.300,84 19.980,16 26.683,74 7.223,96 520,11 30/04/2020
344 460900 BRENO CRISTIANO DE SOUZA REZENDE ANALISTA DO MP ATIVO ITAÚNA - COMARCA; ITAUNA-PJ-02PJ 9.444,70 944,47 0,00 0,00 0,00 0,00 10.389,17 1.142,81 1.673,39 0,00 2.816,20 7.572,97 1.550,00 1.208,64 30/04/2020
345 239000 BRENO VENANCIO ROMANINI OFICIAL DO MP ATIVO BELO HORIZONTE - COMARCA; BH-20PJ ORD ECON TRIBUTARIA-SECRETARIA 10.069,62 3.020,89 0,00 0,00 0,00 0,00 13.090,51 1.439,96 2.334,54 0,00 3.774,50 9.316,01 6.786,20 1.425,49 30/04/2020
346 202201 BRIGITTE AMARALINA DE CALDAS LIMA OFICIAL DO MP ATIVO NANUQUE - COMARCA; NANUQUE-PJ-03PJ 10.069,62 4.027,85 0,00 0,00 0,00 0,00 14.097,47 1.550,72 2.320,31 0,00 3.871,03 10.226,44 1.550,00 632,12 30/04/2020
347 642300 BRUNA IZABELITA DE FATIMA OLIVEIRA COSTA OFICIAL DO MP ATIVO BELO HORIZONTE - COMARCA; BH-02PJ FAMILIA-SECRETARIA 4.817,57 289,05 0,00 0,00 0,00 0,00 5.106,62 561,73 386,47 0,00 948,20 4.158,42 1.550,00 335,72 30/04/2020
348 513600 BRUNA KARLA MARTINS CARVALHO ANALISTA DO MP ATIVO GOVERNADOR VALADARES - COMARCA; GOVERNADOR VALADARES-PJ-01PJ 9.998,41 1.006,96 0,00 0,00 0,00 0,00 11.005,37 1.218,42 1.822,05 0,00 3.040,47 7.964,90 1.550,00 458,38 30/04/2020
349 415100 BRUNA MARIA SOARES OLIVEIRA COSTA RAMOS ANALISTA DO MP ATIVO UBÁ - COMARCA; COORD REG BACIA DO RIO PARAIBA DO SUL 12.601,30 2.520,26 0,00 0,00 0,00 0,00 15.121,56 1.663,37 2.831,64 0,00 4.495,01 10.626,55 1.742,41 1.236,48 30/04/2020
350 470000 BRUNA MORAES ANALISTA DO MP ATIVO TOMBOS - COMARCA; TOMBOS-PJ-UNPJ 11.085,56 1.108,56 0,00 0,00 0,00 0,00 12.194,12 1.341,35 1.958,74 0,00 3.300,09 8.894,03 2.319,39 880,74 30/04/2020
351 614700 BRUNA NATTANY DE LIMA OFICIAL DO MP ATIVO MANTENA - COMARCA; MANTENA-PJ-01PJ 5.217,34 521,73 0,00 0,00 0,00 0,00 5.739,07 631,30 535,28 0,00 1.166,58 4.572,49 1.550,00 650,17 30/04/2020
352 631800 BRUNA RAPOSO JORGE OFICIAL DO MP ATIVO JUIZ DE FORA - COMARCA; JUIZ DE FORA-PJ-06PJ 5.217,34 521,73 0,00 0,00 0,00 0,00 5.739,07 631,30 535,28 0,00 1.166,58 4.572,49 1.550,00 617,21 30/04/2020
353 463800 BRUNO ALVES TEIXEIRA ANALISTA DO MP ATIVO UBERLÂNDIA - COMARCA; UBERLANDIA-PJ-04PJ 10.069,62 1.006,96 0,00 0,00 0,00 0,00 11.076,58 1.218,42 1.841,63 0,00 3.060,05 8.016,53 1.550,00 504,62 30/04/2020
354 538500 BRUNO AUGUSTO DA SILVA OFICIAL DO MP ATIVO SANTA LUZIA - COMARCA; SANTA LUZIA-PJ-03PJ 5.387,19 538,72 0,00 0,00 0,00 0,00 5.925,91 651,85 581,01 0,00 1.232,86 4.693,05 2.319,39 415,63 30/04/2020
355 318200 BRUNO BARROS DE SOUZA OFICIAL DO MP ATIVO UBÁ - COMARCA; UBA-PJ-04PJ 10.069,62 3.020,89 0,00 0,00 0,00 0,00 13.090,51 1.439,96 1.783,68 0,00 3.223,64 9.866,87 1.550,00 1.405,99 30/04/2020
356 459600 BRUNO CASTELAR LUGAO MENDES OFICIAL DO MP ATIVO GOVERNADOR VALADARES - COMARCA; GOVERNADOR VALADARES-PJ-05PJ 7.663,37 766,34 0,00 0,00 0,00 0,00 8.429,71 927,27 1.193,81 0,00 2.121,08 6.308,63 1.550,00 557,15 30/04/2020
357 427400 BRUNO CESAR RIBEIRO DE PAIVA ANALISTA DO MP ATIVO BELO HORIZONTE - COMARCA; ASSESS JUR DO CONS SUPERIOR DO MINISTERIO PUB 12.601,30 2.520,26 0,00 0,00 0,00 0,00 15.121,56 1.663,37 2.831,64 0,00 4.495,01 10.626,55 1.550,00 1.203,65 30/04/2020
358 380900 BRUNO CIRILO ANTUNES OFICIAL DO MP ATIVO VARGINHA - COMARCA; VARGINHA-PJ-05PJ 8.436,53 1.687,31 0,00 0,00 0,00 0,00 10.123,84 1.113,62 1.608,45 0,00 2.722,07 7.401,77 1.550,00 669,23 30/04/2020
359 329000 BRUNO DE MELO REIS ANALISTA DO MP ATIVO PATROCÍNIO - COMARCA; PATROCINIO-PJ-02PJ 15.272,02 4.581,61 0,00 0,00 0,00 0,00 19.853,63 2.183,90 3.885,54 0,00 6.069,44 13.784,19 4.846,18 1.510,41 30/04/2020
360 378300 BRUNO HERDY LOPES DE OLIVEIRA ANALISTA DO MP ATIVO GOVERNADOR VALADARES - COMARCA; GOVERNADOR VALADARES-PJ-SECRETARIA 13.011,52 2.602,30 0,00 0,00 0,00 0,00 15.613,82 1.717,52 2.952,12 0,00 4.669,64 10.944,18 1.550,00 1.073,46 30/04/2020
361 529700 BRUNO JOSE BUENO DIAS OFICIAL DO MP ATIVO SÃO SEBASTIÃO DO PARAÍSO - COMARCA; SAO SEBASTIAO DO PARAISO-PJ-02PJ 5.387,19 538,72 0,00 0,00 0,00 0,00 5.925,91 651,85 528,87 0,00 1.180,72 4.745,19 1.550,00 415,63 30/04/2020
362 350100 BRUNO LAUD SERRANO DOS REIS OFICIAL DO MP ATIVO UBÁ - COMARCA; UBA-PJ-02PJ 8.579,10 2.573,73 0,00 0,00 0,00 0,00 11.152,83 1.226,81 1.808,16 0,00 3.034,97 8.117,86 1.550,00 606,79 30/04/2020
363 373800 BRUNO MARTINO DE ALBUQUERQUE ANALISTA DO MP ATIVO PONTE NOVA - COMARCA; PONTE NOVA-PJ-03PJ 13.011,52 2.602,30 0,00 0,00 0,00 0,00 15.613,82 1.717,52 2.847,85 0,00 4.565,37 11.048,45 1.550,00 1.073,46 30/04/2020
364 470400 BRUNO NOVAIS CABRAL ANALISTA DO MP ATIVO MUTUM - COMARCA; MUTUM-PJ-UNPJ 10.069,62 1.006,96 0,00 0,00 0,00 0,00 11.076,58 1.218,42 1.841,63 0,00 3.060,05 8.016,53 1.550,00 504,62 30/04/2020
365 648600 BRUNO RIBEIRO E MELO ASSESSOR ATIVO BELO HORIZONTE - COMARCA; DIRETORIA DE RELACOES PUBLICAS E CERIMONIAL 0,00 0,00 8.170,49 0,00 2.723,50 0,00 10.893,99 713,09 2.232,89 0,00 2.945,98 7.948,01 3.837,74 627,95 30/04/2020
366 369200 BRUNO ROBERTO DIAS DE OLIVEIRA OFICIAL DO MP ATIVO BELO HORIZONTE - COMARCA; BH-22PJ PES COM DEF E IDOSOS-SECRETARIA 8.858,43 1.771,69 0,00 0,00 0,00 0,00 10.630,12 1.169,31 1.732,36 0,00 2.901,67 7.728,45 1.550,00 800,31 30/04/2020
367 547700 BRUNO ROBERTO SOUZA GONCALVES ANALISTA DO MP ATIVO PARACATU - COMARCA; PARACATU-PJ-03PJ 8.436,53 843,65 0,00 0,00 0,00 0,00 9.280,18 1.020,82 1.401,96 0,00 2.422,78 6.857,40 3.162,39 705,23 30/04/2020
368 546100 BRUNO SA VIEIRA ANALISTA DO MP ATIVO ERVÁLIA - COMARCA; ERVALIA-PJ-UNPJ 8.436,53 843,65 0,00 0,00 0,00 0,00 9.280,18 1.020,82 1.349,83 0,00 2.370,65 6.909,53 1.550,00 651,00 30/04/2020
369 438200 BRUNO SALES PEREIRA ANALISTA DO MP ATIVO BELO HORIZONTE - COMARCA; CENTRAL DE APOIO TECNICO-SETOR CONTABIL 11.085,56 2.217,11 0,00 0,00 0,00 0,00 13.302,67 1.463,29 2.334,33 0,00 3.797,62 9.505,05 2.473,27 838,34 30/04/2020
370 537400 BRUNO SANT'ANA CESAR ANALISTA DO MP ATIVO CONTAGEM - COMARCA; CONTAGEM-PJ-19PJ 8.436,53 843,65 0,00 0,00 0,00 0,00 9.280,18 1.020,82 1.401,96 0,00 2.422,78 6.857,40 1.550,00 651,00 30/04/2020
371 405800 CAIO FERNANDO RODRIGUES DE OLIVEIRA ANALISTA DO MP ATIVO BELO HORIZONTE - COMARCA; ASSESS TECNICO-JUR JUNTO AS PROC. DE JUST 12.601,30 2.520,26 0,00 0,00 0,00 0,00 15.121,56 1.663,37 2.831,64 0,00 4.495,01 10.626,55 1.550,00 1.089,12 30/04/2020
372 530000 CAIO GUEDES DE OLIVEIRA ANALISTA DO MP ATIVO DIAMANTINA - COMARCA; DIAMANTINA-PJ-02PJ 8.436,53 843,65 0,00 0,00 0,00 0,00 9.280,18 1.020,82 1.349,83 0,00 2.370,65 6.909,53 2.319,39 727,68 30/04/2020
373 491400 CAIO MIRANDA JUNQUEIRA ANALISTA DO MP ATIVO BUENO BRANDAO - COMARCA; BUENO BRANDAO-PJ-UNPJ 9.444,70 944,47 0,00 0,00 0,00 0,00 10.389,17 1.142,81 1.569,11 0,00 2.711,92 7.677,25 2.319,39 710,93 30/04/2020
374 415800 CAMILA ALVES DA SILVA ANALISTA DO MP ATIVO CAETÉ - COMARCA; CAETE-PJ-01PJ 12.601,30 2.520,26 0,00 0,00 0,00 0,00 15.121,56 1.663,37 2.831,64 0,00 4.495,01 10.626,55 1.550,00 949,00 30/04/2020
375 555800 CAMILA CAROLINE ROCHA CHAVES OFICIAL DO MP ATIVO SALINAS - COMARCA; SALINAS-PJ-01PJ 5.387,19 538,72 0,00 0,00 0,00 0,00 5.925,91 651,85 581,01 0,00 1.232,86 4.693,05 1.550,00 451,20 30/04/2020
376 445200 CAMILA CONDE ROCHA ANALISTA DO MP ATIVO CONTAGEM - COMARCA; CONTAGEM-PJ-08PJ 10.069,62 2.013,92 0,00 0,00 4.027,85 0,00 16.111,39 1.329,19 3.195,75 0,00 4.524,94 11.586,45 2.319,39 504,62 30/04/2020
377 419900 CAMILA CUNNINGHAM PIMENTA DE PADUA ANALISTA DO MP ATIVO BELO HORIZONTE - COMARCA; ASSESSORIA PSICOSSOCIAL 12.601,30 2.520,26 0,00 0,00 0,00 0,00 15.121,56 1.663,37 2.831,64 0,00 4.495,01 10.626,55 1.550,00 1.089,12 30/04/2020
378 507700 CAMILA ELIZABETH RODRIGUES ANALISTA DO MP ATIVO BELO HORIZONTE - COMARCA; BH-02PJ FAMILIA 10.397,52 1.039,75 0,00 0,00 0,00 0,00 11.437,27 1.258,10 1.929,91 0,00 3.188,01 8.249,26 1.563,38 792,17 30/04/2020
379 372700 CAMILA FONSECA LIMONGE ANALISTA DO MP ATIVO BETIM - COMARCA; BETIM-PJ-01PJ 13.011,52 2.602,30 0,00 0,00 0,00 0,00 15.613,82 1.717,52 2.952,12 0,00 4.669,64 10.944,18 2.319,39 1.073,46 30/04/2020
380 621300 CAMILA GOLFETO DE SOUSA VALENTE OFICIAL DO MP ATIVO ESPERA FELIZ - COMARCA; ESPERA FELIZ-PJ-UNPJ 5.217,34 521,73 0,00 0,00 0,00 0,00 5.739,07 631,30 385,15 0,00 1.016,45 4.722,62 2.319,39 578,71 30/04/2020
381 409800 CAMILA GONCALVES COSTA RIBEIRO ANALISTA DO MP ATIVO INHAPIM - COMARCA; INHAPIM-PJ-02PJ 10.069,62 2.013,92 0,00 0,00 0,00 0,00 12.083,54 1.329,19 2.035,95 0,00 3.365,14 8.718,40 2.319,39 504,62 30/04/2020
382 335000 CAMILA GONTIJO DE PAIVA ANALISTA DO MP ATIVO BELO HORIZONTE - COMARCA; COORD DE CONTROLE DA CONSTITUCIONALIDADE 15.499,20 3.099,84 0,00 0,00 0,00 0,00 18.599,04 2.045,89 3.630,62 0,00 5.676,51 12.922,53 8.926,91 2.467,68 30/04/2020
383 547800 CAMILA MATTARELLI DE ABREU E SILVA ANALISTA DO MP ATIVO BELO HORIZONTE - COMARCA; CAO-VIOLENCIA DOMESTICA E FAMILIAR 8.436,53 843,65 0,00 0,00 0,00 0,00 9.280,18 1.020,82 1.401,96 0,00 2.422,78 6.857,40 1.550,00 781,91 30/04/2020
384 430000 CANDIDA MARINA COSTA ANALISTA DO MP ATIVO BELO HORIZONTE - COMARCA; DIVISAO DE DOCUMENTACAO JURIDICA 12.601,30 2.520,26 0,00 0,00 0,00 0,00 15.121,56 1.663,37 2.831,64 0,00 4.495,01 10.626,55 1.550,00 1.053,03 30/04/2020
385 614300 CARINA CORTIELHA OFICIAL DO MP ATIVO BELO HORIZONTE - COMARCA; BH-23PJ CIVEL-SEC EXP CIVEIS 4.817,57 481,76 0,00 0,00 0,00 0,00 5.299,33 582,93 427,65 0,00 1.010,58 4.288,75 1.550,00 632,60 30/04/2020
386 380400 CARINA DIAS FACANHA DE SOUZA ANALISTA DO MP ATIVO SANTA RITA DO SAPUCAÍ - COMARCA; SANTA RITA DO SAPUCAI-PJ-SECRETARIA 13.011,52 2.602,30 0,00 0,00 0,00 0,00 15.613,82 1.717,52 2.952,12 0,00 4.669,64 10.944,18 1.550,00 1.198,40 30/04/2020
387 255000 CARLA ADRIANA DE MENEZES OFICIAL DO MP ATIVO BELO HORIZONTE - COMARCA; CENT DE APOIO TEC-SETOR DEF,IDOSO E INFANC 10.069,62 3.020,89 0,00 0,00 0,00 0,00 13.090,51 1.439,96 2.334,54 0,00 3.774,50 9.316,01 1.742,03 943,40 30/04/2020
388 425100 CARLA ADRIANA DINIZ AMARAL OFICIAL DO MP ATIVO CONTAGEM - COMARCA; CONTAGEM-PJ-08PJ 7.912,85 1.582,57 0,00 0,00 0,00 0,00 9.495,42 1.044,50 1.454,64 0,00 2.499,14 6.996,28 1.550,00 649,26 30/04/2020
389 508100 CARLA ALESSANDRA FONSECA ANALISTA DO MP ATIVO BELO HORIZONTE - COMARCA; CAO-ORDEM ECONOMICA E TRIBUTARIA-SECRETARIA 10.069,62 1.006,96 0,00 0,00 0,00 0,00 11.076,58 1.218,42 1.841,63 0,00 3.060,05 8.016,53 1.550,00 481,50 30/04/2020
390 607100 CARLA ANGELICA DIAS MIRANDA OFICIAL DO MP ATIVO JABOTICATUBAS - COMARCA; JABOTICATUBAS-PJ-UNPJ 5.387,19 538,72 0,00 0,00 0,00 0,00 5.925,91 651,85 424,59 0,00 1.076,44 4.849,47 1.550,00 386,85 30/04/2020
391 351500 CARLA APARECIDA MENDES RAMIRIO OFICIAL DO MP ATIVO PASSOS - COMARCA; PASSOS-PJ-01PJ 8.858,43 1.771,69 0,00 0,00 0,00 0,00 10.630,12 1.169,31 1.680,23 0,00 2.849,54 7.780,58 1.550,00 709,22 30/04/2020
392 442800 CARLA GONCALVES COSTA SOALHEIRO ANALISTA DO MP ATIVO GOVERNADOR VALADARES - COMARCA; GOVERNADOR VALADARES-PJ-11PJ 9.732,05 2.013,92 0,00 0,00 0,00 0,00 11.745,97 1.329,19 1.943,12 0,00 3.272,31 8.473,66 2.319,39 493,85 30/04/2020
393 321500 CARLA GONCALVES MASSOTE OFICIAL DO MP ATIVO CAMPO BELO - COMARCA; CAMPO BELO-PJ-01PJ 10.069,62 3.020,89 0,00 0,00 0,00 0,00 13.090,51 1.550,72 2.673,30 0,00 4.224,02 8.866,49 1.550,00 2.748,60 30/04/2020
394 429200 CARLA HAUTEQUESTT BECHARA COORDENADOR/ANALISTA ATIVO BELO HORIZONTE - COMARCA; DIRET DE INFORMACAO E CONHECIMENTO-DINC/CEAF 12.601,30 5.207,29 0,00 0,00 5.936,20 0,00 23.744,79 1.663,37 5.203,03 0,00 6.866,40 16.878,39 1.550,00 1.233,90 30/04/2020
395 247500 CARLA MATILDE GUIMARAES DE OLIVEIRA OFICIAL DO MP ATIVO ITAJUBA - COMARCA; ITAJUBA-PJ-SECRETARIA 10.069,62 4.027,85 0,00 0,00 0,00 0,00 14.097,47 1.550,72 2.528,86 0,00 4.079,58 10.017,89 1.550,00 651,88 30/04/2020
396 226100 CARLA MERLI DA CONCEICAO ANALISTA DO MP ATIVO BELO HORIZONTE - COMARCA; CENTRAL DE APOIO TECNICO-SETOR CONTABIL 18.820,14 5.646,04 0,00 0,00 0,00 0,00 24.466,18 2.691,28 5.066,60 0,00 7.757,88 16.708,30 7.797,60 1.652,88 30/04/2020
397 181401 CARLO MICHEL GAUDENSI COELHO ANALISTA DO MP ATIVO BELO HORIZONTE - COMARCA; BH-08PJ JUIZADO ESPECIAL-SECRETARIA 12.204,02 4.881,61 0,00 0,00 0,00 0,00 17.085,63 1.879,42 3.312,35 0,00 5.191,77 11.893,86 7.017,40 2.388,80 30/04/2020
398 634000 CARLOS ALBERTO AMORMINO TRIGUEIRO ANALISTA DO MP ATIVO BELO HORIZONTE - COMARCA; DIRET DE APOIO AS PROCURADORIAS DE JUSTICA 7.421,79 742,18 0,00 0,00 0,00 0,00 8.163,97 898,04 1.076,63 0,00 1.974,67 6.189,30 2.319,39 535,99 30/04/2020
399 637900 CARLOS ALBERTO DE MOURA OFICIAL DO MP ATIVO SETE LAGOAS - COMARCA; SETE LAGOAS-PJ-07PJ 4.817,57 289,05 0,00 0,00 0,00 0,00 5.106,62 592,09 343,81 0,00 935,90 4.170,72 2.319,39 437,70 30/04/2020
400 638700 CARLOS ALBERTO FERREIRA BRAGA ANALISTA DO MP ATIVO RIBEIRÃO DAS NEVES - COMARCA; SEC PJ EXECUCAO PENAL RIBEIRAO NEVES 6.741,63 404,50 0,00 0,00 0,00 0,00 7.146,13 671,12 806,99 0,00 1.478,11 5.668,02 1.550,00 617,52 30/04/2020
401 375801 CARLOS ALBERTO ROCHA ANALISTA DO MP ATIVO ELOI MENDES - COMARCA; ELOI MENDES-PJ-SECRETARIA 9.146,93 914,69 0,00 0,00 0,00 0,00 10.061,62 1.106,78 1.593,22 0,00 2.700,00 7.361,62 1.550,00 705,82 30/04/2020
402 462800 CARLOS ANDREI SOARES FAGUNDES ANALISTA DO MP ATIVO MONTES CLAROS - COMARCA; MONTES CLAROS-PJ-09PJ 10.069,62 1.006,96 0,00 0,00 0,00 0,00 11.076,58 1.218,42 1.789,50 0,00 3.007,92 8.068,66 2.319,39 504,62 30/04/2020
403 370300 CARLOS AUGUSTO BUENO DIAS ASSESSOR ATIVO BELO HORIZONTE - COMARCA; SUPERINTENDÊNCIA DE ENGENHARIA E ARQUITETURA 0,00 0,00 10.397,52 0,00 0,00 0,00 10.397,52 713,09 1.401,48 0,00 2.114,57 8.282,95 1.550,00 532,24 30/04/2020
404 505100 CARLOS CEZAR CARVALHO ANALISTA DO MP ATIVO RIBEIRÃO DAS NEVES - COMARCA; RIBEIRAO DAS NEVES-PJ-04PJ 9.444,70 3.777,88 0,00 0,00 0,00 0,00 13.222,58 1.454,48 2.262,59 0,00 3.717,07 9.505,51 1.550,00 904,82 30/04/2020
405 195900 CARLOS DE SOUZA FERREIRA OFICIAL DO MP ATIVO COROMANDEL - COMARCA; COROMANDEL-PJ-UNPJ 10.069,62 8.055,69 0,00 0,00 0,00 0,00 18.125,31 1.993,78 3.566,81 0,00 5.560,59 12.564,72 1.550,00 925,90 30/04/2020
406 196800 CARLOS EDUARDO DE OLIVEIRA MARINHO OFICIAL DO MP ATIVO ALPINÓPOLIS - COMARCA; ALPINOPOLIS-PJ-UNPJ 14.790,66 7.395,33 0,00 0,00 0,00 0,00 22.185,99 2.440,46 4.508,52 0,00 6.948,98 15.237,01 1.785,63 1.466,62 30/04/2020
407 650800 CARLOS EDUARDO NIZA DA SILVA OFICIAL DO MP ATIVO IGARAPÉ - COMARCA; IGARAPE-PJ-01PJ 4.238,09 254,29 0,00 0,00 0,00 0,00 4.492,38 544,28 220,81 0,00 765,09 3.727,29 1.550,00 551,05 30/04/2020
408 491800 CARLOS EDUARDO ROMAN OFICIAL DO MP ATIVO BARBACENA - COMARCA; BARBACENA-PJ-09PJ 7.421,79 1.484,36 0,00 0,00 0,00 0,00 8.906,15 979,68 1.310,42 0,00 2.290,10 6.616,05 1.550,00 1.030,56 30/04/2020
409 299300 CARLOS HENRIQUE BICALHO ANALISTA DO MP ATIVO BELO HORIZONTE - COMARCA; BH-17PJ PATRIMONIO PUBLICO-SECRETARIA 16.750,82 6.700,33 0,00 0,00 0,00 0,00 23.451,15 2.579,63 4.870,31 0,00 7.449,94 16.001,21 2.319,39 3.307,39 30/04/2020
410 205100 CARLOS HENRIQUE ESTEVES OFICIAL DO MP ATIVO ITAMBACURI - COMARCA; ITAMBACURI-PJ-01PJ 14.790,66 5.916,26 0,00 0,00 0,00 0,00 20.706,92 2.277,76 4.146,52 0,00 6.424,28 14.282,64 4.960,00 1.807,63 30/04/2020
411 351600 CARLOS HENRIQUE FELICIO DA FONSECA OFICIAL DO MP ATIVO JUIZ DE FORA - COMARCA; JUIZ DE FORA-PJ-21PJ 9.444,70 2.833,41 0,00 0,00 0,00 0,00 12.278,11 1.350,59 2.083,57 0,00 3.434,16 8.843,95 2.050,88 1.428,38 30/04/2020
412 85400 CARLOS JOSE VIEIRA OFICIAL DO MP ATIVO BELO HORIZONTE - COMARCA; DIRETORIA DO COLEGIO E DA CAMARA DE PJ 23.757,25 19.005,81 0,00 0,00 0,00 0,00 42.763,06 3.900,84 7.810,02 7.300,84 19.011,70 23.751,36 7.223,96 520,11 30/04/2020
413 229100 CARLOS MERCES DE OLIVEIRA ANALISTA DO MP ATIVO BELO HORIZONTE - COMARCA; CENTRAL DE APOIO TECN-SETOR DE MEIO AMBIENTE 18.820,14 7.528,06 0,00 0,00 0,00 0,00 26.348,20 2.898,30 4.259,45 0,00 7.157,75 19.190,45 1.550,00 1.800,37 30/04/2020
414 538300 CARLOS RANGEL SILVA DE MELO ANALISTA DO MP ATIVO BELO HORIZONTE - COMARCA; DIVISAO DE CONTROLE IMOBILIARIO 8.436,53 2.530,96 0,00 0,00 3.655,83 0,00 14.623,32 1.206,42 2.820,29 0,00 4.026,71 10.596,61 2.319,39 725,02 30/04/2020
415 265100 CARLOS REIFF MIRANDA ANALISTA DO MP ATIVO BELO HORIZONTE - COMARCA; BH-19PJ SAUDE-SECRETARIA 150PJ 15.272,02 4.581,61 0,00 0,00 0,00 0,00 19.853,63 2.183,90 3.989,82 0,00 6.173,72 13.679,91 1.550,00 1.363,31 30/04/2020
416 305400 CARLOS ROCHA DE SOUZA OFICIAL DO MP ATIVO MONTALVÂNIA - COMARCA; MONTALVANIA-PJ-SECRETARIA 6.123,79 1.837,14 0,00 0,00 0,00 0,00 7.960,93 875,70 870,53 0,00 1.746,23 6.214,70 1.550,00 334,78 30/04/2020
417 365100 CARLOS WAGNER SANDER MORAIS COORDENADOR/OFICIAL ATIVO BELO HORIZONTE - COMARCA; DIRETORIA DE ADMINISTRACAO FINANCEIRA 0,00 2.687,03 13.435,16 0,00 0,00 0,00 16.122,19 1.879,40 3.047,41 0,00 4.926,81 11.195,38 1.566,51 788,63 30/04/2020
418 399900 CARMELITA EVANGELISTA DE SOUZA OFICIAL DO MP ATIVO JOÃO PINHEIRO - COMARCA; JOAO PINHEIRO-PJ-01PJ 7.663,37 1.532,67 0,00 0,00 0,00 0,00 9.196,04 1.011,56 1.381,37 0,00 2.392,93 6.803,11 1.550,00 579,53 30/04/2020
419 202000 CARMEN LUCIA MARIZ DE MACEDO OFICIAL DO MP ATIVO BELO HORIZONTE - COMARCA; DIRETORIA GESTAO COMPRAS LICITACOES 14.324,23 10.026,96 0,00 0,00 0,00 0,00 24.351,19 2.678,63 4.986,32 0,00 7.664,95 16.686,24 1.632,78 2.773,02 30/04/2020
420 228500 CAROLINA CHIARELLA DOS SANTOS RIBEIRO ASSESSOR/OFICIAL ATIVO BELO HORIZONTE - COMARCA; PROCURADORIA-GERAL ADJUNTA INSTITUCIONAL 0,00 3.119,26 10.397,52 0,00 0,00 0,00 13.516,78 1.206,42 2.411,71 0,00 3.618,13 9.898,65 1.550,00 1.276,27 30/04/2020
421 446500 CAROLINA COSTA VAL RODRIGUES ANALISTA DO MP ATIVO CONTAGEM - COMARCA; CONTAGEM-PJ-05PJ 12.204,02 2.440,80 0,00 0,00 0,00 0,00 14.644,82 1.610,93 2.714,96 0,00 4.325,89 10.318,93 3.893,17 2.372,09 30/04/2020
422 603501 CAROLINA DOMINGOS BRANDAO RABELLO ANALISTA DO MP ATIVO CARATINGA - COMARCA; CARATINGA-PJ-01PJ 8.436,53 843,65 0,00 0,00 0,00 0,00 9.280,18 1.020,82 1.401,96 0,00 2.422,78 6.857,40 1.550,00 599,96 30/04/2020
423 404300 CAROLINA DOS SANTOS VIEIRA ANALISTA DO MP ATIVO BELO HORIZONTE - COMARCA; BH-08PJ JUIZADO ESPECIAL-SECRETARIA 13.011,52 2.602,30 0,00 0,00 0,00 0,00 15.613,82 1.717,52 2.847,85 0,00 4.565,37 11.048,45 1.550,00 1.017,86 30/04/2020
424 551200 CAROLINA LOPES ARANTES MASCARENHAS ANALISTA DO MP ATIVO BELO HORIZONTE - COMARCA; COORD EST DEF DIR FAMILIA PESSOA DEFICI IDOSO 8.436,53 843,65 0,00 0,00 0,00 0,00 9.280,18 1.020,82 1.297,69 0,00 2.318,51 6.961,67 3.088,78 705,23 30/04/2020
425 622600 CAROLINA LOREDO LOPES CATIZANI OFICIAL DO MP ATIVO RIBEIRÃO DAS NEVES - COMARCA; RIBEIRAO DAS NEVES-PJ-12PJ 4.817,57 481,76 0,00 0,00 0,00 0,00 5.299,33 582,93 427,65 0,00 1.010,58 4.288,75 1.550,00 633,84 30/04/2020
426 382200 CAROLINA MENDES CHAVES LIN ANALISTA DO MP ATIVO BELO HORIZONTE - COMARCA; BH-12PJ JUIZO CRIMINAL-GAB 088PJ 10.069,62 2.013,92 0,00 0,00 0,00 0,00 12.083,54 1.329,19 2.035,95 0,00 3.365,14 8.718,40 2.319,39 847,57 30/04/2020
427 461900 CAROLINA MURTA TEIXEIRA DIAS ASSESSOR/ANALISTA ATIVO BELO HORIZONTE - COMARCA; PROCURADOR-GERAL DE JUSTIÇA 0,00 1.260,13 12.601,30 0,00 0,00 0,00 13.861,43 1.218,42 2.607,47 0,00 3.825,89 10.035,54 3.980,69 850,48 30/04/2020
428 509600 CAROLINA PINTO DE OLIVEIRA SOUZA ANALISTA DO MP ATIVO MURIAÉ - COMARCA; MURIAE-PJ-01PJ 10.069,62 1.006,96 0,00 0,00 0,00 0,00 11.076,58 1.218,42 1.685,22 0,00 2.903,64 8.172,94 3.472,93 481,50 30/04/2020
429 629100 CAROLINA RODRIGUES AMARAL ANALISTA DO MP ATIVO BELO HORIZONTE - COMARCA; PROC. JUSTICA DIR. DIFUSOS E COLETIVOS-SEC 8.170,49 817,05 0,00 0,00 0,00 0,00 8.987,54 988,63 1.330,34 0,00 2.318,97 6.668,57 1.550,00 1.007,77 30/04/2020
430 502600 CAROLINA RODRIGUES RUBEN ANALISTA DO MP ATIVO BELO HORIZONTE - COMARCA; EXTINTA-DEF DIREIT HUM-COMB A VIOL DOMEST-18 10.069,62 1.006,96 0,00 0,00 0,00 0,00 11.076,58 1.218,42 1.737,36 0,00 2.955,78 8.120,80 3.088,78 567,34 30/04/2020
431 529600 CAROLINA VAZ DE MELO MAMBRINI ANALISTA DO MP ATIVO MINAS NOVAS - COMARCA; MINAS NOVAS-PJ-UNPJ 8.436,53 843,65 0,00 0,00 0,00 0,00 9.280,18 1.020,82 1.401,96 0,00 2.422,78 6.857,40 1.550,00 651,00 30/04/2020
432 619100 CAROLINA ZAKHIA NARDELLI RODRIGUES ANALISTA DO MP ATIVO NEPOMUCENO - COMARCA; NEPOMUCENO-PJ-UNPJ 8.170,49 817,05 0,00 0,00 0,00 0,00 8.987,54 988,63 1.330,34 0,00 2.318,97 6.668,57 2.319,39 1.007,77 30/04/2020
433 517600 CAROLINE ALVES DE OLIVEIRA MULLER ANALISTA DO MP ATIVO VISCONDE DO RIO BRANCO - COMARCA; VISCONDE DO RIO BRANCO-PJ-01PJ 10.069,62 1.006,96 0,00 0,00 0,00 0,00 11.076,58 1.218,42 1.789,50 0,00 3.007,92 8.068,66 2.319,39 458,38 30/04/2020
434 373200 CAROLINE ANTUNES RIBEIRO OFICIAL DO MP ATIVO JACUI - COMARCA; JACUI-PJ-UNPJ 8.579,10 1.715,82 0,00 0,00 0,00 0,00 10.294,92 1.132,44 1.493,91 0,00 2.626,35 7.668,57 1.550,00 1.111,13 30/04/2020
435 556800 CAROLINE DE SOUZA CARDOSO DOMINGUES OFICIAL DO MP ATIVO BRASÍLIA DE MINAS - COMARCA; BRASILIA DE MINAS-PJ-02PJ 5.387,19 538,72 0,00 0,00 0,00 0,00 5.925,91 651,85 581,01 0,00 1.232,86 4.693,05 1.550,00 778,69 30/04/2020
436 499400 CAROLINE MARQUES DE LOURDES MARZULLO OFICIAL DO MP ATIVO JUIZ DE FORA - COMARCA; JUIZ DE FORA-PJ-08PJ 7.421,79 742,18 0,00 0,00 0,00 0,00 8.163,97 898,04 1.128,77 0,00 2.026,81 6.137,16 2.703,54 944,68 30/04/2020
437 616800 CAROLINE MONTEIRO DE BARROS ANALISTA DO MP ATIVO CONTAGEM - COMARCA; CONTAGEM-PJ-11PJ 8.170,49 817,05 0,00 0,00 0,00 0,00 8.987,54 988,63 1.330,34 0,00 2.318,97 6.668,57 1.550,00 1.072,77 30/04/2020
438 618100 CAROLINE VASCONCELOS COSTA LANZA ANALISTA DO MP ATIVO PARAOPEBA - COMARCA; PARAOPEBA-PJ-UNPJ 8.170,49 817,05 0,00 0,00 0,00 0,00 8.987,54 988,63 1.330,34 0,00 2.318,97 6.668,57 4.627,56 1.007,77 30/04/2020
439 604000 CASSIA APARECIDA DA SILVA OFICIAL DO MP ATIVO PARACATU - COMARCA; PARACATU-PJ-01PJ 5.387,19 538,72 0,00 0,00 0,00 0,00 5.925,91 651,85 581,01 0,00 1.232,86 4.693,05 1.550,00 728,45 30/04/2020
440 268800 CASSIA BEATRIZ TEIXEIRA OFICIAL DO MP ATIVO BELO HORIZONTE - COMARCA; COMB CRIMES PRAT POR AG POL MUN-SECRETARIA 12.204,02 3.661,21 0,00 0,00 0,00 0,00 15.865,23 1.745,18 3.013,65 0,00 4.758,83 11.106,40 1.550,00 1.786,93 30/04/2020
441 500000 CASSIA DE OLIVEIRA COSTA VIANA ANALISTA DO MP ATIVO SETE LAGOAS - COMARCA; SETE LAGOAS-PJ-09PJ 10.069,62 5.034,81 0,00 0,00 0,00 0,00 15.104,43 1.661,49 2.827,45 0,00 4.488,94 10.615,49 1.550,00 785,45 30/04/2020
442 368800 CASSIA LUISA BATISTA MENDONCA WEBER OFICIAL DO MP ATIVO BELO HORIZONTE - COMARCA; DIVISÃO DE EDUCAÇÃO PARA O CONSUMO 7.421,79 1.484,36 0,00 0,00 0,00 0,00 8.906,15 979,68 1.286,54 0,00 2.266,22 6.639,93 1.550,00 665,54 30/04/2020
443 622200 CASSIA VAZ DE AZEVEDO LISBOA MARZANO ASSESSOR ATIVO BELO HORIZONTE - COMARCA; CGMP-SECRETARIA DA CORREGEDORIA-GERAL DO MP 0,00 0,00 3.076,28 0,00 0,00 0,00 3.076,28 465,67 116,48 0,00 582,15 2.494,13 2.319,39 157,48 30/04/2020
444 121000 CASSIO HENRIQUE AFONSO DA SILVA OFICIAL DO MP ATIVO BELO HORIZONTE - COMARCA; ASSESS TECNICA DA CORREGEDORIA-GERAL DO MP 16.750,82 11.725,57 0,00 0,00 0,00 0,00 28.476,39 3.132,40 5.995,96 0,00 9.128,36 19.348,03 7.726,87 2.736,42 30/04/2020
445 121100 CASSIO MOREIRA DE MIRANDA AGENTE DO MP ATIVO BELO HORIZONTE - COMARCA; DIVISÃO DE FISCALIZAÇÃO DAS RELAÇÕES DE CONSU 4.376,03 3.500,82 0,00 0,00 0,00 866,45 8.743,30 866,45 854,27 0,00 1.720,72 7.022,58 1.550,00 1.922,45 30/04/2020
446 512001 CATARINA NATALINO CALIXTO COORDENADOR/ANALISTA ATIVO BELO HORIZONTE - COMARCA; DIRETORIA GESTAO TRANSPORTES 0,00 1.343,52 13.435,16 0,00 0,00 0,00 14.778,68 1.075,80 2.898,93 0,00 3.974,73 10.803,95 1.588,48 598,40 30/04/2020
447 606200 CATARINE DE SIQUEIRA DE QUADROS ANALISTA DO MP ATIVO RIBEIRÃO DAS NEVES - COMARCA; RIBEIRAO DAS NEVES-PJ-09PJ 7.663,37 766,34 0,00 0,00 0,00 0,00 8.429,71 927,27 1.141,67 0,00 2.068,94 6.360,77 1.550,00 544,87 30/04/2020
448 622300 CECILIA APARECIDA PEREIRA ASSUNCAO OFICIAL DO MP ATIVO TRÊS PONTAS - COMARCA; TRES PONTAS-PJ-SECRETARIA 5.217,34 521,73 0,00 0,00 0,00 0,00 5.739,07 631,30 483,14 0,00 1.114,44 4.624,63 2.319,39 578,71 30/04/2020
449 538000 CECILIA FONTES DE MATOS PIMENTEL ANALISTA DO MP ATIVO PALMA - COMARCA; PALMA-PJ-UNPJ 8.436,53 843,65 0,00 0,00 0,00 0,00 9.280,18 1.020,82 1.401,96 0,00 2.422,78 6.857,40 2.319,39 651,00 30/04/2020
450 261300 CECILIO ANTONIO CAMPOS DOS REIS ANALISTA DO MP ATIVO BELO HORIZONTE - COMARCA; AUDITORIA INTERNA 17.413,92 5.224,18 0,00 0,00 0,00 0,00 22.638,10 2.490,19 4.671,32 0,00 7.161,51 15.476,59 6.451,36 2.074,78 30/04/2020
451 386400 CEFAS AMORELI DE FIGUEIREDO OFICIAL DO MP ATIVO CABO VERDE - COMARCA; CABO VERDE-PJ-SECRETARIA 6.123,79 1.224,76 0,00 0,00 0,00 0,00 7.348,55 808,34 929,20 0,00 1.737,54 5.611,01 1.550,00 334,78 30/04/2020
452 149000 CELIA MAGALHAES CLAROS SOSSI OFICIAL DO MP ATIVO GOVERNADOR VALADARES - COMARCA; GAECO REGIONAL DE GOVERNADOR VALADARES 15.272,02 10.690,41 0,00 0,00 0,00 3.191,85 29.154,28 3.191,85 7.595,35 0,00 10.787,20 18.367,08 8.900,32 7.539,70 30/04/2020
453 421000 CELINA BENEDITA DE SOUZA ALMEIDA OFICIAL DO MP ATIVO CAMBUÍ - COMARCA; CAMBUI-PJ-01PJ 7.912,85 3.956,43 0,00 0,00 0,00 0,00 11.869,28 1.305,62 1.983,51 0,00 3.289,13 8.580,15 1.550,00 857,32 30/04/2020
454 252900 CELIO DE MELO CASTOR ANALISTA DO MP ATIVO BELO HORIZONTE - COMARCA; BH-20PJ ORD ECON TRIBUTARIA-SECRETARIA 17.413,92 5.224,18 0,00 0,00 0,00 0,00 22.638,10 2.490,19 4.671,32 0,00 7.161,51 15.476,59 1.550,00 1.659,75 30/04/2020
455 395700 CELIO FERREIRA LIMA OFICIAL DO MP ATIVO CONTAGEM - COMARCA; CONTAGEM-PJ-07PJ 8.436,53 1.687,31 0,00 0,00 0,00 0,00 10.123,84 1.113,62 1.556,31 0,00 2.669,93 7.453,91 2.410,57 669,23 30/04/2020
456 281300 CELMA REGINA PEREIRA SANTOS ANALISTA DO MP ATIVO BELO HORIZONTE - COMARCA; DIVISAO DE DOCUMENTACAO JURIDICA 16.750,82 5.025,25 0,00 0,00 0,00 0,00 21.776,07 2.395,37 4.460,33 0,00 6.855,70 14.920,37 1.550,00 1.615,74 30/04/2020
457 535600 CELSO MEDEIROS DE PAIVA OFICIAL DO MP ATIVO RIO PRETO - COMARCA; RIO PRETO-PJ-SECRETARIA 4.974,42 497,44 0,00 0,00 0,00 0,00 5.471,86 601,90 417,74 0,00 1.019,64 4.452,22 1.550,00 383,82 30/04/2020
458 367000 CESAR NARVAES DE AVELAR COORDENADOR/OFICIAL ATIVO BELO HORIZONTE - COMARCA; DIVISAO DE MEMORIA INSTITUCIONAL 0,00 2.363,83 11.819,15 0,00 0,00 0,00 14.182,98 1.205,75 2.699,38 0,00 3.905,13 10.277,85 1.550,00 668,04 30/04/2020
459 226500 CESAR SILVEIRA BARROUIN OFICIAL DO MP ATIVO BELO HORIZONTE - COMARCA; DIRETORIA DE ADMINISTRACAO FINANCEIRA 12.204,02 4.881,61 0,00 0,00 0,00 0,00 17.085,63 1.879,42 3.312,35 0,00 5.191,77 11.893,86 1.608,08 2.030,43 30/04/2020
460 121400 CEZAR MORENO CONCEICAO TAVARES OFICIAL DO MP ATIVO BELO HORIZONTE - COMARCA; COORD EST DEF DIR FAMILIA PESSOA DEFICI IDOSO 15.272,02 10.690,41 0,00 0,00 0,00 0,00 25.962,43 2.855,87 5.380,67 0,00 8.236,54 17.725,89 7.663,65 2.260,74 30/04/2020
461 243800 CHARLES MARTINS MUNIZ OFICIAL DO MP ATIVO BELO HORIZONTE - COMARCA; LAB TECNOLOGIA CONTRA LAVAGEM DINHEIRO 12.204,02 4.881,61 0,00 0,00 0,00 0,00 17.085,63 1.879,42 3.312,35 0,00 5.191,77 11.893,86 1.100,00 1.887,62 30/04/2020
462 193500 CHARLIN CESAR KOURLY OFICIAL DO MP ATIVO ARAGUARI - COMARCA; ARAGUARI-PJ-07PJ 14.790,66 4.437,20 0,00 0,00 0,00 0,00 19.227,86 2.115,06 3.836,66 0,00 5.951,72 13.276,14 3.178,20 1.412,07 30/04/2020
463 385500 CHILLEN PEIXOTO DE MOURA OFICIAL DO MP ATIVO BELO HORIZONTE - COMARCA; DIVISÃO DE FISCALIZAÇÃO DAS RELAÇÕES DE CONSU 8.436,53 1.687,31 0,00 0,00 0,00 0,00 10.123,84 1.113,62 2.005,90 0,00 3.119,52 7.004,32 1.585,53 2.188,48 30/04/2020
464 534500 CHRISTIAN DOUGLAS BRITO RUAS OFICIAL DO MP ATIVO SÃO JOÃO DA PONTE - COMARCA; SAO JOAO DA PONTE-PJ-SECRETARIA 5.387,19 538,72 0,00 0,00 0,00 0,00 5.925,91 651,85 581,01 0,00 1.232,86 4.693,05 1.550,00 464,59 30/04/2020
465 370600 CHRISTIAN KARINE FELIX PRATES ASSESSOR ATIVO BELO HORIZONTE - COMARCA; SUPRIN DE PLANEJAMENTO E COORDENACAO 0,00 0,00 10.397,52 0,00 0,00 0,00 10.397,52 713,09 2.096,36 0,00 2.809,45 7.588,07 1.550,00 532,24 30/04/2020
466 435800 CHRISTIANA BAHIA ANDRADE PINA ANALISTA DO MP ATIVO BELO HORIZONTE - COMARCA; LABORATORIO TECNOLOGIA INTELIGENCIA 12.601,30 2.520,26 0,00 0,00 0,00 0,00 15.121,56 1.663,37 2.831,64 0,00 4.495,01 10.626,55 5.948,56 1.383,96 30/04/2020
467 516800 CHRISTIANE FERREIRA DO NASCIMENTO ANALISTA DO MP ATIVO ESTRELA DO SUL - COMARCA; ESTRELA DO SUL-PJ-UNPJ 10.069,62 1.006,96 0,00 0,00 0,00 0,00 11.076,58 1.218,42 1.841,63 0,00 3.060,05 8.016,53 1.550,00 544,22 30/04/2020
468 176000 CHRISTIANE JUNQUEIRA PULITI ANDRADE DE BARROS ASSESSOR ATIVO BELO HORIZONTE - COMARCA; CAO-VIOLENCIA DOMESTICA E FAMILIAR 0,00 9.157,17 11.446,46 0,00 0,00 2.266,40 22.870,03 2.266,40 4.796,64 0,00 7.063,04 15.806,99 5.044,66 1.298,27 30/04/2020
469 319200 CHRISTIANE MARIA DE ASSIS RUSSO OFICIAL DO MP ATIVO BELO HORIZONTE - COMARCA; CAO-ORDEM ECONOMICA E TRIBUTARIA-SECRETARIA 10.736,08 3.220,82 0,00 0,00 0,00 0,00 13.956,90 1.535,26 2.494,45 0,00 4.029,71 9.927,19 2.319,39 2.066,05 30/04/2020
470 510300 CHRISTIANE MARY DE CARVALHO FERREIRA ANALISTA DO MP ATIVO BELO HORIZONTE - COMARCA; DIRETORIA DE SISTEMAS DE INFORMACAO 10.069,62 1.006,96 0,00 0,00 0,00 0,00 11.076,58 1.218,42 1.789,50 0,00 3.007,92 8.068,66 1.550,00 481,50 30/04/2020
471 424900 CHRISTIANE PEREIRA TURNER DE ARAUJO OFICIAL DO MP ATIVO BELO HORIZONTE - COMARCA; CAO-PATRIMONIO PUBLICO 7.912,85 1.582,57 0,00 0,00 0,00 0,00 9.495,42 1.044,50 1.350,37 0,00 2.394,87 7.100,55 2.319,39 619,03 30/04/2020
472 513700 CHRISTIANE VIEIRA SOARES PEDERSOLI ASSESSOR/ANALISTA ATIVO BELO HORIZONTE - COMARCA; ASSESSORIA JURIDICA DO PROCON-MG 0,00 1.144,65 11.446,46 0,00 0,00 0,00 12.591,11 1.218,42 2.258,13 0,00 3.476,55 9.114,56 2.319,39 458,38 30/04/2020
473 412300 CHRYSTIAN MACHADO RIBEIRO ANALISTA DO MP ATIVO VARGINHA - COMARCA; VARGINHA-PJ-04PJ 12.601,30 2.520,26 0,00 0,00 0,00 0,00 15.121,56 1.663,37 2.831,64 0,00 4.495,01 10.626,55 1.550,00 1.089,12 30/04/2020
474 513800 CHRYSTIANE DO NASCIMENTO DE MAGALHAES OFICIAL DO MP ATIVO UBERLÂNDIA - COMARCA; UBERLANDIA-PJ-10PJ 6.741,63 674,16 0,00 0,00 0,00 0,00 7.415,79 815,74 841,38 0,00 1.657,12 5.758,67 2.319,39 535,63 30/04/2020
475 497900 CIBELE DE FREITAS SANCHES DIAS ANALISTA DO MP ATIVO SABARÁ - COMARCA; SABARA-PJ-03PJ 9.444,70 944,47 0,00 0,00 0,00 0,00 10.389,17 1.142,81 1.621,25 0,00 2.764,06 7.625,11 1.550,00 710,93 30/04/2020
476 500900 CIBELLE SILVA PRADO ALVARENGA ANALISTA DO MP ATIVO ITANHANDU - COMARCA; ITANHANDU-PJ-UNPJ 10.069,62 1.006,96 0,00 0,00 3.692,19 0,00 14.768,77 1.218,42 2.856,99 0,00 4.075,41 10.693,36 3.088,78 567,34 30/04/2020
477 296400 CINTIA APARECIDA MOREIRA NAVES E RODRIGUES ANALISTA DO MP ATIVO CAMPO BELO - COMARCA; CAMPO BELO-PJ-02PJ 16.750,82 5.025,25 0,00 0,00 0,00 0,00 21.776,07 2.395,37 4.460,33 0,00 6.855,70 14.920,37 5.923,38 2.807,66 30/04/2020
478 407900 CINTIA NETO COMELLI ANALISTA DO MP ATIVO BELO HORIZONTE - COMARCA; CENTRAL DE APOIO TECNICO-SETOR CONTABIL 12.601,30 2.520,26 0,00 0,00 0,00 0,00 15.121,56 1.663,37 2.779,51 0,00 4.442,88 10.678,68 2.319,39 1.089,12 30/04/2020
479 304700 CINTIA QUEIROZ OFICIAL DO MP ATIVO BELO HORIZONTE - COMARCA; OUVIDORIA DO MPMG 10.069,62 3.020,89 0,00 0,00 0,00 0,00 13.090,51 1.439,96 2.334,54 0,00 3.774,50 9.316,01 2.597,24 952,97 30/04/2020
480 286100 CIRO CANGUSSU CORDEIRO OFICIAL DO MP ATIVO IPATINGA - COMARCA; IPATINGA-PJ-09PJ 7.421,79 2.226,54 0,00 0,00 0,00 0,00 9.648,33 1.061,32 1.387,79 0,00 2.449,11 7.199,22 2.781,02 1.086,70 30/04/2020
481 412500 CLARICE GOMES MAROTTA ANALISTA DO MP ATIVO BELO HORIZONTE - COMARCA; PROMOT ESTADUAL DE DEF PATRI CULT E TUR DE MG 12.601,30 3.780,39 0,00 0,00 0,00 0,00 16.381,69 1.801,99 3.140,06 0,00 4.942,05 11.439,64 1.569,16 1.242,45 30/04/2020
482 605300 CLARISSA AZEVEDO ROCHA OFICIAL DO MP ATIVO BELO HORIZONTE - COMARCA; ASSESSORIA PSICOSSOCIAL 5.387,19 538,72 0,00 0,00 0,00 0,00 5.925,91 651,85 581,01 0,00 1.232,86 4.693,05 1.550,00 386,85 30/04/2020
483 308100 CLARISSA DUARTE BELLONI DIRETOR/ANALISTA ATIVO BELO HORIZONTE - COMARCA; DIRETORIA-GERAL 0,00 7.409,35 24.697,83 0,00 0,00 0,00 32.107,18 2.497,50 7.221,16 0,00 9.718,66 22.388,52 9.358,34 1.886,46 30/04/2020
484 497100 CLARISSA ROCHA GUIDI ANALISTA DO MP ATIVO BELO HORIZONTE - COMARCA; BH-02PJ FAMILIA 10.397,52 1.039,75 0,00 0,00 0,00 0,00 11.437,27 1.258,10 1.877,77 0,00 3.135,87 8.301,40 2.319,39 779,19 30/04/2020
485 641800 CLARISSE TAVARES GONCALVES OFICIAL DO MP ATIVO BELO HORIZONTE - COMARCA; BH-07PJ 01 TRIBUNAL JURI-SECRETARIA 4.817,57 289,05 0,00 0,00 0,00 0,00 5.106,62 636,32 386,47 0,00 1.022,79 4.083,83 1.550,00 776,61 30/04/2020
486 463700 CLAUDIA ADRIANA FERRAO DIAS ANALISTA DO MP ATIVO SETE LAGOAS - COMARCA; SETE LAGOAS-PJ-06PJ 10.069,62 1.006,96 0,00 0,00 0,00 0,00 11.076,58 1.218,42 1.841,63 0,00 3.060,05 8.016,53 1.550,00 504,62 30/04/2020
487 415400 CLAUDIA ALMEIDA DE VASCONCELLOS BARROS ASSESSOR/OFICIAL ATIVO BELO HORIZONTE - COMARCA; DIVISAO DE SERVICOS 0,00 2.079,50 10.397,52 0,00 0,00 0,00 12.477,02 1.404,15 2.175,68 0,00 3.579,83 8.897,19 1.561,71 521,06 30/04/2020
488 207000 CLAUDIA APARECIDA VILELA MACHADO ANALISTA DO MP ATIVO BELO HORIZONTE - COMARCA; CENTRAL DE APOIO TECNICO-SETOR CONTABIL 18.820,14 7.528,06 0,00 0,00 0,00 0,00 26.348,20 2.898,30 5.422,95 0,00 8.321,25 18.026,95 6.819,64 1.683,43 30/04/2020
489 365700 CLAUDIA BREGUEZ CUNHA ANALISTA DO MP ATIVO VARGINHA - COMARCA; VARGINHA-PJ-07PJ 14.324,23 2.864,85 0,00 0,00 0,00 0,00 17.189,08 1.890,80 3.337,67 0,00 5.228,47 11.960,61 1.550,00 2.045,05 30/04/2020
490 430500 CLAUDIA CECILIA SANTANA VENCESLAU OFICIAL DO MP ATIVO BELO HORIZONTE - COMARCA; DIR ANALISES TECNOLOGIA INTELIGENCIA 7.912,85 1.582,57 0,00 0,00 0,00 0,00 9.495,42 1.044,50 1.402,51 0,00 2.447,01 7.048,41 2.319,39 937,02 30/04/2020
491 112400 CLAUDIA CRISTINA FIUZA DE AVELAR AGENTE DO MP ATIVO BELO HORIZONTE - COMARCA; SERVICO MEDICO-DEPTO PERIC MEDICA SAUDE OCUP 9.752,14 6.826,50 0,00 0,00 0,00 0,00 16.578,64 1.823,65 3.188,26 0,00 5.011,91 11.566,73 1.550,00 1.251,54 30/04/2020
492 480400 CLAUDIA GOULART DE SOUZA OFICIAL DO MP ATIVO PASSOS - COMARCA; PASSOS-PJ-06PJ 7.421,79 1.484,36 0,00 0,00 0,00 0,00 8.906,15 979,68 1.310,42 0,00 2.290,10 6.616,05 1.550,00 1.059,60 30/04/2020
493 519800 CLAUDIA HELENA CORREA DE ALMEIDA ANALISTA DO MP ATIVO BELO HORIZONTE - COMARCA; BH-12PJ JUIZO CRIMINAL-GAB 102PJ 10.069,62 1.006,96 0,00 0,00 0,00 0,00 11.076,58 1.218,42 1.841,63 0,00 3.060,05 8.016,53 1.550,00 1.296,07 30/04/2020
494 422100 CLAUDIA IACOMINI CABRAL ANALISTA DO MP ATIVO BELO HORIZONTE - COMARCA; CENT DE APOIO TEC-SETOR DEF,IDOSO E INFANC 12.601,30 8.820,91 0,00 0,00 0,00 0,00 21.422,21 2.356,44 4.373,73 0,00 6.730,17 14.692,04 7.636,64 1.799,22 30/04/2020
495 258200 CLAUDIA LAGE MICHALAROS ANALISTA DO MP ATIVO BELO HORIZONTE - COMARCA; CENTRAL DE APOIO TECN-SETOR DE MEIO AMBIENTE 17.413,92 12.189,74 0,00 0,00 0,00 3.256,40 32.860,06 3.256,40 7.219,51 0,00 10.475,91 22.384,15 1.717,26 2.438,72 30/04/2020
496 284600 CLAUDIA LENI DE FREITAS OFICIAL DO MP ATIVO CONTAGEM - COMARCA; CONTAGEM-PJ-22PJ 6.123,79 2.449,52 0,00 0,00 0,00 0,00 8.573,31 943,06 1.228,96 0,00 2.172,02 6.401,29 1.550,00 390,56 30/04/2020
497 433600 CLAUDIA LUIZA SANTIAGO FELICIO ANALISTA DO MP ATIVO BELO HORIZONTE - COMARCA; CENT DE APOIO TEC-SETOR DEF,IDOSO E INFANC 12.601,30 2.520,26 0,00 0,00 0,00 0,00 15.121,56 1.663,37 2.727,37 0,00 4.390,74 10.730,82 1.631,05 916,21 30/04/2020
498 317000 CLAUDIA MACHADO ALVES ASSESSOR/OFICIAL ATIVO BELO HORIZONTE - COMARCA; DIRETORIA DE SISTEMAS DE INFORMACAO 0,00 3.119,26 10.397,52 0,00 0,00 0,00 13.516,78 1.162,08 2.528,18 0,00 3.690,26 9.826,52 1.550,00 588,52 30/04/2020
499 155300 CLAUDIA MACIEL MIRANDA E BELO OFICIAL DO MP ATIVO CONGONHAS - COMARCA; CONGONHAS-PJ-02PJ 15.272,02 7.636,01 0,00 0,00 0,00 0,00 22.908,03 2.519,88 4.633,11 0,00 7.152,99 15.755,04 1.550,00 1.574,80 30/04/2020
500 242200 CLAUDIA MICHELLE DIAS MUNIZ BALEEIRO OFICIAL DO MP ATIVO MONTE AZUL - COMARCA; MONTE AZUL-PJ-SECRETARIA 12.204,02 4.881,61 0,00 0,00 0,00 0,00 17.085,63 1.879,42 3.260,21 0,00 5.139,63 11.946,00 1.608,08 1.977,06 30/04/2020
501 623000 CLAUDIA PATRICIA SILVA RODRIGUES RAPOSEIRAS OFICIAL DO MP ATIVO BELO HORIZONTE - COMARCA; DIVISÃO DE EDUCAÇÃO PARA O CONSUMO 4.817,57 481,76 0,00 0,00 0,00 0,00 5.299,33 582,93 382,40 0,00 965,33 4.334,00 2.319,39 594,27 30/04/2020
502 418400 CLAUDIA REGINA MARTINS BONIFACIO OFICIAL DO MP ATIVO ITUIUTABA - COMARCA; ITUIUTABA-PJ-06PJ 7.912,85 1.582,57 0,00 0,00 0,00 0,00 9.495,42 1.044,50 1.350,37 0,00 2.394,87 7.100,55 1.550,00 649,26 30/04/2020
503 498300 CLAUDIA SOUTO FARIAS BRAUN OFICIAL DO MP ATIVO TEÓFILO OTONI - COMARCA; TEOFILO OTONI-PJ-SECRETARIA 6.123,79 612,38 0,00 0,00 0,00 0,00 6.736,17 740,98 675,04 0,00 1.416,02 5.320,15 1.550,00 458,83 30/04/2020
504 206500 CLAUDIA VALERIA FONSECA ANDRADE ANALISTA DO MP ATIVO BELO HORIZONTE - COMARCA; BH-23PJ INF-FISC MED SOC FEC 18.820,14 9.410,07 0,00 0,00 0,00 0,00 28.230,21 3.105,32 6.039,98 0,00 9.145,30 19.084,91 7.629,57 1.803,67 30/04/2020
505 277500 CLAUDIO ANTONIO BORGES BRUNSWICK ALVARES OFICIAL DO MP ATIVO BELO HORIZONTE - COMARCA; SUPERINTENDENCIA DE RECURSOS HUMANOS 10.069,62 3.020,89 0,00 0,00 0,00 0,00 13.090,51 1.439,96 2.334,54 0,00 3.774,50 9.316,01 1.550,00 618,91 30/04/2020
506 444800 CLAUDIO ARESIO DO CARMO ANALISTA DO MP ATIVO SETE LAGOAS - COMARCA; SETE LAGOAS-PJ-01PJ 10.069,62 4.027,85 0,00 0,00 0,00 0,00 14.097,47 1.550,72 2.528,86 0,00 4.079,58 10.017,89 1.550,00 596,36 30/04/2020
507 541600 CLAUDIO DE OLIVEIRA MELO OFICIAL DO MP ATIVO CANÁPOLIS - COMARCA; CANAPOLIS-PJ-UNPJ 4.376,03 262,56 0,00 0,00 0,00 0,00 4.638,59 510,24 207,58 0,00 717,82 3.920,77 2.319,39 211,32 30/04/2020
508 545100 CLAUDIO HENRIQUE MACEDO DE SOUZA FRANSOZO ANALISTA DO MP ATIVO OURO PRETO - COMARCA; OURO PRETO-PJ-01PJ 8.436,53 843,65 0,00 0,00 0,00 0,00 9.280,18 1.020,82 1.401,96 0,00 2.422,78 6.857,40 2.319,39 727,68 30/04/2020
509 353500 CLAUDIO HENRIQUE PEDRO DA ROCHA OFICIAL DO MP ATIVO BELO HORIZONTE - COMARCA; DIVISAO TRANSPORTES 9.444,70 1.888,94 0,00 0,00 0,00 0,00 11.333,64 1.246,70 1.800,27 0,00 3.046,97 8.286,67 1.550,00 1.404,89 30/04/2020
510 265800 CLAUDIO KUPIDLOWSKY FERNANDES OFICIAL DO MP ATIVO BELO HORIZONTE - COMARCA; SECRETARIA DO PROCON-MG 10.069,62 3.020,89 0,00 0,00 0,00 0,00 13.090,51 1.439,96 1.462,59 0,00 2.902,55 10.187,96 1.550,00 569,04 30/04/2020
511 193600 CLAUDIO LEITE FONTES OFICIAL DO MP ATIVO ITUIUTABA - COMARCA; ITUIUTABA-PJ-02PJ 8.858,43 3.543,37 0,00 0,00 0,00 0,00 12.401,80 1.364,20 1.878,61 0,00 3.242,81 9.158,99 1.550,00 827,45 30/04/2020
512 329400 CLAUDIO MARCIO BERNARDES OFICIAL DO MP ATIVO ITAÚNA - COMARCA; ITAUNA-PJ-03PJ 10.069,62 7.048,73 0,00 0,00 0,00 0,00 17.118,35 1.883,02 3.268,22 0,00 5.151,24 11.967,11 2.319,39 1.991,83 30/04/2020
513 270200 CLAUDIO RABELO ALVES OFICIAL DO MP ATIVO FORMIGA - COMARCA; FORMIGA-PJ-03PJ 10.397,52 3.119,26 0,00 0,00 0,00 0,00 13.516,78 1.486,85 2.230,32 0,00 3.717,17 9.799,61 1.550,00 938,77 30/04/2020
514 264700 CLAUDIO ROBERTO KFURI DE ARAUJO ANALISTA DO MP ATIVO BELO HORIZONTE - COMARCA; CENTRAL DE APOIO TECNICO-SETOR DE INFORMATICA 17.413,92 5.224,18 0,00 0,00 0,00 0,00 22.638,10 2.490,19 4.567,04 0,00 7.057,23 15.580,87 1.550,00 1.586,82 30/04/2020
515 188600 CLAUDIO SALES OFICIAL DO MP ATIVO NEPOMUCENO - COMARCA; NEPOMUCENO-PJ-SECRETARIA 14.324,23 11.459,38 0,00 0,00 0,00 0,00 25.783,61 2.836,20 5.441,18 0,00 8.277,38 17.506,23 1.550,00 2.817,74 30/04/2020
516 543300 CLAUDIO SILVA DE CARVALHO ANALISTA DO MP ATIVO CAMPO BELO - COMARCA; CAMPO BELO-PJ-04PJ 7.663,37 766,34 0,00 0,00 0,00 0,00 8.429,71 927,27 1.141,67 0,00 2.068,94 6.360,77 1.550,00 577,73 30/04/2020
517 160700 CLAUDIO VICENTE HESS ASSESSOR ATIVO BELO HORIZONTE - COMARCA; CENTRAL DE APOIO TECNICO-SETOR DE INFORMATICA 0,00 5.374,06 13.435,16 0,00 0,00 0,00 18.809,22 713,09 4.305,30 0,00 5.018,39 13.790,83 3.054,74 1.447,36 30/04/2020
518 312900 CLAUDIO VIEIRA FIRPE OFICIAL DO MP ATIVO BELO HORIZONTE - COMARCA; DIRETORIA DE RELACOES PUBLICAS E CERIMONIAL 9.752,14 2.925,64 0,00 0,00 0,00 0,00 12.677,78 1.394,56 2.233,53 0,00 3.628,09 9.049,69 2.319,39 891,82 30/04/2020
519 634100 CLEA CRISTINA GUERRA DE FREITAS COSTA OFICIAL DO MP ATIVO BELO HORIZONTE - COMARCA; BH-18PJ VIOLENCIA DOMESTICA-SECRETARIA 4.817,57 481,76 0,00 0,00 0,00 0,00 5.299,33 582,93 382,40 0,00 965,33 4.334,00 2.319,39 337,57 30/04/2020
520 653100 CLEBER SOUZA SCALIONI ASSESSOR ATIVO BELO HORIZONTE - COMARCA; CENTRAL DE APOIO TECNICO-SETOR CONTABIL 0,00 0,00 8.170,49 0,00 0,00 0,00 8.170,49 713,09 1.483,92 0,00 2.197,01 5.973,48 1.550,00 487,95 30/04/2020
521 459200 CLEIA ZILLE PEREIRA ANALISTA DO MP ATIVO BELO HORIZONTE - COMARCA; ASSESS TECNICO-JUR JUNTO AS PROC. DE JUST 10.069,62 1.006,96 0,00 0,00 0,00 0,00 11.076,58 1.218,42 1.841,63 0,00 3.060,05 8.016,53 1.550,00 504,62 30/04/2020
522 481800 CLEIDE CARDOSO DA SILVA ANALISTA DO MP ATIVO MANHUAÇU - COMARCA; MANHUACU-PJ-04PJ 10.069,62 1.006,96 0,00 0,00 0,00 0,00 11.076,58 1.218,42 1.737,36 0,00 2.955,78 8.120,80 1.550,00 504,62 30/04/2020
523 347600 CLEIDIMAR DE OLIVEIRA SILVA OFICIAL DO MP ATIVO PATOS DE MINAS - COMARCA; PATOS DE MINAS-PJ-07PJ 8.579,10 2.573,73 0,00 0,00 0,00 0,00 11.152,83 1.226,81 1.651,75 0,00 2.878,56 8.274,27 1.550,00 636,85 30/04/2020
524 396500 CLEIDISON BATISTA DE ANDRADE OFICIAL DO MP ATIVO RESPLENDOR - COMARCA; RESPLENDOR-PJ-UNPJ 6.529,10 1.305,82 0,00 0,00 0,00 0,00 7.834,92 861,84 943,96 0,00 1.805,80 6.029,12 2.319,39 949,24 30/04/2020
525 535100 CLEISON ALVES DA SILVA ANALISTA DO MP ATIVO BOA ESPERANÇA - COMARCA; BOA ESPERANCA-PJ-01PJ 8.436,53 843,65 0,00 0,00 0,00 0,00 9.280,18 1.020,82 1.297,69 0,00 2.318,51 6.961,67 2.319,39 651,00 30/04/2020
526 298100 CLEONICE AUGUSTA BARROS DE OLIVEIRA ANALISTA DO MP ATIVO JUIZ DE FORA - COMARCA; JUIZ DE FORA-PJ-08PJ 16.750,82 5.025,25 0,00 0,00 0,00 0,00 21.776,07 2.395,37 4.460,33 0,00 6.855,70 14.920,37 1.550,00 1.531,84 30/04/2020
527 114300 CLERES PEREIRA DA SILVA JUNIOR ASSESSOR ATIVO BELO HORIZONTE - COMARCA; GAECO - SECRETARIA 0,00 2.568,16 5.136,32 0,00 0,00 0,00 7.704,48 713,09 1.199,36 0,00 1.912,45 5.792,03 1.550,00 394,38 30/04/2020
528 264100 CLETO HENRIQUE ANDRADE SILVA ANALISTA DO MP ATIVO BELO HORIZONTE - COMARCA; DIRETORIA DE SISTEMAS DE INFORMACAO 17.413,92 5.224,18 0,00 0,00 0,00 0,00 22.638,10 2.490,19 4.567,04 0,00 7.057,23 15.580,87 1.741,86 1.586,82 30/04/2020
529 334400 CLEUBA DE OLIVEIRA BARCELOS GONCALVES OFICIAL DO MP ATIVO DIVINÓPOLIS - COMARCA; COORD REG SAUDE MACRORREGIAO SANITARIA OESTE 10.069,62 2.013,92 0,00 0,00 0,00 0,00 12.083,54 1.329,19 1.983,81 0,00 3.313,00 8.770,54 1.550,00 1.405,99 30/04/2020
530 347500 CLEUSA CORDEIRO DA MATA PIMENTA OFICIAL DO MP ATIVO CAMPO BELO - COMARCA; CAMPO BELO-PJ-02PJ 9.146,93 7.317,55 0,00 0,00 0,00 1.811,09 18.275,57 1.811,09 3.554,10 0,00 5.365,19 12.910,38 7.631,30 1.815,34 30/04/2020
531 510200 CLEZIO SALES SILVA OFICIAL DO MP ATIVO BRASÓPOLIS - COMARCA; BRASOPOLIS-PJ-UNPJ 5.562,64 556,26 0,00 0,00 0,00 0,00 6.118,90 673,08 628,24 0,00 1.301,32 4.817,58 2.319,39 469,46 30/04/2020
532 323000 CLOTILDE DE PADUA VIEIRA OFICIAL DO MP ATIVO BELO HORIZONTE - COMARCA; BH-19PJ SAUDE-SECRETARIA 129PJ 7.187,72 1.437,54 0,00 0,00 0,00 0,00 8.625,26 948,78 1.241,67 0,00 2.190,45 6.434,81 1.550,00 997,99 30/04/2020
533 285200 CLOVIS ANDRE LUDTKE OFICIAL DO MP ATIVO BELO HORIZONTE - COMARCA; DIVISAO DE MANUTENCAO PREDIAL 10.069,62 3.020,89 0,00 0,00 0,00 0,00 13.090,51 1.439,96 2.334,54 0,00 3.774,50 9.316,01 1.550,00 898,98 30/04/2020
534 381100 CONCEICAO APARECIDA TEIXEIRA ARANTES ANALISTA DO MP ATIVO BELO HORIZONTE - COMARCA; BH-23PJ INFRACIONAL-ASS JURIDICA 13.435,16 2.687,03 0,00 0,00 0,00 0,00 16.122,19 1.864,65 3.227,36 0,00 5.092,01 11.030,18 2.319,39 2.761,78 30/04/2020
535 249900 CONSTANTINO CEZAR GOMES MOTA OFICIAL DO MP ATIVO MONTES CLAROS - COMARCA; COORD REG BACIA RIOS VERDE GRANDE E PARDO 9.146,93 2.744,08 0,00 0,00 0,00 0,00 11.891,01 1.308,01 1.936,69 0,00 3.244,70 8.646,31 2.361,12 793,44 30/04/2020
536 481000 CRISHMA ANALIA LOMBELLO ANALISTA DO MP ATIVO JUIZ DE FORA - COMARCA; JUIZ DE FORA-PJ-13PJ 10.069,62 1.006,96 0,00 0,00 0,00 0,00 11.076,58 1.218,42 1.789,50 0,00 3.007,92 8.068,66 1.550,00 504,62 30/04/2020
537 523900 CRISTHYANE BAZOLI COSTA GUEDES COUTO OFICIAL DO MP ATIVO BELO HORIZONTE - COMARCA; BH-04PJ JUIZO REG PÚBLICOS-SECRETARIA 6.741,63 674,16 0,00 0,00 0,00 0,00 7.415,79 815,74 945,65 0,00 1.761,39 5.654,40 1.550,00 509,83 30/04/2020
538 187000 CRISTIAN DAYVSON EVANGELISTA OFICIAL DO MP ATIVO JUIZ DE FORA - COMARCA; JUIZ DE FORA-PJ-13PJ 14.324,23 5.729,69 0,00 0,00 0,00 0,00 20.053,92 2.205,93 3.986,70 0,00 6.192,63 13.861,29 1.550,00 2.154,74 30/04/2020
539 319800 CRISTIANA GONCALVES DOS SANTOS GUSMAO OFICIAL DO MP ATIVO SETE LAGOAS - COMARCA; SETE LAGOAS-PJ-10PJ 9.146,93 2.744,08 0,00 0,00 0,00 0,00 11.891,01 1.308,01 2.040,97 0,00 3.348,98 8.542,03 1.550,00 754,73 30/04/2020
540 520600 CRISTIANA JANAINA BARBOZA JUVENCIO DOS SANTOS ANALISTA DO MP ATIVO BELO HORIZONTE - COMARCA; BH-02PJ FAMILIA 10.069,62 1.006,96 0,00 0,00 0,00 0,00 11.076,58 1.218,42 1.841,63 0,00 3.060,05 8.016,53 1.550,00 1.296,07 30/04/2020
541 195600 CRISTIANA SOARES HALABI OFICIAL DO MP ATIVO UBERABA - COMARCA; UBERABA-PJ-01PJ 14.324,23 5.729,69 0,00 0,00 0,00 0,00 20.053,92 2.205,93 4.038,84 0,00 6.244,77 13.809,15 3.259,30 1.576,32 30/04/2020
542 218900 CRISTIANE ALVES BELLES OFICIAL DO MP ATIVO JUIZ DE FORA - COMARCA; JUIZ DE FORA-PJ-10PJ 6.123,79 1.837,14 0,00 0,00 0,00 0,00 7.960,93 875,70 974,80 0,00 1.850,50 6.110,43 2.703,54 362,68 30/04/2020
543 263600 CRISTIANE CARVALHO COUTINHO OFICIAL DO MP ATIVO BELO HORIZONTE - COMARCA; BH-23PJ INFRACIONAL-SEC EXP 10.069,62 3.020,89 0,00 0,00 0,00 0,00 13.090,51 1.439,96 2.282,40 0,00 3.722,36 9.368,15 1.550,00 945,50 30/04/2020
544 541000 CRISTIANE COELHO ALVES OFICIAL DO MP ATIVO ITABIRA - COMARCA; ITABIRA-PJ-03PJ 4.974,42 497,44 0,00 0,00 0,00 0,00 5.471,86 601,90 417,74 0,00 1.019,64 4.452,22 1.550,00 383,82 30/04/2020
545 441700 CRISTIANE CORRADO DE ANDRADE ANALISTA DO MP ATIVO BELO HORIZONTE - COMARCA; DIRETORIA DE SISTEMAS DE INFORMACAO 12.601,30 2.520,26 0,00 0,00 0,00 0,00 15.121,56 1.663,37 2.831,64 0,00 4.495,01 10.626,55 1.550,00 1.051,29 30/04/2020
546 375100 CRISTIANE DAS DORES ERCIO DE LIMA OFICIAL DO MP ATIVO GOVERNADOR VALADARES - COMARCA; COOR REG INCLUSAO MOBILIZ VALE DO RIO DOCE 8.170,49 1.634,10 0,00 0,00 0,00 0,00 9.804,59 1.078,50 1.530,31 0,00 2.608,81 7.195,78 1.550,00 1.164,84 30/04/2020
547 178800 CRISTIANE DE LIMA HOSKEN OFICIAL DO MP ATIVO BELO HORIZONTE - COMARCA; BH-14PJ DEFESA CONSUMIDOR-GAB 110PJ 14.790,66 5.916,26 0,00 0,00 0,00 0,00 20.706,92 2.277,76 4.094,38 0,00 6.372,14 14.334,78 4.970,40 1.574,77 30/04/2020
548 494000 CRISTIANE DE MELO MARQUEZ OLIVEIRA ANALISTA DO MP ATIVO UBERLÂNDIA - COMARCA; UBERLANDIA-PJ-06PJ 10.736,08 1.073,61 0,00 0,00 0,00 0,00 11.809,69 1.299,07 2.021,06 0,00 3.320,13 8.489,56 3.088,78 1.086,56 30/04/2020
549 266100 CRISTIANE DE OLIVEIRA CASTRO OFICIAL DO MP ATIVO BELO HORIZONTE - COMARCA; BH-14PJ DEFESA CONSUMIDOR-SECRETARIA 12.204,02 3.661,21 0,00 0,00 0,00 0,00 15.865,23 1.745,18 3.306,83 0,00 5.052,01 10.813,22 1.550,00 3.486,48 30/04/2020
550 329500 CRISTIANE DOS REIS SILVA OFICIAL DO MP ATIVO ARAXÁ - COMARCA; ARAXA-PJ-04PJ 9.146,93 1.829,39 0,00 0,00 0,00 0,00 10.976,32 1.207,40 1.712,82 0,00 2.920,22 8.056,10 1.550,00 732,39 30/04/2020
551 301600 CRISTIANE GODINHO PIRES ANALISTA DO MP ATIVO BETIM - COMARCA; BETIM-PJ-07PJ 16.112,82 4.833,85 0,00 0,00 0,00 0,00 20.946,67 2.304,13 4.257,34 0,00 6.561,47 14.385,20 5.037,43 1.748,67 30/04/2020
552 406100 CRISTIANE GONCALVES CHAVES ANALISTA DO MP ATIVO BELO HORIZONTE - COMARCA; BH-14PJ DEFESA CONSUMIDOR-GAB 112PJ 13.011,52 3.903,46 0,00 0,00 0,00 0,00 16.914,98 1.860,65 3.270,58 0,00 5.131,23 11.783,75 6.982,57 1.659,08 30/04/2020
553 487600 CRISTIANE LOPES DE OLIVEIRA OFICIAL DO MP ATIVO DIVINÓPOLIS - COMARCA; DIVINOPOLIS-PJ-03PJ 6.123,79 612,38 0,00 0,00 0,00 0,00 6.736,17 740,98 779,32 0,00 1.520,30 5.215,87 1.550,00 458,83 30/04/2020
554 502500 CRISTIANE MACIEL DE OLIVEIRA GOMES ANALISTA DO MP ATIVO JUIZ DE FORA - COMARCA; JUIZ DE FORA-PJ-05PJ 10.069,62 1.006,96 0,00 0,00 0,00 0,00 11.076,58 1.218,42 1.841,63 0,00 3.060,05 8.016,53 2.319,39 481,50 30/04/2020
555 285500 CRISTIANE MAGALHAES LOURENCO ANALISTA DO MP ATIVO BELO HORIZONTE - COMARCA; CENTRAL DE APOIO TECNICO-SETOR CONTABIL 16.750,82 5.025,25 0,00 0,00 0,00 0,00 21.776,07 2.395,37 4.408,20 0,00 6.803,57 14.972,50 6.351,24 2.807,66 30/04/2020
556 536500 CRISTIANE MICHELE DE SOUZA ANALISTA DO MP ATIVO BARÃO DE COCAIS - COMARCA; BARAO DE COCAIS-PJ-UNPJ 8.436,53 843,65 0,00 0,00 0,00 0,00 9.280,18 1.020,82 1.297,69 0,00 2.318,51 6.961,67 2.319,39 727,68 30/04/2020
557 346600 CRISTIANE NOGUEIRA ANDRADE ANALISTA DO MP ATIVO BELO HORIZONTE - COMARCA; CENTRAL DE APOIO TECNICO-SETOR CONTABIL 14.790,66 2.958,13 0,00 0,00 0,00 0,00 17.748,79 1.952,37 3.474,66 0,00 5.427,03 12.321,76 1.550,00 1.499,32 30/04/2020
558 234000 CRISTIANE OLIVEIRA TOSTES OFICIAL DO MP ATIVO JUIZ DE FORA - COMARCA; JUIZ DE FORA-PJ-08PJ 13.011,52 3.903,46 0,00 0,00 0,00 0,00 16.914,98 1.860,65 3.270,58 0,00 5.131,23 11.783,75 2.319,39 1.298,26 30/04/2020
559 445800 CRISTIANE ORZIL COSTA OFICIAL DO MP ATIVO SANTA LUZIA - COMARCA; SANTA LUZIA-PJ-05PJ 6.123,79 1.224,76 0,00 0,00 0,00 0,00 7.348,55 808,34 929,20 0,00 1.737,54 5.611,01 2.422,83 306,88 30/04/2020
560 616100 CRISTIANE PAES RODRIGUES MARCICANO ANALISTA DO MP ATIVO CATAGUASES - COMARCA; CATAGUASES-PJ-05PJ 7.421,79 445,31 0,00 0,00 0,00 0,00 7.867,10 865,38 1.056,11 0,00 1.921,49 5.945,61 3.088,78 907,07 30/04/2020
561 612300 CRISTIANE RIBEIRO DOS REIS ARCANJO OFICIAL DO MP ATIVO BELO HORIZONTE - COMARCA; DIRETORIA DE PAGAMENTO DE PESSOAL-DPAG 5.217,34 521,73 0,00 0,00 0,00 0,00 5.739,07 676,16 418,67 0,00 1.094,83 4.644,24 0,00 414,60 30/04/2020
562 257700 CRISTIANE RODRIGUES PAES NUNES ANALISTA DO MP ATIVO BELO HORIZONTE - COMARCA; BH-22PJ PES COM DEF E IDOSOS-ORIENTACAO PSIC 16.750,82 5.025,25 0,00 0,00 0,00 0,00 21.776,07 2.395,37 4.408,20 0,00 6.803,57 14.972,50 2.469,50 1.689,14 30/04/2020
563 510800 CRISTIANE SANTOS FERNANDES ORNELES ANALISTA DO MP ATIVO BELO HORIZONTE - COMARCA; COORD ESTADUAL DAS PJS DE HAB. E URBANISMO 10.069,62 1.006,96 0,00 0,00 0,00 0,00 11.076,58 1.218,42 1.841,63 0,00 3.060,05 8.016,53 1.550,00 458,38 30/04/2020
564 535701 CRISTIANE SANTOS MIRANDA ANALISTA DO MP ATIVO BETIM - COMARCA; BETIM-PJ-12PJ 7.187,72 431,26 0,00 0,00 0,00 0,00 7.618,98 838,09 943,25 0,00 1.781,34 5.837,64 1.550,00 1.035,25 30/04/2020
565 536200 CRISTIANO DE OLIVEIRA ANALISTA DO MP ATIVO CONCEIÇÃO DO MATO DENTRO - COMARCA; CONCEICAO DO MATO DENTRO-PJ-UNPJ 9.146,93 914,69 0,00 0,00 0,00 0,00 10.061,62 1.106,78 1.541,08 0,00 2.647,86 7.413,76 1.550,00 705,82 30/04/2020
566 477400 CRISTIANO SOARES ELEUTERIO ANALISTA DO MP ATIVO BELO HORIZONTE - COMARCA; BH-17PJ PATRIMONIO PUBLICO-SECRETARIA 10.736,08 1.073,61 0,00 0,00 0,00 0,00 11.809,69 1.299,07 2.021,06 0,00 3.320,13 8.489,56 1.550,00 811,99 30/04/2020
567 449400 CRISTIANO TEIXEIRA RODRIGUES LANA ANALISTA DO MP ATIVO BELO HORIZONTE - COMARCA; ASSESS TECNICO-JUR JUNTO AS PROC. DE JUST 10.069,62 2.013,92 0,00 0,00 0,00 0,00 12.083,54 1.329,19 2.088,09 0,00 3.417,28 8.666,26 1.550,00 504,62 30/04/2020
568 239400 CRISTINA DE FATIMA CRUZ E SILVA OFICIAL DO MP ATIVO MONTE SANTO DE MINAS - COMARCA; MONTE SANTO DE MINAS-PJ-SECRETARIA 12.204,02 3.661,21 0,00 0,00 0,00 0,00 15.865,23 1.745,18 3.013,65 0,00 4.758,83 11.106,40 1.550,00 1.835,83 30/04/2020
569 544000 CRISTINA DE OLIVEIRA TERRA ANALISTA DO MP ATIVO MATOZINHOS - COMARCA; MATOZINHOS-PJ-01PJ 8.436,53 843,65 0,00 0,00 0,00 0,00 9.280,18 1.020,82 1.401,96 0,00 2.422,78 6.857,40 1.550,00 651,00 30/04/2020
570 356800 CRISTINA DE PINHO BARROSO OFICIAL DO MP ATIVO SABINÓPOLIS - COMARCA; SABINOPOLIS-PJ-UNPJ 7.421,79 2.226,54 0,00 0,00 0,00 0,00 9.648,33 1.061,32 1.387,79 0,00 2.449,11 7.199,22 2.319,39 663,40 30/04/2020
571 649500 CRISTINA DO DIVINO ESPIRITO SANTOS OFICIAL DO MP ATIVO DIVINÓPOLIS - COMARCA; DIVINOPOLIS-PJ-12PJ 4.665,64 279,94 0,00 0,00 0,00 0,00 4.945,58 544,01 311,57 0,00 855,58 4.090,00 1.550,00 542,90 30/04/2020
572 348201 CRISTINA MARIA DA SILVA ANALISTA DO MP ATIVO PATOS DE MINAS - COMARCA; PATOS DE MINAS-PJ-07PJ 10.069,62 2.013,92 0,00 0,00 0,00 0,00 12.083,54 1.439,96 2.334,54 0,00 3.774,50 8.309,04 2.319,39 1.511,58 30/04/2020
573 434900 CRISTINA MELO DE MADUREIRA ANALISTA DO MP ATIVO BELO HORIZONTE - COMARCA; BH-07PJ 01 TRIBUNAL JURI-SECRETARIA 12.601,30 2.520,26 0,00 0,00 0,00 0,00 15.121,56 1.663,37 2.831,64 0,00 4.495,01 10.626,55 1.550,00 916,21 30/04/2020
574 307700 CRISTINA TEIXEIRA MARQUES OFICIAL DO MP ATIVO BELO HORIZONTE - COMARCA; CENTRAL DE APOIO TECNICO-SETOR CONTABIL 8.579,10 2.573,73 0,00 0,00 0,00 0,00 11.152,83 1.226,81 1.860,30 0,00 3.087,11 8.065,72 1.550,00 1.112,83 30/04/2020
575 265300 CRISTOVAO SANCHES DE MEDEIROS ANALISTA DO MP ATIVO BELO HORIZONTE - COMARCA; DIRETORIA DE CONTABILIDADE 15.272,02 4.581,61 0,00 0,00 0,00 0,00 19.853,63 2.183,90 3.989,82 0,00 6.173,72 13.679,91 3.231,14 1.508,90 30/04/2020
576 349800 CROZEIR LUIZ DA SILVA OFICIAL DO MP ATIVO UNAÍ - COMARCA; UNAI-PJ-SECRETARIA 8.579,10 1.715,82 0,00 0,00 0,00 0,00 10.294,92 1.132,44 1.598,18 0,00 2.730,62 7.564,30 5.870,98 587,85 30/04/2020
577 490500 CYNTHIA CRISTINA DE SOUZA OLIVEIRA VALENTE ANALISTA DO MP ATIVO BELO HORIZONTE - COMARCA; BH-09PJ AUDITORIA MILITAR-SECRETARIA 10.069,62 1.006,96 0,00 0,00 0,00 0,00 11.076,58 1.218,42 1.841,63 0,00 3.060,05 8.016,53 1.550,00 481,50 30/04/2020
578 389800 CYNTHIA GARIGLIO DOS SANTOS OFICIAL DO MP ATIVO PERDIZES - COMARCA; PERDIZES-PJ-SECRETARIA 6.323,20 1.264,64 0,00 0,00 0,00 0,00 7.587,84 834,66 831,35 0,00 1.666,01 5.921,83 2.319,39 532,27 30/04/2020
579 335101 CYNTHIA GONTIJO D ASSUNCAO ANALISTA DO MP ATIVO BELO HORIZONTE - COMARCA; PROC. JUSTICA DIR. DIFUSOS E COLETIVOS-SEC 10.069,62 1.006,96 0,00 0,00 0,00 0,00 11.076,58 1.218,42 1.841,63 0,00 3.060,05 8.016,53 2.319,39 599,12 30/04/2020
580 154000 CYNTHIA LOPES DOS SANTOS LAGES ASSESSOR ATIVO BELO HORIZONTE - COMARCA; PROCURADOR-GERAL DE JUSTICA- GABINETE 0,00 9.404,62 13.435,16 0,00 0,00 2.512,38 25.352,16 2.512,38 5.411,58 0,00 7.923,96 17.428,20 7.312,15 1.671,62 30/04/2020
581 269700 CYNTIA ROCHA CAVALCANTI OFICIAL DO MP ATIVO UBERLÂNDIA - COMARCA; UBERLANDIA-PJ-06PJ 12.204,02 3.661,21 0,00 0,00 0,00 0,00 15.865,23 1.745,18 3.013,65 0,00 4.758,83 11.106,40 2.696,92 1.786,93 30/04/2020
582 278000 DAIRTON LOPES MARTINS FILHO COORDENADOR/ANALISTA ATIVO BELO HORIZONTE - COMARCA; DIRETORIA DE SISTEMAS DE INFORMACAO 0,00 4.030,55 13.435,16 0,00 0,00 0,00 17.465,71 1.439,96 3.537,72 0,00 4.977,68 12.488,03 1.566,51 757,22 30/04/2020
583 392700 DALIANA CHAVES IBRAIM MARINHO OFICIAL DO MP ATIVO ITAÚNA - COMARCA; ITAUNA-PJ-04PJ 6.961,05 1.392,21 0,00 0,00 0,00 0,00 8.353,26 995,43 1.409,28 0,00 2.404,71 5.948,55 1.995,51 1.506,03 30/04/2020
584 558101 DALLEY TASSIA SILVA ANALISTA DO MP ATIVO MORADA NOVA DE MINAS - COMARCA; MORADA NOVA DE MINAS-PJ-UNPJ 8.170,49 817,05 0,00 0,00 0,00 0,00 8.987,54 988,63 1.226,07 0,00 2.214,70 6.772,84 2.319,39 1.105,25 30/04/2020
585 476700 DALTON DAUD ANALISTA DO MP ATIVO ARAGUARI - COMARCA; ARAGUARI-PJ-05PJ 10.069,62 1.006,96 0,00 0,00 0,00 0,00 11.076,58 1.218,42 1.737,36 0,00 2.955,78 8.120,80 1.550,00 504,62 30/04/2020
586 426900 DANIEL ALVES DA SILVA OFICIAL DO MP ATIVO BELO HORIZONTE - COMARCA; DIVISAO TRANSPORTES 6.123,79 1.224,76 0,00 0,00 0,00 0,00 7.348,55 808,34 824,92 0,00 1.633,26 5.715,29 1.550,00 306,88 30/04/2020
587 122000 DANIEL ANTONIO VIEIRA OFICIAL DO MP ATIVO ENTRE-RIOS DE MINAS - COMARCA; ENTRE RIOS DE MINAS-PJ-SECRETARIA 10.069,62 7.048,73 0,00 0,00 0,00 0,00 17.118,35 1.883,02 3.111,81 0,00 4.994,83 12.123,52 1.550,00 779,86 30/04/2020
588 411000 DANIEL FERREIRA DA SILVA ANALISTA DO MP ATIVO GOVERNADOR VALADARES - COMARCA; GOVERNADOR VALADARES-PJ-15PJ 12.204,02 3.661,21 0,00 0,00 0,00 0,00 15.865,23 1.745,18 2.857,24 0,00 4.602,42 11.262,81 2.319,39 1.885,23 30/04/2020
589 309000 DANIEL GOMES DOS SANTOS ANALISTA DO MP ATIVO POÇOS DE CALDAS - COMARCA; POCOS DE CALDAS-PJ-03PJ 15.499,20 4.649,76 0,00 0,00 0,00 0,00 20.148,96 2.216,39 4.062,10 0,00 6.278,49 13.870,47 3.202,37 1.181,39 30/04/2020
590 554500 DANIEL GOMES PEREIRA OFICIAL DO MP ATIVO NANUQUE - COMARCA; NANUQUE-PJ-02PJ 5.387,19 538,72 0,00 0,00 0,00 0,00 5.925,91 651,85 581,01 0,00 1.232,86 4.693,05 1.550,00 405,99 30/04/2020
591 453000 DANIEL GONCALVES PEREIRA ANALISTA DO MP ATIVO UNAÍ - COMARCA; UNAI-PJ-02PJ 10.069,62 1.006,96 0,00 0,00 0,00 0,00 11.076,58 1.218,42 1.841,63 0,00 3.060,05 8.016,53 2.703,54 504,62 30/04/2020
592 495500 DANIEL GUIMARAES CABRAL OFICIAL DO MP ATIVO BELO HORIZONTE - COMARCA; BH-17PJ PATRIMONIO PUBLICO-SECRETARIA 6.123,79 612,38 0,00 0,00 2.245,39 0,00 8.981,56 740,98 1.396,80 0,00 2.137,78 6.843,78 1.550,00 458,83 30/04/2020
593 442900 DANIEL GUIMARAES GONCALVES ANALISTA DO MP ATIVO UBERLÂNDIA - COMARCA; UBERLANDIA-PJ-03PJ 12.204,02 2.440,80 0,00 0,00 0,00 0,00 14.644,82 1.610,93 2.714,96 0,00 4.325,89 10.318,93 1.550,00 1.597,22 30/04/2020
594 655900 DANIEL LUIZ DA SILVA ASSESSOR ATIVO BELO HORIZONTE - COMARCA; DIV FISCAL ADM CONT TERCEIRIZACAO 0,00 0,00 3.076,28 0,00 0,00 0,00 3.076,28 465,67 201,79 0,00 667,46 2.408,82 1.550,00 183,73 30/04/2020
595 464600 DANIEL PIACENTINI STIVANIN ANALISTA DO MP ATIVO ANDRADAS - COMARCA; ANDRADAS-PJ-02PJ 10.069,62 1.006,96 0,00 0,00 0,00 0,00 11.076,58 1.218,42 1.841,63 0,00 3.060,05 8.016,53 1.550,00 504,62 30/04/2020
596 417000 DANIEL QUEIROZ FERREIRA ANALISTA DO MP ATIVO SÃO SEBASTIÃO DO PARAÍSO - COMARCA; SAO SEBASTIAO DO PARAISO-PJ-05PJ 12.204,02 2.440,80 0,00 0,00 0,00 0,00 14.644,82 1.610,93 2.714,96 0,00 4.325,89 10.318,93 1.798,92 1.645,73 30/04/2020
597 396700 DANIEL SILVA CARNEVALLI DIRETOR/ANALISTA ATIVO BELO HORIZONTE - COMARCA; SUPERINTENDENCIA DE TECNOLOGIA DA INFORMACAO 0,00 3.482,78 17.413,92 0,00 0,00 0,00 20.896,70 1.717,52 4.404,91 0,00 6.122,43 14.774,27 8.259,83 1.885,25 30/04/2020
598 489300 DANIEL TABOZA ROCHA ANALISTA DO MP ATIVO IPATINGA - COMARCA; IPATINGA-PJ-08PJ 10.069,62 1.006,96 0,00 0,00 0,00 0,00 11.076,58 1.218,42 1.841,63 0,00 3.060,05 8.016,53 2.319,39 481,50 30/04/2020
599 414100 DANIEL TARDELI VALADAO ANALISTA DO MP ATIVO TRÊS CORACOES - COMARCA; TRES CORACOES-PJ-02PJ 12.204,02 2.440,80 0,00 0,00 0,00 0,00 14.644,82 1.610,93 2.506,41 0,00 4.117,34 10.527,48 3.088,78 1.689,53 30/04/2020
600 446601 DANIEL VIEIRA BUENO ANALISTA DO MP ATIVO SÃO DOMINGOS DO PRATA - COMARCA; SAO DOMINGOS DO PRATA-PJ-UNPJ 8.170,49 490,23 0,00 0,00 0,00 0,00 8.660,72 952,68 1.198,21 0,00 2.150,89 6.509,83 2.319,39 629,99 30/04/2020
601 253200 DANIELA BATISTA LIMA BARBOSA ASSESSOR ATIVO BELO HORIZONTE - COMARCA; CENTRAL DE APOIO TECN-SETOR DE MEIO AMBIENTE 0,00 1.540,90 5.136,32 0,00 0,00 0,00 6.677,22 713,09 1.073,27 0,00 1.786,36 4.890,86 1.550,00 341,80 30/04/2020
602 505800 DANIELA BORGES DE MATTOS RESENDE ANALISTA DO MP ATIVO JUIZ DE FORA - COMARCA; JUIZ DE FORA-PJ-20PJ 10.069,62 1.006,96 0,00 0,00 0,00 0,00 11.076,58 1.218,42 1.841,63 0,00 3.060,05 8.016,53 2.319,39 481,50 30/04/2020
603 478000 DANIELA CARVALHO SOARES ANALISTA DO MP ATIVO SÃO JOÃO DEL REI - COMARCA; SAO JOAO DEL REI-PJ-01PJ 10.069,62 1.006,96 0,00 0,00 0,00 0,00 11.076,58 1.218,42 1.841,63 0,00 3.060,05 8.016,53 1.550,00 504,62 30/04/2020
604 275900 DANIELA CHAGAS SODRE ANALISTA DO MP ATIVO BELO HORIZONTE - COMARCA; CENTRAL DE APOIO TECNICO-SETOR CONTABIL 16.750,82 5.025,25 0,00 0,00 0,00 0,00 21.776,07 2.395,37 4.408,20 0,00 6.803,57 14.972,50 5.197,71 2.727,81 30/04/2020
605 234301 DANIELA CRUZ SOARES ANALISTA DO MP ATIVO BELO HORIZONTE - COMARCA; LABORATORIO TECNOLOGIA INTELIGENCIA 17.413,92 5.224,18 0,00 0,00 0,00 0,00 22.638,10 2.490,19 4.671,32 0,00 7.161,51 15.476,59 6.350,78 2.074,78 30/04/2020
606 638000 DANIELA DE ALMEIDA BATISTA ANALISTA DO MP ATIVO ANDRELÂNDIA - COMARCA; ANDRELANDIA-PJ-UNPJ 7.421,79 445,31 0,00 0,00 0,00 0,00 7.867,10 671,12 1.109,54 0,00 1.780,66 6.086,44 2.319,39 735,67 30/04/2020
607 301000 DANIELA DE ALMEIDA E OLIVEIRA ANALISTA DO MP ATIVO BELO HORIZONTE - COMARCA; DIRETORIA DE SISTEMAS DE INFORMACAO 16.750,82 5.025,25 0,00 0,00 0,00 0,00 21.776,07 2.395,37 4.460,33 0,00 6.855,70 14.920,37 1.550,00 2.564,78 30/04/2020
608 296000 DANIELA DE AZEVEDO SILVA ANALISTA DO MP ATIVO BRASÓPOLIS - COMARCA; BRASOPOLIS-PJ-UNPJ 16.112,82 4.833,85 0,00 0,00 0,00 0,00 20.946,67 2.304,13 4.257,34 0,00 6.561,47 14.385,20 1.727,54 1.506,73 30/04/2020
609 453500 DANIELA DE CASTRO SOUSA BARBOSA ANALISTA DO MP ATIVO BELO HORIZONTE - COMARCA; BH-08PJ JUIZADO ESPECIAL-SECRETARIA 10.069,62 1.006,96 0,00 0,00 0,00 0,00 11.076,58 1.218,42 1.841,63 0,00 3.060,05 8.016,53 1.550,00 517,60 30/04/2020
610 506000 DANIELA DE OLIVEIRA CAVALIERI ANALISTA DO MP ATIVO BELO HORIZONTE - COMARCA; BH-14PJ DEFESA CONSUMIDOR-GAB 005PJ 9.444,70 944,47 0,00 0,00 0,00 0,00 10.389,17 1.142,81 1.673,39 0,00 2.816,20 7.572,97 1.550,00 1.318,66 30/04/2020
611 546200 DANIELA DE VILHENA LEMES GONCALVES OFICIAL DO MP ATIVO TRÊS CORACOES - COMARCA; TRES CORACOES-PJ-05PJ 5.217,34 521,73 0,00 0,00 0,00 0,00 5.739,07 631,30 431,00 0,00 1.062,30 4.676,77 7.289,07 825,20 30/04/2020
612 356400 DANIELA LEAL FERRAZ ANALISTA DO MP ATIVO MONTES CLAROS - COMARCA; COORD REG PJ DEF EDUC DIR CRIANCA ADOL NORTE 14.324,23 2.864,85 0,00 0,00 0,00 0,00 17.189,08 1.890,80 3.337,67 0,00 5.228,47 11.960,61 7.517,96 2.493,18 30/04/2020
613 501000 DANIELA LOURENCO SANTOS DA SILVA GUIMARAES ANALISTA DO MP ATIVO BELO HORIZONTE - COMARCA; BH-12PJ JUIZO CRIMINAL-GAB 095PJ 10.069,62 1.006,96 0,00 0,00 0,00 0,00 11.076,58 1.218,42 1.789,50 0,00 3.007,92 8.068,66 2.319,39 481,50 30/04/2020
614 195801 DANIELA MARIA DE OLIVEIRA QUEIROZ ANALISTA DO MP ATIVO ARAGUARI - COMARCA; ARAGUARI-PJ-06PJ 12.601,30 5.040,52 0,00 0,00 0,00 0,00 17.641,82 1.940,60 3.448,48 0,00 5.389,08 12.252,74 1.550,00 1.082,81 30/04/2020
615 511400 DANIELA MARIA LARA DE OLIVEIRA ANALISTA DO MP ATIVO BOA ESPERANÇA - COMARCA; BOA ESPERANCA-PJ-02PJ 10.069,62 1.006,96 0,00 0,00 0,00 0,00 11.076,58 1.218,42 1.789,50 0,00 3.007,92 8.068,66 2.319,39 458,38 30/04/2020
616 252101 DANIELA PAULA ALVES PENA ANALISTA DO MP ATIVO CONTAGEM - COMARCA; CONTAGEM-PJ-APO TECNICO 13.011,52 5.204,61 0,00 0,00 0,00 0,00 18.216,13 2.003,77 3.589,04 0,00 5.592,81 12.623,32 2.338,03 1.322,40 30/04/2020
617 604700 DANIELA PEIXOTO NOGUEIRA COORDENADOR/OFICIAL ATIVO BELO HORIZONTE - COMARCA; DIRET DE FORMACAO, APERFEIC. E POS-GRADUACAO 0,00 1.181,92 11.819,15 0,00 0,00 0,00 13.001,07 670,91 2.521,43 0,00 3.192,34 9.808,73 2.345,04 719,44 30/04/2020
618 429600 DANIELA PIMENTA NUNES MACHADO ANALISTA DO MP ATIVO BELO HORIZONTE - COMARCA; BH-05PJ-JUÍZO SUCESSÕES-SEC 12.601,30 2.520,26 0,00 0,00 0,00 0,00 15.121,56 1.663,37 2.779,51 0,00 4.442,88 10.678,68 2.326,76 1.053,03 30/04/2020
619 662000 DANIELA RIBAS DE AVILA ASSESSOR I ATIVO BELO HORIZONTE - COMARCA; DIRETORIA DE SEGURANCA 0,00 0,00 8.170,49 0,00 0,00 0,00 8.170,49 713,09 1.483,92 0,00 2.197,01 5.973,48 1.550,00 418,24 30/04/2020
620 462000 DANIELA SOUSA GOMES DO AMARAL ANALISTA DO MP ATIVO BETIM - COMARCA; BETIM-PJ-04PJ 10.069,62 1.006,96 0,00 0,00 0,00 0,00 11.076,58 1.218,42 1.841,63 0,00 3.060,05 8.016,53 1.550,00 504,62 30/04/2020
621 427000 DANIELA TEIXEIRA DINIZ ANDRADE ANALISTA DO MP ATIVO BELO HORIZONTE - COMARCA; DIRETORIA DE PROJETOS DE EDIFICACOES 10.069,62 2.013,92 0,00 0,00 4.027,85 0,00 16.111,39 1.329,19 3.143,61 0,00 4.472,80 11.638,59 1.550,00 504,62 30/04/2020
622 337200 DANIELA TOLEDO SENIUK ANALISTA DO MP ATIVO BELO HORIZONTE - COMARCA; GABINETE DE PROCURADOR DE JUSTIÇA - SALA 412 13.011,52 2.602,30 0,00 0,00 0,00 0,00 15.613,82 1.717,52 2.952,12 0,00 4.669,64 10.944,18 1.550,00 1.857,59 30/04/2020
623 605600 DANIELE ALZIRA SILVA CABRAL MOREIRA OFICIAL DO MP ATIVO BELO HORIZONTE - COMARCA; BH-10PJ EXECUÇÃO PENAL-SECRETARIA 5.387,19 538,72 0,00 0,00 0,00 0,00 5.925,91 651,85 581,01 0,00 1.232,86 4.693,05 2.319,39 373,65 30/04/2020
624 195500 DANIELE CHAVES FONSECA OFICIAL DO MP ATIVO BELO HORIZONTE - COMARCA; ASSESSORIA ESPECIAL DO PGJ 14.324,23 5.729,69 0,00 0,00 0,00 0,00 20.053,92 2.205,93 4.038,84 0,00 6.244,77 13.809,15 3.315,27 1.492,07 30/04/2020
625 323400 DANIELE MEGALE SANTINI OFICIAL DO MP ATIVO BELO HORIZONTE - COMARCA; ASSESS TECNICO-JUR JUNTO AS PROC. DE JUST 9.752,14 1.950,43 0,00 0,00 0,00 0,00 11.702,57 1.287,28 1.942,71 0,00 3.229,99 8.472,58 1.550,00 773,51 30/04/2020
626 357900 DANIELE REJANE PINTO VERSIEUX OFICIAL DO MP ATIVO PEDRO LEOPOLDO - COMARCA; PEDRO LEOPOLDO-PJ-03PJ 8.858,43 1.771,69 0,00 0,00 0,00 0,00 10.630,12 1.169,31 1.732,36 0,00 2.901,67 7.728,45 1.550,00 709,22 30/04/2020
627 389500 DANIELE VASCONCELOS AMORIM PRADO OFICIAL DO MP ATIVO SÃO SEBASTIÃO DO PARAÍSO - COMARCA; SAO SEBASTIAO DO PARAISO-PJ-04PJ 8.579,10 1.715,82 0,00 0,00 0,00 0,00 10.294,92 1.132,44 1.650,32 0,00 2.782,76 7.512,16 1.550,00 1.078,76 30/04/2020
628 629700 DANIELLA BASTOS MARTINS BICALHO OFICIAL DO MP ATIVO GOVERNADOR VALADARES - COMARCA; GOVERNADOR VALADARES-PJ-16PJ 5.217,34 521,73 0,00 0,00 0,00 0,00 5.739,07 631,30 535,28 0,00 1.166,58 4.572,49 1.550,00 554,40 30/04/2020
629 265000 DANIELLE CASTANHEIRA SCALABRINI OFICIAL DO MP ATIVO BELO HORIZONTE - COMARCA; JUNTA RECURSAL DO PROCON ESTADUAL 10.069,62 3.020,89 0,00 0,00 0,00 0,00 13.090,51 1.439,96 2.230,27 0,00 3.670,23 9.420,28 1.550,00 898,98 30/04/2020
630 490100 DANIELLE DE AVILA SILVA LOPES ANALISTA DO MP ATIVO BELO HORIZONTE - COMARCA; PROC. JUSTICA DIR. DIFUSOS E COLETIVOS-SEC 10.069,62 3.020,89 0,00 0,00 0,00 0,00 13.090,51 1.439,96 2.334,54 0,00 3.774,50 9.316,01 3.088,78 628,36 30/04/2020
631 549600 DANIELLE GOMES LOPES RODRIGUES OFICIAL DO MP ATIVO VESPASIANO - COMARCA; VESPASIANO-PJ-02PJ 5.387,19 538,72 0,00 0,00 0,00 0,00 5.925,91 651,85 581,01 0,00 1.232,86 4.693,05 1.550,00 444,59 30/04/2020
632 613000 DANIELLE SILVA OLIVEIRA FRANKLIN ASSESSOR/OFICIAL ATIVO BELO HORIZONTE - COMARCA; DIRETORIA DE ORCAMENTO-DIOR/SPC 0,00 1.039,75 10.397,52 0,00 0,00 0,00 11.437,27 676,16 2.089,95 0,00 2.766,11 8.671,16 3.088,78 414,60 30/04/2020
633 380800 DANILLO RIBEIRO ANTUNES ANALISTA DO MP ATIVO MONTES CLAROS - COMARCA; MONTES CLAROS-PJ-SECRETARIA 13.011,52 2.602,30 0,00 0,00 0,00 0,00 15.613,82 1.717,52 2.899,99 0,00 4.617,51 10.996,31 1.659,56 1.073,46 30/04/2020
634 453700 DANILO BOTELHO DE CARVALHO ASSESSOR/ANALISTA ATIVO BELO HORIZONTE - COMARCA; SUPERINTENDENCIA DE FINANCAS 0,00 2.469,78 24.697,83 0,00 0,00 0,00 27.167,61 1.602,19 6.161,13 0,00 7.763,32 19.404,29 8.148,15 1.412,11 30/04/2020
635 391200 DANILO D'AVILA MENDES ANALISTA DO MP ATIVO SÃO ROMÃO - COMARCA; SAO ROMAO-PJ-UNPJ 13.011,52 2.602,30 0,00 0,00 0,00 0,00 15.613,82 1.717,52 2.952,12 0,00 4.669,64 10.944,18 2.319,39 1.073,46 30/04/2020
636 494900 DANILO GAVIAO AVELINO DE MELLO ANALISTA DO MP ATIVO POUSO ALEGRE - COMARCA; GAECO REGIONAL DE POUSO ALEGRE 10.069,62 1.006,96 0,00 0,00 0,00 0,00 11.076,58 1.218,42 1.841,63 0,00 3.060,05 8.016,53 2.319,39 481,50 30/04/2020
637 604300 DANILO NASCIMENTO SALGADO ANALISTA DO MP ATIVO JANAÚBA - COMARCA; JANAUBA-PJ-01PJ 8.436,53 843,65 0,00 0,00 0,00 0,00 9.280,18 1.020,82 1.401,96 0,00 2.422,78 6.857,40 1.550,00 599,96 30/04/2020
638 550800 DANTE MENDES BIANCHETTI FILHO ANALISTA DO MP ATIVO BARBACENA - COMARCA; BARBACENA-PJ-SECRETARIA 8.436,53 843,65 0,00 0,00 0,00 0,00 9.280,18 1.020,82 1.401,96 0,00 2.422,78 6.857,40 1.550,00 705,23 30/04/2020
639 298300 DANUZA MONICA DE SOUZA DINIZ ANALISTA DO MP ATIVO BELO HORIZONTE - COMARCA; ASSESSORIA ESPECIAL DO PGJ 12.601,30 3.780,39 0,00 0,00 0,00 0,00 16.381,69 1.801,99 3.087,92 0,00 4.889,91 11.491,78 1.550,00 1.124,99 30/04/2020
640 398700 DARCY LUIZ MILEO GREGATTI OFICIAL DO MP ATIVO LAMBARI - COMARCA; LAMBARI-PJ-SECRETARIA 8.436,53 1.687,31 0,00 0,00 0,00 0,00 10.123,84 1.113,62 1.608,45 0,00 2.722,07 7.401,77 1.550,00 774,25 30/04/2020
641 406200 DARIANA AUGUSTA DE TOLEDO PATROCINIO RUIZ COORDENADOR/OFICIAL ATIVO BELO HORIZONTE - COMARCA; DIRETORIA GESTAO COMPRAS LICITACOES 0,00 2.687,03 13.435,16 0,00 0,00 0,00 16.122,19 1.213,99 3.230,40 0,00 4.444,39 11.677,80 1.550,00 709,02 30/04/2020
642 586901 DARIO VITORINO DE CARVALHO SILVA ASSESSOR ATIVO BELO HORIZONTE - COMARCA; DIRETORIA DE SEGURANCA 0,00 0,00 17.413,92 0,00 0,00 0,00 17.413,92 713,09 3.973,73 0,00 4.686,82 12.727,10 1.550,00 0,00 30/04/2020
643 305000 DARLI LEITE DE OLIVEIRA OFICIAL DO MP ATIVO ARAÇUAÍ - COMARCA; ARACUAI-PJ-01PJ 6.123,79 1.837,14 0,00 0,00 0,00 0,00 7.960,93 943,06 1.072,55 0,00 2.015,61 5.945,32 2.162,38 1.003,29 30/04/2020
644 122200 DAVID RIBEIRO DOS SANTOS ANALISTA DO MP ATIVO BORDA DA MATA - COMARCA; BORDA DA MATA-PJ-UNPJ 18.820,14 15.056,11 0,00 0,00 0,00 3.726,39 37.602,64 3.726,39 8.446,61 0,00 12.173,00 25.429,64 6.970,20 496,85 30/04/2020
645 389400 DAWSON CANEDO MARQUES OFICIAL DO MP ATIVO TRÊS CORACOES - COMARCA; TRES CORACOES-PJ-02PJ 8.579,10 1.715,82 0,00 0,00 0,00 0,00 10.294,92 1.132,44 960,62 0,00 2.093,06 8.201,86 1.876,20 1.111,13 30/04/2020
646 537200 DAYANE TEIXEIRA DE OLIVEIRA CASELLI ANALISTA DO MP ATIVO BELO HORIZONTE - COMARCA; ASSESS TECNICO-JUR JUNTO AS PROC. DE JUST 7.421,79 445,31 0,00 0,00 0,00 0,00 7.867,10 865,38 1.056,11 0,00 1.921,49 5.945,61 1.550,00 0,00 30/04/2020
647 256100 DAYSE ROSALY PEREIRA BATISTA OFICIAL DO MP ATIVO BELO HORIZONTE - COMARCA; BH-08PJ JUIZADO ESPECIAL-SECRETARIA 10.069,62 3.020,89 0,00 0,00 0,00 0,00 13.090,51 1.439,96 2.334,54 0,00 3.774,50 9.316,01 1.550,00 1.212,21 30/04/2020
648 311901 DEBORA APARECIDA DA SILVA ASSESSOR ATIVO BELO HORIZONTE - COMARCA; BH-23PJ CIVEL-SETOR ATEND PUB 0,00 0,00 3.076,28 0,00 0,00 0,00 3.076,28 465,67 201,79 0,00 667,46 2.408,82 1.550,00 157,48 30/04/2020
649 194301 DEBORA APARECIDA DOS SANTOS ANALISTA DO MP ATIVO UBERLÂNDIA - COMARCA; UBERLANDIA-PJ-SEC FAMILIA 16.750,82 6.700,33 0,00 0,00 0,00 0,00 23.451,15 2.579,63 4.818,17 0,00 7.397,80 16.053,35 7.445,38 2.118,39 30/04/2020
650 518800 DEBORA CARVALHO FIORATTO COORDENADOR/OFICIAL ATIVO BELO HORIZONTE - COMARCA; DIRETORIA MATERIAIS E SERVICOS 0,00 1.343,52 13.435,16 0,00 0,00 0,00 14.778,68 840,23 2.963,71 0,00 3.803,94 10.974,74 2.319,39 530,77 30/04/2020
651 444900 DEBORA CLAUDIA PEREIRA ALVES ANALISTA DO MP ATIVO BELO HORIZONTE - COMARCA; BH-08PJ JUIZADO ESPECIAL-SECRETARIA 10.069,62 2.013,92 0,00 0,00 0,00 0,00 12.083,54 1.329,19 2.088,09 0,00 3.417,28 8.666,26 1.550,00 504,62 30/04/2020
652 617700 DEBORA COMANDUCI SCHREIDER ANALISTA DO MP ATIVO BICAS - COMARCA; BICAS-PJ-UNPJ 8.170,49 817,05 0,00 0,00 0,00 0,00 8.987,54 988,63 1.278,20 0,00 2.266,83 6.720,71 1.550,00 1.050,92 30/04/2020
653 555700 DEBORA CRISTINA BUITRAGO PEREIRA ANALISTA DO MP ATIVO BELO HORIZONTE - COMARCA; DIRETORIA GESTAO CONTRATOS CONVENIOS 8.436,53 843,65 0,00 0,00 0,00 0,00 9.280,18 1.020,82 1.401,96 0,00 2.422,78 6.857,40 3.088,78 632,92 30/04/2020
654 513100 DEBORA CRISTINA PEREIRA DE OLIVEIRA ANALISTA DO MP ATIVO BELO HORIZONTE - COMARCA; BH-23PJ CIVEL-SETOR JURIDICO 10.069,62 1.006,96 0,00 0,00 0,00 0,00 11.076,58 1.218,42 1.841,63 0,00 3.060,05 8.016,53 2.319,39 470,17 30/04/2020
655 612100 DEBORA DUARTE SILVA DE SOUZA OFICIAL DO MP ATIVO RIBEIRÃO DAS NEVES - COMARCA; RIBEIRAO DAS NEVES-PJ-06PJ 5.217,34 1.565,20 0,00 0,00 0,00 0,00 6.782,54 746,08 686,39 0,00 1.432,47 5.350,07 1.550,00 714,26 30/04/2020
656 539700 DEBORA SALES CARVALHO ANALISTA DO MP ATIVO PATOS DE MINAS - COMARCA; COORD REG PJ DEF EDU DIR CRI ADO AL PAR NOROE 8.436,53 843,65 0,00 0,00 3.093,39 0,00 12.373,57 1.020,82 2.252,65 0,00 3.273,47 9.100,10 1.550,00 741,46 30/04/2020
657 424100 DEBORA SANTOS E ALVES ANALISTA DO MP ATIVO JANUÁRIA - COMARCA; JANUARIA-PJ-01PJ 12.601,30 2.520,26 0,00 0,00 0,00 0,00 15.121,56 1.663,37 2.831,64 0,00 4.495,01 10.626,55 3.242,66 1.089,12 30/04/2020
658 426301 DEBORA SCUCATO MACHADO SOARES OFICIAL DO MP ATIVO ITABIRITO - COMARCA; ITABIRITO-PJ-01PJ 5.387,19 1.077,44 0,00 0,00 0,00 0,00 6.464,63 711,11 712,86 0,00 1.423,97 5.040,66 2.319,39 429,65 30/04/2020
659 550200 DEBORA TRINDADE LEITE ANALISTA DO MP ATIVO MANHUAÇU - COMARCA; MANHUACU-PJ-05PJ 8.436,53 843,65 0,00 0,00 0,00 0,00 9.280,18 1.020,82 1.297,69 0,00 2.318,51 6.961,67 1.550,00 705,23 30/04/2020
660 438000 DEBORAH COSTA LAGE ANALISTA DO MP ATIVO BELO HORIZONTE - COMARCA; ASSESS TECNICO-JUR JUNTO AS PROC. DE JUST 12.601,30 2.520,26 0,00 0,00 0,00 0,00 15.121,56 1.663,37 2.831,64 0,00 4.495,01 10.626,55 1.550,00 916,21 30/04/2020
661 475700 DEBORAH LOBAO LACERDA ASSESSOR/OFICIAL ATIVO BELO HORIZONTE - COMARCA; BH-17PJ PATRIMONIO PUBLICO-SECRETARIA 0,00 817,05 8.170,49 0,00 0,00 0,00 8.987,54 740,98 1.398,44 0,00 2.139,42 6.848,12 1.780,03 500,00 30/04/2020
662 613700 DEISER MARIA FERREIRA ROSCOE OFICIAL DO MP ATIVO BELO HORIZONTE - COMARCA; DIVISAO FROTA 5.217,34 521,73 0,00 0,00 0,00 0,00 5.739,07 631,30 535,28 0,00 1.166,58 4.572,49 1.550,00 595,60 30/04/2020
663 551900 DEISY ROCHA DA SILVA ANALISTA DO MP ATIVO JOÃO PINHEIRO - COMARCA; JOAO PINHEIRO-PJ-01PJ 8.436,53 843,65 0,00 0,00 0,00 0,00 9.280,18 1.020,82 1.401,96 0,00 2.422,78 6.857,40 1.550,00 709,60 30/04/2020
664 501900 DELI RAQUEL RODRIGUES ANALISTA DO MP ATIVO ITUIUTABA - COMARCA; ITUIUTABA-PJ-04PJ 10.069,62 1.006,96 0,00 0,00 0,00 0,00 11.076,58 1.218,42 1.841,63 0,00 3.060,05 8.016,53 1.708,76 481,50 30/04/2020
665 378600 DELIANE LOPES VIEIRA BREIJAO ANALISTA DO MP ATIVO JUIZ DE FORA - COMARCA; JUIZ DE FORA-PJ-12PJ 13.011,52 2.602,30 0,00 0,00 0,00 0,00 15.613,82 1.717,52 2.899,99 0,00 4.617,51 10.996,31 1.550,00 1.073,46 30/04/2020
666 487700 DENIA FERREIRA MAIA SILVA OFICIAL DO MP ATIVO TRÊS CORACOES - COMARCA; TRES CORACOES-PJ-01PJ 6.123,79 612,38 0,00 0,00 0,00 0,00 6.736,17 740,98 675,04 0,00 1.416,02 5.320,15 2.319,39 458,83 30/04/2020
667 424800 DENIS APARECIDO CAMPOS DELFINO ANALISTA DO MP ATIVO LUZ - COMARCA; LUZ-PJ-UNPJ 12.204,02 2.440,80 0,00 0,00 0,00 0,00 14.644,82 1.610,93 2.506,41 0,00 4.117,34 10.527,48 2.319,39 1.746,48 30/04/2020
668 381400 DENISE ANGELICA MELLO DE PAULA OFICIAL DO MP ATIVO BELO HORIZONTE - COMARCA; BH-18PJ DIREITOS HUMANOS-SECRETARIA 8.579,10 1.715,82 0,00 0,00 0,00 0,00 10.294,92 1.132,44 1.650,32 0,00 2.782,76 7.512,16 2.319,39 1.111,13 30/04/2020
669 196300 DENISE DE ALMEIDA VILELA FURTADO OFICIAL DO MP ATIVO BELO HORIZONTE - COMARCA; CENTRAL DE APOIO TECNICO-SECRETARIA 11.819,15 4.727,66 0,00 0,00 0,00 0,00 16.546,81 1.820,15 3.180,47 0,00 5.000,62 11.546,19 2.772,73 1.893,17 30/04/2020
670 336900 DENISE DE SOUSA MORAES SILVA OFICIAL DO MP ATIVO MATEUS LEME - COMARCA; MATEUS LEME-PJ-02PJ 6.123,79 1.224,76 0,00 0,00 0,00 0,00 7.348,55 808,34 929,20 0,00 1.737,54 5.611,01 1.550,00 334,78 30/04/2020
671 271100 DENISE ELOY PEIXOTO OFICIAL DO MP ATIVO BELO HORIZONTE - COMARCA; DIRETORIA DE INTELIGENCIA 12.204,02 3.661,21 0,00 0,00 0,00 0,00 15.865,23 1.745,18 3.013,65 0,00 4.758,83 11.106,40 1.550,00 1.786,93 30/04/2020
672 385400 DENISE FREITAS DE ASSIS OFICIAL DO MP ATIVO CARATINGA - COMARCA; CARATINGA-PJ-SECRETARIA 7.912,85 1.582,57 0,00 0,00 0,00 0,00 9.495,42 1.044,50 1.454,64 0,00 2.499,14 6.996,28 1.550,00 652,83 30/04/2020
673 437100 DENISE NOGUEIRA MAGRI MENDES ANALISTA DO MP ATIVO BELO HORIZONTE - COMARCA; LAB TECNOLOGIA CONTRA LAVAGEM DINHEIRO 12.601,30 3.780,39 0,00 0,00 0,00 0,00 16.381,69 1.801,99 2.983,65 0,00 4.785,64 11.596,05 1.550,00 1.082,81 30/04/2020
674 524700 DENISE RAMOS GUIMARAES OFICIAL DO MP ATIVO BELO HORIZONTE - COMARCA; BH-07PJ 01 TRIBUNAL JURI-SECRETARIA 5.930,75 593,08 0,00 0,00 0,00 0,00 6.523,83 717,62 727,35 0,00 1.444,97 5.078,86 1.550,00 763,44 30/04/2020
675 239100 DENISE RIBEIRO DOS SANTOS CAETANO OFICIAL DO MP ATIVO ITANHANDU - COMARCA; ITANHANDU-PJ-SECRETARIA 12.204,02 3.661,21 0,00 0,00 0,00 0,00 15.865,23 1.745,18 2.961,52 0,00 4.706,70 11.158,53 1.550,00 1.835,83 30/04/2020
676 325500 DENISE ROSA TORRES OFICIAL DO MP ATIVO BELO HORIZONTE - COMARCA; DIRETORIA DE PESSOAL ADMINISTRATIVO - DPAD 10.069,62 2.013,92 0,00 0,00 0,00 0,00 12.083,54 1.442,13 2.057,03 0,00 3.499,16 8.584,38 1.550,00 674,85 30/04/2020
677 437200 DENISE VIVIANE DOS SANTOS ANALISTA DO MP ATIVO BELO HORIZONTE - COMARCA; ASSESS TECNICA DA CORREGEDORIA-GERAL DO MP 10.736,08 2.147,22 0,00 0,00 0,00 0,00 12.883,30 1.417,16 2.179,55 0,00 3.596,71 9.286,59 2.703,54 1.204,18 30/04/2020
678 267900 DENISIA DE ALMEIDA SALES OFICIAL DO MP ATIVO BELO HORIZONTE - COMARCA; BH-18PJ DIREITOS HUMANOS-SECRETARIA 9.146,93 2.744,08 0,00 0,00 0,00 0,00 11.891,01 1.308,01 1.988,83 0,00 3.296,84 8.594,17 1.550,00 872,13 30/04/2020
679 480300 DESIREE ARANTES FERREIRA GOUVEA OFICIAL DO MP ATIVO PRATÁPOLIS - COMARCA; PRATAPOLIS-PJ-UNPJ 6.123,79 612,38 0,00 0,00 0,00 0,00 6.736,17 740,98 779,32 0,00 1.520,30 5.215,87 1.550,00 779,40 30/04/2020
680 355300 DEYSE CRISTINA MORAIS OFICIAL DO MP ATIVO PASSOS - COMARCA; PASSOS-PJ-02PJ 8.579,10 1.715,82 0,00 0,00 0,00 0,00 10.294,92 1.132,44 1.650,32 0,00 2.782,76 7.512,16 1.550,00 624,22 30/04/2020
681 523700 DIANA CAMPOS RESENDE OFICIAL DO MP ATIVO SÃO JOÃO DEL REI - COMARCA; SAO JOAO DEL REI-PJ-04PJ 6.741,63 3.370,82 0,00 0,00 0,00 0,00 10.112,45 1.112,37 1.553,52 0,00 2.665,89 7.446,56 1.550,00 695,24 30/04/2020
682 241900 DIANA CARDOSO MARTINS OFICIAL DO MP ATIVO BELO HORIZONTE - COMARCA; CAO-CRIM EXEC PENAL TRIB JURI AUD MILITAR 8.858,43 2.657,53 0,00 0,00 0,00 0,00 11.515,96 1.266,76 1.949,17 0,00 3.215,93 8.300,03 1.550,00 866,99 30/04/2020
683 410100 DIANA GORDILHO SILVEIRA SENA ANALISTA DO MP ATIVO BELO HORIZONTE - COMARCA; ASSESS TECNICO-JUR JUNTO AS PROC. DE JUST 12.601,30 2.520,26 0,00 0,00 0,00 0,00 15.121,56 1.663,37 2.831,64 0,00 4.495,01 10.626,55 1.550,00 1.223,62 30/04/2020
684 553000 DIANA MARIA MARQUES ANALISTA DO MP ATIVO BETIM - COMARCA; BETIM-PJ-13PJ 8.436,53 843,65 0,00 0,00 0,00 0,00 9.280,18 1.020,82 1.349,83 0,00 2.370,65 6.909,53 1.550,00 1.412,09 30/04/2020
685 520000 DIARLE TOSTE DOS SANTOS ANALISTA DO MP ATIVO RIO POMBA - COMARCA; RIO POMBA-PJ-UNPJ 10.069,62 1.006,96 0,00 0,00 0,00 0,00 11.076,58 1.218,42 1.214,75 0,00 2.433,17 8.643,41 1.550,00 458,38 30/04/2020
686 539800 DIEGO CAMARGOS RODRIGUES OFICIAL DO MP ATIVO CONTAGEM - COMARCA; CONTAGEM-PJ-19PJ 5.387,19 538,72 0,00 0,00 0,00 0,00 5.925,91 651,85 581,01 0,00 1.232,86 4.693,05 1.631,38 395,61 30/04/2020
687 607300 DIEGO CERVEIRA DE SOUZA ANALISTA DO MP ATIVO PATOS DE MINAS - COMARCA; COORD REG BACIAS PARACATU,URUCUIA E ABAETE 8.436,53 843,65 0,00 0,00 0,00 0,00 9.280,18 1.020,82 1.401,96 0,00 2.422,78 6.857,40 1.550,00 599,96 30/04/2020
688 669300 DIEGO DA CUNHA SOARES ASSESSOR ADMINISTRATIVO I ATIVO BELO HORIZONTE - COMARCA; DIRET DE INFORMACAO E EXPEDICAO DE PROCESSOS 0,00 0,00 3.076,28 0,00 0,00 0,00 3.076,28 443,62 205,10 0,00 648,72 2.427,56 1.550,00 0,00 30/04/2020
689 446900 DIEGO DE FREITAS OFICIAL DO MP ATIVO UBERABA - COMARCA; UBERABA-PJ-06PJ 7.421,79 1.484,36 0,00 0,00 0,00 0,00 8.906,15 979,68 1.310,42 0,00 2.290,10 6.616,05 1.550,00 561,35 30/04/2020
690 288800 DILENE NEPOMUCENO ALVES OFICIAL DO MP ATIVO BELO HORIZONTE - COMARCA; DIRETORIA DE PESSOAL ADMINISTRATIVO - DPAD 10.069,62 3.020,89 0,00 0,00 0,00 0,00 13.090,51 1.439,96 2.334,54 0,00 3.774,50 9.316,01 1.550,00 525,27 30/04/2020
691 270101 DILSON DO AMARAL ANALISTA DO MP ATIVO RIO CASCA - COMARCA; RIO CASCA-PJ-UNPJ 8.436,53 843,65 0,00 0,00 0,00 0,00 9.280,18 1.020,82 1.401,96 0,00 2.422,78 6.857,40 1.550,00 651,00 30/04/2020
692 466000 DIMITRI GUDE MARCIAL ANALISTA DO MP ATIVO NANUQUE - COMARCA; NANUQUE-PJ-02PJ 10.069,62 1.006,96 0,00 0,00 0,00 0,00 11.076,58 1.218,42 1.737,36 0,00 2.955,78 8.120,80 2.319,39 1.324,05 30/04/2020
693 516300 DINORA APARECIDA MACEDO BRANDAO ANALISTA DO MP ATIVO BELO HORIZONTE - COMARCA; SUPERINTENDENCIA DE RECURSOS HUMANOS 8.579,10 857,91 0,00 0,00 0,00 0,00 9.437,01 1.038,07 1.440,35 0,00 2.478,42 6.958,59 1.550,00 513,43 30/04/2020
694 511700 DIOGENES HENRIQUES PEREIRA LOURENCO ANALISTA DO MP ATIVO CONTAGEM - COMARCA; CONTAGEM-PJ-13PJ 10.069,62 1.006,96 0,00 0,00 0,00 0,00 11.076,58 1.218,42 1.841,63 0,00 3.060,05 8.016,53 1.550,00 458,38 30/04/2020
695 604100 DIOGO CESAR DE OLIVEIRA HONORIO ASSESSOR ATIVO PIUMHI - COMARCA; PIUMHI-PJ-02PJ 0,00 0,00 5.136,32 0,00 0,00 0,00 5.136,32 713,09 649,53 0,00 1.362,62 3.773,70 1.550,00 262,92 30/04/2020
696 387800 DIOGO FELIX DA SILVA OFICIAL DO MP ATIVO CONSELHEIRO PENA - COMARCA; CONSELHEIRO PENA-PJ-01PJ 7.421,79 1.484,36 0,00 0,00 0,00 0,00 8.906,15 979,68 1.310,42 0,00 2.290,10 6.616,05 1.550,00 612,36 30/04/2020
697 259600 DIOGO MESQUITA MAIA ANALISTA DO MP ATIVO BELO HORIZONTE - COMARCA; DIRET DE APOIO AS PROCURADORIAS DE JUSTICA 15.272,02 12.217,62 0,00 0,00 0,00 3.023,86 30.513,50 3.023,86 6.638,15 0,00 9.662,01 20.851,49 7.617,47 2.734,75 30/04/2020
698 386700 DIRCIMAR FERNANDES CARNEIRO OFICIAL DO MP ATIVO VISCONDE DO RIO BRANCO - COMARCA; VISCONDE DO RIO BRANCO-PJ-03PJ 8.579,10 6.005,37 0,00 0,00 0,00 0,00 14.584,47 1.604,29 2.700,19 0,00 4.304,48 10.279,99 1.550,00 1.458,43 30/04/2020
699 113800 DIRSON APARECIDO GUIMARAES ASSESSOR ATIVO BELO HORIZONTE - COMARCA; DIVISAO DE MANUTENCAO PREDIAL 0,00 4.622,69 5.136,32 0,00 0,00 0,00 9.759,01 713,09 1.920,77 0,00 2.633,86 7.125,15 1.550,00 499,54 30/04/2020
700 216700 DOMICIO VALDETE PEREIRA OFICIAL DO MP ATIVO TEÓFILO OTONI - COMARCA; COORD REG PJ DEF EDU DIR CRIAN ADOL JEQUI MUC 14.324,23 5.729,69 0,00 0,00 0,00 0,00 20.053,92 2.363,50 4.285,15 0,00 6.648,65 13.405,27 3.348,98 3.744,73 30/04/2020
701 192701 DONIZETTI APARECIDO AMORIM ANALISTA DO MP ATIVO PRATÁPOLIS - COMARCA; PRATAPOLIS-PJ-UNPJ 9.444,70 3.777,88 0,00 0,00 0,00 0,00 13.222,58 1.454,48 2.314,73 0,00 3.769,21 9.453,37 3.389,40 1.618,92 30/04/2020
702 558700 DORCILIA FATIMA DE OLIVEIRA OFICIAL DO MP ATIVO DIVINÓPOLIS - COMARCA; DIVINOPOLIS-PJ-02PJ 5.387,19 538,72 0,00 0,00 0,00 0,00 5.925,91 651,85 528,87 0,00 1.180,72 4.745,19 1.550,00 396,49 30/04/2020
703 555300 DOUGLAS CUNHA DE SOUZA ANALISTA DO MP ATIVO VARZEA DA PALMA - COMARCA; VARZEA DA PALMA-PJ-01PJ 8.436,53 843,65 0,00 0,00 0,00 0,00 9.280,18 1.020,82 1.401,96 0,00 2.422,78 6.857,40 1.550,00 618,04 30/04/2020
704 265900 DOUGLAS GOMES MOREIRA ANALISTA DO MP ATIVO BELO HORIZONTE - COMARCA; CENTRAL DE APOIO TECNICO-SETOR DE ENGENHARIA 16.750,82 5.025,25 0,00 0,00 0,00 0,00 21.776,07 2.395,37 4.460,33 0,00 6.855,70 14.920,37 1.550,00 1.615,74 30/04/2020
705 241000 DOUGLAS MEIRELLES DE CASTRO OFICIAL DO MP ATIVO CONCEIÇÃO DO RIO VERDE - COMARCA; CONCEICAO DO RIO VERDE-PJ-UNPJ 12.204,02 4.881,61 0,00 0,00 0,00 0,00 17.085,63 1.879,42 3.208,07 0,00 5.087,49 11.998,14 1.550,00 1.979,93 30/04/2020
706 534900 DOUGLAS SILVA E SOUZA ANALISTA DO MP ATIVO CAMPOS GERAIS - COMARCA; CAMPOS GERAIS-PJ-UNPJ 8.436,53 843,65 0,00 0,00 0,00 0,00 9.280,18 1.020,82 1.349,83 0,00 2.370,65 6.909,53 1.550,00 727,68 30/04/2020
707 638900 DOUGLAS WALLAS CONCEICAO NEVES OFICIAL DO MP ATIVO RIBEIRÃO DAS NEVES - COMARCA; RIBEIRAO DAS NEVES-PJ-SEC CIVEL 4.376,03 262,56 0,00 0,00 0,00 0,00 4.638,59 538,52 292,75 0,00 831,27 3.807,32 1.550,00 355,62 30/04/2020
708 146800 DUCINALVA AMARAL LOPES REIS OFICIAL DO MP ATIVO PARAISÓPOLIS - COMARCA; PARAISOPOLIS-PJ-UNPJ 16.750,82 11.725,57 0,00 0,00 0,00 3.132,40 31.608,79 3.132,40 7.087,08 0,00 10.219,48 21.389,31 1.550,00 3.189,84 30/04/2020
709 122500 DUILIO CARLOS FERREIRA UTSCH OFICIAL DO MP ATIVO CONCEIÇÃO DO MATO DENTRO - COMARCA; CONCEICAO DO MATO DENTRO-PJ-UNPJ 14.324,23 11.459,38 0,00 0,00 0,00 2.836,20 28.619,81 2.836,20 6.221,13 0,00 9.057,33 19.562,48 6.706,72 3.803,39 30/04/2020
710 201800 DULCINEIA ANDRE DE SOUZA OFICIAL DO MP ATIVO JEQUITINHONHA - COMARCA; JEQUITINHONHA-PJ-SECRETARIA 14.324,23 5.729,69 0,00 0,00 0,00 0,00 20.053,92 2.205,93 3.830,29 0,00 6.036,22 14.017,70 3.154,31 2.829,30 30/04/2020
711 395800 DUVIDIER MEDIRCIO JUNIOR ANALISTA DO MP ATIVO BELO HORIZONTE - COMARCA; CENTRAL DE APOIO TECNICO-SETOR DE ENGENHARIA 13.872,60 2.774,52 0,00 0,00 0,00 0,00 16.647,12 1.831,18 3.205,02 0,00 5.036,20 11.610,92 1.569,47 1.397,83 30/04/2020
712 604800 ECIA RAMILIS ISSA DE ABREU ANALISTA DO MP ATIVO MANGA - COMARCA; MANGA-PJ-02PJ 8.436,53 843,65 0,00 0,00 0,00 0,00 9.280,18 1.020,82 1.401,96 0,00 2.422,78 6.857,40 1.550,00 583,53 30/04/2020
713 273000 EDELFINA APARECIDA GUIMARAES OFICIAL DO MP ATIVO CACHOEIRA DE MINAS - COMARCA; CACHOEIRA DE MINAS-PJ-UNPJ 10.069,62 7.048,73 0,00 0,00 0,00 0,00 17.118,35 1.883,02 3.268,22 0,00 5.151,24 11.967,11 1.550,00 1.373,65 30/04/2020
714 523300 EDER DOS SANTOS PATRICIO ANALISTA DO MP ATIVO NOVA SERRANA - COMARCA; NOVA SERRANA-PJ-03PJ 10.069,62 1.006,96 0,00 0,00 3.692,19 0,00 14.768,77 1.218,42 2.856,99 0,00 4.075,41 10.693,36 1.550,00 1.296,07 30/04/2020
715 356700 EDER JOSE PACHECO OFICIAL DO MP ATIVO CAMPO BELO - COMARCA; CAMPO BELO-PJ-SECRETARIA 8.858,43 1.771,69 0,00 0,00 0,00 0,00 10.630,12 1.169,31 1.628,09 0,00 2.797,40 7.832,72 2.319,39 745,68 30/04/2020
716 507900 EDERSON SILVA LOPES OFICIAL DO MP ATIVO BELO HORIZONTE - COMARCA; LABORATORIO TECNOLOGIA INTELIGENCIA 6.123,79 612,38 0,00 0,00 0,00 0,00 6.736,17 740,98 675,04 0,00 1.416,02 5.320,15 1.550,00 458,83 30/04/2020
717 296200 EDGARD GOULART MATOSINHO DE LAET JR ANALISTA DO MP ATIVO GOVERNADOR VALADARES - COMARCA; GAECO REGIONAL DE GOVERNADOR VALADARES 15.272,02 4.581,61 0,00 0,00 0,00 0,00 19.853,63 2.183,90 3.885,54 0,00 6.069,44 13.784,19 1.840,74 1.363,31 30/04/2020
718 295000 EDILA MARIA DA SILVEIRA OFICIAL DO MP ATIVO FORMIGA - COMARCA; FORMIGA-PJ-01PJ 8.579,10 2.573,73 0,00 0,00 0,00 0,00 11.152,83 1.226,81 1.860,30 0,00 3.087,11 8.065,72 1.550,00 1.212,20 30/04/2020
719 332300 EDILA MARILAC MIRANDA PRADO OFICIAL DO MP ATIVO DIAMANTINA - COMARCA; COORD REG BACIAS RIOS JEQUITINHONHA E MUCURI 9.752,14 4.876,07 0,00 0,00 0,00 0,00 14.628,21 1.609,10 2.606,62 0,00 4.215,72 10.412,49 3.088,78 927,81 30/04/2020
720 376600 EDILANE CONSOLACAO ROSA NAZARETH ANALISTA DO MP ATIVO BETIM - COMARCA; BETIM-PJ-10PJ 13.011,52 2.602,30 0,00 0,00 0,00 0,00 15.613,82 1.717,52 2.952,12 0,00 4.669,64 10.944,18 1.550,00 1.073,46 30/04/2020
721 301500 EDILENE APARECIDA DE CARVALHO ANALISTA DO MP ATIVO BELO HORIZONTE - COMARCA; BH-02PJ FAMILIA-SECRETARIA 15.272,02 4.581,61 0,00 0,00 0,00 0,00 19.853,63 2.183,90 3.937,68 0,00 6.121,58 13.732,05 7.220,04 1.872,89 30/04/2020
722 309800 EDILZA DOS REIS OFICIAL DO MP ATIVO UBERLÂNDIA - COMARCA; UBERLANDIA-PJ-03PJ 10.069,62 3.020,89 0,00 0,00 0,00 0,00 13.090,51 1.439,96 2.334,54 0,00 3.774,50 9.316,01 1.550,00 830,77 30/04/2020
723 200500 EDINEIA MARIA DE OLIVEIRA ANTUNES OFICIAL DO MP ATIVO MONTES CLAROS - COMARCA; MONTES CLAROS-PJ-10PJ 14.324,23 5.729,69 0,00 0,00 0,00 0,00 20.053,92 2.205,93 4.038,84 0,00 6.244,77 13.809,15 3.836,63 2.532,97 30/04/2020
724 427700 EDISANGELA SOARES LOPES OFICIAL DO MP ATIVO PIRAPORA - COMARCA; PIRAPORA-PJ-02PJ 6.123,79 1.224,76 0,00 0,00 0,00 0,00 7.348,55 808,34 929,20 0,00 1.737,54 5.611,01 1.550,00 306,88 30/04/2020
725 555400 EDISON MONTEIRO SAMPAIO NETO ANALISTA DO MP ATIVO BELO HORIZONTE - COMARCA; BH-12PJ JUIZO CRIMINAL-GAB 094PJ 8.436,53 843,65 0,00 0,00 0,00 0,00 9.280,18 1.020,82 1.401,96 0,00 2.422,78 6.857,40 7.489,32 1.177,36 30/04/2020
726 517700 EDMILSON TADEU FERNANDES OFICIAL DO MP ATIVO POUSO ALEGRE - COMARCA; GAECO REGIONAL DE POUSO ALEGRE 6.529,10 652,91 0,00 0,00 0,00 0,00 7.182,01 790,02 888,44 0,00 1.678,46 5.503,55 1.550,00 484,13 30/04/2020
727 358400 EDNA APARECIDA SILVA FERREIRA OFICIAL DO MP ATIVO CORONEL FABRICIANO - COMARCA; CORONEL FABRICIANO-PJ-02PJ 8.858,43 1.771,69 0,00 0,00 0,00 0,00 10.630,12 1.169,31 1.628,09 0,00 2.797,40 7.832,72 1.550,00 709,22 30/04/2020
728 331800 EDNA MARCIA CAMILO DA SILVA OFICIAL DO MP ATIVO SETE LAGOAS - COMARCA; SETE LAGOAS-PJ-SEC CRIMINAIS 10.069,62 2.013,92 0,00 0,00 0,00 0,00 12.083,54 1.329,19 2.035,95 0,00 3.365,14 8.718,40 1.550,00 1.405,99 30/04/2020
729 327900 EDRIEL SANTANA PEREIRA OFICIAL DO MP ATIVO TUPACIGUARA - COMARCA; TUPACIGUARA-PJ-UNPJ 10.069,62 2.013,92 0,00 0,00 0,00 0,00 12.083,54 1.329,19 2.088,09 0,00 3.417,28 8.666,26 3.129,85 1.405,99 30/04/2020
730 482400 EDSON GARCIA OFICIAL DO MP ATIVO MACHADO - COMARCA; MACHADO-PJ-02PJ 5.562,64 556,26 0,00 0,00 0,00 0,00 6.118,90 673,08 523,97 0,00 1.197,05 4.921,85 2.319,39 429,24 30/04/2020
731 225601 EDSON LABRE FILHO ANALISTA DO MP ATIVO VARGINHA - COMARCA; VARGINHA-PJ-01PJ 15.272,02 4.581,61 0,00 0,00 0,00 0,00 19.853,63 2.183,90 3.937,68 0,00 6.121,58 13.732,05 3.309,88 1.579,49 30/04/2020
732 602700 EDSON NOGUEIRA BUENO OFICIAL DO MP ATIVO PITANGUI - COMARCA; PITANGUI-PJ-01PJ 4.974,42 497,44 0,00 0,00 0,00 0,00 5.471,86 601,90 469,88 0,00 1.071,78 4.400,08 1.550,00 353,72 30/04/2020
733 414400 EDUARDO ABRANTES CAMPOS ANALISTA DO MP ATIVO SÃO JOÃO DEL REI - COMARCA; SAO JOAO DEL REI-PJ-02PJ 12.601,30 2.520,26 0,00 0,00 0,00 0,00 15.121,56 1.663,37 2.831,64 0,00 4.495,01 10.626,55 5.179,17 1.536,32 30/04/2020
734 476800 EDUARDO ALVES DE MOURA ANALISTA DO MP ATIVO UBERLÂNDIA - COMARCA; UBERLANDIA-PJ-05PJ 10.069,62 1.006,96 0,00 0,00 0,00 0,00 11.076,58 1.218,42 1.685,22 0,00 2.903,64 8.172,94 2.330,73 504,62 30/04/2020
735 390800 EDUARDO AMORIM PETTERSEN OFICIAL DO MP ATIVO CARANGOLA - COMARCA; CARANGOLA-PJ-03PJ 7.912,85 1.582,57 0,00 0,00 0,00 0,00 9.495,42 1.044,50 1.454,64 0,00 2.499,14 6.996,28 2.319,39 652,83 30/04/2020
736 461600 EDUARDO ANTONIO DE ASSIS FARIA ASSESSOR ATIVO BELO HORIZONTE - COMARCA; ASSESS EXECUTIVA DO CONSELHO SUPERIOR DO MP 0,00 0,00 8.170,49 0,00 0,00 0,00 8.170,49 713,09 1.379,65 0,00 2.092,74 6.077,75 2.319,39 262,92 30/04/2020
737 248800 EDUARDO DE CASTRO AMORIM ANALISTA DO MP ATIVO BELO HORIZONTE - COMARCA; SUPERINTENDENCIA DE RECURSOS HUMANOS 18.103,37 5.431,01 0,00 0,00 0,00 0,00 23.534,38 2.588,78 4.890,68 0,00 7.479,46 16.054,92 1.706,05 1.751,42 30/04/2020
738 209100 EDUARDO DE SOUZA MAIA ANALISTA DO MP ATIVO BELO HORIZONTE - COMARCA; ASSESS TECNICO-JUR JUNTO AS PROC. DE JUST 18.820,14 7.528,06 0,00 0,00 0,00 0,00 26.348,20 2.898,30 5.422,95 0,00 8.321,25 18.026,95 1.550,00 1.114,62 30/04/2020
739 633900 EDUARDO GONCALVES PIRES OFICIAL DO MP ATIVO BELO HORIZONTE - COMARCA; BH-19PJ SAUDE-SECRETARIA 150PJ 5.217,34 1.565,20 0,00 0,00 0,00 0,00 6.782,54 746,08 790,67 0,00 1.536,75 5.245,79 1.550,00 391,14 30/04/2020
740 350500 EDUARDO GONCALVES RIBEIRO OFICIAL DO MP ATIVO VESPASIANO - COMARCA; VESPASIANO-PJ-04PJ 8.170,49 1.634,10 0,00 0,00 0,00 0,00 9.804,59 1.078,50 1.530,31 0,00 2.608,81 7.195,78 1.550,00 708,16 30/04/2020
741 115800 EDUARDO HENRIQUE DE CAMPOS MAIA OFICIAL DO MP ATIVO BELO HORIZONTE - COMARCA; DIV FISCAL ADM CONT TERCEIRIZACAO 15.272,02 7.636,01 0,00 0,00 0,00 0,00 22.908,03 2.519,88 4.580,97 0,00 7.100,85 15.807,18 1.864,68 1.574,80 30/04/2020
742 392600 EDUARDO HENRIQUE DOS SANTOS COSTA ELIAZAR OFICIAL DO MP ATIVO MATOZINHOS - COMARCA; MATOZINHOS-PJ-01PJ 7.663,37 1.532,67 0,00 0,00 0,00 0,00 9.196,04 1.011,56 1.224,96 0,00 2.236,52 6.959,52 2.319,39 696,12 30/04/2020
743 407500 EDUARDO MASCARENHAS CURI AZEVEDO COORDENADOR/ANALISTA ATIVO BELO HORIZONTE - COMARCA; DIRETORIA DE IMPRENSA 0,00 2.687,03 13.435,16 0,00 0,00 0,00 16.122,19 1.329,19 3.198,72 0,00 4.527,91 11.594,28 2.319,39 504,62 30/04/2020
744 601300 EDUARDO TRAD VIEIRA OFICIAL DO MP ATIVO IBIRITÉ - COMARCA; IBIRITE-PJ-03PJ 4.974,42 497,44 0,00 0,00 0,00 0,00 5.471,86 601,90 469,88 0,00 1.071,78 4.400,08 1.550,00 355,88 30/04/2020
745 257600 EDUARDO VALADARES CABRAL ANALISTA DO MP ATIVO BELO HORIZONTE - COMARCA; COORD DE INCLUSAO E MOBILIZACAO SOCIAIS 14.324,23 4.297,27 0,00 0,00 0,00 0,00 18.621,50 2.048,37 3.688,25 0,00 5.736,62 12.884,88 1.550,00 1.268,51 30/04/2020
746 545700 EDVAIR FERREIRA DE CARVALHO OFICIAL DO MP ATIVO ARAGUARI - COMARCA; ARAGUARI-PJ-06PJ 4.974,42 497,44 0,00 0,00 0,00 0,00 5.471,86 601,90 374,30 0,00 976,20 4.495,66 1.550,00 437,15 30/04/2020
747 401700 EDWANIA AMORIM DO CARMO OFICIAL DO MP ATIVO RIBEIRÃO DAS NEVES - COMARCA; RIBEIRAO DAS NEVES-PJ-03PJ 8.579,10 1.715,82 0,00 0,00 0,00 0,00 10.294,92 1.132,44 1.650,32 0,00 2.782,76 7.512,16 1.550,00 1.043,84 30/04/2020
748 303600 EFIGENIO SARAIVA LOPES ANALISTA DO MP ATIVO BELO HORIZONTE - COMARCA; DIRETORIA DE PAGAMENTO DE PESSOAL-DPAG 16.750,82 5.025,25 0,00 0,00 0,00 0,00 21.776,07 2.395,37 4.356,06 0,00 6.751,43 15.024,64 1.550,00 1.780,70 30/04/2020
749 286000 ELAINE APARECIDA SILVA BERZOINI OFICIAL DO MP ATIVO JUIZ DE FORA - COMARCA; JUIZ DE FORA-PJ-14PJ 10.069,62 3.020,89 0,00 0,00 0,00 0,00 13.090,51 1.439,96 2.334,54 0,00 3.774,50 9.316,01 1.550,00 525,27 30/04/2020
750 509000 ELAINE CANDIDA PONTES OFICIAL DO MP ATIVO BELO HORIZONTE - COMARCA; BH-02PJ FAMILIA-SECRETARIA 7.187,72 718,77 0,00 0,00 0,00 0,00 7.906,49 869,71 934,12 0,00 1.803,83 6.102,66 1.550,00 996,60 30/04/2020
751 283601 ELAINE CRISTINA MEQUELINO DUARTE ANALISTA DO MP ATIVO ALFENAS - COMARCA; ALFENAS-PJ-02PJ 13.011,52 2.602,30 0,00 0,00 0,00 0,00 15.613,82 1.717,52 2.847,85 0,00 4.565,37 11.048,45 1.550,00 1.073,46 30/04/2020
752 535500 ELAINE DE OLIVEIRA CAMPOS REIS OFICIAL DO MP ATIVO RIBEIRÃO DAS NEVES - COMARCA; SEC PJ EXECUCAO PENAL RIBEIRAO NEVES 5.387,19 538,72 0,00 0,00 0,00 0,00 5.925,91 651,85 581,01 0,00 1.232,86 4.693,05 1.550,00 464,59 30/04/2020
753 455700 ELAINE DE OLIVEIRA CASTRO ANALISTA DO MP ATIVO POMPÉU - COMARCA; POMPEU-PJ-UNPJ 10.069,62 1.006,96 0,00 0,00 0,00 0,00 11.076,58 1.218,42 1.789,50 0,00 3.007,92 8.068,66 2.319,39 1.121,81 30/04/2020
754 367200 ELAINE MUNIZ BARBOSA ANALISTA DO MP ATIVO BELO HORIZONTE - COMARCA; DIRETORIA DE SISTEMAS DE INFORMACAO 14.324,23 2.864,85 0,00 0,00 0,00 0,00 17.189,08 1.890,80 3.285,53 0,00 5.176,33 12.012,75 2.319,39 2.045,05 30/04/2020
755 176900 ELAINE RIBEIRO TAVEIRA OFICIAL DO MP ATIVO BELO HORIZONTE - COMARCA; DIRETORIA DE PESSOAL ADMINISTRATIVO - DPAD 11.819,15 4.727,66 0,00 0,00 0,00 0,00 16.546,81 1.820,15 3.180,47 0,00 5.000,62 11.546,19 1.550,00 1.140,60 30/04/2020
756 496200 ELAINE SABRINA MOREIRA SCHUWARTEN ANALISTA DO MP ATIVO CORONEL FABRICIANO - COMARCA; CORONEL FABRICIANO-PJ-03PJ 10.069,62 1.006,96 0,00 0,00 0,00 0,00 11.076,58 1.218,42 1.841,63 0,00 3.060,05 8.016,53 1.550,00 481,50 30/04/2020
757 489200 ELAINE VICENTINO GARCIA ANALISTA DO MP ATIVO BELO HORIZONTE - COMARCA; CENTRAL DE APOIO TECNICO-SETOR CONTABIL 10.069,62 3.020,89 0,00 0,00 0,00 0,00 13.090,51 1.439,96 2.230,27 0,00 3.670,23 9.420,28 1.550,00 569,04 30/04/2020
758 244500 ELCI ALVES DE SOUZA ASSESSOR ATIVO BELO HORIZONTE - COMARCA; CAO-CONFLITOS AGRARIOS-SECRETARIA 0,00 1.540,90 5.136,32 0,00 0,00 0,00 6.677,22 713,09 1.021,14 0,00 1.734,23 4.942,99 1.550,00 341,80 30/04/2020
759 472500 ELCI VAZ DE OLIVEIRA FILHO ANALISTA DO MP ATIVO PIUMHI - COMARCA; PIUMHI-PJ-02PJ 10.069,62 5.034,81 0,00 0,00 0,00 0,00 15.104,43 1.661,49 2.827,45 0,00 4.488,94 10.615,49 1.550,00 762,51 30/04/2020
760 385200 ELCI VIANA REIS OFICIAL DO MP ATIVO RIO PARDO DE MINAS - COMARCA; RIO PARDO DE MINAS-PJ-SECRETARIA 8.579,10 3.431,64 0,00 0,00 0,00 0,00 12.010,74 1.321,18 2.070,27 0,00 3.391,45 8.619,29 1.550,00 1.298,34 30/04/2020
761 289801 ELCIO JOSE DOS SANTOS ASSESSOR/ANALISTA ATIVO BELO HORIZONTE - COMARCA; DIVISAO DE SERVICOS 0,00 2.520,26 12.601,30 0,00 0,00 0,00 15.121,56 1.329,19 2.923,54 0,00 4.252,73 10.868,83 4.574,31 924,41 30/04/2020
762 319600 ELEN TULER DE ALBERGARIA ANALISTA DO MP ATIVO BELO HORIZONTE - COMARCA; BH-19PJ SAUDE-SECRETARIA 130PJ 13.435,16 5.374,06 0,00 0,00 0,00 0,00 18.809,22 2.069,01 3.734,20 0,00 5.803,21 13.006,01 1.550,00 1.189,47 30/04/2020
763 151000 ELI LOURENCO RIBEIRO AGENTE DO MP ATIVO BELO HORIZONTE - COMARCA; BH-19PJ SAUDE-SECRETARIA 130PJ 10.736,08 5.368,04 0,00 0,00 0,00 0,00 16.104,12 1.771,45 2.372,09 0,00 4.143,54 11.960,58 1.622,16 1.467,32 30/04/2020
764 205500 ELIANA ALVES DE SOUSA OFICIAL DO MP ATIVO GOVERNADOR VALADARES - COMARCA; GOVERNADOR VALADARES-PJ-07PJ 9.146,93 3.658,77 0,00 0,00 0,00 0,00 12.805,70 1.408,63 2.264,83 0,00 3.673,46 9.132,24 1.550,00 957,23 30/04/2020
765 628800 ELIANA APARECIDA PEREIRA ANALISTA DO MP ATIVO CAMBUÍ - COMARCA; CAMBUI-PJ-02PJ 7.421,79 742,18 0,00 0,00 0,00 0,00 8.163,97 898,04 1.076,63 0,00 1.974,67 6.189,30 1.550,00 969,40 30/04/2020
766 301700 ELIANA DA SILVEIRA ANALISTA DO MP ATIVO BELO HORIZONTE - COMARCA; ASSESS TECNICO-JUR JUNTO AS PROC. DE JUST 14.790,66 4.437,20 0,00 0,00 0,00 0,00 19.227,86 2.115,06 3.836,66 0,00 5.951,72 13.276,14 7.279,52 1.705,29 30/04/2020
767 251500 ELIANA DE LIMA MILAGRES FONSECA ANALISTA DO MP ATIVO CONTAGEM - COMARCA; CONTAGEM-PJ-21PJ 14.790,66 4.437,20 0,00 0,00 0,00 0,00 19.227,86 2.115,06 3.732,39 0,00 5.847,45 13.380,41 3.178,20 1.476,43 30/04/2020
768 503900 ELIANA DIAS DUTRA FERREIRA OFICIAL DO MP ATIVO GOVERNADOR VALADARES - COMARCA; GOVERNADOR VALADARES-PJ-10PJ 7.421,79 742,18 0,00 0,00 0,00 0,00 8.163,97 898,04 1.024,50 0,00 1.922,54 6.241,43 0,00 1.005,95 30/04/2020
769 413900 ELIANA PINTO DE OLIVEIRA NEVES ANALISTA DO MP ATIVO CAMPO BELO - COMARCA; CAMPO BELO-PJ-03PJ 12.204,02 2.440,80 0,00 0,00 0,00 0,00 14.644,82 1.610,93 2.714,96 0,00 4.325,89 10.318,93 2.319,39 1.645,73 30/04/2020
770 228200 ELIANA RODRIGUES DA CUNHA PINHEIRO OFICIAL DO MP ATIVO BELO HORIZONTE - COMARCA; DIRETORIA DE PROJETOS DE EDIFICACOES 12.204,02 3.661,21 0,00 0,00 0,00 1.745,18 17.610,41 1.745,18 3.493,58 0,00 5.238,76 12.371,65 1.550,00 2.062,75 30/04/2020
771 386600 ELIANA SABINO CHAVES PESSOA ANALISTA DO MP ATIVO CARATINGA - COMARCA; CARATINGA-PJ-06PJ 12.601,30 8.820,91 0,00 0,00 0,00 0,00 21.422,21 2.356,44 4.321,59 0,00 6.678,03 14.744,18 8.035,87 2.212,06 30/04/2020
772 297400 ELIANE AUGUSTA RIBEIRO COSTA ANALISTA DO MP ATIVO CONSELHEIRO LAFAIETE - COMARCA; CONSELHEIRO LAFAIETE-PJ-05PJ 16.750,82 5.025,25 0,00 0,00 0,00 0,00 21.776,07 2.395,37 4.356,06 0,00 6.751,43 15.024,64 6.279,93 2.807,66 30/04/2020
773 510600 ELIANE CAROLINA MAIA ANALISTA DO MP ATIVO IGARAPÉ - COMARCA; IGARAPE-PJ-01PJ 10.069,62 1.006,96 0,00 0,00 0,00 0,00 11.076,58 1.218,42 1.685,22 0,00 2.903,64 8.172,94 1.550,00 458,38 30/04/2020
774 269300 ELIANE EDLAMAR ROCHA OFICIAL DO MP ATIVO PEDRO LEOPOLDO - COMARCA; PEDRO LEOPOLDO-PJ-02PJ 9.444,70 2.833,41 0,00 0,00 0,00 0,00 12.278,11 1.350,59 2.083,57 0,00 3.434,16 8.843,95 1.550,00 818,64 30/04/2020
775 262600 ELIANE FERREIRA SOARES ASSESSOR ATIVO BELO HORIZONTE - COMARCA; BH-18PJ DIREITOS HUMANOS-SECRETARIA 0,00 2.054,53 5.136,32 0,00 0,00 0,00 7.190,85 713,09 1.162,39 0,00 1.875,48 5.315,37 1.550,00 341,80 30/04/2020
776 204400 ELIANE GLAUCE DE QUEIROS MAIA OFICIAL DO MP ATIVO GUANHÃES - COMARCA; GUANHAES-PJ-02PJ 14.324,23 5.729,69 0,00 0,00 0,00 0,00 20.053,92 2.205,93 4.038,84 0,00 6.244,77 13.809,15 2.319,39 2.154,74 30/04/2020
777 91800 ELIANE KAPLER ALVES OFICIAL DO MP ATIVO BELO HORIZONTE - COMARCA; DIVISAO DE CONTROLE IMOBILIARIO 18.820,14 9.410,07 0,00 0,00 0,00 0,00 28.230,21 3.105,32 5.935,71 0,00 9.041,03 19.189,18 7.756,84 2.642,02 30/04/2020
778 334200 ELIANE MARCIA DE OLIVEIRA BRITO OFICIAL DO MP ATIVO BELO HORIZONTE - COMARCA; BH-08PJ JUIZADO ESPECIAL-SECRETARIA 6.123,79 1.224,76 0,00 0,00 0,00 0,00 7.348,55 808,34 929,20 0,00 1.737,54 5.611,01 1.550,00 334,78 30/04/2020
779 365900 ELIANE MARIA DE OLIVEIRA FERREIRA OFICIAL DO MP ATIVO SETE LAGOAS - COMARCA; SETE LAGOAS-PJ-SEC CRIMINAIS 9.146,93 4.573,47 0,00 0,00 0,00 0,00 13.720,40 1.509,24 2.488,71 0,00 3.997,95 9.722,45 1.586,89 904,34 30/04/2020
780 320600 ELIANE STADLER DE SOUZA OFICIAL DO MP ATIVO FRANCISCO SÁ - COMARCA; FRANCISCO SA-PJ-SECRETARIA 8.858,43 1.771,69 0,00 0,00 0,00 0,00 10.630,12 1.169,31 1.680,23 0,00 2.849,54 7.780,58 1.550,00 800,31 30/04/2020
781 448900 ELIAS PEREIRA OTONI ASSESSOR ATIVO BELO HORIZONTE - COMARCA; BH-18PJ DIREITOS HUMANOS 0,00 0,00 5.136,32 0,00 0,00 0,00 5.136,32 713,09 545,25 0,00 1.258,34 3.877,98 1.550,00 394,38 30/04/2020
782 495400 ELICA SOUZA GASPARONI MATTOS OFICIAL DO MP ATIVO UBÁ - COMARCA; UBA-PJ-06PJ 7.421,79 742,18 0,00 0,00 0,00 0,00 8.163,97 898,04 1.128,77 0,00 2.026,81 6.137,16 1.550,00 944,68 30/04/2020
783 86600 ELIENE FERREIRA DA SILVA OFICIAL DO MP ATIVO BELO HORIZONTE - COMARCA; BH-22PJ PES COM DEF E IDOSOS-SECRETARIA 21.145,12 14.801,58 0,00 0,00 0,00 0,00 35.946,70 3.900,84 7.653,61 484,48 12.038,93 23.907,77 7.223,95 520,11 30/04/2020
784 183800 ELIENE MARIA CUNHA OFICIAL DO MP ATIVO BELO HORIZONTE - COMARCA; DIRETORIA DE PESSOAL ADMINISTRATIVO - DPAD 14.790,66 5.916,26 0,00 0,00 0,00 0,00 20.706,92 2.277,76 4.146,52 0,00 6.424,28 14.282,64 4.970,40 1.574,77 30/04/2020
785 172300 ELINA APARECIDA SILVA ASSESSOR ATIVO BELO HORIZONTE - COMARCA; BH-19PJ SAUDE-SECRETARIA 130PJ 0,00 1.230,51 3.076,28 0,00 0,00 0,00 4.306,79 644,56 350,06 0,00 994,62 3.312,17 1.550,00 204,72 30/04/2020
786 492501 ELINE CAMPOS DA FONSECA CUNHA ANALISTA DO MP ATIVO PONTE NOVA - COMARCA; PONTE NOVA-PJ-02PJ 8.858,43 885,84 0,00 0,00 0,00 0,00 9.744,27 1.071,87 1.515,55 0,00 2.587,42 7.156,85 1.550,00 1.027,53 30/04/2020
787 618900 ELISA MOURA VIEIRA MARCATTI OFICIAL DO MP ATIVO BELO HORIZONTE - COMARCA; BH-23PJ CIVEL-SEC EXP CIVEIS 5.217,34 521,73 0,00 0,00 0,00 0,00 5.739,07 631,30 535,28 0,00 1.166,58 4.572,49 2.319,39 753,27 30/04/2020
788 256500 ELISABETE NOGUEIRA ANALISTA DO MP ATIVO RIBEIRÃO DAS NEVES - COMARCA; SEC PJ EXECUCAO PENAL RIBEIRAO NEVES 14.324,23 7.162,12 0,00 0,00 0,00 0,00 21.486,35 2.363,50 4.233,01 0,00 6.596,51 14.889,84 1.550,00 1.403,36 30/04/2020
789 355000 ELISANGELA DARLANTONI RIBEIRO OFICIAL DO MP ATIVO ARAXÁ - COMARCA; ARAXA-PJ-05PJ 8.436,53 1.687,31 0,00 0,00 0,00 0,00 10.123,84 1.113,62 1.556,31 0,00 2.669,93 7.453,91 1.550,00 669,23 30/04/2020
790 604400 ELISANGELA DEMASI FERREIRA MOREIRA ANALISTA DO MP ATIVO POÇOS DE CALDAS - COMARCA; POCOS DE CALDAS-PJ-06PJ 8.436,53 843,65 0,00 0,00 0,00 0,00 9.280,18 1.020,82 1.401,96 0,00 2.422,78 6.857,40 1.550,00 599,96 30/04/2020
791 323800 ELISANGELA GONCALVES DE JESUS OFICIAL DO MP ATIVO BELO HORIZONTE - COMARCA; BH-09PJ AUDITORIA MILITAR-SECRETARIA 9.146,93 1.829,39 0,00 0,00 0,00 0,00 10.976,32 1.207,40 1.764,96 0,00 2.972,36 8.003,96 2.319,39 732,39 30/04/2020
792 507400 ELISANGELA MIGUEL DA ROCHA SILVA ASSESSOR ATIVO BELO HORIZONTE - COMARCA; CGMP-DIVIS DE APOIO FISC ORIENTACAO FUNCIONAL 0,00 0,00 3.076,28 0,00 0,00 0,00 3.076,28 465,67 173,35 0,00 639,02 2.437,26 2.319,39 157,48 30/04/2020
793 261400 ELISANGELA REZENDE MENDES OFICIAL DO MP ATIVO POUSO ALEGRE - COMARCA; POUSO ALEGRE-PJ-05PJ 9.752,14 2.925,64 0,00 0,00 0,00 0,00 12.677,78 1.394,56 2.233,53 0,00 3.628,09 9.049,69 1.550,00 837,96 30/04/2020
794 534100 ELISANGELA ROSINE SILVA OFICIAL DO MP ATIVO UBERABA - COMARCA; UBERABA-PJ-06PJ 4.974,42 497,44 0,00 0,00 0,00 0,00 5.471,86 601,90 469,88 0,00 1.071,78 4.400,08 1.550,00 383,82 30/04/2020
795 634300 ELIUDE GRACA DAMASIO ROSARIO FRANCELINO OFICIAL DO MP ATIVO BELO HORIZONTE - COMARCA; EXTINTA-DEF DIREIT HUM-COMB A VIOL DOMEST-18 4.376,03 437,60 0,00 0,00 1.604,54 0,00 6.418,17 529,50 750,02 0,00 1.279,52 5.138,65 2.319,39 315,41 30/04/2020
796 461700 ELIZABETH ALEIXO DA PAZ ANALISTA DO MP ATIVO JUIZ DE FORA - COMARCA; JUIZ DE FORA-PJ-19PJ 10.069,62 1.006,96 0,00 0,00 0,00 0,00 11.076,58 1.218,42 1.841,63 0,00 3.060,05 8.016,53 1.550,00 504,62 30/04/2020
797 227300 ELIZABETH COIMBRA FELIX ASSESSOR/OFICIAL ATIVO BELO HORIZONTE - COMARCA; DIRETORIA DE PAGAMENTO DE PESSOAL-DPAG 12.601,30 7.560,78 0,00 0,00 0,00 0,00 20.162,08 1.940,60 4.037,27 0,00 5.977,87 14.184,21 3.325,78 1.621,18 30/04/2020
798 354800 ELIZABETH DOS REIS OFICIAL DO MP ATIVO BELO HORIZONTE - COMARCA; DIVISAO DE MATERIAIS 9.146,93 1.829,39 0,00 0,00 0,00 0,00 10.976,32 1.207,40 1.764,96 0,00 2.972,36 8.003,96 1.550,00 754,73 30/04/2020
799 612000 ELIZABETH MARIA DE QUEIROZ TANIGUCHI OFICIAL DO MP ATIVO BELO HORIZONTE - COMARCA; SUPERINTENDENCIA DE RECURSOS HUMANOS 4.817,57 481,76 0,00 0,00 0,00 0,00 5.299,33 582,93 427,65 0,00 1.010,58 4.288,75 1.550,00 762,31 30/04/2020
800 452800 ELIZANGELA MARIA DAVI OFICIAL DO MP ATIVO ARCOS - COMARCA; ARCOS-PJ-01PJ 6.123,79 612,38 0,00 0,00 0,00 0,00 6.736,17 740,98 727,18 0,00 1.468,16 5.268,01 1.550,00 783,80 30/04/2020
801 496300 ELIZANGELA MARQUES PINTO COELHO OFICIAL DO MP ATIVO BELO HORIZONTE - COMARCA; DIRETORIA DE PESSOAL ADMINISTRATIVO - DPAD 7.421,79 742,18 0,00 0,00 0,00 0,00 8.163,97 898,04 1.128,77 0,00 2.026,81 6.137,16 1.550,00 944,68 30/04/2020
802 422500 ELIZETE FORTES DA CUNHA ANALISTA DO MP ATIVO RIBEIRÃO DAS NEVES - COMARCA; RIBEIRAO DAS NEVES-PJ-07PJ 12.601,30 2.520,26 0,00 0,00 0,00 0,00 15.121,56 1.663,37 2.779,51 0,00 4.442,88 10.678,68 1.550,00 1.096,36 30/04/2020
803 506100 ELLEM CRISTINA ROCHA FONSECA BOWEN ANALISTA DO MP ATIVO GOVERNADOR VALADARES - COMARCA; COORD REG PJ DEF EDU DIR CRIANCA ADOL RIODOCE 10.069,62 1.006,96 0,00 0,00 0,00 0,00 11.076,58 1.218,42 1.841,63 0,00 3.060,05 8.016,53 2.319,39 576,00 30/04/2020
804 468200 ELLEN CRISTINA BERNARDES DARE ANALISTA DO MP ATIVO TRÊS PONTAS - COMARCA; TRES PONTAS-PJ-02PJ 10.069,62 1.006,96 0,00 0,00 0,00 0,00 11.076,58 1.218,42 1.789,50 0,00 3.007,92 8.068,66 2.319,39 504,62 30/04/2020
805 418800 ELLEN CRISTINA DE QUEIROZ FERREIRA ANALISTA DO MP ATIVO BELO HORIZONTE - COMARCA; CENTRAL DE APOIO TECNICO-SETOR CONTABIL 12.204,02 2.440,80 0,00 0,00 0,00 0,00 14.644,82 1.610,93 2.714,96 0,00 4.325,89 10.318,93 2.319,39 1.689,53 30/04/2020
806 328401 ELLEN CRISTINA FERREIRA MORAIS MONTEIRO ANALISTA DO MP ATIVO CAMANDUCAIA - COMARCA; CAMANDUCAIA-PJ-UNPJ 12.204,02 2.440,80 0,00 0,00 0,00 0,00 14.644,82 1.610,93 2.610,69 0,00 4.221,62 10.423,20 1.550,00 1.689,53 30/04/2020
807 556100 ELLEN CRISTINE BIANCHIN DA SILVA OFICIAL DO MP ATIVO SÃO GONÇALO DO SAPUCAÍ - COMARCA; SAO GONCALO DO SAPUCAI-PJ-02PJ 4.974,42 497,44 0,00 0,00 0,00 0,00 5.471,86 601,90 417,74 0,00 1.019,64 4.452,22 1.550,00 414,37 30/04/2020
808 447100 ELLEN ROSANA DE MACEDO BORGES OFICIAL DO MP ATIVO UBERLÂNDIA - COMARCA; UBERLANDIA-PJ-17PJ 7.663,37 1.532,67 0,00 0,00 0,00 0,00 9.196,04 1.011,56 1.381,37 0,00 2.392,93 6.803,11 1.550,00 642,38 30/04/2020
809 477700 ELMA JACOB OFICIAL DO MP ATIVO BELO HORIZONTE - COMARCA; COORD DE GABINETE DO PGJ 7.421,79 5.195,26 0,00 0,00 0,00 1.387,88 14.004,93 1.387,88 2.600,33 0,00 3.988,21 10.016,72 1.550,00 1.686,64 30/04/2020
810 123300 ELMA PAULA DOS SANTOS COELHO OFICIAL DO MP ATIVO BELO HORIZONTE - COMARCA; BH-19PJ SAUDE-SECRETARIA 130PJ 16.750,82 15.075,74 0,00 0,00 0,00 3.500,92 35.327,48 3.500,92 7.882,94 0,00 11.383,86 23.943,62 1.550,00 2.780,73 30/04/2020
811 356500 ELOISA CARDOSO SILVA FRANCA OFICIAL DO MP ATIVO PEÇANHA - COMARCA; PECANHA-PJ-SECRETARIA 6.123,79 1.224,76 0,00 0,00 0,00 0,00 7.348,55 808,34 772,79 0,00 1.581,13 5.767,42 1.550,00 334,78 30/04/2020
812 251901 ELOISA COSTA E SILVA ANALISTA DO MP ATIVO SANTOS DUMONT - COMARCA; SANTOS DUMONT-PJ-02PJ 10.069,62 3.020,89 0,00 0,00 0,00 0,00 13.090,51 1.439,96 2.282,40 0,00 3.722,36 9.368,15 2.319,39 680,72 30/04/2020
813 400400 ELOIZA MARIA FERRI PIRES DA SILVA OFICIAL DO MP ATIVO BELO HORIZONTE - COMARCA; ASSESSORIA TECNICA DO PROCON-MG 7.663,37 1.532,67 0,00 0,00 0,00 0,00 9.196,04 1.011,56 1.329,23 0,00 2.340,79 6.855,25 1.711,29 666,70 30/04/2020
814 258000 ELSO CECIANO PALMEIRA COORDENADOR/OFICIAL ATIVO BELO HORIZONTE - COMARCA; DIRET DE PESSOAL DO MINISTERIO PUBLICO - DPMP 11.085,56 10.596,49 0,00 0,00 0,00 0,00 21.682,05 2.073,00 4.523,13 0,00 6.596,13 15.085,92 6.126,59 1.899,23 30/04/2020
815 206900 ELVIRA RITA DOS SANTOS ANALISTA DO MP ATIVO BELO HORIZONTE - COMARCA; CENTRAL DE APOIO TECNICO-SETOR CONTABIL 18.820,14 7.528,06 0,00 0,00 0,00 2.898,30 29.246,50 2.898,30 6.376,40 0,00 9.274,70 19.971,80 1.900,67 1.461,13 30/04/2020
816 506800 ELVIS FERREIRA DA SILVA ANALISTA DO MP ATIVO BELO HORIZONTE - COMARCA; DIRETORIA DE SISTEMAS DE INFORMACAO 10.069,62 1.006,96 0,00 0,00 0,00 0,00 11.076,58 1.218,42 1.685,22 0,00 2.903,64 8.172,94 2.319,39 481,50 30/04/2020
817 602400 ELZA MARIA MOREIRA MUNIZ ANALISTA DO MP ATIVO CARMO DO PARANAÍBA - COMARCA; CARMO DO PARANAIBA-PJ-02PJ 8.436,53 843,65 0,00 0,00 0,00 0,00 9.280,18 1.020,82 1.297,69 0,00 2.318,51 6.961,67 1.550,00 618,04 30/04/2020
818 368401 ELZIRA SIMOES DOS SANTOS ASSESSOR ATIVO BELO HORIZONTE - COMARCA; SUPERINTENDENCIA DE COMUNICACAO INTEGRADA 0,00 3.433,94 11.446,46 0,00 0,00 0,00 14.880,40 713,09 3.329,15 0,00 4.042,24 10.838,16 7.502,16 1.307,31 30/04/2020
819 437400 EMANOELLE DA SILVA RODRIGUES OFICIAL DO MP ATIVO UNAÍ - COMARCA; UNAI-PJ-03PJ 6.961,05 696,11 0,00 0,00 0,00 0,00 7.657,16 842,29 952,59 0,00 1.794,88 5.862,28 3.088,78 553,01 30/04/2020
820 458900 EMANUELLE CONRAD SILVA FREDERICO NAVES ANALISTA DO MP ATIVO ALFENAS - COMARCA; ALFENAS-PJ-05PJ 12.204,02 1.220,40 0,00 0,00 0,00 0,00 13.424,42 1.476,69 2.364,13 0,00 3.840,82 9.583,60 2.319,39 1.553,42 30/04/2020
821 284100 EMERSON MAGNO ALMEIDA PEDROSA DA FONSECA ANALISTA DO MP ATIVO BELO HORIZONTE - COMARCA; CENTRAL DE APOIO TECNICO-SETOR CONTABIL 16.750,82 5.025,25 0,00 0,00 0,00 0,00 21.776,07 2.395,37 3.030,71 0,00 5.426,08 16.349,99 7.403,99 2.887,50 30/04/2020
822 179900 EMERSON MORAIS DIAS OFICIAL DO MP ATIVO BELO HORIZONTE - COMARCA; SUPERINTENDÊNCIA DE ENGENHARIA E ARQUITETURA 14.790,66 5.916,26 0,00 0,00 0,00 0,00 20.706,92 2.277,76 4.198,66 0,00 6.476,42 14.230,50 7.569,53 2.035,41 30/04/2020
823 488700 EMERSON SIQUEIRA DE SOUSA TEIXEIRA ANALISTA DO MP ATIVO TARUMIRIM - COMARCA; TARUMIRIM-PJ-UNPJ 10.069,62 1.006,96 0,00 0,00 0,00 0,00 11.076,58 1.218,42 1.685,22 0,00 2.903,64 8.172,94 1.550,00 481,50 30/04/2020
824 194200 EMILIA ALVES FERREIRA RAMOS OFICIAL DO MP ATIVO UBERLÂNDIA - COMARCA; UBERLANDIA-PJ-SEC FAMILIA 9.146,93 3.658,77 0,00 0,00 0,00 0,00 12.805,70 1.408,63 2.264,83 0,00 3.673,46 9.132,24 2.616,19 887,35 30/04/2020
825 123400 EMILIO CARLOS MARTINS OFICIAL DO MP ATIVO AREADO - COMARCA; AREADO-PJ-UNPJ 17.413,92 13.931,14 0,00 0,00 0,00 3.447,96 34.793,02 3.447,96 7.698,39 0,00 11.146,35 23.646,67 1.550,00 2.582,16 30/04/2020
826 620700 EMILY FONTANA DE SIQUEIRA ANALISTA DO MP ATIVO BELO HORIZONTE - COMARCA; BH-18PJ VIOLENCIA DOMESTICA 8.170,49 817,05 0,00 0,00 0,00 0,00 8.987,54 988,63 1.278,20 0,00 2.266,83 6.720,71 2.319,39 1.007,77 30/04/2020
827 297000 ENEIDA SOARES COSTA MELO ANALISTA DO MP ATIVO PIUMHI - COMARCA; PIUMHI-PJ-01PJ 16.750,82 5.025,25 0,00 0,00 0,00 0,00 21.776,07 2.395,37 4.460,33 0,00 6.855,70 14.920,37 6.279,93 2.807,66 30/04/2020
828 276000 ENEZIO RODRIGUES DE SOUZA FILHO OFICIAL DO MP ATIVO UBERLÂNDIA - COMARCA; UBERLANDIA-PJ-01PJ 10.069,62 3.020,89 0,00 0,00 0,00 0,00 13.090,51 1.439,96 2.334,54 0,00 3.774,50 9.316,01 1.550,00 1.490,05 30/04/2020
829 387700 ENI MARIA DOS REIS OFICIAL DO MP ATIVO POUSO ALEGRE - COMARCA; POUSO ALEGRE-PJ-07PJ 8.579,10 1.715,82 0,00 0,00 0,00 0,00 10.294,92 1.132,44 1.650,32 0,00 2.782,76 7.512,16 1.550,00 1.078,76 30/04/2020
830 605100 ENIA MAIA ASSESSOR/OFICIAL ATIVO BELO HORIZONTE - COMARCA; DIRETORIA DE ORCAMENTO-DIOR/SPC 0,00 1.039,75 10.397,52 0,00 0,00 0,00 11.437,27 669,54 2.091,77 0,00 2.761,31 8.675,96 1.550,00 535,44 30/04/2020
831 612200 ENILDO GOMES MEIRA FILHO ANALISTA DO MP ATIVO BUENÓPOLIS - COMARCA; BUENOPOLIS-PJ-UNPJ 8.170,49 817,05 0,00 0,00 0,00 0,00 8.987,54 988,63 1.173,93 0,00 2.162,56 6.824,98 2.319,39 1.038,13 30/04/2020
832 553700 ENIVALDO NOVATO PUBLIO ANALISTA DO MP ATIVO DIVINÓPOLIS - COMARCA; DIVINOPOLIS-PJ-09PJ 8.436,53 843,65 0,00 0,00 0,00 0,00 9.280,18 1.020,82 1.349,83 0,00 2.370,65 6.909,53 1.550,00 709,60 30/04/2020
833 417300 ERIC BARATTI DA SILVA ANALISTA DO MP ATIVO PRATA - COMARCA; PRATA-PJ-UNPJ 10.069,62 2.013,92 0,00 0,00 0,00 0,00 12.083,54 1.329,19 2.088,09 0,00 3.417,28 8.666,26 1.550,00 504,62 30/04/2020
834 637600 ERIC DA ROCHA CHEHUEN ANALISTA DO MP ATIVO LIMA DUARTE - COMARCA; LIMA DUARTE-PJ-UNPJ 7.421,79 742,18 0,00 0,00 0,00 0,00 8.163,97 671,12 1.272,81 0,00 1.943,93 6.220,04 1.550,00 916,97 30/04/2020
835 398900 ERIC TEIXEIRA SILVA OFICIAL DO MP ATIVO UBERLÂNDIA - COMARCA; UBERLANDIA-PJ-SEC CIVEIS CRIMINAIS 8.436,53 1.687,31 0,00 0,00 0,00 0,00 10.123,84 1.113,62 1.608,45 0,00 2.722,07 7.401,77 1.550,00 843,90 30/04/2020
836 274200 ERICA DE SOUZA ANDRADE OFICIAL DO MP ATIVO CURVELO - COMARCA; CURVELO-PJ-03PJ 10.069,62 3.020,89 0,00 0,00 0,00 0,00 13.090,51 1.439,96 2.282,40 0,00 3.722,36 9.368,15 1.550,00 898,98 30/04/2020
837 225700 ERICA GOMES DO COUTO OFICIAL DO MP ATIVO BELO HORIZONTE - COMARCA; BH-21PJ TUTELA FUNDACOES-SECRETARIA 13.011,52 3.903,46 0,00 0,00 0,00 0,00 16.914,98 1.860,65 3.270,58 0,00 5.131,23 11.783,75 2.319,39 1.162,91 30/04/2020
838 632600 ERICA LEONOR MARTINS OFICIAL DO MP ATIVO RESENDE COSTA - COMARCA; RESENDE COSTA-PJ-UNPJ 4.817,57 481,76 0,00 0,00 0,00 0,00 5.299,33 582,93 427,65 0,00 1.010,58 4.288,75 1.550,00 358,19 30/04/2020
839 524800 ERICA MACHADO DA COSTA E SOUZA ANALISTA DO MP ATIVO BELO HORIZONTE - COMARCA; PROC JUST RECURSOS ESP E EXTRAORD CRIMINAIS 10.069,62 1.006,96 0,00 0,00 0,00 0,00 11.076,58 1.281,08 1.981,05 0,00 3.262,13 7.814,45 1.550,00 1.920,58 30/04/2020
840 249500 ERICA RODRIGUES ANDRADE OFICIAL DO MP ATIVO SÃO FRANCISCO - COMARCA; SAO FRANCISCO-PJ-02PJ 8.858,43 2.657,53 0,00 0,00 0,00 0,00 11.515,96 1.266,76 1.897,03 0,00 3.163,79 8.352,17 1.550,00 1.243,14 30/04/2020
841 260800 ERICA VIANA GIARDINI DE OLIVEIRA OFICIAL DO MP ATIVO BELO HORIZONTE - COMARCA; DIRETORIA GESTAO COMPRAS LICITACOES 10.069,62 3.020,89 0,00 0,00 0,00 0,00 13.090,51 1.439,96 2.334,54 0,00 3.774,50 9.316,01 1.550,00 586,96 30/04/2020
842 299800 ERICH DOUGLAS RIBEIRO GARCIA ANALISTA DO MP ATIVO BELO HORIZONTE - COMARCA; CENTRAL DE APOIO TECNICO-SETOR CONTABIL 15.272,02 4.581,61 0,00 0,00 0,00 0,00 19.853,63 2.183,90 3.989,82 0,00 6.173,72 13.679,91 3.249,31 1.508,90 30/04/2020
843 365000 ERICK EDUARDO JOSE DA SILVA OFICIAL DO MP ATIVO SANTOS DUMONT - COMARCA; SANTOS DUMONT-PJ-02PJ 6.123,79 1.224,76 0,00 0,00 0,00 0,00 7.348,55 808,34 929,20 0,00 1.737,54 5.611,01 1.550,00 334,78 30/04/2020
844 227400 ERIKA DE LAET GOULART BOECHAT ASSESSOR/OFICIAL ATIVO BELO HORIZONTE - COMARCA; ASSESSORIA ESPECIAL DO PGJ 13.011,52 6.423,72 0,00 0,00 0,00 0,00 19.435,24 1.860,65 3.911,52 0,00 5.772,17 13.663,07 7.205,63 1.790,75 30/04/2020
845 285100 ERIKA FERREIRA DA SILVA OFICIAL DO MP ATIVO JUIZ DE FORA - COMARCA; JUIZ DE FORA-PJ-11PJ 10.069,62 3.020,89 0,00 0,00 0,00 0,00 13.090,51 1.439,96 2.334,54 0,00 3.774,50 9.316,01 1.550,00 898,98 30/04/2020
846 420100 ERIKA JEANINE VERSIANI DE CASTRO ANALISTA DO MP ATIVO BELO HORIZONTE - COMARCA; COORD ESTADUAL DE DEFESA DA EDUCACAO 12.601,30 2.520,26 0,00 0,00 0,00 0,00 15.121,56 1.663,37 2.831,64 0,00 4.495,01 10.626,55 1.550,00 1.089,12 30/04/2020
847 606900 ERIKA MARIA BARBOSA ANALISTA DO MP ATIVO BELO HORIZONTE - COMARCA; CAO-SAUDE 7.632,59 766,34 0,00 0,00 0,00 0,00 8.398,93 927,27 1.133,21 0,00 2.060,48 6.338,45 1.550,00 544,87 30/04/2020
848 491000 ERIKA ROCHA PEREIRA E SILVA COORDENADOR/ANALISTA ATIVO BELO HORIZONTE - COMARCA; DIR GOVERNANCA TECNOLOGIA INFORMACAO 0,00 1.343,52 13.435,16 0,00 0,00 0,00 14.778,68 1.218,42 2.859,71 0,00 4.078,13 10.700,55 1.550,00 696,99 30/04/2020
849 283201 ERIKA STEHLING COORDENADOR/ANALISTA ATIVO BELO HORIZONTE - COMARCA; CENTRAL DE APOIO TECNICO-SETOR DE ENGENHARIA 10.069,62 3.370,79 0,00 0,00 0,00 0,00 13.440,41 1.218,42 2.491,69 0,00 3.710,11 9.730,30 1.550,00 605,99 30/04/2020
850 254000 ERLANDIA DA SILVA MENDES OFICIAL DO MP ATIVO IPATINGA - COMARCA; IPATINGA-PJ-03PJ 12.204,02 4.881,61 0,00 0,00 0,00 0,00 17.085,63 1.879,42 3.155,94 0,00 5.035,36 12.050,27 1.608,08 1.977,06 30/04/2020
851 208600 ERNANE JOSE DA COSTA ANALISTA DO MP ATIVO BELO HORIZONTE - COMARCA; CENTRAL DE APOIO TECNICO-SETOR MEDICO 18.820,14 13.174,10 0,00 0,00 0,00 0,00 31.994,24 3.519,37 6.961,23 34,24 10.514,84 21.479,40 1.550,00 1.461,36 30/04/2020
852 260600 ERNANI CALDEIRA DE ANDRADE ANALISTA DO MP ATIVO BELO HORIZONTE - COMARCA; CENTRAL DE APOIO TECNICO-SETOR CONTABIL 18.820,14 5.646,04 0,00 0,00 0,00 0,00 24.466,18 2.691,28 5.118,74 0,00 7.810,02 16.656,16 1.550,00 3.355,48 30/04/2020
853 348500 ERNILANDIA DE OLIVEIRA DIAS OFICIAL DO MP ATIVO MONTES CLAROS - COMARCA; MONTES CLAROS-PJ-16PJ 8.579,10 1.715,82 0,00 0,00 0,00 0,00 10.294,92 1.132,44 1.650,32 0,00 2.782,76 7.512,16 1.550,00 1.078,76 30/04/2020
854 199300 ERTON PORTINARI DE ANDRADE OFICIAL DO MP ATIVO SETE LAGOAS - COMARCA; SETE LAGOAS-PJ-05PJ 14.324,23 5.729,69 0,00 0,00 0,00 0,00 20.053,92 2.205,93 3.934,56 0,00 6.140,49 13.913,43 3.445,05 2.467,54 30/04/2020
855 618800 ESLY DE CARLA AYALLA BARBOSA MENDES OFICIAL DO MP ATIVO NOVA LIMA - COMARCA; NOVA LIMA-PJ-SECRETARIA 4.817,57 481,76 0,00 0,00 0,00 0,00 5.299,33 582,93 427,65 0,00 1.010,58 4.288,75 1.550,00 632,60 30/04/2020
856 537000 ESTANISLAU CORREIA ALMEIDA JUNIOR OFICIAL DO MP ATIVO UBERLÂNDIA - COMARCA; UBERLANDIA-PJ-25PJ 5.387,19 538,72 0,00 0,00 0,00 0,00 5.925,91 651,85 581,01 0,00 1.232,86 4.693,05 1.550,00 463,37 30/04/2020
857 326900 ESTER ALICE PIMENTA OFICIAL DO MP ATIVO BELO HORIZONTE - COMARCA; COORD DE INCLUSAO E MOBILIZACAO SOCIAIS 9.444,70 1.888,94 0,00 0,00 0,00 0,00 11.333,64 1.246,70 1.852,41 0,00 3.099,11 8.234,53 1.550,00 779,18 30/04/2020
858 503700 ESTHER GONCALVES FONSECA ANALISTA DO MP ATIVO BELO HORIZONTE - COMARCA; DIRETORIA DE PUBLICIDADE INSTITUCIONAL 8.579,10 857,91 0,00 0,00 0,00 0,00 9.437,01 1.038,07 1.440,35 0,00 2.478,42 6.958,59 1.550,00 532,82 30/04/2020
859 475600 ETIENE DE FATIMA OLIVEIRA PEREIRA ANALISTA DO MP ATIVO PATROCÍNIO - COMARCA; PATROCINIO-PJ-04PJ 10.069,62 1.006,96 0,00 0,00 0,00 0,00 11.076,58 1.218,42 1.737,36 0,00 2.955,78 8.120,80 2.319,39 599,12 30/04/2020
860 428800 EUGENIA RODRIGUES TRAJANO BORGES ANALISTA DO MP ATIVO UBERABA - COMARCA; UBERABA-PJ-08PJ 12.204,02 2.440,80 0,00 0,00 0,00 0,00 14.644,82 1.610,93 2.714,96 0,00 4.325,89 10.318,93 1.550,00 1.689,53 30/04/2020
861 272700 EUGENIO DE BARCELOS FILHO OFICIAL DO MP ATIVO FRUTAL - COMARCA; FRUTAL-PJ-03PJ 8.579,10 2.573,73 0,00 0,00 0,00 0,00 11.152,83 1.226,81 1.808,16 0,00 3.034,97 8.117,86 1.550,00 1.133,74 30/04/2020
862 254100 EULALIA ALVES MIRANDA LUCAS OFICIAL DO MP ATIVO ALMENARA - COMARCA; ALMENARA-PJ-02PJ 11.085,56 3.325,67 0,00 0,00 0,00 0,00 14.411,23 1.585,24 2.553,51 0,00 4.138,75 10.272,48 1.621,44 1.040,85 30/04/2020
863 615500 EUNICE BARBOSA PINTO OFICIAL DO MP ATIVO OURO PRETO - COMARCA; OURO PRETO-PJ-04PJ 5.217,34 1.043,47 0,00 0,00 0,00 0,00 6.260,81 688,69 662,97 0,00 1.351,66 4.909,15 1.550,00 702,92 30/04/2020
864 641200 EUNICE ELVIRA DA SILVA MATOS OFICIAL DO MP ATIVO BELO HORIZONTE - COMARCA; BH-14PJ DEFESA CONSUMIDOR-SECRETARIA 4.376,03 262,56 0,00 0,00 0,00 0,00 4.638,59 510,24 292,75 0,00 802,99 3.835,60 1.550,00 304,91 30/04/2020
865 557900 EURIPEDES JOSUE PERES OFICIAL DO MP ATIVO IBIÁ - COMARCA; IBIA-PJ-UNPJ 4.974,42 497,44 0,00 0,00 0,00 0,00 5.471,86 601,90 469,88 0,00 1.071,78 4.400,08 1.550,00 364,39 30/04/2020
866 225800 EURO CESAR VIEIRA BARBOSA ANALISTA DO MP ATIVO BELO HORIZONTE - COMARCA; BH-17PJ PATRIMONIO PUBLICO 18.820,14 7.528,06 0,00 0,00 0,00 0,00 26.348,20 2.898,30 5.475,09 0,00 8.373,39 17.974,81 7.070,12 1.597,67 30/04/2020
867 199400 EUSTAQUIO ADAILTON LIMA E SILVA OFICIAL DO MP ATIVO MANGA - COMARCA; MANGA-PJ-01PJ 14.324,23 10.026,96 0,00 0,00 0,00 0,00 24.351,19 2.678,63 4.882,05 0,00 7.560,68 16.790,51 1.550,00 2.722,84 30/04/2020
868 548000 EVA VILMA LEAO REIS JULIO OFICIAL DO MP ATIVO BELO HORIZONTE - COMARCA; BH-07PJ 01 TRIBUNAL JURI-SECRETARIA 5.387,19 1.616,16 0,00 0,00 0,00 0,00 7.003,35 770,37 844,71 0,00 1.615,08 5.388,27 1.550,00 594,97 30/04/2020
869 517000 EVALDO SENA COSTA FILHO ANALISTA DO MP ATIVO CONTAGEM - COMARCA; CONTAGEM-PJ-15PJ 10.069,62 3.020,89 0,00 0,00 0,00 0,00 13.090,51 1.439,96 2.178,13 0,00 3.618,09 9.472,42 1.550,00 541,72 30/04/2020
870 217500 EVELANGE LEAO RABELO ASSESSOR ATIVO BELO HORIZONTE - COMARCA; COORD EST DEF DIR FAMILIA PESSOA DEFICI IDOSO 0,00 1.230,51 3.076,28 0,00 0,00 0,00 4.306,79 644,56 440,25 0,00 1.084,81 3.221,98 1.550,00 204,72 30/04/2020
871 540400 EVIE SARAMELLA DE RESENDE OFICIAL DO MP ATIVO BARBACENA - COMARCA; BARBACENA-PJ-05PJ 5.387,19 538,72 0,00 0,00 0,00 0,00 5.925,91 651,85 581,01 0,00 1.232,86 4.693,05 1.550,00 522,34 30/04/2020
872 469000 EWERTON CARDOSO DE SA RODRIGUES ANALISTA DO MP ATIVO CAMPO BELO - COMARCA; CAMPO BELO-PJ-01PJ 10.069,62 1.006,96 0,00 0,00 0,00 0,00 11.076,58 1.218,42 1.737,36 0,00 2.955,78 8.120,80 2.319,39 504,62 30/04/2020
873 368900 FABIANA BARBOSA SIQUEIRA OFICIAL DO MP ATIVO BELO HORIZONTE - COMARCA; CAO-ORDEM ECONOMICA E TRIBUTARIA-SECRETARIA 8.858,43 1.771,69 0,00 0,00 0,00 0,00 10.630,12 1.169,31 1.680,23 0,00 2.849,54 7.780,58 1.550,00 800,31 30/04/2020
874 273800 FABIANA CARNEIRO AMORIM COORDENADOR/OFICIAL ATIVO BELO HORIZONTE - COMARCA; BH-23PJ CIVEL-COORD ADM CIVEL 10.736,08 5.584,65 0,00 0,00 0,00 0,00 16.320,73 1.535,26 3.092,37 0,00 4.627,63 11.693,10 1.718,36 1.377,24 30/04/2020
875 519300 FABIANA DE OLIVEIRA LOUREIRO ANALISTA DO MP ATIVO BELO HORIZONTE - COMARCA; BH-09PJ AUDITORIA MILITAR-SECRETARIA 10.069,62 1.006,96 0,00 0,00 0,00 0,00 11.076,58 1.218,42 1.841,63 0,00 3.060,05 8.016,53 1.550,00 458,38 30/04/2020
876 363400 FABIANA DOURADO DUPIN VIEGAS ANALISTA DO MP ATIVO BELO HORIZONTE - COMARCA; GABINETE DE PROCURADOR DE JUSTIÇA - SALA 705 14.790,66 2.958,13 0,00 0,00 0,00 0,00 17.748,79 1.952,37 3.422,52 0,00 5.374,89 12.373,90 1.550,00 1.306,48 30/04/2020
877 410800 FABIANA DUARTE QUITITE ANALISTA DO MP ATIVO BELO HORIZONTE - COMARCA; EXTINTA-MEIO AMB PATRIM HIST CULTURAL-15PJGAB 12.601,30 2.520,26 0,00 0,00 0,00 0,00 15.121,56 1.663,37 2.831,64 0,00 4.495,01 10.626,55 5.179,17 1.444,91 30/04/2020
878 419500 FABIANA EULALIA DOS SANTOS ANALISTA DO MP ATIVO SÃO JOÃO DEL REI - COMARCA; SAO JOAO DEL REI-PJ-01PJ 12.601,30 2.520,26 0,00 0,00 0,00 0,00 15.121,56 1.663,37 2.831,64 0,00 4.495,01 10.626,55 1.550,00 949,00 30/04/2020
879 376300 FABIANA MATTOSO LEMOS ANALISTA DO MP ATIVO BELO HORIZONTE - COMARCA; BH-21PJ TUTELA FUNDACOES-SECRETARIA 13.011,52 2.602,30 0,00 0,00 0,00 0,00 15.613,82 1.717,52 2.952,12 0,00 4.669,64 10.944,18 1.550,00 1.125,03 30/04/2020
880 331500 FABIANA PACHECO OFICIAL DO MP ATIVO GUAXUPÉ - COMARCA; GUAXUPE-PJ-01PJ 9.146,93 1.829,39 0,00 0,00 0,00 0,00 10.976,32 1.207,40 1.712,82 0,00 2.920,22 8.056,10 2.319,39 842,56 30/04/2020
881 510700 FABIANA PEREIRA SANTOS BORGES ANALISTA DO MP ATIVO BELO HORIZONTE - COMARCA; DIRETORIA DE SISTEMAS DE INFORMACAO 10.069,62 1.006,96 0,00 0,00 0,00 0,00 11.076,58 1.218,42 1.789,50 0,00 3.007,92 8.068,66 2.319,39 544,22 30/04/2020
882 181700 FABIANA SOUZA FERREIRA OFICIAL DO MP ATIVO BELO HORIZONTE - COMARCA; BH-19PJ SAUDE-SECRETARIA 150PJ 6.123,79 2.449,52 0,00 0,00 0,00 0,00 8.573,31 943,06 1.124,68 0,00 2.067,74 6.505,57 1.550,00 362,68 30/04/2020
883 272900 FABIANA STOCKLER LEITE OFICIAL DO MP ATIVO LAJINHA - COMARCA; LAJINHA-PJ-SECRETARIA 10.069,62 5.034,81 0,00 0,00 0,00 0,00 15.104,43 1.661,49 2.723,17 0,00 4.384,66 10.719,77 2.319,39 969,21 30/04/2020
884 225500 FABIANE DE FATIMA PORTELLA ANALISTA DO MP ATIVO BELO HORIZONTE - COMARCA; BH-18PJ DIREITOS HUMANOS 18.820,14 5.646,04 0,00 0,00 0,00 0,00 24.466,18 2.691,28 5.118,74 0,00 7.810,02 16.656,16 1.550,00 1.053,35 30/04/2020
885 433800 FABIANE DINIZ MATTOS ANALISTA DO MP ATIVO BELO HORIZONTE - COMARCA; BH-23PJ INFRACIONAL-ASS JURIDICA 12.601,30 2.520,26 0,00 0,00 0,00 0,00 15.121,56 1.748,92 3.021,99 0,00 4.770,91 10.350,65 3.088,78 1.726,76 30/04/2020
886 455000 FABIANO CARVALHO DA SILVA ANALISTA DO MP ATIVO LAVRAS - COMARCA; COORD REG DO MA DA BACIA DO RIO GRANDE 10.069,62 1.006,96 0,00 0,00 0,00 0,00 11.076,58 1.218,42 1.841,63 0,00 3.060,05 8.016,53 1.550,00 504,62 30/04/2020
887 498800 FABIANO FURTADO PESSOA COELHO ANALISTA DO MP ATIVO BELO HORIZONTE - COMARCA; DIRETORIA DE REDES E BANCOS DE DADOS 10.069,62 1.006,96 0,00 0,00 0,00 0,00 11.076,58 1.218,42 1.789,50 0,00 3.007,92 8.068,66 1.550,00 481,50 30/04/2020
888 663000 FABIANO MARQUES CORREA ASSESSOR ATIVO BELO HORIZONTE - COMARCA; DIRETORIA DE SUPORTE E MANUTENCAO 0,00 0,00 5.136,32 0,00 0,00 0,00 5.136,32 713,09 649,53 0,00 1.362,62 3.773,70 1.550,00 0,00 30/04/2020
889 394600 FABIANO PALHARES SILVA ANALISTA DO MP ATIVO BELO HORIZONTE - COMARCA; CENTRAL DE APOIO TECN-SETOR DE MEIO AMBIENTE 13.011,52 2.602,30 0,00 0,00 0,00 0,00 15.613,82 1.717,52 2.899,99 0,00 4.617,51 10.996,31 5.372,28 1.416,96 30/04/2020
890 444400 FABIANO SARAIVA MEDEIROS ANALISTA DO MP ATIVO BETIM - COMARCA; BETIM-PJ-11PJ 12.204,02 2.440,80 0,00 0,00 0,00 0,00 14.644,82 1.610,93 2.610,69 0,00 4.221,62 10.423,20 2.456,30 1.654,17 30/04/2020
891 408700 FABIANO SOARES PORTILHO ANALISTA DO MP ATIVO VIÇOSA - COMARCA; VICOSA-PJ-02PJ 12.601,30 2.520,26 0,00 0,00 0,00 0,00 15.121,56 1.663,37 2.831,64 0,00 4.495,01 10.626,55 1.550,00 949,00 30/04/2020
892 442600 FABIO CARVALHO VIEIRA ANALISTA DO MP ATIVO MONTES CLAROS - COMARCA; MONTES CLAROS-PJ-06PJ 9.444,70 1.888,94 0,00 0,00 0,00 0,00 11.333,64 1.246,70 1.904,55 0,00 3.151,25 8.182,39 1.550,00 1.215,78 30/04/2020
893 240101 FABIO JUNQUEIRA DE ASSIS FONSECA OFICIAL DO MP ATIVO BELO HORIZONTE - COMARCA; BH-17PJ PATRIMONIO PUBLICO-SECRETARIA 7.912,85 1.582,57 0,00 0,00 0,00 0,00 9.495,42 1.044,50 1.454,64 0,00 2.499,14 6.996,28 1.550,00 1.098,71 30/04/2020
894 271500 FABIO LUIZ VIEIRA OFICIAL DO MP ATIVO SANTA VITÓRIA - COMARCA; SANTA VITORIA-PJ-UNPJ 10.069,62 3.020,89 0,00 0,00 0,00 0,00 13.090,51 1.439,96 2.230,27 0,00 3.670,23 9.420,28 1.615,62 1.211,25 30/04/2020
895 213100 FABIO PRATES GONCALVES ASSESSOR ATIVO BELO HORIZONTE - COMARCA; DIRETORIA DE RELACOES PUBLICAS E CERIMONIAL 0,00 4.159,01 10.397,52 0,00 0,00 0,00 14.556,53 713,09 3.083,67 0,00 3.796,76 10.759,77 2.319,39 807,22 30/04/2020
896 436700 FABIO SANTIAGO DE CARVALHO OFICIAL DO MP ATIVO POÇO FUNDO - COMARCA; POCO FUNDO-PJ-UNPJ 7.912,85 1.582,57 0,00 0,00 0,00 0,00 9.495,42 1.044,50 1.454,64 0,00 2.499,14 6.996,28 1.550,00 598,44 30/04/2020
897 208400 FABIOLA DE SOUSA CARDOSO ASSESSOR/ANALISTA ATIVO BELO HORIZONTE - COMARCA; ASSESS TECNICA DA CORREGEDORIA-GERAL DO MP 18.820,14 10.048,32 0,00 0,00 0,00 0,00 28.868,46 2.898,30 6.272,43 0,00 9.170,73 19.697,73 7.599,97 1.772,87 30/04/2020
898 392200 FABIOLA LEROY COSTA ANALISTA DO MP ATIVO ESMERALDAS - COMARCA; ESMERALDAS-PJ-01PJ 10.069,62 2.013,92 0,00 0,00 0,00 0,00 12.083,54 1.329,19 2.088,09 0,00 3.417,28 8.666,26 2.319,39 550,48 30/04/2020
899 409000 FABIOLA MONTEIRO DE CARVALHO CASTRO ANALISTA DO MP ATIVO BOM SUCESSO - COMARCA; BOM SUCESSO-PJ-UNPJ 10.736,08 2.147,22 0,00 0,00 0,00 0,00 12.883,30 1.417,16 2.283,83 0,00 3.700,99 9.182,31 1.550,00 839,93 30/04/2020
900 227900 FABIOLA PIMENTA DE CARVALHO OFICIAL DO MP ATIVO MONTES CLAROS - COMARCA; COORD REG BACIA RIOS VERDE GRANDE E PARDO 10.069,62 3.020,89 0,00 0,00 0,00 0,00 13.090,51 1.439,96 2.334,54 0,00 3.774,50 9.316,01 1.550,00 899,99 30/04/2020
901 525800 FABRICIA ALVES DANTAS OFICIAL DO MP ATIVO MONTES CLAROS - COMARCA; MONTES CLAROS-PJ-01PJ 6.741,63 674,16 0,00 0,00 0,00 0,00 7.415,79 815,74 841,38 0,00 1.657,12 5.758,67 1.550,00 509,83 30/04/2020
902 263400 FABRICIA PINTO TEIXEIRA SANTIAGO OFICIAL DO MP ATIVO BELO HORIZONTE - COMARCA; CAO-TS-TERCEIRO SETOR-SECRETARIA 12.204,02 3.661,21 0,00 0,00 0,00 0,00 15.865,23 1.745,18 2.909,38 0,00 4.654,56 11.210,67 1.970,40 1.835,84 30/04/2020
903 420800 FABRICIO BERNARDES DE OLIVEIRA OFICIAL DO MP ATIVO ITURAMA - COMARCA; ITURAMA-PJ-02PJ 7.912,85 1.582,57 0,00 0,00 0,00 0,00 9.495,42 1.044,50 1.402,51 0,00 2.447,01 7.048,41 1.550,00 619,03 30/04/2020
904 474000 FABRICIO DE FREITAS SALES ANALISTA DO MP ATIVO MONTES CLAROS - COMARCA; COORD REG PATRI PUB ORD TRIB-NORTE MINAS 10.069,62 1.006,96 0,00 0,00 0,00 0,00 11.076,58 1.218,42 1.841,63 0,00 3.060,05 8.016,53 1.550,00 504,62 30/04/2020
905 510100 FABRICIO FURTADO ASSIS DO CARMO ANALISTA DO MP ATIVO BELO HORIZONTE - COMARCA; SERVICO MEDICO-DEPTO PERIC MEDICA SAUDE OCUP 10.069,62 1.006,96 0,00 0,00 4.013,36 0,00 15.089,94 1.218,42 3.210,27 0,00 4.428,69 10.661,25 2.319,39 1.588,39 30/04/2020
906 519600 FABRICIO GONTIJO SALVATI ANALISTA DO MP ATIVO JUIZ DE FORA - COMARCA; JUIZ DE FORA-CAO ESPECIALIZADO-SECRETARIA 10.069,62 1.006,96 0,00 0,00 0,00 0,00 11.076,58 1.218,42 1.841,63 0,00 3.060,05 8.016,53 6.866,76 945,75 30/04/2020
907 637400 FABRICIO HENRIQUE DA SILVA PASSOS ASSESSOR/ANALISTA ATIVO BELO HORIZONTE - COMARCA; DIRETORIA DE PUBLICIDADE INSTITUCIONAL 0,00 1.039,75 10.397,52 0,00 0,00 0,00 11.437,27 1.062,24 2.098,15 0,00 3.160,39 8.276,88 1.550,00 1.026,87 30/04/2020
908 428200 FABRICIO ORZIL VIANA ANALISTA DO MP ATIVO SANTA LUZIA - COMARCA; SANTA LUZIA-PJ-04PJ 10.069,62 2.013,92 0,00 0,00 0,00 0,00 12.083,54 1.329,19 2.088,09 0,00 3.417,28 8.666,26 1.550,00 599,12 30/04/2020
909 455600 FABRICIO PAIVA DA ROCHA ANALISTA DO MP ATIVO SÃO JOÃO DEL REI - COMARCA; SAO JOAO DEL REI-PJ-06PJ 10.069,62 1.006,96 0,00 0,00 0,00 0,00 11.076,58 1.218,42 1.789,50 0,00 3.007,92 8.068,66 3.205,52 585,85 30/04/2020
910 511500 FABRICIO RENE CARDOSO DE PADUA ANALISTA DO MP ATIVO SÃO SEBASTIÃO DO PARAÍSO - COMARCA; SAO SEBASTIAO DO PARAISO-PJ-03PJ 10.069,62 1.006,96 0,00 0,00 0,00 0,00 11.076,58 1.218,42 1.841,63 0,00 3.060,05 8.016,53 1.550,00 544,22 30/04/2020
911 496100 FABRICIO RESENDE GONCALVES OFICIAL DO MP ATIVO ENTRE-RIOS DE MINAS - COMARCA; ENTRE RIOS DE MINAS-PJ-UNPJ 6.741,63 674,16 0,00 0,00 0,00 0,00 7.415,79 815,74 945,65 0,00 1.761,39 5.654,40 2.319,39 641,44 30/04/2020
912 650300 FABRICIO ROBERTO AZEVEDO OFICIAL DO MP ATIVO NOVA SERRANA - COMARCA; NOVA SERRANA-PJ-04PJ 4.238,09 254,29 0,00 0,00 0,00 0,00 4.492,38 494,16 263,47 0,00 757,63 3.734,75 1.550,00 490,43 30/04/2020
913 514900 FADUA MARIA DRUMOND CHEQUER ANALISTA DO MP ATIVO CONTAGEM - COMARCA; CONTAGEM-PJ-06PJ 10.069,62 1.006,96 0,00 0,00 0,00 0,00 11.076,58 1.218,42 1.737,36 0,00 2.955,78 8.120,80 3.088,78 458,38 30/04/2020
914 282500 FANNY FERREIRA MELO OFICIAL DO MP ATIVO ARAXÁ - COMARCA; ARAXA-PJ-03PJ 8.436,53 2.530,96 0,00 0,00 0,00 0,00 10.967,49 1.206,42 1.814,93 0,00 3.021,35 7.946,14 1.550,00 440,09 30/04/2020
915 540100 FATIMA CRISTINA POVOA DA COSTA ASSESSOR/OFICIAL ATIVO BELO HORIZONTE - COMARCA; BH-18PJ VIOLENCIA DOMESTICA-SECRETARIA 0,00 3.119,26 10.397,52 0,00 0,00 792,89 14.309,67 792,89 2.847,75 0,00 3.640,64 10.669,03 1.550,00 691,90 30/04/2020
916 382800 FATIMA DE OLIVEIRA COELHO E SILVA OFICIAL DO MP ATIVO BELO HORIZONTE - COMARCA; DIRETORIA DE ADMINISTRACAO FINANCEIRA 6.529,10 1.958,73 0,00 0,00 0,00 0,00 8.487,83 933,66 1.155,90 0,00 2.089,56 6.398,27 1.550,00 611,77 30/04/2020
917 398601 FELIPE ANTONIO HORTA DE PAULA ANALISTA DO MP ATIVO BELO HORIZONTE - COMARCA; PROC. JUSTICA DIR. DIFUSOS E COLETIVOS-SEC 8.436,53 843,65 0,00 0,00 0,00 0,00 9.280,18 1.020,82 1.401,96 0,00 2.422,78 6.857,40 1.550,00 708,02 30/04/2020
918 430900 FELIPE BOY VIEIRA ANALISTA DO MP ATIVO BELO HORIZONTE - COMARCA; DIRETORIA DE SEGURANCA 11.085,56 2.217,11 0,00 0,00 0,00 0,00 13.302,67 1.463,29 2.386,47 0,00 3.849,76 9.452,91 1.550,00 1.001,74 30/04/2020
919 631700 FELIPE DE MORAIS SIMOES COELHO ANALISTA DO MP ATIVO BELO HORIZONTE - COMARCA; BH-18PJ VIOLENCIA DOMESTICA 7.421,79 742,18 0,00 0,00 0,00 0,00 8.163,97 898,04 1.128,77 0,00 2.026,81 6.137,16 1.550,00 969,40 30/04/2020
920 549100 FELIPE FERNANDES ALVIM ANALISTA DO MP ATIVO LAJINHA - COMARCA; LAJINHA-PJ-UNPJ 8.436,53 843,65 0,00 0,00 0,00 0,00 9.280,18 1.020,82 1.401,96 0,00 2.422,78 6.857,40 1.550,00 705,23 30/04/2020
921 487300 FELIPE FERNANDES SILVEIRA ASSESSOR ATIVO BELO HORIZONTE - COMARCA; DIVISAO DE MANUTENCAO PREDIAL 0,00 0,00 3.076,28 0,00 0,00 0,00 3.076,28 465,67 201,79 0,00 667,46 2.408,82 1.550,00 230,97 30/04/2020
922 620100 FELIPE GOMES DE AZEVEDO ASSESSOR/OFICIAL ATIVO BELO HORIZONTE - COMARCA; DIVISAO DE SERVICOS 0,00 817,05 8.170,49 0,00 0,00 0,00 8.987,54 582,93 1.441,91 0,00 2.024,84 6.962,70 1.550,00 594,27 30/04/2020
923 601600 FELIPE RODRIGUES DE SIQUEIRA ANALISTA DO MP ATIVO BELO HORIZONTE - COMARCA; BH-02PJ FAMILIA 8.436,53 843,65 0,00 0,00 0,00 0,00 9.280,18 1.082,07 1.538,25 0,00 2.620,32 6.659,86 1.550,00 1.254,43 30/04/2020
924 628900 FELIX FERNANDO JUNIO VIEIRA ANALISTA DO MP ATIVO CAETÉ - COMARCA; CAETE-PJ-02PJ 8.170,49 817,05 0,00 0,00 0,00 0,00 8.987,54 988,63 1.278,20 0,00 2.266,83 6.720,71 1.550,00 1.007,77 30/04/2020
925 544500 FELLIPE LEMOS MARCONDES BUENO ANALISTA DO MP ATIVO SÃO SEBASTIÃO DO PARAÍSO - COMARCA; SAO SEBASTIAO DO PARAISO-PJ-04PJ 8.436,53 843,65 0,00 0,00 0,00 0,00 9.280,18 1.020,82 1.401,96 0,00 2.422,78 6.857,40 1.550,00 651,00 30/04/2020
926 612600 FERNANDA ADRIANA DE PAULA GUIDO ANALISTA DO MP ATIVO PARACATU - COMARCA; PARACATU-PJ-02PJ 8.170,49 817,05 0,00 0,00 0,00 0,00 8.987,54 988,63 1.330,34 0,00 2.318,97 6.668,57 2.319,39 1.105,25 30/04/2020
927 508400 FERNANDA AGANETTI MATTOS DE OLIVEIRA ANALISTA DO MP ATIVO BELO HORIZONTE - COMARCA; BH-07PJ 02 TRIBUNAL DO JURI-GAB 061PJ 10.069,62 1.006,96 0,00 0,00 0,00 0,00 11.076,58 1.218,42 1.841,63 0,00 3.060,05 8.016,53 2.319,39 458,38 30/04/2020
928 453600 FERNANDA ALBERNAZ RABELO ANALISTA DO MP ATIVO BELO HORIZONTE - COMARCA; GABINETE DE PROCURADOR DE JUSTIÇA - SALA 616 10.069,62 1.006,96 0,00 0,00 0,00 0,00 11.076,58 1.218,42 1.841,63 0,00 3.060,05 8.016,53 1.550,00 599,12 30/04/2020
929 255600 FERNANDA ALINA DE ALMEIDA ANDRADE OFICIAL DO MP ATIVO BELO HORIZONTE - COMARCA; LABORATORIO TECNOLOGIA INTELIGENCIA 9.146,93 2.744,08 0,00 0,00 0,00 0,00 11.891,01 1.308,01 2.040,97 0,00 3.348,98 8.542,03 1.550,00 857,07 30/04/2020
930 443200 FERNANDA ALMEIDA LOPES ANALISTA DO MP ATIVO CONTAGEM - COMARCA; CONTAGEM-PJ-23PJ 12.204,02 2.440,80 0,00 0,00 0,00 0,00 14.644,82 1.610,93 2.610,69 0,00 4.221,62 10.423,20 5.431,95 1.812,01 30/04/2020
931 281100 FERNANDA ANANIAS MEIRA ANALISTA DO MP ATIVO BELO HORIZONTE - COMARCA; BH-23PJ INFRACIONAL-ASS JURIDICA 15.180,63 4.581,61 0,00 0,00 0,00 0,00 19.762,24 2.183,90 3.964,68 0,00 6.148,58 13.613,66 1.550,00 1.363,31 30/04/2020
932 539000 FERNANDA BARBOSA ALVES ANALISTA DO MP ATIVO UBERABA - COMARCA; UBERABA-PJ-04PJ 8.436,53 843,65 0,00 0,00 3.093,39 0,00 12.373,57 1.020,82 2.252,65 0,00 3.273,47 9.100,10 2.319,39 727,68 30/04/2020
933 451200 FERNANDA BLOISE PRADO OFICIAL DO MP ATIVO BELO HORIZONTE - COMARCA; DIVISAO DE MATERIAIS 7.421,79 742,18 0,00 0,00 0,00 0,00 8.163,97 898,04 1.128,77 0,00 2.026,81 6.137,16 1.550,00 561,35 30/04/2020
934 427900 FERNANDA BRAGA CARNEIRO BICALHO ANALISTA DO MP ATIVO PEÇANHA - COMARCA; PECANHA-PJ-SECRETARIA 10.069,62 2.013,92 0,00 0,00 0,00 0,00 12.083,54 1.329,19 2.035,95 0,00 3.365,14 8.718,40 2.319,39 504,62 30/04/2020
935 507100 FERNANDA CABRINI VAZ MOTA ANALISTA DO MP ATIVO BELO HORIZONTE - COMARCA; BH-14PJ DEFESA CONSUMIDOR-GAB 005PJ 10.069,62 1.006,96 0,00 0,00 0,00 0,00 11.076,58 1.218,42 1.841,63 0,00 3.060,05 8.016,53 2.319,39 481,50 30/04/2020
936 259800 FERNANDA CALZAVARA DE SOUSA COORDENADOR/OFICIAL ATIVO BELO HORIZONTE - COMARCA; DIRET DE FORMACAO, APERFEIC. E POS-GRADUACAO 12.204,02 6.348,24 0,00 0,00 0,00 0,00 18.552,26 2.013,02 3.659,66 0,00 5.672,68 12.879,58 2.319,39 4.437,27 30/04/2020
937 494400 FERNANDA CAMPOS BARATA OFICIAL DO MP ATIVO JUIZ DE FORA - COMARCA; JUIZ DE FORA-PJ-08PJ 5.562,64 556,26 0,00 0,00 0,00 0,00 6.118,90 673,08 628,24 0,00 1.301,32 4.817,58 1.550,00 469,46 30/04/2020
938 555600 FERNANDA CAROLINE RIBEIRO ASSESSOR/ANALISTA ATIVO BELO HORIZONTE - COMARCA; DIRETORIA GESTAO CONTRATOS CONVENIOS 0,00 1.039,75 10.397,52 0,00 0,00 0,00 11.437,27 1.050,67 1.986,96 0,00 3.037,63 8.399,64 1.550,00 440,78 30/04/2020
939 294500 FERNANDA COSTA FLORES OFICIAL DO MP ATIVO PARÁ DE MINAS - COMARCA; PARA DE MINAS-PJ-04PJ 10.069,62 3.020,89 0,00 0,00 0,00 0,00 13.090,51 1.439,96 2.334,54 0,00 3.774,50 9.316,01 1.550,00 898,98 30/04/2020
940 344500 FERNANDA CRISTINA DE SOUZA PAZ ASSESSOR ATIVO BELO HORIZONTE - COMARCA; CENTRAL DE APOIO TECN-SETOR DE MEIO AMBIENTE 0,00 0,00 5.136,32 0,00 0,00 0,00 5.136,32 713,09 545,25 0,00 1.258,34 3.877,98 1.550,00 306,74 30/04/2020
941 538100 FERNANDA CRISTINA DOS SANTOS ROSA OFICIAL DO MP ATIVO RIBEIRÃO DAS NEVES - COMARCA; RIBEIRAO DAS NEVES-PJ-09PJ 5.387,19 1.616,16 0,00 0,00 0,00 0,00 7.003,35 770,37 844,71 0,00 1.615,08 5.388,27 1.550,00 491,21 30/04/2020
942 337800 FERNANDA CRISTINA ROLAND CLIMACO MENDES COORDENADOR/OFICIAL ATIVO BELO HORIZONTE - COMARCA; DIRETORIA DE PAGAMENTO DE PESSOAL-DPAG 0,00 2.687,03 13.435,16 0,00 0,00 0,00 16.122,19 1.575,24 3.131,05 0,00 4.706,29 11.415,90 1.550,00 767,30 30/04/2020
943 545400 FERNANDA CUNHA GUIMARAES ANALISTA DO MP ATIVO BELO HORIZONTE - COMARCA; COORD EST DEF DIR FAMILIA PESSOA DEFICI IDOSO 8.436,53 843,65 0,00 0,00 0,00 0,00 9.280,18 1.020,82 1.401,96 0,00 2.422,78 6.857,40 1.550,00 651,00 30/04/2020
944 429801 FERNANDA CUNHA PINHEIRO DA SILVA ANALISTA DO MP ATIVO BELO HORIZONTE - COMARCA; SUPERINTENDENCIA DE COMUNICACAO INTEGRADA 10.069,62 1.006,96 0,00 0,00 0,00 0,00 11.076,58 1.218,42 1.789,50 0,00 3.007,92 8.068,66 1.550,00 458,38 30/04/2020
945 408000 FERNANDA DAS NEVES RAMOS ANALISTA DO MP ATIVO BELO HORIZONTE - COMARCA; CENTRAL DE APOIO TECNICO-SETOR CONTABIL 12.601,30 2.520,26 0,00 0,00 0,00 0,00 15.121,56 1.663,37 2.831,64 0,00 4.495,01 10.626,55 2.319,39 949,00 30/04/2020
946 496000 FERNANDA DE ALMEIDA VIANA ANALISTA DO MP ATIVO BELO HORIZONTE - COMARCA; PROC JUST RECURSOS ESP E EXTRAORD CRIMINAIS 10.069,62 1.006,96 0,00 0,00 0,00 0,00 11.076,58 1.218,42 1.789,50 0,00 3.007,92 8.068,66 2.319,39 525,95 30/04/2020
947 266700 FERNANDA DE CASTRO LUCAS COORDENADOR/OFICIAL ATIVO BELO HORIZONTE - COMARCA; DIRET DE DESENV DE RECURSOS HUMANOS-DDRH 12.204,02 6.348,24 0,00 0,00 0,00 0,00 18.552,26 1.893,50 3.659,66 0,00 5.553,16 12.999,10 3.061,48 654,94 30/04/2020
948 433200 FERNANDA DE FIGUEIREDO NORTE ANALISTA DO MP ATIVO BELO HORIZONTE - COMARCA; ASSESS JUR DO CONS SUPERIOR DO MINISTERIO PUB 12.601,30 2.520,26 0,00 0,00 0,00 0,00 15.121,56 1.663,37 2.727,37 0,00 4.390,74 10.730,82 5.986,01 1.352,91 30/04/2020
949 419200 FERNANDA DE MIRANDA MARTINS SIMOES ANALISTA DO MP ATIVO UBERLÂNDIA - COMARCA; UBERLANDIA-PJ-11PJ 12.601,30 2.520,26 0,00 0,00 0,00 0,00 15.121,56 1.663,37 2.831,64 0,00 4.495,01 10.626,55 2.319,39 1.089,12 30/04/2020
950 441400 FERNANDA DE MORAIS PINTO ANALISTA DO MP ATIVO BELO HORIZONTE - COMARCA; PROC. JUSTICA DIR. DIFUSOS E COLETIVOS-SEC 12.204,02 2.440,80 0,00 0,00 0,00 0,00 14.644,82 1.610,93 2.714,96 0,00 4.325,89 10.318,93 1.550,00 1.553,42 30/04/2020
951 432200 FERNANDA DE MOURA GUIMARAES ANALISTA DO MP ATIVO BELO HORIZONTE - COMARCA; ASSESS TECNICO-JUR JUNTO AS PROC. DE JUST 12.204,02 2.440,80 0,00 0,00 0,00 0,00 14.644,82 1.610,93 2.714,96 0,00 4.325,89 10.318,93 2.319,39 1.597,22 30/04/2020
952 461800 FERNANDA DE OLIVEIRA SANTOS ANALISTA DO MP ATIVO JUIZ DE FORA - COMARCA; JUIZ DE FORA-PJ-21PJ 10.069,62 1.006,96 0,00 0,00 0,00 0,00 11.076,58 1.218,42 1.841,63 0,00 3.060,05 8.016,53 2.766,72 504,62 30/04/2020
953 432500 FERNANDA DE PAULA PINTO ANALISTA DO MP ATIVO BELO HORIZONTE - COMARCA; PROC JUST RECURSOS ESP E EXTRAORD CRIMINAIS 12.204,02 2.440,80 0,00 0,00 0,00 0,00 14.644,82 1.610,93 2.714,96 0,00 4.325,89 10.318,93 1.550,00 1.553,42 30/04/2020
954 431600 FERNANDA DIAS BARBOSA PEREIRA ANALISTA DO MP ATIVO OURO BRANCO - COMARCA; OURO BRANCO-PJ-UNPJ 12.204,02 2.440,80 0,00 0,00 0,00 0,00 14.644,82 1.610,93 2.610,69 0,00 4.221,62 10.423,20 2.319,39 1.597,22 30/04/2020
955 162200 FERNANDA FERNANDES MONTEIRO ASSESSOR ATIVO BELO HORIZONTE - COMARCA; BH-12PJ JUIZO CRIMINAL-SECRETARIA 0,00 2.054,53 5.136,32 0,00 0,00 0,00 7.190,85 713,09 1.162,39 0,00 1.875,48 5.315,37 1.550,00 368,08 30/04/2020
956 512800 FERNANDA FERREIRA BARBOSA MOREIRA ANALISTA DO MP ATIVO IPATINGA - COMARCA; IPATINGA-PJ-01PJ 10.069,62 1.006,96 0,00 0,00 0,00 0,00 11.076,58 1.218,42 1.841,63 0,00 3.060,05 8.016,53 2.319,39 458,38 30/04/2020
957 329200 FERNANDA GABRIEL GUZELLA OFICIAL DO MP ATIVO BELO HORIZONTE - COMARCA; DIRET DE PLANOS PROJETOS E PROGRAMAS INST 9.444,70 1.888,94 0,00 0,00 0,00 0,00 11.333,64 1.246,70 1.904,55 0,00 3.151,25 8.182,39 1.550,00 1.338,00 30/04/2020
958 324200 FERNANDA GEORGIA NEVES ZAHAN OFICIAL DO MP ATIVO IPANEMA - COMARCA; IPANEMA-PJ-SECRETARIA 8.436,53 5.905,57 0,00 0,00 0,00 0,00 14.342,10 1.577,63 2.640,87 0,00 4.218,50 10.123,60 1.550,00 1.668,96 30/04/2020
959 548200 FERNANDA GONCALVES DE CARVALHO ZUZA OFICIAL DO MP ATIVO TUPACIGUARA - COMARCA; TUPACIGUARA-PJ-UNPJ 4.974,42 497,44 0,00 0,00 0,00 0,00 5.471,86 601,90 469,88 0,00 1.071,78 4.400,08 1.550,00 415,80 30/04/2020
960 355400 FERNANDA HELENA BASQUES OFICIAL DO MP ATIVO SABARÁ - COMARCA; SABARA-PJ-01PJ 8.858,43 1.771,69 0,00 0,00 0,00 0,00 10.630,12 1.169,31 1.732,36 0,00 2.901,67 7.728,45 1.550,00 800,31 30/04/2020
961 454800 FERNANDA IATAROLA BARBOSA DIAS ANALISTA DO MP ATIVO BARBACENA - COMARCA; BARBACENA-PJ-05PJ 10.397,52 1.039,75 0,00 0,00 0,00 0,00 11.437,27 1.258,10 1.877,77 0,00 3.135,87 8.301,40 1.550,00 802,31 30/04/2020
962 515500 FERNANDA LILIANE MARUGEIRO ANALISTA DO MP ATIVO BELO HORIZONTE - COMARCA; BH-18PJ VIOLENCIA DOMESTICA-SECRETARIA 10.069,62 1.006,96 0,00 0,00 0,00 0,00 11.076,58 1.218,42 1.789,50 0,00 3.007,92 8.068,66 2.319,39 458,38 30/04/2020
963 392900 FERNANDA MAGALHAES SILVA ANALISTA DO MP ATIVO BELO HORIZONTE - COMARCA; DIRETORIA DE IMPRENSA 13.011,52 2.602,30 0,00 0,00 0,00 0,00 15.613,82 1.717,52 2.952,12 0,00 4.669,64 10.944,18 1.550,00 1.254,04 30/04/2020
964 409200 FERNANDA MAIA SANTIAGO CARDOSO ANALISTA DO MP ATIVO PIRAPORA - COMARCA; PIRAPORA-PJ-02PJ 10.069,62 2.013,92 0,00 0,00 4.027,85 0,00 16.111,39 1.329,19 3.195,75 0,00 4.524,94 11.586,45 3.088,78 994,12 30/04/2020
965 556500 FERNANDA OTERO COSTA ANALISTA DO MP ATIVO BELO HORIZONTE - COMARCA; ASSESS TECNICO-JUR JUNTO AS PROC. DE JUST 9.146,93 914,69 0,00 0,00 0,00 0,00 10.061,62 1.106,78 1.593,22 0,00 2.700,00 7.361,62 1.550,00 673,07 30/04/2020
966 615300 FERNANDA PATRICIA RIBEIRO MOTA OFICIAL DO MP ATIVO UBERABA - COMARCA; UBERABA-PJ-05PJ 4.817,57 481,76 0,00 0,00 0,00 0,00 5.299,33 582,93 427,65 0,00 1.010,58 4.288,75 1.550,00 622,17 30/04/2020
967 619800 FERNANDA PINTO PEREIRA ANALISTA DO MP ATIVO UBERLÂNDIA - COMARCA; UBERLANDIA-PJ-20PJ 8.170,49 817,05 0,00 0,00 0,00 0,00 8.987,54 988,63 1.278,20 0,00 2.266,83 6.720,71 2.319,39 1.007,77 30/04/2020
968 412900 FERNANDA PORTELA ROSA ANALISTA DO MP ATIVO BELO HORIZONTE - COMARCA; BH-08PJ JUIZADO ESPECIAL-SECRETARIA 12.601,30 2.520,26 0,00 0,00 0,00 0,00 15.121,56 1.663,37 2.831,64 0,00 4.495,01 10.626,55 2.319,39 1.275,33 30/04/2020
969 274301 FERNANDA QUEIROZ PARREIRA ANALISTA DO MP ATIVO PATOS DE MINAS - COMARCA; COORD REG PJ DEF EDU DIR CRI ADO AL PAR NOROE 10.069,62 1.006,96 0,00 0,00 0,00 0,00 11.076,58 1.218,42 1.841,63 0,00 3.060,05 8.016,53 1.550,00 481,50 30/04/2020
970 467900 FERNANDA QUEIROZ SIMOES GANNAM ANALISTA DO MP ATIVO SÃO LOURENÇO - COMARCA; SAO LOURENCO-PJ-02PJ 10.069,62 1.006,96 0,00 0,00 0,00 0,00 11.076,58 1.218,42 1.789,50 0,00 3.007,92 8.068,66 2.319,39 504,62 30/04/2020
971 255500 FERNANDA SIMOES LOPES MENDES ANALISTA DO MP ATIVO BELO HORIZONTE - COMARCA; BH-17PJ PATRIMONIO PUBLICO-SECRETARIA 17.413,92 5.224,18 0,00 0,00 0,00 0,00 22.638,10 2.490,19 4.567,04 0,00 7.057,23 15.580,87 1.550,00 1.659,75 30/04/2020
972 481700 FERNANDA VIANA FROES DA SILVA OFICIAL DO MP ATIVO GOVERNADOR VALADARES - COMARCA; GOVERNADOR VALADARES-PJ-09PJ 7.421,79 742,18 0,00 0,00 0,00 0,00 8.163,97 898,04 1.128,77 0,00 2.026,81 6.137,16 1.550,00 971,29 30/04/2020
973 123900 FERNANDO ANTONIO FARIA DE ABREU DIRETOR/ANALISTA ATIVO BELO HORIZONTE - COMARCA; SUPERINTENDÊNCIA DE ENGENHARIA E ARQUITETURA 26.471,31 28.700,06 0,00 0,00 0,00 3.900,84 59.072,21 3.900,84 8.882,75 19.709,15 32.492,74 26.579,47 7.223,96 520,11 30/04/2020
974 416900 FERNANDO APARECIDO DA SILVA ANALISTA DO MP ATIVO BOM DESPACHO - COMARCA; BOM DESPACHO-PJ-02PJ 12.204,02 8.542,81 0,00 0,00 0,00 0,00 20.746,83 2.282,15 4.104,15 0,00 6.386,30 14.360,53 4.948,21 2.576,40 30/04/2020
975 380500 FERNANDO BONES COSTA OFICIAL DO MP ATIVO BELO HORIZONTE - COMARCA; DIVISAO DE MATERIAIS 6.123,79 1.224,76 0,00 0,00 0,00 0,00 7.348,55 808,34 929,20 0,00 1.737,54 5.611,01 1.550,00 334,78 30/04/2020
976 500100 FERNANDO CEZAR PINTO OFICIAL DO MP ATIVO SANTA LUZIA - COMARCA; SANTA LUZIA-PJ-04PJ 7.421,79 742,18 0,00 0,00 0,00 0,00 8.163,97 974,36 1.055,65 0,00 2.030,01 6.133,96 1.550,00 545,02 30/04/2020
977 346100 FERNANDO EUSTAQUIO CAMPOS UTSCH MOREIRA ANALISTA DO MP ATIVO BELO HORIZONTE - COMARCA; DIRETORIA DE SISTEMAS DE INFORMACAO 14.790,66 2.958,13 0,00 0,00 0,00 0,00 17.748,79 1.952,37 3.370,38 0,00 5.322,75 12.426,04 1.914,61 1.525,69 30/04/2020
978 103500 FERNANDO LUIZ DA SILVA JUNIOR OFICIAL DO MP ATIVO BELO HORIZONTE - COMARCA; DIVISAO DE ATENDIMENTO E CONSULTA JURIDICA 18.820,14 9.410,07 0,00 0,00 0,00 0,00 28.230,21 3.105,32 6.039,98 0,00 9.145,30 19.084,91 1.839,02 1.286,12 30/04/2020
979 287300 FERNANDO MARCIO ALVES MARTINS OFICIAL DO MP ATIVO LEOPOLDINA - COMARCA; LEOPOLDINA-PJ-01PJ 7.912,85 2.373,86 0,00 0,00 0,00 0,00 10.286,71 1.131,54 1.491,90 0,00 2.623,44 7.663,27 1.550,00 673,43 30/04/2020
980 262200 FERNANDO MARCIO RESENDE PEREIRA OFICIAL DO MP ATIVO BELO HORIZONTE - COMARCA; DIR ESTRUTURA E PROCESSOS ORGANIZACIONAIS 10.069,62 3.020,89 0,00 0,00 0,00 1.439,96 14.530,47 1.439,96 2.730,53 0,00 4.170,49 10.359,98 1.550,00 1.417,36 30/04/2020
981 472900 FERNANDO RODRIGUES DE FREITAS ANALISTA DO MP ATIVO BELO HORIZONTE - COMARCA; BH-15PJ M AMB PAT HIST CULT-ASS TECNICA 10.069,62 1.006,96 0,00 0,00 0,00 0,00 11.076,58 1.218,42 1.841,63 0,00 3.060,05 8.016,53 1.550,00 599,12 30/04/2020
982 421400 FERNANDO TEODORO MACIEL ANALISTA DO MP ATIVO SANTA VITÓRIA - COMARCA; SANTA VITORIA-PJ-UNPJ 10.736,08 2.147,22 0,00 0,00 0,00 0,00 12.883,30 1.417,16 2.179,55 0,00 3.596,71 9.286,59 2.319,39 839,93 30/04/2020
983 446300 FERNANDO VITOR DE OLIVEIRA ANALISTA DO MP ATIVO MONTES CLAROS - COMARCA; COORD REG BACIA RIOS VERDE GRANDE E PARDO 12.204,02 2.440,80 0,00 0,00 0,00 0,00 14.644,82 1.610,93 2.714,96 0,00 4.325,89 10.318,93 2.771,53 1.704,62 30/04/2020
984 639300 FILIPE ALMEIDA RODRIGUES ANALISTA DO MP ATIVO TIMÓTEO - COMARCA; TIMOTEO-PJ-04PJ 7.421,79 445,31 0,00 0,00 0,00 0,00 7.867,10 865,38 1.056,11 0,00 1.921,49 5.945,61 1.550,00 536,89 30/04/2020
985 398400 FLAVIA ALVARES GUIMARAES COORDENADOR/OFICIAL ATIVO BELO HORIZONTE - COMARCA; CGMP-DIVIS DE APOIO FISC ORIENTACAO FUNCIONAL 0,00 2.363,83 11.819,15 0,00 0,00 0,00 14.182,98 1.146,19 2.663,62 0,00 3.809,81 10.373,17 1.550,00 675,84 30/04/2020
986 398200 FLAVIA ALVES DE ASSUNCAO RODRIGUES ANALISTA DO MP ATIVO DIVINÓPOLIS - COMARCA; COORD REG DO MA DA BACIA DO ALTO SAO FRANC 12.204,02 2.440,80 0,00 0,00 0,00 0,00 14.644,82 1.610,93 2.662,82 0,00 4.273,75 10.371,07 2.319,39 1.740,05 30/04/2020
987 318500 FLAVIA BEATRIZ NUNES CRUZ VIEIRA ANALISTA DO MP ATIVO BARBACENA - COMARCA; BARBACENA-PJ-SECRETARIA 15.272,02 4.581,61 0,00 0,00 0,00 0,00 19.853,63 2.183,90 3.885,54 0,00 6.069,44 13.784,19 2.741,73 1.259,82 30/04/2020
988 496500 FLAVIA CARAM BORLIDO ANALISTA DO MP ATIVO BELO HORIZONTE - COMARCA; DIRETORIA GESTAO CONTRATOS CONVENIOS 11.085,56 1.108,56 0,00 0,00 0,00 0,00 12.194,12 1.341,35 2.115,15 0,00 3.456,50 8.737,62 1.550,00 838,34 30/04/2020
989 534800 FLAVIA CONDE SOARES ANALISTA DO MP ATIVO BELO HORIZONTE - COMARCA; BH-13PJ JUÍZO DE TÓXICOS-ASSESSORIA JURIDICA 8.436,53 843,65 0,00 0,00 0,00 0,00 9.280,18 1.020,82 1.401,96 0,00 2.422,78 6.857,40 1.550,00 741,46 30/04/2020
990 219500 FLAVIA CRISTINA ANCELMO OFICIAL DO MP ATIVO BELO HORIZONTE - COMARCA; CAO-DIREITOS HUMANOS E APOIO COMUNITARIO 10.069,62 3.020,89 0,00 0,00 0,00 0,00 13.090,51 1.439,96 2.334,54 0,00 3.774,50 9.316,01 1.550,00 1.212,21 30/04/2020
991 329600 FLAVIA CRISTINA DE MATOS XAVIER ANALISTA DO MP ATIVO UBERABA - COMARCA; UBERABA-PJ-15PJ 15.272,02 4.581,61 0,00 0,00 0,00 0,00 19.853,63 2.183,90 3.885,54 0,00 6.069,44 13.784,19 3.307,40 1.510,41 30/04/2020
992 207600 FLAVIA DE ANDRADE MANCINI ANALISTA DO MP ATIVO BELO HORIZONTE - COMARCA; ASSESSORIA JURIDICO-ADMINISTRATIVA 18.820,14 7.528,06 0,00 0,00 0,00 0,00 26.348,20 2.898,30 5.422,95 0,00 8.321,25 18.026,95 7.070,12 1.597,67 30/04/2020
993 402801 FLAVIA MARIA DE RESENDE NASCIMENTO ANALISTA DO MP ATIVO SÃO JOÃO DEL REI - COMARCA; SAO JOAO DEL REI-PJ-04PJ 10.069,62 1.006,96 0,00 0,00 0,00 0,00 11.076,58 1.218,42 1.841,63 0,00 3.060,05 8.016,53 2.319,39 458,38 30/04/2020
994 437500 FLAVIA MARIA TORRES MARCHETTI ANALISTA DO MP ATIVO BELO HORIZONTE - COMARCA; BH-18PJ VIOLENCIA DOMESTICA 10.736,08 2.147,22 0,00 0,00 0,00 0,00 12.883,30 1.417,16 2.179,55 0,00 3.596,71 9.286,59 3.088,78 1.109,68 30/04/2020
995 386000 FLAVIA NEVES BRIGIDO ASSESSOR/OFICIAL ATIVO BELO HORIZONTE - COMARCA; PROMOT ESTADUAL DE DEF PATRI CULT E TUR DE MG 0,00 2.079,50 10.397,52 0,00 0,00 0,00 12.477,02 1.146,19 2.246,62 0,00 3.392,81 9.084,21 3.781,23 588,52 30/04/2020
996 488600 FLAVIA PEREIRA COSTA ANALISTA DO MP ATIVO BELO HORIZONTE - COMARCA; CENTRAL DE APOIO TECNICO 10.069,62 1.006,96 0,00 0,00 0,00 0,00 11.076,58 1.218,42 1.841,63 0,00 3.060,05 8.016,53 2.319,39 481,50 30/04/2020
997 365400 FLAVIA PEREIRA DA SILVA AMARAL OFICIAL DO MP ATIVO BELO HORIZONTE - COMARCA; BH-15PJ M AMB PAT HIST CULT-GAB 115PJ 9.444,70 1.888,94 0,00 0,00 0,00 0,00 11.333,64 1.246,70 1.904,55 0,00 3.151,25 8.182,39 1.550,00 1.318,52 30/04/2020
998 515400 FLAVIA RODRIGUES DE OLIVEIRA E SILVA PAIVA ANALISTA DO MP ATIVO CARATINGA - COMARCA; CARATINGA-PJ-05PJ 10.069,62 1.006,96 0,00 0,00 0,00 0,00 11.076,58 1.218,42 1.685,22 0,00 2.903,64 8.172,94 1.550,00 458,38 30/04/2020
999 621600 FLAVIA SARMENTO RODRIGUES ANALISTA DO MP ATIVO BELO HORIZONTE - COMARCA; DIV FISCAL ADM CONT TERCEIRIZACAO 8.170,49 817,05 0,00 0,00 0,00 0,00 8.987,54 988,63 1.330,34 0,00 2.318,97 6.668,57 1.550,00 1.007,77 30/04/2020
1000 535800 FLAVIA SILVA VALADAO OFICIAL DO MP ATIVO TRÊS CORACOES - COMARCA; TRES CORACOES-PJ-04PJ 4.974,42 497,44 0,00 0,00 0,00 0,00 5.471,86 601,90 417,74 0,00 1.019,64 4.452,22 1.550,00 383,82 30/04/2020
1001 515300 FLAVIA VIEIRA OLIVEIRA GOMES ANALISTA DO MP ATIVO BELO HORIZONTE - COMARCA; ASSESS TECNICO-JUR JUNTO AS PROC. DE JUST 10.069,62 1.006,96 0,00 0,00 0,00 0,00 11.076,58 1.218,42 1.841,63 0,00 3.060,05 8.016,53 1.550,00 458,38 30/04/2020
1002 377500 FLAVIANA GONCALVES DE OLIVEIRA ANALISTA DO MP ATIVO IPATINGA - COMARCA; IPATINGA-PJ-02PJ 13.011,52 2.602,30 0,00 0,00 0,00 0,00 15.613,82 1.717,52 2.952,12 0,00 4.669,64 10.944,18 1.550,00 1.073,46 30/04/2020
1003 273100 FLAVIANE DOS SANTOS CASTRO OFICIAL DO MP ATIVO CAXAMBU - COMARCA; CAXAMBU-PJ-SECRETARIA 10.069,62 3.020,89 0,00 0,00 0,00 0,00 13.090,51 1.439,96 2.230,27 0,00 3.670,23 9.420,28 1.550,00 1.211,25 30/04/2020
1004 310600 FLAVIANE NAVES ALCANTARA OFICIAL DO MP ATIVO BELO HORIZONTE - COMARCA; COMB CRIMES PRAT POR AG POL MUN-SECRETARIA 10.736,08 3.220,82 0,00 0,00 0,00 0,00 13.956,90 1.535,26 2.546,59 0,00 4.081,85 9.875,05 2.319,39 851,65 30/04/2020
1005 378201 FLAVIANE RIBEIRO BORGES FERNANDES OFICIAL DO MP ATIVO SÃO GONÇALO DO SAPUCAÍ - COMARCA; SAO GONCALO DO SAPUCAI-PJ-02PJ 5.562,64 556,26 0,00 0,00 0,00 0,00 6.118,90 673,08 628,24 0,00 1.301,32 4.817,58 1.550,00 644,43 30/04/2020
1006 455800 FLAVIO ANTONIO RIBEIRO OFICIAL DO MP ATIVO BELO HORIZONTE - COMARCA; GRUPO ESP PROM PROC JUST DEF PROB ADM PAT PUB 6.123,79 612,38 0,00 0,00 0,00 0,00 6.736,17 740,98 779,32 0,00 1.520,30 5.215,87 1.550,00 783,80 30/04/2020
1007 458200 FLAVIO AUGUSTO BRAGA SOARES ANALISTA DO MP ATIVO BELO HORIZONTE - COMARCA; DIVISAO DE CONTROLE IMOBILIARIO 12.204,02 1.220,40 0,00 0,00 0,00 0,00 13.424,42 1.476,69 2.416,27 0,00 3.892,96 9.531,46 1.550,00 1.654,17 30/04/2020
1008 516500 FLAVIO AUGUSTO RODRIGUES CORREA ANALISTA DO MP ATIVO BELO HORIZONTE - COMARCA; COORD REG BACIAS RIO VELHAS E PARAOPEBA 10.069,62 1.006,96 0,00 0,00 0,00 0,00 11.076,58 1.218,42 1.841,63 0,00 3.060,05 8.016,53 2.319,39 458,38 30/04/2020
1009 84300 FLAVIO DE FARIA BELTRAO OFICIAL DO MP ATIVO BELO HORIZONTE - COMARCA; DIRETORIA DE ADMINISTRACAO FINANCEIRA 23.757,25 19.005,81 0,00 0,00 0,00 0,00 42.763,06 3.900,84 7.810,02 7.300,84 19.011,70 23.751,36 1.550,00 0,00 30/04/2020
1010 266600 FLAVIO GUIMARAES LANA ANALISTA DO MP ATIVO BELO HORIZONTE - COMARCA; CENTRAL DE APOIO TECN-SETOR DE MEIO AMBIENTE 12.601,30 3.780,39 0,00 0,00 0,00 0,00 16.381,69 1.801,99 3.140,06 0,00 4.942,05 11.439,64 1.550,00 850,47 30/04/2020
1011 552600 FLAVIO HENRIQUE EVARISTO GOMES ASSESSOR/ANALISTA ATIVO BELO HORIZONTE - COMARCA; DIRETORIA DE SUPORTE E MANUTENCAO 0,00 1.039,75 10.397,52 0,00 0,00 0,00 11.437,27 1.052,90 1.986,34 0,00 3.039,24 8.398,03 2.319,39 706,56 30/04/2020
1012 640000 FLAVIO HENRIQUE PEREIRA VELOSO OFICIAL DO MP ATIVO BELO HORIZONTE - COMARCA; DIVISÃO DE FISCALIZAÇÃO DAS RELAÇÕES DE CONSU 4.376,03 262,56 0,00 0,00 0,00 0,00 4.638,59 537,08 663,39 0,00 1.200,47 3.438,12 1.550,00 1.861,85 30/04/2020
1013 241500 FLAVIO HENRIQUE SILVA MARTINS LAGE OFICIAL DO MP ATIVO BELO HORIZONTE - COMARCA; CAO-CRIANCAS E ADOLESCENTES-SECRETARIA 10.069,62 4.027,85 0,00 0,00 0,00 0,00 14.097,47 1.550,72 2.581,00 0,00 4.131,72 9.965,75 1.550,00 1.015,45 30/04/2020
1014 86700 FLAVIO LUCAS TOMAZ AGENTE DO MP ATIVO BELO HORIZONTE - COMARCA; DIVISÃO DE FISCALIZAÇÃO DAS RELAÇÕES DE CONSU 8.170,49 5.719,35 0,00 0,00 0,00 0,00 13.889,84 1.527,88 1.919,54 0,00 3.447,42 10.442,42 3.772,37 778,52 30/04/2020
1015 407200 FLAVIO LUCIO MONTEIRO PENA ANALISTA DO MP ATIVO BELO HORIZONTE - COMARCA; DIRETORIA DE IMPRENSA 10.069,62 2.013,92 0,00 0,00 0,00 0,00 12.083,54 1.329,19 2.088,09 0,00 3.417,28 8.666,26 3.088,78 504,62 30/04/2020
1016 451700 FLAVIO MAGALHAES PEREIRA ANALISTA DO MP ATIVO BELO HORIZONTE - COMARCA; BH-12PJ JUIZO CRIMINAL-GAB 098PJ 10.069,62 1.006,96 0,00 0,00 0,00 0,00 11.076,58 1.218,42 1.841,63 0,00 3.060,05 8.016,53 2.319,39 517,60 30/04/2020
1017 481500 FLAVIO NEVES GUELBER DE MACEDO OFICIAL DO MP ATIVO SÃO JOÃO NEPOMUCENO - COMARCA; SAO JOAO NEPOMUCENO-PJ-02PJ 6.123,79 612,38 0,00 0,00 0,00 0,00 6.736,17 740,98 779,32 0,00 1.520,30 5.215,87 1.550,00 352,86 30/04/2020
1018 547500 FRANCELINO MOREIRA DA SILVA ANALISTA DO MP ATIVO BELO HORIZONTE - COMARCA; BH-10PJ EXECUÇÃO PENAL-SECRETARIA 8.436,53 843,65 0,00 0,00 0,00 0,00 9.280,18 1.020,82 1.401,96 0,00 2.422,78 6.857,40 3.472,93 705,23 30/04/2020
1019 278100 FRANCIANE MARY DE SOUZA ANALISTA DO MP ATIVO BELO HORIZONTE - COMARCA; BH-12PJ JUIZO CRIMINAL-GAB 083PJ 16.750,82 5.025,25 0,00 0,00 0,00 0,00 21.776,07 2.395,37 4.460,33 0,00 6.855,70 14.920,37 1.816,58 1.531,84 30/04/2020
1020 646500 FRANCIELLE CAROLINE PEREIRA DOS SANTOS ASSESSOR ATIVO BELO HORIZONTE - COMARCA; CENT DE ATENDIMENTO E ORIENTACAO DE PESSOAL 0,00 0,00 3.076,28 0,00 0,00 0,00 3.076,28 465,67 173,35 0,00 639,02 2.437,26 1.550,00 157,48 30/04/2020
1021 192501 FRANCIELLE REIS DE OLIVEIRA ANALISTA DO MP ATIVO PASSOS - COMARCA; PASSOS-PJ-04PJ 16.750,82 5.025,25 0,00 0,00 0,00 0,00 21.776,07 2.395,37 4.356,06 0,00 6.751,43 15.024,64 7.222,29 2.887,50 30/04/2020
1022 645100 FRANCIELY CRISTINA COSTA TARQUINIO ASSESSOR ATIVO BELO HORIZONTE - COMARCA; CHEFIA DE GABINETE 0,00 0,00 5.136,32 0,00 0,00 0,00 5.136,32 713,09 649,53 0,00 1.362,62 3.773,70 1.550,00 262,92 30/04/2020
1023 523600 FRANCINE MOURA LIMIRIO OFICIAL DO MP ATIVO UBERABA - COMARCA; UBERABA-PJ-02PJ 6.741,63 674,16 0,00 0,00 0,00 0,00 7.415,79 815,74 945,65 0,00 1.761,39 5.654,40 1.550,00 509,83 30/04/2020
1024 467200 FRANCINI RENNO ANALISTA DO MP ATIVO CASSIA - COMARCA; CASSIA-PJ-01PJ 10.069,62 1.006,96 0,00 0,00 0,00 0,00 11.076,58 1.218,42 1.841,63 0,00 3.060,05 8.016,53 1.550,00 504,62 30/04/2020
1025 189300 FRANCIS BERNARDO DO NASCIMENTO OFICIAL DO MP ATIVO VARGINHA - COMARCA; VARGINHA-PJ-05PJ 14.790,66 5.916,26 0,00 0,00 0,00 0,00 20.706,92 2.277,76 4.094,38 0,00 6.372,14 14.334,78 5.795,15 1.613,27 30/04/2020
1026 207800 FRANCISCO CAMPOS PIRES DE MORAIS ANALISTA DO MP ATIVO BELO HORIZONTE - COMARCA; CENTRAL DE APOIO TECN-SETOR DE MEIO AMBIENTE 18.820,14 7.528,06 0,00 0,00 0,00 0,00 26.348,20 2.898,30 5.527,23 0,00 8.425,53 17.922,67 7.195,36 1.597,67 30/04/2020
1027 204600 FRANCISCO FERREIRA NOVAIS OFICIAL DO MP ATIVO IPATINGA - COMARCA; IPATINGA-PJ-08PJ 12.204,02 4.881,61 0,00 0,00 0,00 0,00 17.085,63 1.879,42 3.208,07 0,00 5.087,49 11.998,14 1.608,08 2.032,81 30/04/2020
1028 411600 FRANCISCO PAIVA BRITO ANALISTA DO MP ATIVO BELO HORIZONTE - COMARCA; BH-07PJ 01 TRIBUNAL JURI-SECRETARIA 10.069,62 2.013,92 0,00 0,00 0,00 0,00 12.083,54 1.329,19 2.088,09 0,00 3.417,28 8.666,26 1.550,00 599,12 30/04/2020
1029 515800 FRANCISCO RAFAEL DA SILVA NETO ANALISTA DO MP ATIVO SACRAMENTO - COMARCA; SACRAMENTO-PJ-01PJ 8.579,10 857,91 0,00 0,00 0,00 0,00 9.437,01 1.038,07 1.336,07 0,00 2.374,14 7.062,87 1.550,00 513,43 30/04/2020
1030 515200 FRANCISLEI ELIAS GONCALVES OFICIAL DO MP ATIVO PASSOS - COMARCA; PASSOS-PJ-07PJ 6.123,79 1.837,14 0,00 0,00 0,00 0,00 7.960,93 875,70 922,67 0,00 1.798,37 6.162,56 1.550,00 526,15 30/04/2020
1031 443600 FRANCISLEI MARTINS DE SOUSA ANALISTA DO MP ATIVO TIMÓTEO - COMARCA; TIMOTEO-PJ-01PJ 10.069,62 2.013,92 0,00 0,00 0,00 0,00 12.083,54 1.329,19 2.088,09 0,00 3.417,28 8.666,26 3.088,78 504,62 30/04/2020
1032 424500 FREDERICO AUGUSTO COBRA MULLER ANALISTA DO MP ATIVO POUSO ALEGRE - COMARCA; POUSO ALEGRE-PJ-06PJ 10.397,52 2.079,50 0,00 0,00 0,00 0,00 12.477,02 1.372,47 2.184,39 0,00 3.556,86 8.920,16 2.049,08 875,11 30/04/2020
1033 473100 FREDERICO AUGUSTO LIMA FELICIO ANALISTA DO MP ATIVO CONCEIÇÃO DO MATO DENTRO - COMARCA; CONCEICAO DO MATO DENTRO-PJ-UNPJ 10.069,62 1.006,96 0,00 0,00 0,00 0,00 11.076,58 1.218,42 1.841,63 0,00 3.060,05 8.016,53 1.550,00 599,12 30/04/2020
1034 124200 FREDERICO DE SOUZA ROCHA OFICIAL DO MP ATIVO ESPINOSA - COMARCA; ESPINOSA-PJ-SECRETARIA 16.112,82 14.501,54 0,00 0,00 0,00 3.367,58 33.981,94 3.367,58 7.445,31 0,00 10.812,89 23.169,05 7.353,40 2.793,10 30/04/2020
1035 177100 FREDERICO FERNANDES DE ANDRADE OFICIAL DO MP ATIVO BELO HORIZONTE - COMARCA; SUPERINTENDENCIA DE TECNOLOGIA DA INFORMACAO 12.601,30 5.040,52 0,00 0,00 0,00 0,00 17.641,82 1.940,60 3.448,48 0,00 5.389,08 12.252,74 1.569,16 1.248,39 30/04/2020
1036 456200 FREDERICO FERNANDES PASSOS ANALISTA DO MP ATIVO BELO HORIZONTE - COMARCA; DIRETORIA DE REDES E BANCOS DE DADOS 12.204,02 1.220,40 0,00 0,00 0,00 0,00 13.424,42 1.476,69 2.416,27 0,00 3.892,96 9.531,46 2.319,39 1.654,17 30/04/2020
1037 400900 FREDERICO LUCIANO BORGES REIS ANALISTA DO MP ATIVO BELO HORIZONTE - COMARCA; DIRETORIA DE SISTEMAS DE INFORMACAO 12.601,30 2.520,26 0,00 0,00 0,00 0,00 15.121,56 1.663,37 2.727,37 0,00 4.390,74 10.730,82 2.319,39 1.089,12 30/04/2020
1038 466200 FREDERICO LUIS FERNANDES ANALISTA DO MP ATIVO BELO HORIZONTE - COMARCA; BH-12PJ JUIZO CRIMINAL-GAB 097PJ 10.069,62 1.006,96 0,00 0,00 0,00 0,00 11.076,58 1.218,42 1.789,50 0,00 3.007,92 8.068,66 1.550,00 599,12 30/04/2020
1039 419700 FREDERICO MECKLER SANTOS ANALISTA DO MP ATIVO CLÁUDIO - COMARCA; CLAUDIO-PJ-UNPJ 12.204,02 2.440,80 0,00 0,00 0,00 0,00 14.644,82 1.610,93 2.662,82 0,00 4.273,75 10.371,07 1.550,00 1.689,53 30/04/2020
1040 621700 GABRIEL ANDRADE SOUZA GROSSI RIBEIRO OFICIAL DO MP ATIVO BETIM - COMARCA; BETIM-PJ-SECRETARIA 4.817,57 481,76 0,00 0,00 0,00 0,00 5.299,33 582,93 427,65 0,00 1.010,58 4.288,75 1.550,00 594,27 30/04/2020
1041 613600 GABRIEL BASTOS MEIRELES ANALISTA DO MP ATIVO BELO HORIZONTE - COMARCA; BH-16PJ HABITACAO E URBANISMO 7.421,79 742,18 0,00 0,00 0,00 0,00 8.163,97 898,04 1.128,77 0,00 2.026,81 6.137,16 1.100,00 1.004,01 30/04/2020
1042 617900 GABRIELA CIRILA ROQUE ANALISTA DO MP ATIVO ITABIRA - COMARCA; ITABIRA-PJ-04PJ 8.170,49 817,05 0,00 0,00 0,00 0,00 8.987,54 988,63 1.330,34 0,00 2.318,97 6.668,57 2.319,39 1.007,77 30/04/2020
1043 386800 GABRIELA SIMOES CHAVES ANALISTA DO MP ATIVO BELO HORIZONTE - COMARCA; DIRETORIA GESTAO COMPRAS LICITACOES 13.011,52 2.602,30 0,00 0,00 0,00 0,00 15.613,82 1.717,52 2.952,12 0,00 4.669,64 10.944,18 3.088,78 1.073,46 30/04/2020
1044 248600 GABRIELA TERESA DIAS DE MORAIS ANALISTA DO MP ATIVO BELO HORIZONTE - COMARCA; ASSESS TECNICO-JUR JUNTO AS PROC. DE JUST 18.820,14 5.646,04 0,00 0,00 0,00 0,00 24.466,18 2.691,28 5.118,74 0,00 7.810,02 16.656,16 1.550,00 0,00 30/04/2020
1045 449700 GABRIELE COSTA FERREIRA OFICIAL DO MP ATIVO BELO HORIZONTE - COMARCA; DIRETORIA DE ADMINISTRACAO FINANCEIRA 6.741,63 1.348,33 0,00 0,00 0,00 0,00 8.089,96 964,05 1.275,66 0,00 2.239,71 5.850,25 1.657,87 1.193,88 30/04/2020
1046 357600 GABRIELLA CRUZ EMRICH OFICIAL DO MP ATIVO OLIVEIRA - COMARCA; OLIVEIRA-PJ-SECRETARIA 5.669,46 1.224,76 0,00 0,00 0,00 0,00 6.894,22 808,34 804,26 0,00 1.612,60 5.281,62 1.550,00 397,47 30/04/2020
1047 470600 GABRIELLA SPIRANDELLI COIMBRA ANALISTA DO MP ATIVO UBERLÂNDIA - COMARCA; UBERLANDIA-PJ-18PJ 10.069,62 1.006,96 0,00 0,00 3.692,19 0,00 14.768,77 1.218,42 2.856,99 0,00 4.075,41 10.693,36 1.550,00 599,12 30/04/2020
1048 86000 GASPAR GOMES DE SOUSA AGENTE DO MP ATIVO BELO HORIZONTE - COMARCA; BH-15PJ M AMB PAT HIST CULT-RECEPCAO 23.757,25 21.381,54 0,00 0,00 0,00 3.900,84 49.039,63 3.900,84 8.882,75 9.676,57 22.460,16 26.579,47 7.223,96 520,12 30/04/2020
1049 183100 GECIELLE FERNANDA SILVA OFICIAL DO MP ATIVO PITANGUI - COMARCA; PITANGUI-PJ-02PJ 14.790,66 5.916,26 0,00 0,00 6.902,31 0,00 27.609,23 2.277,76 6.096,79 0,00 8.374,55 19.234,68 1.550,00 1.271,07 30/04/2020
1050 387300 GEOFFREY GIULLIANO OLIVEIRA ALMEIDA ANALISTA DO MP ATIVO BOCAIÚVA - COMARCA; BOCAIUVA-PJ-02PJ 10.069,62 2.013,92 0,00 0,00 0,00 0,00 12.083,54 1.329,19 2.088,09 0,00 3.417,28 8.666,26 1.550,00 550,48 30/04/2020
1051 277700 GEORGIA CRISTINA DE ALMEIDA ANALISTA DO MP ATIVO BELO HORIZONTE - COMARCA; SERVICO MEDICO-DEPTO PERIC MEDICA SAUDE OCUP 16.750,82 5.025,25 0,00 0,00 0,00 0,00 21.776,07 2.395,37 4.673,16 0,00 7.068,53 14.707,54 7.511,99 3.921,53 30/04/2020
1052 618000 GEOVANE BUENO MARTINS GUERRA ANALISTA DO MP ATIVO BELO HORIZONTE - COMARCA; CAO-SAUDE 7.421,79 742,18 0,00 0,00 0,00 0,00 8.163,97 898,04 1.128,77 0,00 2.026,81 6.137,16 1.550,00 915,47 30/04/2020
1053 605200 GEOVANI PREZOTI TONUSSI ANALISTA DO MP ATIVO SANTOS DUMONT - COMARCA; SANTOS DUMONT-PJ-03PJ 8.436,53 843,65 0,00 0,00 0,00 0,00 9.280,18 1.020,82 1.401,96 0,00 2.422,78 6.857,40 1.550,00 599,96 30/04/2020
1054 512100 GEOVANI VICENTIN ANALISTA DO MP ATIVO SANTA RITA DE CALDAS - COMARCA; SANTA RITA DE CALDAS-PJ-UNPJ 10.069,62 1.006,96 0,00 0,00 0,00 0,00 11.076,58 1.218,42 1.841,63 0,00 3.060,05 8.016,53 2.319,39 544,22 30/04/2020
1055 116300 GEOVANNA DAS GRACAS ROSA REQUEIJO AGENTE DO MP ATIVO SANTA LUZIA - COMARCA; SANTA LUZIA-PJ-01PJ 18.820,14 9.410,07 0,00 0,00 0,00 0,00 28.230,21 3.105,32 5.935,71 0,00 9.041,03 19.189,18 7.485,06 1.803,67 30/04/2020
1056 274901 GERALDO ANDRE DE OLIVEIRA ANALISTA DO MP ATIVO CONTAGEM - COMARCA; CONTAGEM-PJ-18PJ 9.444,70 2.833,41 0,00 0,00 0,00 0,00 12.278,11 1.350,59 2.135,71 0,00 3.486,30 8.791,81 2.319,39 840,18 30/04/2020
1057 270900 GERALDO BATISTA BRITES OFICIAL DO MP ATIVO BOM DESPACHO - COMARCA; BOM DESPACHO-PJ-02PJ 10.069,62 4.027,85 0,00 0,00 0,00 0,00 14.097,47 1.550,72 2.476,72 0,00 4.027,44 10.070,03 1.550,00 945,50 30/04/2020
1058 204200 GERALDO CELIO ARAUJO SOARES OFICIAL DO MP ATIVO GOVERNADOR VALADARES - COMARCA; GOVERNADOR VALADARES-PJ-04PJ 14.790,66 5.916,26 0,00 0,00 0,00 0,00 20.706,92 2.277,76 4.146,52 0,00 6.424,28 14.282,64 5.008,44 1.672,55 30/04/2020
1059 66900 GERALDO DIAS CYRINO OFICIAL DO MP ATIVO BELO HORIZONTE - COMARCA; DIVISAO DE ATENDIMENTO E CONSULTA JURIDICA 18.820,14 15.056,11 0,00 0,00 0,00 3.726,39 37.602,64 3.726,39 8.446,61 0,00 12.173,00 25.429,64 6.970,20 496,85 30/04/2020
1060 366500 GERALDO LEVY ROMUALDO DA SILVA OFICIAL DO MP ATIVO RIO POMBA - COMARCA; RIO POMBA-PJ-SECRETARIA 6.123,79 1.224,76 0,00 0,00 0,00 0,00 7.348,55 808,34 877,06 0,00 1.685,40 5.663,15 1.550,00 334,78 30/04/2020
1061 124400 GERALDO MAURICIO DE FARIA ROCHA OFICIAL DO MP ATIVO BELO HORIZONTE - COMARCA; BH-13ª PJ JUÍZO DE TÓXICOS-SECRETARIA 10.069,62 8.055,70 0,00 0,00 0,00 0,00 18.125,32 1.993,79 3.566,81 0,00 5.560,60 12.564,72 1.550,00 825,74 30/04/2020
1062 472800 GERALDO MONTEIRO CAMARGO JUNIOR ANALISTA DO MP ATIVO ESPINOSA - COMARCA; ESPINOSA-PJ-UNPJ 10.069,62 3.020,89 0,00 0,00 0,00 0,00 13.090,51 1.439,96 2.282,40 0,00 3.722,36 9.368,15 2.319,39 1.191,18 30/04/2020
1063 124500 GERALDO ROGERIO GOMES SILVEIRA ASSESSOR/OFICIAL ATIVO BELO HORIZONTE - COMARCA; SUPERINTENDENCIA DE RECURSOS HUMANOS 16.112,82 19.029,15 0,00 0,00 0,00 3.367,58 38.509,55 3.367,58 8.794,68 857,44 13.019,70 25.489,85 7.734,97 2.993,76 30/04/2020
1064 445900 GERALDO TAVARES FERREIRA ANALISTA DO MP ATIVO DIVINÓPOLIS - COMARCA; DIVINOPOLIS-PJ-08PJ 10.069,62 2.013,92 0,00 0,00 0,00 0,00 12.083,54 1.329,19 2.088,09 0,00 3.417,28 8.666,26 1.561,34 504,62 30/04/2020
1065 521000 GERALDO VINICIUS IRENO ANALISTA DO MP ATIVO CURVELO - COMARCA; CURVELO-PJ-01PJ 10.069,62 1.006,96 0,00 0,00 0,00 0,00 11.076,58 1.218,42 1.789,50 0,00 3.007,92 8.068,66 2.319,39 1.296,07 30/04/2020
1066 325400 GERSONI FERREIRA LUCENA OFICIAL DO MP ATIVO POÇOS DE CALDAS - COMARCA; POCOS DE CALDAS-PJ-01PJ 9.444,70 1.888,94 0,00 0,00 0,00 0,00 11.333,64 1.246,70 2.145,59 0,00 3.392,29 7.941,35 1.550,00 2.837,77 30/04/2020
1067 445600 GERUSA E SILVA CASTRO LOPEZ ANALISTA DO MP ATIVO BELO HORIZONTE - COMARCA; CAO-CRIM EXEC PENAL TRIB JURI AUD MILITAR 10.069,62 2.013,92 0,00 0,00 0,00 0,00 12.083,54 1.329,19 2.088,09 0,00 3.417,28 8.666,26 2.319,39 504,62 30/04/2020
1068 468600 GILDA MARIA SANTOS DE FILIPPO ANDRADE OFICIAL DO MP ATIVO UBÁ - COMARCA; COORD REG BACIA DO RIO PARAIBA DO SUL 7.421,79 742,18 0,00 0,00 0,00 0,00 8.163,97 898,04 1.076,63 0,00 1.974,67 6.189,30 3.088,78 971,29 30/04/2020
1069 508300 GILMAR ALVES FERREIRA OFICIAL DO MP ATIVO BELO HORIZONTE - COMARCA; GAECO - SECRETARIA 7.421,79 742,18 0,00 0,00 0,00 0,00 8.163,97 898,04 1.128,77 0,00 2.026,81 6.137,16 1.550,00 944,68 30/04/2020
1070 455400 GILMAR DIAS NASCIMENTO OFICIAL DO MP ATIVO SÃO FRANCISCO - COMARCA; SAO FRANCISCO-PJ-01PJ 6.123,79 612,38 0,00 0,00 0,00 0,00 6.736,17 740,98 675,04 0,00 1.416,02 5.320,15 2.319,39 783,80 30/04/2020
1071 213000 GILMAR JOSE DA SILVA OFICIAL DO MP ATIVO DIVINÓPOLIS - COMARCA; DIVINOPOLIS-PJ-SECRETARIA 14.790,66 5.916,26 0,00 0,00 0,00 0,00 20.706,92 2.277,76 4.094,38 0,00 6.372,14 14.334,78 5.739,79 1.574,77 30/04/2020
1072 630800 GILMARA CARDOSO ANALISTA DO MP ATIVO NOVA SERRANA - COMARCA; NOVA SERRANA-PJ-04PJ 8.170,49 817,05 0,00 0,00 0,00 0,00 8.987,54 988,63 1.330,34 0,00 2.318,97 6.668,57 1.550,00 1.067,12 30/04/2020
1073 652100 GILSON DA CUNHA COSTA OFICIAL DO MP ATIVO NOVA LIMA - COMARCA; NOVA LIMA-PJ-SECRETARIA 4.238,09 254,29 0,00 0,00 0,00 0,00 4.4